Wetterdaten: Montag, 01.05.2017
Datum Zeit Temp. A. Temp. A. max Feuchte A. Luftdruck Regen Wind Richtung Richtung Sonnenschein ET UV Solar Taupunkt Windchill Windböen
01.05.2017 00:00 4,3 °C 4,4 °C 82 % 1007,0 hPa 0,0 mm 6,0 km/h (2 Bft) S 180 ° 0 min 0,000 mm 0,0 UV-I 0 W/m² 1,5 °C 2,9 °C 6,4 km/h (2 Bft)
01.05.2017 00:01 4,3 °C 4,3 °C 82 % 1006,9 hPa 0,0 mm 4,6 km/h (1 Bft) S 180 ° 0 min 0,000 mm 0,0 UV-I 0 W/m² 1,5 °C 3,5 °C 6,4 km/h (2 Bft)
01.05.2017 00:03 4,2 °C 4,3 °C 83 % 1006,9 hPa 0,0 mm 3,7 km/h (1 Bft) S 179 ° 0 min 0,000 mm 0,0 UV-I 0 W/m² 1,6 °C 4,2 °C 6,4 km/h (2 Bft)
01.05.2017 00:04 4,1 °C 4,2 °C 83 % 1006,9 hPa 0,0 mm 3,6 km/h (1 Bft) S 179 ° 0 min 0,000 mm 0,0 UV-I 0 W/m² 1,5 °C 4,1 °C 4,8 km/h (1 Bft)
01.05.2017 00:05 4,0 °C 4,1 °C 83 % 1006,9 hPa 0,0 mm 4,7 km/h (1 Bft) S 188 ° 0 min 0,000 mm 0,0 UV-I 0 W/m² 1,4 °C 3,1 °C 8,0 km/h (2 Bft)
01.05.2017 00:06 4,0 °C 4,0 °C 84 % 1006,9 hPa 0,0 mm 3,6 km/h (1 Bft) S 188 ° 0 min 0,000 mm 0,0 UV-I 0 W/m² 1,5 °C 4,0 °C 6,4 km/h (2 Bft)
01.05.2017 00:07 4,1 °C 4,1 °C 84 % 1007,0 hPa 0,0 mm 4,7 km/h (1 Bft) S 186 ° 0 min 0,000 mm 0,0 UV-I 0 W/m² 1,6 °C 3,2 °C 8,0 km/h (2 Bft)
01.05.2017 00:08 4,0 °C 4,1 °C 83 % 1007,0 hPa 0,0 mm 5,4 km/h (1 Bft) S-SW 201 ° 0 min 0,000 mm 0,0 UV-I 0 W/m² 1,4 °C 2,8 °C 6,4 km/h (2 Bft)
01.05.2017 00:09 4,0 °C 4,1 °C 83 % 1007,0 hPa 0,0 mm 3,2 km/h (1 Bft) S-SW 199 ° 0 min 0,000 mm 0,0 UV-I 0 W/m² 1,4 °C 4,0 °C 6,4 km/h (2 Bft)
01.05.2017 00:10 4,0 °C 4,0 °C 84 % 1007,0 hPa 0,0 mm 3,6 km/h (1 Bft) S-SW 199 ° 0 min 0,000 mm 0,0 UV-I 0 W/m² 1,5 °C 4,0 °C 4,8 km/h (1 Bft)
01.05.2017 00:11 4,1 °C 4,1 °C 84 % 1007,0 hPa 0,0 mm 2,9 km/h (1 Bft) S-SW 199 ° 0 min 0,000 mm 0,0 UV-I 0 W/m² 1,6 °C 4,1 °C 6,4 km/h (2 Bft)
01.05.2017 00:12 4,1 °C 4,1 °C 83 % 1007,0 hPa 0,0 mm 3,6 km/h (1 Bft) S-SW 199 ° 0 min 0,000 mm 0,0 UV-I 0 W/m² 1,5 °C 4,1 °C 4,8 km/h (1 Bft)
01.05.2017 00:13 4,1 °C 4,1 °C 83 % 1006,9 hPa 0,0 mm 4,9 km/h (1 Bft) S-SW 200 ° 0 min 0,000 mm 0,0 UV-I 0 W/m² 1,5 °C 3,1 °C 8,0 km/h (2 Bft)
01.05.2017 00:14 4,0 °C 4,1 °C 83 % 1006,8 hPa 0,0 mm 5,6 km/h (1 Bft) S 181 ° 0 min 0,000 mm 0,0 UV-I 0 W/m² 1,4 °C 2,7 °C 6,4 km/h (2 Bft)
01.05.2017 00:15 4,0 °C 4,1 °C 83 % 1006,8 hPa 0,0 mm 6,2 km/h (2 Bft) S 181 ° 0 min 0,000 mm 0,0 UV-I 0 W/m² 1,4 °C 2,5 °C 8,0 km/h (2 Bft)
01.05.2017 00:16 4,0 °C 4,0 °C 83 % 1006,8 hPa 0,0 mm 6,8 km/h (2 Bft) S 188 ° 0 min 0,000 mm 0,0 UV-I 0 W/m² 1,4 °C 2,3 °C 8,0 km/h (2 Bft)
01.05.2017 00:17 3,9 °C 4,0 °C 83 % 1006,8 hPa 0,0 mm 5,1 km/h (1 Bft) S 188 ° 0 min 0,000 mm 0,0 UV-I 0 W/m² 1,3 °C 2,8 °C 6,4 km/h (2 Bft)
01.05.2017 00:18 3,9 °C 3,9 °C 83 % 1006,8 hPa 0,0 mm 6,9 km/h (2 Bft) S 191 ° 0 min 0,000 mm 0,0 UV-I 0 W/m² 1,3 °C 2,2 °C 9,7 km/h (2 Bft)
01.05.2017 00:19 3,8 °C 3,9 °C 82 % 1006,8 hPa 0,0 mm 8,4 km/h (2 Bft) S 191 ° 0 min 0,000 mm 0,0 UV-I 0 W/m² 1,0 °C 1,6 °C 11,3 km/h (2 Bft)
01.05.2017 00:20 3,7 °C 3,8 °C 83 % 1006,8 hPa 0,0 mm 8,2 km/h (2 Bft) S-SW 195 ° 0 min 0,000 mm 0,0 UV-I 0 W/m² 1,1 °C 1,6 °C 11,3 km/h (2 Bft)
01.05.2017 00:21 3,7 °C 3,7 °C 83 % 1006,8 hPa 0,0 mm 4,9 km/h (1 Bft) S-SW 193 ° 0 min 0,000 mm 0,0 UV-I 0 W/m² 1,1 °C 2,6 °C 6,4 km/h (2 Bft)
01.05.2017 00:22 3,7 °C 3,7 °C 83 % 1006,8 hPa 0,0 mm 2,4 km/h (1 Bft) S-SW 193 ° 0 min 0,000 mm 0,0 UV-I 0 W/m² 1,1 °C 3,7 °C 4,8 km/h (1 Bft)
01.05.2017 00:23 3,7 °C 3,7 °C 83 % 1006,8 hPa 0,0 mm 2,8 km/h (1 Bft) S-SW 192 ° 0 min 0,000 mm 0,0 UV-I 0 W/m² 1,1 °C 3,7 °C 4,8 km/h (1 Bft)
01.05.2017 00:24 3,8 °C 3,8 °C 83 % 1006,8 hPa 0,0 mm 3,5 km/h (1 Bft) S-SW 192 ° 0 min 0,000 mm 0,0 UV-I 0 W/m² 1,2 °C 3,8 °C 4,8 km/h (1 Bft)
01.05.2017 00:25 3,8 °C 3,8 °C 83 % 1006,8 hPa 0,0 mm 2,5 km/h (1 Bft) S-SW 192 ° 0 min 0,000 mm 0,0 UV-I 0 W/m² 1,2 °C 3,8 °C 4,8 km/h (1 Bft)
01.05.2017 00:26 3,7 °C 3,8 °C 83 % 1006,8 hPa 0,0 mm 2,5 km/h (1 Bft) S 191 ° 0 min 0,000 mm 0,0 UV-I 0 W/m² 1,1 °C 3,7 °C 4,8 km/h (1 Bft)
01.05.2017 00:27 3,7 °C 3,7 °C 84 % 1006,7 hPa 0,0 mm 2,5 km/h (1 Bft) S 190 ° 0 min 0,000 mm 0,0 UV-I 0 W/m² 1,3 °C 3,7 °C 4,8 km/h (1 Bft)
01.05.2017 00:28 3,6 °C 3,7 °C 84 % 1006,7 hPa 0,0 mm 3,4 km/h (1 Bft) S 190 ° 0 min 0,000 mm 0,0 UV-I 0 W/m² 1,2 °C 3,6 °C 4,8 km/h (1 Bft)
01.05.2017 00:29 3,6 °C 3,6 °C 84 % 1006,7 hPa 0,0 mm 4,6 km/h (1 Bft) S 190 ° 0 min 0,000 mm 0,0 UV-I 0 W/m² 1,2 °C 2,7 °C 6,4 km/h (2 Bft)
01.05.2017 00:30 3,6 °C 3,6 °C 84 % 1006,7 hPa 0,0 mm 4,5 km/h (1 Bft) S 190 ° 0 min 0,000 mm 0,0 UV-I 0 W/m² 1,2 °C 3,6 °C 6,4 km/h (2 Bft)
01.05.2017 00:31 3,5 °C 3,6 °C 84 % 1006,7 hPa 0,0 mm 3,4 km/h (1 Bft) S 188 ° 0 min 0,000 mm 0,0 UV-I 0 W/m² 1,1 °C 3,5 °C 4,8 km/h (1 Bft)
01.05.2017 00:32 3,5 °C 3,5 °C 85 % 1006,7 hPa 0,0 mm 2,6 km/h (1 Bft) S 188 ° 0 min 0,000 mm 0,0 UV-I 0 W/m² 1,2 °C 3,5 °C 3,2 km/h (1 Bft)
01.05.2017 00:33 3,4 °C 3,5 °C 85 % 1006,7 hPa 0,0 mm 3,4 km/h (1 Bft) S 188 ° 0 min 0,000 mm 0,0 UV-I 0 W/m² 1,1 °C 3,4 °C 4,8 km/h (1 Bft)
01.05.2017 00:34 3,3 °C 3,4 °C 84 % 1006,7 hPa 0,0 mm 3,0 km/h (1 Bft) S 188 ° 0 min 0,000 mm 0,0 UV-I 0 W/m² 0,9 °C 3,3 °C 3,2 km/h (1 Bft)
01.05.2017 00:35 3,3 °C 3,3 °C 84 % 1006,7 hPa 0,0 mm 1,7 km/h (1 Bft) S 188 ° 0 min 0,000 mm 0,0 UV-I 0 W/m² 0,9 °C 3,3 °C 3,2 km/h (1 Bft)
01.05.2017 00:36 3,3 °C 3,3 °C 85 % 1006,7 hPa 0,0 mm 1,4 km/h (1 Bft) S 188 ° 0 min 0,000 mm 0,0 UV-I 0 W/m² 1,0 °C 3,3 °C 3,2 km/h (1 Bft)
01.05.2017 00:37 3,3 °C 3,3 °C 85 % 1006,7 hPa 0,0 mm 2,0 km/h (1 Bft) S 188 ° 0 min 0,000 mm 0,0 UV-I 0 W/m² 1,0 °C 3,3 °C 3,2 km/h (1 Bft)
01.05.2017 00:38 3,3 °C 3,3 °C 85 % 1006,7 hPa 0,0 mm 3,8 km/h (1 Bft) S 188 ° 0 min 0,000 mm 0,0 UV-I 0 W/m² 1,0 °C 3,3 °C 4,8 km/h (1 Bft)
01.05.2017 00:39 3,3 °C 3,3 °C 84 % 1006,7 hPa 0,0 mm 3,2 km/h (1 Bft) S 188 ° 0 min 0,000 mm 0,0 UV-I 0 W/m² 0,9 °C 3,3 °C 4,8 km/h (1 Bft)
01.05.2017 00:40 3,3 °C 3,3 °C 84 % 1006,7 hPa 0,0 mm 3,0 km/h (1 Bft) S 188 ° 0 min 0,000 mm 0,0 UV-I 0 W/m² 0,9 °C 3,3 °C 4,8 km/h (1 Bft)
01.05.2017 00:41 3,2 °C 3,3 °C 85 % 1006,6 hPa 0,0 mm 0,3 km/h (0 Bft) S 188 ° 0 min 0,000 mm 0,0 UV-I 0 W/m² 0,9 °C 3,2 °C 1,6 km/h (1 Bft)
01.05.2017 00:42 3,2 °C 3,2 °C 85 % 1006,7 hPa 0,0 mm 0,0 km/h (0 Bft) S 188 ° 0 min 0,000 mm 0,0 UV-I 0 W/m² 0,9 °C 3,2 °C 0,0 km/h (0 Bft)
01.05.2017 00:43 3,1 °C 3,2 °C 85 % 1006,7 hPa 0,0 mm 0,1 km/h (0 Bft) S 188 ° 0 min 0,000 mm 0,0 UV-I 0 W/m² 0,8 °C 3,1 °C 1,6 km/h (1 Bft)
01.05.2017 00:44 3,1 °C 3,1 °C 85 % 1006,7 hPa 0,0 mm 0,0 km/h (0 Bft) S 188 ° 0 min 0,000 mm 0,0 UV-I 0 W/m² 0,8 °C 3,1 °C 0,0 km/h (0 Bft)
01.05.2017 00:45 2,9 °C 3,1 °C 85 % 1006,6 hPa 0,0 mm 0,0 km/h (0 Bft) S 188 ° 0 min 0,000 mm 0,0 UV-I 0 W/m² 0,6 °C 2,9 °C 0,0 km/h (0 Bft)
01.05.2017 00:46 2,9 °C 2,9 °C 86 % 1006,6 hPa 0,0 mm 0,4 km/h (0 Bft) S 188 ° 0 min 0,000 mm 0,0 UV-I 0 W/m² 0,8 °C 2,9 °C 1,6 km/h (1 Bft)
01.05.2017 00:47 2,9 °C 2,9 °C 86 % 1006,6 hPa 0,0 mm 0,9 km/h (0 Bft) S 188 ° 0 min 0,000 mm 0,0 UV-I 0 W/m² 0,8 °C 2,9 °C 1,6 km/h (1 Bft)
01.05.2017 00:48 2,9 °C 2,9 °C 86 % 1006,6 hPa 0,0 mm 0,0 km/h (0 Bft) S 188 ° 0 min 0,000 mm 0,0 UV-I 0 W/m² 0,8 °C 2,9 °C 0,0 km/h (0 Bft)
01.05.2017 00:49 2,9 °C 2,9 °C 86 % 1006,6 hPa 0,0 mm 0,0 km/h (0 Bft) S 188 ° 0 min 0,000 mm 0,0 UV-I 0 W/m² 0,8 °C 2,9 °C 0,0 km/h (0 Bft)
01.05.2017 00:50 2,9 °C 2,9 °C 86 % 1006,6 hPa 0,0 mm 0,0 km/h (0 Bft) S 188 ° 0 min 0,000 mm 0,0 UV-I 0 W/m² 0,8 °C 2,9 °C 0,0 km/h (0 Bft)
01.05.2017 00:51 2,9 °C 2,9 °C 87 % 1006,6 hPa 0,0 mm 0,3 km/h (0 Bft) S 188 ° 0 min 0,000 mm 0,0 UV-I 0 W/m² 1,0 °C 2,9 °C 1,6 km/h (1 Bft)
01.05.2017 00:52 2,9 °C 2,9 °C 87 % 1006,6 hPa 0,0 mm 2,3 km/h (1 Bft) S 188 ° 0 min 0,000 mm 0,0 UV-I 0 W/m² 1,0 °C 2,9 °C 3,2 km/h (1 Bft)
01.05.2017 00:53 2,9 °C 2,9 °C 87 % 1006,6 hPa 0,0 mm 1,9 km/h (1 Bft) S 188 ° 0 min 0,000 mm 0,0 UV-I 0 W/m² 1,0 °C 2,9 °C 3,2 km/h (1 Bft)
01.05.2017 00:54 3,0 °C 3,0 °C 87 % 1006,6 hPa 0,0 mm 1,5 km/h (1 Bft) S 188 ° 0 min 0,000 mm 0,0 UV-I 0 W/m² 1,1 °C 3,0 °C 3,2 km/h (1 Bft)
01.05.2017 00:55 3,0 °C 3,1 °C 87 % 1006,6 hPa 0,0 mm 1,0 km/h (0 Bft) S 188 ° 0 min 0,000 mm 0,0 UV-I 0 W/m² 1,1 °C 3,0 °C 1,6 km/h (1 Bft)
01.05.2017 00:56 3,1 °C 3,1 °C 87 % 1006,6 hPa 0,0 mm 0,1 km/h (0 Bft) S 188 ° 0 min 0,000 mm 0,0 UV-I 0 W/m² 1,2 °C 3,1 °C 1,6 km/h (1 Bft)
01.05.2017 00:57 3,1 °C 3,1 °C 86 % 1006,6 hPa 0,0 mm 0,0 km/h (0 Bft) S 188 ° 0 min 0,000 mm 0,0 UV-I 0 W/m² 1,0 °C 3,1 °C 0,0 km/h (0 Bft)
01.05.2017 00:58 3,0 °C 3,1 °C 85 % 1006,5 hPa 0,0 mm 0,0 km/h (0 Bft) S 188 ° 0 min 0,000 mm 0,0 UV-I 0 W/m² 0,7 °C 3,0 °C 0,0 km/h (0 Bft)
01.05.2017 00:59 2,9 °C 3,0 °C 85 % 1006,5 hPa 0,0 mm 0,0 km/h (0 Bft) S 188 ° 0 min 0,000 mm 0,0 UV-I 0 W/m² 0,6 °C 2,9 °C 0,0 km/h (0 Bft)
01.05.2017 01:00 2,8 °C 2,9 °C 86 % 1006,6 hPa 0,0 mm 0,0 km/h (0 Bft) S 188 ° 0 min 0,000 mm 0,0 UV-I 0 W/m² 0,7 °C 2,8 °C 0,0 km/h (0 Bft)
01.05.2017 01:01 2,7 °C 2,8 °C 86 % 1006,6 hPa 0,0 mm 0,0 km/h (0 Bft) S 188 ° 0 min 0,000 mm 0,0 UV-I 0 W/m² 0,6 °C 2,7 °C 0,0 km/h (0 Bft)
01.05.2017 01:02 2,7 °C 2,7 °C 87 % 1006,6 hPa 0,0 mm 2,5 km/h (1 Bft) S 188 ° 0 min 0,000 mm 0,0 UV-I 0 W/m² 0,8 °C 2,7 °C 3,2 km/h (1 Bft)
01.05.2017 01:03 2,7 °C 2,7 °C 87 % 1006,5 hPa 0,0 mm 2,1 km/h (1 Bft) S 188 ° 0 min 0,000 mm 0,0 UV-I 0 W/m² 0,8 °C 2,7 °C 3,2 km/h (1 Bft)
01.05.2017 01:04 2,8 °C 2,8 °C 87 % 1006,6 hPa 0,0 mm 2,9 km/h (1 Bft) S 188 ° 0 min 0,000 mm 0,0 UV-I 0 W/m² 0,9 °C 2,8 °C 4,8 km/h (1 Bft)
01.05.2017 01:05 2,9 °C 2,9 °C 87 % 1006,6 hPa 0,0 mm 0,0 km/h (0 Bft) S 188 ° 0 min 0,000 mm 0,0 UV-I 0 W/m² 1,0 °C 2,9 °C 0,0 km/h (0 Bft)
01.05.2017 01:06 2,9 °C 2,9 °C 87 % 1006,6 hPa 0,0 mm 0,0 km/h (0 Bft) S 188 ° 0 min 0,000 mm 0,0 UV-I 0 W/m² 1,0 °C 2,9 °C 0,0 km/h (0 Bft)
01.05.2017 01:07 2,9 °C 2,9 °C 86 % 1006,6 hPa 0,0 mm 0,0 km/h (0 Bft) S 188 ° 0 min 0,000 mm 0,0 UV-I 0 W/m² 0,8 °C 2,9 °C 0,0 km/h (0 Bft)
01.05.2017 01:08 2,8 °C 2,9 °C 86 % 1006,6 hPa 0,0 mm 0,0 km/h (0 Bft) S 188 ° 0 min 0,000 mm 0,0 UV-I 0 W/m² 0,7 °C 2,8 °C 0,0 km/h (0 Bft)
01.05.2017 01:09 2,8 °C 2,8 °C 86 % 1006,6 hPa 0,0 mm 0,1 km/h (0 Bft) S 188 ° 0 min 0,000 mm 0,0 UV-I 0 W/m² 0,7 °C 2,8 °C 1,6 km/h (1 Bft)
01.05.2017 01:10 2,7 °C 2,8 °C 87 % 1006,6 hPa 0,0 mm 0,0 km/h (0 Bft) S 188 ° 0 min 0,000 mm 0,0 UV-I 0 W/m² 0,8 °C 2,7 °C 0,0 km/h (0 Bft)
01.05.2017 01:11 2,7 °C 2,7 °C 87 % 1006,6 hPa 0,0 mm 1,4 km/h (1 Bft) S 188 ° 0 min 0,000 mm 0,0 UV-I 0 W/m² 0,8 °C 2,7 °C 3,2 km/h (1 Bft)
01.05.2017 01:12 2,7 °C 2,7 °C 88 % 1006,6 hPa 0,0 mm 1,5 km/h (1 Bft) S 188 ° 0 min 0,000 mm 0,0 UV-I 0 W/m² 0,9 °C 2,7 °C 3,2 km/h (1 Bft)
01.05.2017 01:13 2,7 °C 2,7 °C 87 % 1006,6 hPa 0,0 mm 0,6 km/h (0 Bft) S 188 ° 0 min 0,000 mm 0,0 UV-I 0 W/m² 0,8 °C 2,7 °C 1,6 km/h (1 Bft)
01.05.2017 01:14 2,6 °C 2,7 °C 87 % 1006,6 hPa 0,0 mm 0,5 km/h (0 Bft) S 188 ° 0 min 0,000 mm 0,0 UV-I 0 W/m² 0,7 °C 2,6 °C 1,6 km/h (1 Bft)
01.05.2017 01:15 2,6 °C 2,6 °C 87 % 1006,6 hPa 0,0 mm 0,1 km/h (0 Bft) S 188 ° 0 min 0,000 mm 0,0 UV-I 0 W/m² 0,7 °C 2,6 °C 1,6 km/h (1 Bft)
01.05.2017 01:16 2,6 °C 2,6 °C 87 % 1006,6 hPa 0,0 mm 0,0 km/h (0 Bft) S 188 ° 0 min 0,000 mm 0,0 UV-I 0 W/m² 0,7 °C 2,6 °C 0,0 km/h (0 Bft)
01.05.2017 01:17 2,6 °C 2,6 °C 88 % 1006,6 hPa 0,0 mm 0,0 km/h (0 Bft) S 188 ° 0 min 0,000 mm 0,0 UV-I 0 W/m² 0,8 °C 2,6 °C 0,0 km/h (0 Bft)
01.05.2017 01:18 2,6 °C 2,6 °C 88 % 1006,5 hPa 0,0 mm 0,0 km/h (0 Bft) S 188 ° 0 min 0,000 mm 0,0 UV-I 0 W/m² 0,8 °C 2,6 °C 0,0 km/h (0 Bft)
01.05.2017 01:19 2,7 °C 2,7 °C 88 % 1006,5 hPa 0,0 mm 0,9 km/h (0 Bft) S 188 ° 0 min 0,000 mm 0,0 UV-I 0 W/m² 0,9 °C 2,7 °C 3,2 km/h (1 Bft)
01.05.2017 01:20 2,7 °C 2,7 °C 88 % 1006,5 hPa 0,0 mm 0,8 km/h (0 Bft) S 188 ° 0 min 0,000 mm 0,0 UV-I 0 W/m² 0,9 °C 2,7 °C 3,2 km/h (1 Bft)
01.05.2017 01:21 2,7 °C 2,7 °C 88 % 1006,5 hPa 0,0 mm 0,0 km/h (0 Bft) S 188 ° 0 min 0,000 mm 0,0 UV-I 0 W/m² 0,9 °C 2,7 °C 0,0 km/h (0 Bft)
01.05.2017 01:22 2,7 °C 2,7 °C 87 % 1006,5 hPa 0,0 mm 0,7 km/h (0 Bft) S 188 ° 0 min 0,000 mm 0,0 UV-I 0 W/m² 0,8 °C 2,7 °C 1,6 km/h (1 Bft)
01.05.2017 01:23 2,7 °C 2,7 °C 87 % 1006,6 hPa 0,0 mm 2,7 km/h (1 Bft) S 188 ° 0 min 0,000 mm 0,0 UV-I 0 W/m² 0,8 °C 2,7 °C 3,2 km/h (1 Bft)
01.05.2017 01:24 2,7 °C 2,8 °C 87 % 1006,6 hPa 0,0 mm 3,5 km/h (1 Bft) S 188 ° 0 min 0,000 mm 0,0 UV-I 0 W/m² 0,8 °C 2,7 °C 4,8 km/h (1 Bft)
01.05.2017 01:25 2,7 °C 2,7 °C 86 % 1006,6 hPa 0,0 mm 4,6 km/h (1 Bft) S 188 ° 0 min 0,000 mm 0,0 UV-I 0 W/m² 0,6 °C 1,7 °C 4,8 km/h (1 Bft)
01.05.2017 01:26 2,7 °C 2,7 °C 86 % 1006,6 hPa 0,0 mm 4,4 km/h (1 Bft) S 188 ° 0 min 0,000 mm 0,0 UV-I 0 W/m² 0,6 °C 2,7 °C 6,4 km/h (2 Bft)
01.05.2017 01:27 2,7 °C 2,7 °C 87 % 1006,5 hPa 0,0 mm 5,4 km/h (1 Bft) S 188 ° 0 min 0,000 mm 0,0 UV-I 0 W/m² 0,8 °C 1,3 °C 6,4 km/h (2 Bft)
01.05.2017 01:28 2,8 °C 2,8 °C 86 % 1006,5 hPa 0,0 mm 4,4 km/h (1 Bft) S 188 ° 0 min 0,000 mm 0,0 UV-I 0 W/m² 0,7 °C 2,8 °C 6,4 km/h (2 Bft)
01.05.2017 01:29 2,8 °C 2,8 °C 86 % 1006,5 hPa 0,0 mm 0,0 km/h (0 Bft) S 188 ° 0 min 0,000 mm 0,0 UV-I 0 W/m² 0,7 °C 2,8 °C 0,0 km/h (0 Bft)
01.05.2017 01:30 2,8 °C 2,8 °C 86 % 1006,5 hPa 0,0 mm 1,9 km/h (1 Bft) S 188 ° 0 min 0,000 mm 0,0 UV-I 0 W/m² 0,7 °C 2,8 °C 3,2 km/h (1 Bft)
01.05.2017 01:31 2,8 °C 2,9 °C 86 % 1006,5 hPa 0,0 mm 1,7 km/h (1 Bft) S 188 ° 0 min 0,000 mm 0,0 UV-I 0 W/m² 0,7 °C 2,8 °C 3,2 km/h (1 Bft)
01.05.2017 01:32 2,7 °C 2,8 °C 85 % 1006,5 hPa 0,0 mm 1,3 km/h (1 Bft) S 188 ° 0 min 0,000 mm 0,0 UV-I 0 W/m² 0,4 °C 2,7 °C 1,6 km/h (1 Bft)
01.05.2017 01:33 2,7 °C 2,7 °C 86 % 1006,5 hPa 0,0 mm 3,2 km/h (1 Bft) S 188 ° 0 min 0,000 mm 0,0 UV-I 0 W/m² 0,6 °C 2,7 °C 4,8 km/h (1 Bft)
01.05.2017 01:34 2,6 °C 2,7 °C 86 % 1006,4 hPa 0,0 mm 1,2 km/h (1 Bft) S 188 ° 0 min 0,000 mm 0,0 UV-I 0 W/m² 0,5 °C 2,6 °C 3,2 km/h (1 Bft)
01.05.2017 01:35 2,6 °C 2,6 °C 86 % 1006,5 hPa 0,0 mm 1,1 km/h (1 Bft) S 188 ° 0 min 0,000 mm 0,0 UV-I 0 W/m² 0,5 °C 2,6 °C 3,2 km/h (1 Bft)
01.05.2017 01:36 2,6 °C 2,6 °C 87 % 1006,5 hPa 0,0 mm 0,0 km/h (0 Bft) S 188 ° 0 min 0,000 mm 0,0 UV-I 0 W/m² 0,7 °C 2,6 °C 0,0 km/h (0 Bft)
01.05.2017 01:37 2,6 °C 2,6 °C 86 % 1006,5 hPa 0,0 mm 0,0 km/h (0 Bft) S 188 ° 0 min 0,000 mm 0,0 UV-I 0 W/m² 0,5 °C 2,6 °C 0,0 km/h (0 Bft)
01.05.2017 01:38 2,5 °C 2,6 °C 86 % 1006,5 hPa 0,0 mm 0,1 km/h (0 Bft) S 188 ° 0 min 0,000 mm 0,0 UV-I 0 W/m² 0,4 °C 2,5 °C 1,6 km/h (1 Bft)
01.05.2017 01:39 2,4 °C 2,5 °C 86 % 1006,5 hPa 0,0 mm 3,6 km/h (1 Bft) S 188 ° 0 min 0,000 mm 0,0 UV-I 0 W/m² 0,3 °C 2,4 °C 4,8 km/h (1 Bft)
01.05.2017 01:40 2,4 °C 2,4 °C 87 % 1006,5 hPa 0,0 mm 4,6 km/h (1 Bft) S 189 ° 0 min 0,000 mm 0,0 UV-I 0 W/m² 0,5 °C 1,3 °C 6,4 km/h (2 Bft)
01.05.2017 01:41 2,4 °C 2,4 °C 87 % 1006,5 hPa 0,0 mm 1,9 km/h (1 Bft) S 189 ° 0 min 0,000 mm 0,0 UV-I 0 W/m² 0,5 °C 2,4 °C 3,2 km/h (1 Bft)
01.05.2017 01:42 2,3 °C 2,4 °C 87 % 1006,5 hPa 0,0 mm 0,3 km/h (0 Bft) S 189 ° 0 min 0,000 mm 0,0 UV-I 0 W/m² 0,4 °C 2,3 °C 1,6 km/h (1 Bft)
01.05.2017 01:43 2,3 °C 2,3 °C 86 % 1006,5 hPa 0,0 mm 0,2 km/h (0 Bft) S 189 ° 0 min 0,000 mm 0,0 UV-I 0 W/m² 0,2 °C 2,3 °C 1,6 km/h (1 Bft)
01.05.2017 01:44 2,2 °C 2,3 °C 87 % 1006,5 hPa 0,0 mm 0,0 km/h (0 Bft) S 189 ° 0 min 0,000 mm 0,0 UV-I 0 W/m² 0,3 °C 2,2 °C 0,0 km/h (0 Bft)
01.05.2017 01:45 2,2 °C 2,2 °C 87 % 1006,5 hPa 0,0 mm 1,0 km/h (0 Bft) S 189 ° 0 min 0,000 mm 0,0 UV-I 0 W/m² 0,3 °C 2,2 °C 3,2 km/h (1 Bft)
01.05.2017 01:46 2,2 °C 2,2 °C 87 % 1006,5 hPa 0,0 mm 2,1 km/h (1 Bft) S 189 ° 0 min 0,000 mm 0,0 UV-I 0 W/m² 0,3 °C 2,2 °C 3,2 km/h (1 Bft)
01.05.2017 01:47 2,1 °C 2,2 °C 87 % 1006,5 hPa 0,0 mm 1,0 km/h (0 Bft) S 189 ° 0 min 0,000 mm 0,0 UV-I 0 W/m² 0,2 °C 2,1 °C 3,2 km/h (1 Bft)
01.05.2017 01:48 2,1 °C 2,2 °C 87 % 1006,5 hPa 0,0 mm 1,6 km/h (1 Bft) S 189 ° 0 min 0,000 mm 0,0 UV-I 0 W/m² 0,2 °C 2,1 °C 3,2 km/h (1 Bft)
01.05.2017 01:49 2,2 °C 2,2 °C 87 % 1006,4 hPa 0,0 mm 1,6 km/h (1 Bft) S 189 ° 0 min 0,000 mm 0,0 UV-I 0 W/m² 0,3 °C 2,2 °C 3,2 km/h (1 Bft)
01.05.2017 01:50 2,1 °C 2,2 °C 87 % 1006,4 hPa 0,0 mm 1,3 km/h (1 Bft) S 189 ° 0 min 0,000 mm 0,0 UV-I 0 W/m² 0,2 °C 2,1 °C 3,2 km/h (1 Bft)
01.05.2017 01:51 2,2 °C 2,2 °C 88 % 1006,5 hPa 0,0 mm 2,6 km/h (1 Bft) S 189 ° 0 min 0,000 mm 0,0 UV-I 0 W/m² 0,4 °C 2,2 °C 4,8 km/h (1 Bft)
01.05.2017 01:52 2,1 °C 2,2 °C 87 % 1006,5 hPa 0,0 mm 1,8 km/h (1 Bft) S 189 ° 0 min 0,000 mm 0,0 UV-I 0 W/m² 0,2 °C 2,1 °C 3,2 km/h (1 Bft)
01.05.2017 01:53 2,1 °C 2,1 °C 87 % 1006,5 hPa 0,0 mm 0,6 km/h (0 Bft) S 189 ° 0 min 0,000 mm 0,0 UV-I 0 W/m² 0,2 °C 2,1 °C 1,6 km/h (1 Bft)
01.05.2017 01:54 2,2 °C 2,2 °C 87 % 1006,5 hPa 0,0 mm 0,3 km/h (0 Bft) S 189 ° 0 min 0,000 mm 0,0 UV-I 0 W/m² 0,3 °C 2,2 °C 1,6 km/h (1 Bft)
01.05.2017 01:55 2,2 °C 2,2 °C 87 % 1006,5 hPa 0,0 mm 1,7 km/h (1 Bft) S 189 ° 0 min 0,000 mm 0,0 UV-I 0 W/m² 0,3 °C 2,2 °C 3,2 km/h (1 Bft)
01.05.2017 01:56 2,1 °C 2,2 °C 87 % 1006,4 hPa 0,0 mm 0,0 km/h (0 Bft) S 189 ° 0 min 0,000 mm 0,0 UV-I 0 W/m² 0,2 °C 2,1 °C 0,0 km/h (0 Bft)
01.05.2017 01:57 1,9 °C 2,1 °C 86 % 1006,4 hPa 0,0 mm 0,0 km/h (0 Bft) S 189 ° 0 min 0,000 mm 0,0 UV-I 0 W/m² -0,2 °C 1,9 °C 0,0 km/h (0 Bft)
01.05.2017 01:58 1,8 °C 1,9 °C 87 % 1006,4 hPa 0,0 mm 0,0 km/h (0 Bft) S 189 ° 0 min 0,000 mm 0,0 UV-I 0 W/m² -0,1 °C 1,8 °C 0,0 km/h (0 Bft)
01.05.2017 01:59 1,8 °C 1,8 °C 88 % 1006,4 hPa 0,0 mm 0,0 km/h (0 Bft) S 189 ° 0 min 0,000 mm 0,0 UV-I 0 W/m² 0,0 °C 1,8 °C 0,0 km/h (0 Bft)
01.05.2017 02:00 1,7 °C 1,8 °C 88 % 1006,4 hPa 0,0 mm 0,0 km/h (0 Bft) S 189 ° 0 min 0,000 mm 0,0 UV-I 0 W/m² -0,1 °C 1,7 °C 0,0 km/h (0 Bft)
01.05.2017 02:01 1,6 °C 1,7 °C 87 % 1006,4 hPa 0,0 mm 0,0 km/h (0 Bft) S 189 ° 0 min 0,000 mm 0,0 UV-I 0 W/m² -0,3 °C 1,6 °C 0,0 km/h (0 Bft)
01.05.2017 02:02 1,6 °C 1,6 °C 88 % 1006,4 hPa 0,0 mm 0,0 km/h (0 Bft) S 189 ° 0 min 0,000 mm 0,0 UV-I 0 W/m² -0,2 °C 1,6 °C 0,0 km/h (0 Bft)
01.05.2017 02:03 1,6 °C 1,6 °C 89 % 1006,3 hPa 0,0 mm 0,0 km/h (0 Bft) S 189 ° 0 min 0,000 mm 0,0 UV-I 0 W/m² -0,0 °C 1,6 °C 0,0 km/h (0 Bft)
01.05.2017 02:04 1,7 °C 1,7 °C 89 % 1006,4 hPa 0,0 mm 0,0 km/h (0 Bft) S 189 ° 0 min 0,000 mm 0,0 UV-I 0 W/m² 0,1 °C 1,7 °C 0,0 km/h (0 Bft)
01.05.2017 02:05 1,8 °C 1,8 °C 89 % 1006,4 hPa 0,0 mm 0,0 km/h (0 Bft) S 189 ° 0 min 0,000 mm 0,0 UV-I 0 W/m² 0,2 °C 1,8 °C 0,0 km/h (0 Bft)
01.05.2017 02:06 1,8 °C 1,8 °C 89 % 1006,3 hPa 0,0 mm 0,0 km/h (0 Bft) S 189 ° 0 min 0,000 mm 0,0 UV-I 0 W/m² 0,2 °C 1,8 °C 0,0 km/h (0 Bft)
01.05.2017 02:07 1,8 °C 1,8 °C 89 % 1006,3 hPa 0,0 mm 0,0 km/h (0 Bft) S 189 ° 0 min 0,000 mm 0,0 UV-I 0 W/m² 0,2 °C 1,8 °C 0,0 km/h (0 Bft)
01.05.2017 02:08 1,8 °C 1,8 °C 89 % 1006,3 hPa 0,0 mm 0,0 km/h (0 Bft) S 189 ° 0 min 0,000 mm 0,0 UV-I 0 W/m² 0,2 °C 1,8 °C 0,0 km/h (0 Bft)
01.05.2017 02:09 1,9 °C 1,9 °C 89 % 1006,3 hPa 0,0 mm 0,0 km/h (0 Bft) S 189 ° 0 min 0,000 mm 0,0 UV-I 0 W/m² 0,3 °C 1,9 °C 0,0 km/h (0 Bft)
01.05.2017 02:10 1,9 °C 1,9 °C 89 % 1006,3 hPa 0,0 mm 0,3 km/h (0 Bft) S 189 ° 0 min 0,000 mm 0,0 UV-I 0 W/m² 0,3 °C 1,9 °C 1,6 km/h (1 Bft)
01.05.2017 02:11 2,0 °C 2,0 °C 88 % 1006,3 hPa 0,0 mm 2,3 km/h (1 Bft) S 189 ° 0 min 0,000 mm 0,0 UV-I 0 W/m² 0,2 °C 2,0 °C 4,8 km/h (1 Bft)
01.05.2017 02:12 2,0 °C 2,0 °C 88 % 1006,3 hPa 0,0 mm 3,2 km/h (1 Bft) S 189 ° 0 min 0,000 mm 0,0 UV-I 0 W/m² 0,2 °C 2,0 °C 4,8 km/h (1 Bft)
01.05.2017 02:13 2,1 °C 2,1 °C 88 % 1006,3 hPa 0,0 mm 3,5 km/h (1 Bft) S 189 ° 0 min 0,000 mm 0,0 UV-I 0 W/m² 0,3 °C 2,1 °C 4,8 km/h (1 Bft)
01.05.2017 02:14 2,1 °C 2,1 °C 87 % 1006,3 hPa 0,0 mm 4,3 km/h (1 Bft) S 189 ° 0 min 0,000 mm 0,0 UV-I 0 W/m² 0,2 °C 2,1 °C 6,4 km/h (2 Bft)
01.05.2017 02:15 2,1 °C 2,1 °C 87 % 1006,3 hPa 0,0 mm 5,8 km/h (2 Bft) S-SW 192 ° 0 min 0,000 mm 0,0 UV-I 0 W/m² 0,2 °C 0,5 °C 6,4 km/h (2 Bft)
01.05.2017 02:16 1,9 °C 2,1 °C 87 % 1006,3 hPa 0,0 mm 6,0 km/h (2 Bft) S-SW 198 ° 0 min 0,000 mm 0,0 UV-I 0 W/m² -0,0 °C 0,2 °C 8,0 km/h (2 Bft)
01.05.2017 02:17 1,9 °C 1,9 °C 87 % 1006,2 hPa 0,0 mm 5,2 km/h (1 Bft) S-SW 198 ° 0 min 0,000 mm 0,0 UV-I 0 W/m² -0,0 °C 0,5 °C 8,0 km/h (2 Bft)
01.05.2017 02:18 1,9 °C 1,9 °C 87 % 1006,2 hPa 0,0 mm 4,6 km/h (1 Bft) S-SW 200 ° 0 min 0,000 mm 0,0 UV-I 0 W/m² -0,0 °C 0,7 °C 6,4 km/h (2 Bft)
01.05.2017 02:19 1,9 °C 1,9 °C 88 % 1006,2 hPa 0,0 mm 4,6 km/h (1 Bft) S-SW 201 ° 0 min 0,000 mm 0,0 UV-I 0 W/m² 0,1 °C 0,7 °C 6,4 km/h (2 Bft)
01.05.2017 02:20 1,9 °C 1,9 °C 88 % 1006,2 hPa 0,0 mm 6,2 km/h (2 Bft) S-SW 201 ° 0 min 0,000 mm 0,0 UV-I 0 W/m² 0,1 °C 0,1 °C 9,7 km/h (2 Bft)
01.05.2017 02:21 1,9 °C 1,9 °C 87 % 1006,2 hPa 0,0 mm 7,3 km/h (2 Bft) S-SW 202 ° 0 min 0,000 mm 0,0 UV-I 0 W/m² -0,0 °C -0,3 °C 9,7 km/h (2 Bft)
01.05.2017 02:22 1,9 °C 1,9 °C 87 % 1006,2 hPa 0,0 mm 7,0 km/h (2 Bft) S-SW 211 ° 0 min 0,000 mm 0,0 UV-I 0 W/m² -0,0 °C -0,2 °C 9,7 km/h (2 Bft)
01.05.2017 02:23 1,9 °C 1,9 °C 87 % 1006,2 hPa 0,0 mm 5,3 km/h (1 Bft) S-SW 206 ° 0 min 0,000 mm 0,0 UV-I 0 W/m² -0,0 °C 0,4 °C 8,0 km/h (2 Bft)
01.05.2017 02:24 1,9 °C 1,9 °C 87 % 1006,1 hPa 0,0 mm 4,9 km/h (1 Bft) S-SW 206 ° 0 min 0,000 mm 0,0 UV-I 0 W/m² -0,0 °C 0,6 °C 8,0 km/h (2 Bft)
01.05.2017 02:25 1,9 °C 1,9 °C 87 % 1006,1 hPa 0,0 mm 6,3 km/h (2 Bft) S-SW 206 ° 0 min 0,000 mm 0,0 UV-I 0 W/m² -0,0 °C 0,0 °C 8,0 km/h (2 Bft)
01.05.2017 02:26 1,9 °C 1,9 °C 87 % 1006,1 hPa 0,0 mm 6,0 km/h (2 Bft) S-SW 206 ° 0 min 0,000 mm 0,0 UV-I 0 W/m² -0,0 °C 0,2 °C 8,0 km/h (2 Bft)
01.05.2017 02:27 2,0 °C 2,0 °C 87 % 1006,0 hPa 0,0 mm 5,5 km/h (1 Bft) S-SW 207 ° 0 min 0,000 mm 0,0 UV-I 0 W/m² 0,1 °C 0,5 °C 9,7 km/h (2 Bft)
01.05.2017 02:28 2,0 °C 2,1 °C 87 % 1006,0 hPa 0,0 mm 4,8 km/h (1 Bft) S-SW 206 ° 0 min 0,000 mm 0,0 UV-I 0 W/m² 0,1 °C 0,8 °C 8,0 km/h (2 Bft)
01.05.2017 02:29 2,1 °C 2,1 °C 86 % 1006,0 hPa 0,0 mm 5,7 km/h (1 Bft) S-SW 213 ° 0 min 0,000 mm 0,0 UV-I 0 W/m² 0,0 °C 0,5 °C 8,0 km/h (2 Bft)
01.05.2017 02:30 2,1 °C 2,1 °C 86 % 1006,0 hPa 0,0 mm 4,8 km/h (1 Bft) S-SW 204 ° 0 min 0,000 mm 0,0 UV-I 0 W/m² 0,0 °C 0,9 °C 6,4 km/h (2 Bft)
01.05.2017 02:31 2,2 °C 2,2 °C 86 % 1006,0 hPa 0,0 mm 4,2 km/h (1 Bft) S-SW 204 ° 0 min 0,000 mm 0,0 UV-I 0 W/m² 0,1 °C 2,2 °C 6,4 km/h (2 Bft)
01.05.2017 02:32 2,2 °C 2,2 °C 85 % 1006,0 hPa 0,0 mm 4,2 km/h (1 Bft) S 180 ° 0 min 0,000 mm 0,0 UV-I 0 W/m² -0,1 °C 2,2 °C 6,4 km/h (2 Bft)
01.05.2017 02:33 2,3 °C 2,3 °C 85 % 1006,0 hPa 0,0 mm 4,3 km/h (1 Bft) S 180 ° 0 min 0,000 mm 0,0 UV-I 0 W/m² 0,0 °C 2,3 °C 6,4 km/h (2 Bft)
01.05.2017 02:34 2,4 °C 2,4 °C 85 % 1006,0 hPa 0,0 mm 3,4 km/h (1 Bft) S 180 ° 0 min 0,000 mm 0,0 UV-I 0 W/m² 0,1 °C 2,4 °C 4,8 km/h (1 Bft)
01.05.2017 02:35 2,5 °C 2,5 °C 84 % 1006,0 hPa 0,0 mm 4,0 km/h (1 Bft) S 181 ° 0 min 0,000 mm 0,0 UV-I 0 W/m² 0,1 °C 2,5 °C 6,4 km/h (2 Bft)
01.05.2017 02:36 2,7 °C 2,7 °C 84 % 1005,9 hPa 0,0 mm 4,2 km/h (1 Bft) S 181 ° 0 min 0,000 mm 0,0 UV-I 0 W/m² 0,3 °C 2,7 °C 4,8 km/h (1 Bft)
01.05.2017 02:37 2,8 °C 2,8 °C 83 % 1005,9 hPa 0,0 mm 4,9 km/h (1 Bft) S 180 ° 0 min 0,000 mm 0,0 UV-I 0 W/m² 0,2 °C 1,6 °C 6,4 km/h (2 Bft)
01.05.2017 02:38 2,8 °C 2,8 °C 82 % 1005,9 hPa 0,0 mm 5,4 km/h (1 Bft) S-SW 205 ° 0 min 0,000 mm 0,0 UV-I 0 W/m² 0,0 °C 1,4 °C 8,0 km/h (2 Bft)
01.05.2017 02:39 2,9 °C 2,9 °C 82 % 1005,9 hPa 0,0 mm 6,3 km/h (2 Bft) S-SW 192 ° 0 min 0,000 mm 0,0 UV-I 0 W/m² 0,1 °C 1,2 °C 8,0 km/h (2 Bft)
01.05.2017 02:40 2,8 °C 2,9 °C 83 % 1005,9 hPa 0,0 mm 4,7 km/h (1 Bft) S-SW 192 ° 0 min 0,000 mm 0,0 UV-I 0 W/m² 0,2 °C 1,7 °C 6,4 km/h (2 Bft)
01.05.2017 02:41 2,8 °C 2,9 °C 83 % 1005,9 hPa 0,0 mm 5,0 km/h (1 Bft) S-SW 204 ° 0 min 0,000 mm 0,0 UV-I 0 W/m² 0,2 °C 1,6 °C 8,0 km/h (2 Bft)
01.05.2017 02:42 2,8 °C 2,9 °C 82 % 1005,8 hPa 0,0 mm 6,5 km/h (2 Bft) S-SW 202 ° 0 min 0,000 mm 0,0 UV-I 0 W/m² 0,0 °C 1,0 °C 8,0 km/h (2 Bft)
01.05.2017 02:43 2,8 °C 2,8 °C 82 % 1005,9 hPa 0,0 mm 4,8 km/h (1 Bft) S-SW 202 ° 0 min 0,000 mm 0,0 UV-I 0 W/m² 0,0 °C 1,7 °C 6,4 km/h (2 Bft)
01.05.2017 02:44 2,9 °C 2,9 °C 82 % 1005,8 hPa 0,0 mm 5,9 km/h (2 Bft) S-SW 202 ° 0 min 0,000 mm 0,0 UV-I 0 W/m² 0,1 °C 1,3 °C 8,0 km/h (2 Bft)
01.05.2017 02:45 2,9 °C 2,9 °C 81 % 1005,8 hPa 0,0 mm 5,8 km/h (2 Bft) S-SW 199 ° 0 min 0,000 mm 0,0 UV-I 0 W/m² -0,0 °C 1,4 °C 8,0 km/h (2 Bft)
01.05.2017 02:46 3,0 °C 3,0 °C 81 % 1005,8 hPa 0,0 mm 4,3 km/h (1 Bft) S-SW 197 ° 0 min 0,000 mm 0,0 UV-I 0 W/m² 0,1 °C 3,0 °C 6,4 km/h (2 Bft)
01.05.2017 02:47 3,1 °C 3,1 °C 81 % 1005,8 hPa 0,0 mm 4,5 km/h (1 Bft) S-SW 197 ° 0 min 0,000 mm 0,0 UV-I 0 W/m² 0,2 °C 3,1 °C 6,4 km/h (2 Bft)
01.05.2017 02:48 3,1 °C 3,1 °C 80 % 1005,8 hPa 0,0 mm 4,8 km/h (1 Bft) S-SW 197 ° 0 min 0,000 mm 0,0 UV-I 0 W/m² -0,0 °C 2,0 °C 6,4 km/h (2 Bft)
01.05.2017 02:49 3,1 °C 3,1 °C 80 % 1005,8 hPa 0,0 mm 5,2 km/h (1 Bft) S-SW 204 ° 0 min 0,000 mm 0,0 UV-I 0 W/m² -0,0 °C 1,8 °C 8,0 km/h (2 Bft)
01.05.2017 02:50 3,1 °C 3,1 °C 81 % 1005,8 hPa 0,0 mm 4,6 km/h (1 Bft) S-SW 200 ° 0 min 0,000 mm 0,0 UV-I 0 W/m² 0,2 °C 2,1 °C 6,4 km/h (2 Bft)
01.05.2017 02:51 3,1 °C 3,1 °C 80 % 1005,8 hPa 0,0 mm 4,0 km/h (1 Bft) S-SW 199 ° 0 min 0,000 mm 0,0 UV-I 0 W/m² -0,0 °C 3,1 °C 6,4 km/h (2 Bft)
01.05.2017 02:52 3,2 °C 3,2 °C 80 % 1005,8 hPa 0,0 mm 3,5 km/h (1 Bft) S 172 ° 0 min 0,000 mm 0,0 UV-I 0 W/m² 0,1 °C 3,2 °C 4,8 km/h (1 Bft)
01.05.2017 02:53 3,3 °C 3,3 °C 82 % 1005,8 hPa 0,0 mm 5,8 km/h (2 Bft) S 171 ° 0 min 0,000 mm 0,0 UV-I 0 W/m² 0,5 °C 1,8 °C 8,0 km/h (2 Bft)
01.05.2017 02:54 3,3 °C 3,3 °C 81 % 1005,8 hPa 0,0 mm 4,2 km/h (1 Bft) S 171 ° 0 min 0,000 mm 0,0 UV-I 0 W/m² 0,4 °C 3,3 °C 8,0 km/h (2 Bft)
01.05.2017 02:55 3,3 °C 3,3 °C 81 % 1005,8 hPa 0,0 mm 5,4 km/h (1 Bft) S 171 ° 0 min 0,000 mm 0,0 UV-I 0 W/m² 0,4 °C 2,0 °C 8,0 km/h (2 Bft)
01.05.2017 02:56 3,3 °C 3,3 °C 81 % 1005,7 hPa 0,0 mm 4,6 km/h (1 Bft) S 171 ° 0 min 0,000 mm 0,0 UV-I 0 W/m² 0,4 °C 2,3 °C 8,0 km/h (2 Bft)
01.05.2017 02:57 3,3 °C 3,3 °C 80 % 1005,7 hPa 0,0 mm 3,2 km/h (1 Bft) S 171 ° 0 min 0,000 mm 0,0 UV-I 0 W/m² 0,2 °C 3,3 °C 6,4 km/h (2 Bft)
01.05.2017 02:58 3,3 °C 3,4 °C 80 % 1005,8 hPa 0,0 mm 1,3 km/h (1 Bft) S 171 ° 0 min 0,000 mm 0,0 UV-I 0 W/m² 0,2 °C 3,3 °C 3,2 km/h (1 Bft)
01.05.2017 02:59 3,4 °C 3,4 °C 79 % 1005,8 hPa 0,0 mm 2,3 km/h (1 Bft) W-NW 300 ° 0 min 0,000 mm 0,0 UV-I 0 W/m² 0,1 °C 3,4 °C 6,4 km/h (2 Bft)
01.05.2017 03:00 3,5 °C 3,5 °C 79 % 1005,8 hPa 0,0 mm 5,9 km/h (2 Bft) NW 309 ° 0 min 0,000 mm 0,0 UV-I 0 W/m² 0,2 °C 2,0 °C 8,0 km/h (2 Bft)
01.05.2017 03:01 3,4 °C 3,5 °C 79 % 1005,8 hPa 0,0 mm 2,8 km/h (1 Bft) NW 309 ° 0 min 0,000 mm 0,0 UV-I 0 W/m² 0,1 °C 3,4 °C 6,4 km/h (2 Bft)
01.05.2017 03:02 3,4 °C 3,4 °C 79 % 1005,8 hPa 0,0 mm 0,0 km/h (0 Bft) NW 309 ° 0 min 0,000 mm 0,0 UV-I 0 W/m² 0,1 °C 3,4 °C 0,0 km/h (0 Bft)
01.05.2017 03:03 3,3 °C 3,4 °C 79 % 1005,7 hPa 0,0 mm 0,3 km/h (0 Bft) NW 309 ° 0 min 0,000 mm 0,0 UV-I 0 W/m² 0,0 °C 3,3 °C 1,6 km/h (1 Bft)
01.05.2017 03:04 3,2 °C 3,3 °C 80 % 1005,7 hPa 0,0 mm 0,0 km/h (0 Bft) NW 309 ° 0 min 0,000 mm 0,0 UV-I 0 W/m² 0,1 °C 3,2 °C 0,0 km/h (0 Bft)
01.05.2017 03:05 3,1 °C 3,2 °C 80 % 1005,8 hPa 0,0 mm 0,0 km/h (0 Bft) NW 309 ° 0 min 0,000 mm 0,0 UV-I 0 W/m² -0,0 °C 3,1 °C 0,0 km/h (0 Bft)
01.05.2017 03:06 3,0 °C 3,1 °C 80 % 1005,8 hPa 0,0 mm 0,0 km/h (0 Bft) NW 309 ° 0 min 0,000 mm 0,0 UV-I 0 W/m² -0,1 °C 3,0 °C 0,0 km/h (0 Bft)
01.05.2017 03:07 3,0 °C 3,0 °C 81 % 1005,7 hPa 0,0 mm 0,0 km/h (0 Bft) NW 309 ° 0 min 0,000 mm 0,0 UV-I 0 W/m² 0,1 °C 3,0 °C 0,0 km/h (0 Bft)
01.05.2017 03:08 2,9 °C 3,0 °C 81 % 1005,7 hPa 0,0 mm 0,0 km/h (0 Bft) NW 309 ° 0 min 0,000 mm 0,0 UV-I 0 W/m² -0,0 °C 2,9 °C 0,0 km/h (0 Bft)
01.05.2017 03:09 2,9 °C 2,9 °C 81 % 1005,8 hPa 0,0 mm 0,0 km/h (0 Bft) NW 309 ° 0 min 0,000 mm 0,0 UV-I 0 W/m² -0,0 °C 2,9 °C 0,0 km/h (0 Bft)
01.05.2017 03:10 2,9 °C 2,9 °C 81 % 1005,8 hPa 0,0 mm 0,0 km/h (0 Bft) NW 309 ° 0 min 0,000 mm 0,0 UV-I 0 W/m² -0,0 °C 2,9 °C 0,0 km/h (0 Bft)
01.05.2017 03:11 2,8 °C 2,9 °C 81 % 1005,8 hPa 0,0 mm 0,0 km/h (0 Bft) NW 309 ° 0 min 0,000 mm 0,0 UV-I 0 W/m² -0,1 °C 2,8 °C 0,0 km/h (0 Bft)
01.05.2017 03:12 2,8 °C 2,8 °C 81 % 1005,8 hPa 0,0 mm 0,0 km/h (0 Bft) NW 309 ° 0 min 0,000 mm 0,0 UV-I 0 W/m² -0,1 °C 2,8 °C 0,0 km/h (0 Bft)
01.05.2017 03:13 2,7 °C 2,8 °C 82 % 1005,8 hPa 0,0 mm 0,0 km/h (0 Bft) NW 309 ° 0 min 0,000 mm 0,0 UV-I 0 W/m² -0,1 °C 2,7 °C 0,0 km/h (0 Bft)
01.05.2017 03:14 2,7 °C 2,7 °C 82 % 1005,8 hPa 0,0 mm 0,0 km/h (0 Bft) NW 309 ° 0 min 0,000 mm 0,0 UV-I 0 W/m² -0,1 °C 2,7 °C 0,0 km/h (0 Bft)
01.05.2017 03:15 2,6 °C 2,7 °C 83 % 1005,8 hPa 0,0 mm 0,0 km/h (0 Bft) NW 309 ° 0 min 0,000 mm 0,0 UV-I 0 W/m² 0,0 °C 2,6 °C 0,0 km/h (0 Bft)
01.05.2017 03:16 2,5 °C 2,6 °C 83 % 1005,8 hPa 0,0 mm 0,0 km/h (0 Bft) NW 309 ° 0 min 0,000 mm 0,0 UV-I 0 W/m² -0,1 °C 2,5 °C 0,0 km/h (0 Bft)
01.05.2017 03:17 2,5 °C 2,5 °C 83 % 1005,8 hPa 0,0 mm 0,0 km/h (0 Bft) NW 309 ° 0 min 0,000 mm 0,0 UV-I 0 W/m² -0,1 °C 2,5 °C 0,0 km/h (0 Bft)
01.05.2017 03:18 2,6 °C 2,6 °C 83 % 1005,8 hPa 0,0 mm 1,9 km/h (1 Bft) NW 309 ° 0 min 0,000 mm 0,0 UV-I 0 W/m² 0,0 °C 2,6 °C 4,8 km/h (1 Bft)
01.05.2017 03:19 2,7 °C 2,7 °C 83 % 1005,8 hPa 0,0 mm 2,2 km/h (1 Bft) NW 309 ° 0 min 0,000 mm 0,0 UV-I 0 W/m² 0,1 °C 2,7 °C 4,8 km/h (1 Bft)
01.05.2017 03:20 2,8 °C 2,8 °C 83 % 1005,8 hPa 0,0 mm 1,8 km/h (1 Bft) N 360 ° 0 min 0,000 mm 0,0 UV-I 0 W/m² 0,2 °C 2,8 °C 3,2 km/h (1 Bft)
01.05.2017 03:21 2,8 °C 2,8 °C 83 % 1005,9 hPa 0,0 mm 1,8 km/h (1 Bft) O 91 ° 0 min 0,000 mm 0,0 UV-I 0 W/m² 0,2 °C 2,8 °C 4,8 km/h (1 Bft)
01.05.2017 03:22 2,7 °C 2,8 °C 82 % 1005,9 hPa 0,0 mm 0,0 km/h (0 Bft) O 91 ° 0 min 0,000 mm 0,0 UV-I 0 W/m² -0,1 °C 2,7 °C 0,0 km/h (0 Bft)
01.05.2017 03:23 2,6 °C 2,7 °C 83 % 1005,9 hPa 0,0 mm 0,0 km/h (0 Bft) O 91 ° 0 min 0,000 mm 0,0 UV-I 0 W/m² 0,0 °C 2,6 °C 0,0 km/h (0 Bft)
01.05.2017 03:24 2,5 °C 2,6 °C 83 % 1005,9 hPa 0,0 mm 0,0 km/h (0 Bft) O 91 ° 0 min 0,000 mm 0,0 UV-I 0 W/m² -0,1 °C 2,5 °C 0,0 km/h (0 Bft)
01.05.2017 03:25 2,5 °C 2,6 °C 84 % 1005,9 hPa 0,0 mm 0,0 km/h (0 Bft) O 91 ° 0 min 0,000 mm 0,0 UV-I 0 W/m² 0,1 °C 2,5 °C 0,0 km/h (0 Bft)
01.05.2017 03:26 2,5 °C 2,6 °C 83 % 1005,9 hPa 0,0 mm 0,0 km/h (0 Bft) O 91 ° 0 min 0,000 mm 0,0 UV-I 0 W/m² -0,1 °C 2,5 °C 0,0 km/h (0 Bft)
01.05.2017 03:27 2,4 °C 2,5 °C 83 % 1005,9 hPa 0,0 mm 0,1 km/h (0 Bft) O 91 ° 0 min 0,000 mm 0,0 UV-I 0 W/m² -0,2 °C 2,4 °C 1,6 km/h (1 Bft)
01.05.2017 03:28 2,3 °C 2,4 °C 83 % 1005,9 hPa 0,0 mm 1,5 km/h (1 Bft) O 91 ° 0 min 0,000 mm 0,0 UV-I 0 W/m² -0,3 °C 2,3 °C 3,2 km/h (1 Bft)
01.05.2017 03:29 2,2 °C 2,3 °C 83 % 1005,9 hPa 0,0 mm 0,0 km/h (0 Bft) O 91 ° 0 min 0,000 mm 0,0 UV-I 0 W/m² -0,4 °C 2,2 °C 0,0 km/h (0 Bft)
01.05.2017 03:30 2,2 °C 2,2 °C 84 % 1005,9 hPa 0,0 mm 0,0 km/h (0 Bft) O 91 ° 0 min 0,000 mm 0,0 UV-I 0 W/m² -0,2 °C 2,2 °C 0,0 km/h (0 Bft)
01.05.2017 03:31 2,2 °C 2,2 °C 84 % 1005,9 hPa 0,0 mm 0,3 km/h (0 Bft) O 91 ° 0 min 0,000 mm 0,0 UV-I 0 W/m² -0,2 °C 2,2 °C 1,6 km/h (1 Bft)
01.05.2017 03:32 2,3 °C 2,3 °C 84 % 1005,8 hPa 0,0 mm 1,5 km/h (1 Bft) O 91 ° 0 min 0,000 mm 0,0 UV-I 0 W/m² -0,1 °C 2,3 °C 3,2 km/h (1 Bft)
01.05.2017 03:33 2,4 °C 2,4 °C 82 % 1005,8 hPa 0,0 mm 1,6 km/h (1 Bft) O 91 ° 0 min 0,000 mm 0,0 UV-I 0 W/m² -0,4 °C 2,4 °C 3,2 km/h (1 Bft)
01.05.2017 03:34 2,4 °C 2,4 °C 82 % 1005,8 hPa 0,0 mm 0,0 km/h (0 Bft) O 91 ° 0 min 0,000 mm 0,0 UV-I 0 W/m² -0,4 °C 2,4 °C 0,0 km/h (0 Bft)
01.05.2017 03:35 2,4 °C 2,5 °C 83 % 1005,8 hPa 0,0 mm 3,3 km/h (1 Bft) W-SW 250 ° 0 min 0,000 mm 0,0 UV-I 0 W/m² -0,2 °C 2,4 °C 4,8 km/h (1 Bft)
01.05.2017 03:36 2,4 °C 2,5 °C 82 % 1005,9 hPa 0,0 mm 4,1 km/h (1 Bft) W-SW 250 ° 0 min 0,000 mm 0,0 UV-I 0 W/m² -0,4 °C 2,4 °C 4,8 km/h (1 Bft)
01.05.2017 03:37 2,4 °C 2,5 °C 82 % 1005,9 hPa 0,0 mm 0,5 km/h (0 Bft) W-SW 250 ° 0 min 0,000 mm 0,0 UV-I 0 W/m² -0,4 °C 2,4 °C 1,6 km/h (1 Bft)
01.05.2017 03:38 2,4 °C 2,4 °C 82 % 1005,9 hPa 0,0 mm 0,0 km/h (0 Bft) W-SW 250 ° 0 min 0,000 mm 0,0 UV-I 0 W/m² -0,4 °C 2,4 °C 0,0 km/h (0 Bft)
01.05.2017 03:39 2,3 °C 2,4 °C 82 % 1005,9 hPa 0,0 mm 0,0 km/h (0 Bft) W-SW 250 ° 0 min 0,000 mm 0,0 UV-I 0 W/m² -0,4 °C 2,3 °C 0,0 km/h (0 Bft)
01.05.2017 03:40 2,3 °C 2,3 °C 83 % 1005,9 hPa 0,0 mm 2,9 km/h (1 Bft) NW 305 ° 0 min 0,000 mm 0,0 UV-I 0 W/m² -0,3 °C 2,3 °C 4,8 km/h (1 Bft)
01.05.2017 03:41 2,0 °C 2,3 °C 82 % 1005,9 hPa 0,0 mm 0,7 km/h (0 Bft) NW 305 ° 0 min 0,000 mm 0,0 UV-I 0 W/m² -0,7 °C 2,0 °C 3,2 km/h (1 Bft)
01.05.2017 03:42 1,8 °C 2,0 °C 82 % 1005,9 hPa 0,0 mm 0,5 km/h (0 Bft) NW 305 ° 0 min 0,000 mm 0,0 UV-I 0 W/m² -0,9 °C 1,8 °C 1,6 km/h (1 Bft)
01.05.2017 03:43 1,6 °C 1,8 °C 84 % 1005,8 hPa 0,0 mm 0,1 km/h (0 Bft) NW 305 ° 0 min 0,000 mm 0,0 UV-I 0 W/m² -0,8 °C 1,6 °C 1,6 km/h (1 Bft)
01.05.2017 03:44 1,4 °C 1,6 °C 85 % 1005,8 hPa 0,0 mm 0,0 km/h (0 Bft) NW 305 ° 0 min 0,000 mm 0,0 UV-I 0 W/m² -0,8 °C 1,4 °C 0,0 km/h (0 Bft)
01.05.2017 03:45 1,4 °C 1,4 °C 86 % 1005,8 hPa 0,0 mm 0,0 km/h (0 Bft) NW 304 ° 0 min 0,000 mm 0,0 UV-I 0 W/m² -0,7 °C 1,4 °C 0,0 km/h (0 Bft)
01.05.2017 03:46 1,4 °C 1,4 °C 86 % 1005,9 hPa 0,0 mm 0,0 km/h (0 Bft) NW 304 ° 0 min 0,000 mm 0,0 UV-I 0 W/m² -0,7 °C 1,4 °C 0,0 km/h (0 Bft)
01.05.2017 03:47 1,5 °C 1,6 °C 86 % 1005,9 hPa 0,0 mm 0,0 km/h (0 Bft) NW 304 ° 0 min 0,000 mm 0,0 UV-I 0 W/m² -0,6 °C 1,5 °C 0,0 km/h (0 Bft)
01.05.2017 03:48 1,6 °C 1,6 °C 85 % 1005,9 hPa 0,0 mm 1,0 km/h (0 Bft) NW 304 ° 0 min 0,000 mm 0,0 UV-I 0 W/m² -0,6 °C 1,6 °C 1,6 km/h (1 Bft)
01.05.2017 03:49 1,4 °C 1,6 °C 86 % 1005,9 hPa 0,0 mm 2,6 km/h (1 Bft) NW 305 ° 0 min 0,000 mm 0,0 UV-I 0 W/m² -0,7 °C 1,4 °C 3,2 km/h (1 Bft)
01.05.2017 03:50 1,4 °C 1,4 °C 85 % 1005,9 hPa 0,0 mm 0,3 km/h (0 Bft) NW 305 ° 0 min 0,000 mm 0,0 UV-I 0 W/m² -0,8 °C 1,4 °C 1,6 km/h (1 Bft)
01.05.2017 03:51 1,3 °C 1,4 °C 86 % 1005,9 hPa 0,0 mm 0,4 km/h (0 Bft) NW 305 ° 0 min 0,000 mm 0,0 UV-I 0 W/m² -0,8 °C 1,3 °C 3,2 km/h (1 Bft)
01.05.2017 03:52 1,3 °C 1,3 °C 86 % 1005,8 hPa 0,0 mm 4,2 km/h (1 Bft) SO 133 ° 0 min 0,000 mm 0,0 UV-I 0 W/m² -0,8 °C 1,3 °C 4,8 km/h (1 Bft)
01.05.2017 03:53 1,3 °C 1,3 °C 87 % 1005,8 hPa 0,0 mm 3,2 km/h (1 Bft) SO 133 ° 0 min 0,000 mm 0,0 UV-I 0 W/m² -0,6 °C 1,3 °C 3,2 km/h (1 Bft)
01.05.2017 03:54 1,3 °C 1,3 °C 87 % 1006,0 hPa 0,0 mm 2,4 km/h (1 Bft) SO 133 ° 0 min 0,000 mm 0,0 UV-I 0 W/m² -0,6 °C 1,3 °C 3,2 km/h (1 Bft)
01.05.2017 03:55 1,4 °C 1,4 °C 87 % 1005,9 hPa 0,0 mm 0,7 km/h (0 Bft) SO 133 ° 0 min 0,000 mm 0,0 UV-I 0 W/m² -0,5 °C 1,4 °C 3,2 km/h (1 Bft)
01.05.2017 03:56 1,6 °C 1,6 °C 87 % 1005,9 hPa 0,0 mm 1,1 km/h (1 Bft) SO 133 ° 0 min 0,000 mm 0,0 UV-I 0 W/m² -0,3 °C 1,6 °C 3,2 km/h (1 Bft)
01.05.2017 03:57 1,7 °C 1,7 °C 87 % 1005,9 hPa 0,0 mm 4,2 km/h (1 Bft) SO 133 ° 0 min 0,000 mm 0,0 UV-I 0 W/m² -0,2 °C 1,7 °C 6,4 km/h (2 Bft)
01.05.2017 03:58 1,8 °C 1,8 °C 87 % 1005,9 hPa 0,0 mm 3,5 km/h (1 Bft) SO 133 ° 0 min 0,000 mm 0,0 UV-I 0 W/m² -0,1 °C 1,8 °C 4,8 km/h (1 Bft)
01.05.2017 03:59 1,9 °C 1,9 °C 86 % 1005,9 hPa 0,0 mm 3,6 km/h (1 Bft) SO 133 ° 0 min 0,000 mm 0,0 UV-I 0 W/m² -0,2 °C 1,9 °C 4,8 km/h (1 Bft)
01.05.2017 04:00 2,1 °C 2,1 °C 86 % 1005,9 hPa 0,0 mm 1,6 km/h (1 Bft) SO 133 ° 0 min 0,000 mm 0,0 UV-I 0 W/m² 0,0 °C 2,1 °C 3,2 km/h (1 Bft)
01.05.2017 04:01 2,1 °C 2,1 °C 86 % 1005,9 hPa 0,0 mm 0,0 km/h (0 Bft) SO 133 ° 0 min 0,000 mm 0,0 UV-I 0 W/m² 0,0 °C 2,1 °C 0,0 km/h (0 Bft)
01.05.2017 04:02 2,2 °C 2,2 °C 84 % 1005,9 hPa 0,0 mm 3,2 km/h (1 Bft) SO 135 ° 0 min 0,000 mm 0,0 UV-I 0 W/m² -0,2 °C 2,2 °C 3,2 km/h (1 Bft)
01.05.2017 04:03 2,2 °C 2,2 °C 84 % 1006,0 hPa 0,0 mm 3,2 km/h (1 Bft) W 270 ° 0 min 0,000 mm 0,0 UV-I 0 W/m² -0,2 °C 2,2 °C 4,8 km/h (1 Bft)
01.05.2017 04:04 1,9 °C 2,1 °C 84 % 1006,0 hPa 0,0 mm 0,0 km/h (0 Bft) W 270 ° 0 min 0,000 mm 0,0 UV-I 0 W/m² -0,5 °C 1,9 °C 1,6 km/h (1 Bft)
01.05.2017 04:05 1,8 °C 1,9 °C 84 % 1006,0 hPa 0,0 mm 0,0 km/h (0 Bft) W 270 ° 0 min 0,000 mm 0,0 UV-I 0 W/m² -0,6 °C 1,8 °C 3,2 km/h (1 Bft)
01.05.2017 04:06 1,7 °C 1,8 °C 84 % 1005,9 hPa 0,0 mm 1,6 km/h (1 Bft) S 180 ° 0 min 0,000 mm 0,0 UV-I 0 W/m² -0,7 °C 1,7 °C 3,2 km/h (1 Bft)
01.05.2017 04:07 1,7 °C 1,7 °C 85 % 1005,9 hPa 0,0 mm 1,6 km/h (1 Bft) S 180 ° 0 min 0,000 mm 0,0 UV-I 0 W/m² -0,5 °C 1,7 °C 3,2 km/h (1 Bft)
01.05.2017 04:08 1,8 °C 1,8 °C 85 % 1006,0 hPa 0,0 mm 0,0 km/h (0 Bft) SW 225 ° 0 min 0,000 mm 0,0 UV-I 0 W/m² -0,4 °C 1,8 °C 3,2 km/h (1 Bft)
01.05.2017 04:09 1,9 °C 1,9 °C 84 % 1006,0 hPa 0,0 mm 3,2 km/h (1 Bft) SW 225 ° 0 min 0,000 mm 0,0 UV-I 0 W/m² -0,5 °C 1,9 °C 4,8 km/h (1 Bft)
01.05.2017 04:10 2,0 °C 2,0 °C 84 % 1005,9 hPa 0,0 mm 0,0 km/h (0 Bft) W 270 ° 0 min 0,000 mm 0,0 UV-I 0 W/m² -0,4 °C 2,0 °C 1,6 km/h (1 Bft)
01.05.2017 04:11 1,9 °C 2,0 °C 84 % 1005,9 hPa 0,0 mm 1,6 km/h (1 Bft) W 270 ° 0 min 0,000 mm 0,0 UV-I 0 W/m² -0,5 °C 1,9 °C 3,2 km/h (1 Bft)
01.05.2017 04:12 2,0 °C 2,0 °C 84 % 1005,9 hPa 0,0 mm 4,8 km/h (1 Bft) S 186 ° 0 min 0,000 mm 0,0 UV-I 0 W/m² -0,4 °C 0,8 °C 4,8 km/h (1 Bft)
01.05.2017 04:13 2,4 °C 2,4 °C 82 % 1005,9 hPa 0,0 mm 1,5 km/h (1 Bft) S 186 ° 0 min 0,000 mm 0,0 UV-I 0 W/m² -0,4 °C 2,4 °C 4,8 km/h (1 Bft)
01.05.2017 04:14 2,6 °C 2,6 °C 82 % 1005,9 hPa 0,0 mm 2,5 km/h (1 Bft) S-SW 197 ° 0 min 0,000 mm 0,0 UV-I 0 W/m² -0,2 °C 2,6 °C 4,8 km/h (1 Bft)
01.05.2017 04:15 2,8 °C 2,8 °C 81 % 1005,9 hPa 0,0 mm 0,4 km/h (0 Bft) S-SW 197 ° 0 min 0,000 mm 0,0 UV-I 0 W/m² -0,1 °C 2,8 °C 1,6 km/h (1 Bft)
01.05.2017 04:16 2,8 °C 2,8 °C 81 % 1005,9 hPa 0,0 mm 0,0 km/h (0 Bft) S-SW 197 ° 0 min 0,000 mm 0,0 UV-I 0 W/m² -0,1 °C 2,8 °C 0,0 km/h (0 Bft)
01.05.2017 04:17 2,7 °C 2,8 °C 81 % 1005,9 hPa 0,0 mm 0,0 km/h (0 Bft) S-SW 197 ° 0 min 0,000 mm 0,0 UV-I 0 W/m² -0,2 °C 2,7 °C 0,0 km/h (0 Bft)
01.05.2017 04:18 2,6 °C 2,7 °C 80 % 1005,9 hPa 0,0 mm 2,1 km/h (1 Bft) W 266 ° 0 min 0,000 mm 0,0 UV-I 0 W/m² -0,5 °C 2,6 °C 3,2 km/h (1 Bft)
01.05.2017 04:19 2,3 °C 2,6 °C 81 % 1005,9 hPa 0,0 mm 0,9 km/h (0 Bft) W 266 ° 0 min 0,000 mm 0,0 UV-I 0 W/m² -0,6 °C 2,3 °C 3,2 km/h (1 Bft)
01.05.2017 04:20 1,9 °C 2,3 °C 80 % 1006,0 hPa 0,0 mm 0,1 km/h (0 Bft) W 266 ° 0 min 0,000 mm 0,0 UV-I 0 W/m² -1,2 °C 1,9 °C 1,6 km/h (1 Bft)
01.05.2017 04:21 1,6 °C 1,9 °C 81 % 1005,9 hPa 0,0 mm 0,2 km/h (0 Bft) W-SW 257 ° 0 min 0,000 mm 0,0 UV-I 0 W/m² -1,3 °C 1,6 °C 1,6 km/h (1 Bft)
01.05.2017 04:22 1,2 °C 1,6 °C 82 % 1005,9 hPa 0,0 mm 0,0 km/h (0 Bft) W-SW 257 ° 0 min 0,000 mm 0,0 UV-I 0 W/m² -1,5 °C 1,2 °C 0,0 km/h (0 Bft)
01.05.2017 04:23 0,9 °C 1,2 °C 84 % 1005,9 hPa 0,0 mm 0,0 km/h (0 Bft) W-SW 257 ° 0 min 0,000 mm 0,0 UV-I 0 W/m² -1,5 °C 0,9 °C 0,0 km/h (0 Bft)
01.05.2017 04:24 0,7 °C 0,9 °C 84 % 1006,0 hPa 0,0 mm 2,5 km/h (1 Bft) W-SW 252 ° 0 min 0,000 mm 0,0 UV-I 0 W/m² -1,7 °C 0,7 °C 4,8 km/h (1 Bft)
01.05.2017 04:25 0,6 °C 0,7 °C 85 % 1006,0 hPa 0,0 mm 2,7 km/h (1 Bft) W-SW 250 ° 0 min 0,000 mm 0,0 UV-I 0 W/m² -1,6 °C 0,6 °C 6,4 km/h (2 Bft)
01.05.2017 04:26 0,6 °C 0,6 °C 87 % 1005,9 hPa 0,0 mm 3,2 km/h (1 Bft) W-SW 238 ° 0 min 0,000 mm 0,0 UV-I 0 W/m² -1,3 °C 0,6 °C 4,8 km/h (1 Bft)
01.05.2017 04:27 0,7 °C 0,7 °C 88 % 1005,9 hPa 0,0 mm 3,0 km/h (1 Bft) SW 216 ° 0 min 0,000 mm 0,0 UV-I 0 W/m² -1,1 °C 0,7 °C 4,8 km/h (1 Bft)
01.05.2017 04:28 1,1 °C 1,1 °C 89 % 1005,8 hPa 0,0 mm 2,3 km/h (1 Bft) S 176 ° 0 min 0,000 mm 0,0 UV-I 0 W/m² -0,5 °C 1,1 °C 4,8 km/h (1 Bft)
01.05.2017 04:29 1,2 °C 1,2 °C 87 % 1005,8 hPa 0,0 mm 0,4 km/h (0 Bft) S 176 ° 0 min 0,000 mm 0,0 UV-I 0 W/m² -0,7 °C 1,2 °C 1,6 km/h (1 Bft)
01.05.2017 04:30 1,3 °C 1,3 °C 87 % 1005,8 hPa 0,0 mm 0,4 km/h (0 Bft) S 176 ° 0 min 0,000 mm 0,0 UV-I 0 W/m² -0,6 °C 1,3 °C 1,6 km/h (1 Bft)
01.05.2017 04:31 1,3 °C 1,3 °C 86 % 1005,8 hPa 0,0 mm 0,1 km/h (0 Bft) S 185 ° 0 min 0,000 mm 0,0 UV-I 0 W/m² -0,8 °C 1,3 °C 1,6 km/h (1 Bft)
01.05.2017 04:32 1,3 °C 1,3 °C 86 % 1005,8 hPa 0,0 mm 3,3 km/h (1 Bft) W 265 ° 0 min 0,000 mm 0,0 UV-I 0 W/m² -0,8 °C 1,3 °C 4,8 km/h (1 Bft)
01.05.2017 04:33 1,3 °C 1,3 °C 86 % 1005,8 hPa 0,0 mm 0,3 km/h (0 Bft) W 265 ° 0 min 0,000 mm 0,0 UV-I 0 W/m² -0,8 °C 1,3 °C 1,6 km/h (1 Bft)
01.05.2017 04:34 1,2 °C 1,3 °C 86 % 1005,8 hPa 0,0 mm 0,1 km/h (0 Bft) S-SW 212 ° 0 min 0,000 mm 0,0 UV-I 0 W/m² -0,9 °C 1,2 °C 1,6 km/h (1 Bft)
01.05.2017 04:35 1,4 °C 1,4 °C 87 % 1005,8 hPa 0,0 mm 0,7 km/h (0 Bft) S-SW 212 ° 0 min 0,000 mm 0,0 UV-I 0 W/m² -0,5 °C 1,4 °C 1,6 km/h (1 Bft)
01.05.2017 04:36 1,6 °C 1,6 °C 86 % 1005,8 hPa 0,0 mm 1,7 km/h (1 Bft) S-SW 212 ° 0 min 0,000 mm 0,0 UV-I 0 W/m² -0,5 °C 1,6 °C 3,2 km/h (1 Bft)
01.05.2017 04:37 1,7 °C 1,7 °C 85 % 1005,8 hPa 0,0 mm 1,7 km/h (1 Bft) S-SW 212 ° 0 min 0,000 mm 0,0 UV-I 0 W/m² -0,5 °C 1,7 °C 4,8 km/h (1 Bft)
01.05.2017 04:38 1,7 °C 1,7 °C 86 % 1005,8 hPa 0,0 mm 0,8 km/h (0 Bft) S-SW 212 ° 0 min 0,000 mm 0,0 UV-I 0 W/m² -0,4 °C 1,7 °C 1,6 km/h (1 Bft)
01.05.2017 04:39 1,8 °C 1,8 °C 85 % 1005,8 hPa 0,0 mm 0,2 km/h (0 Bft) S-SW 212 ° 0 min 0,000 mm 0,0 UV-I 0 W/m² -0,4 °C 1,8 °C 1,6 km/h (1 Bft)
01.05.2017 04:40 1,9 °C 1,9 °C 85 % 1005,8 hPa 0,0 mm 0,0 km/h (0 Bft) S-SW 212 ° 0 min 0,000 mm 0,0 UV-I 0 W/m² -0,3 °C 1,9 °C 0,0 km/h (0 Bft)
01.05.2017 04:41 1,9 °C 1,9 °C 83 % 1005,8 hPa 0,0 mm 0,0 km/h (0 Bft) S-SW 212 ° 0 min 0,000 mm 0,0 UV-I 0 W/m² -0,7 °C 1,9 °C 0,0 km/h (0 Bft)
01.05.2017 04:42 1,8 °C 1,9 °C 84 % 1005,7 hPa 0,0 mm 0,0 km/h (0 Bft) S-SW 212 ° 0 min 0,000 mm 0,0 UV-I 0 W/m² -0,6 °C 1,8 °C 0,0 km/h (0 Bft)
01.05.2017 04:43 1,7 °C 1,8 °C 84 % 1005,7 hPa 0,0 mm 0,0 km/h (0 Bft) S-SW 212 ° 0 min 0,000 mm 0,0 UV-I 0 W/m² -0,7 °C 1,7 °C 0,0 km/h (0 Bft)
01.05.2017 04:44 1,6 °C 1,7 °C 85 % 1005,7 hPa 0,0 mm 0,0 km/h (0 Bft) S-SW 212 ° 0 min 0,000 mm 0,0 UV-I 0 W/m² -0,6 °C 1,6 °C 0,0 km/h (0 Bft)
01.05.2017 04:45 1,6 °C 1,6 °C 84 % 1005,7 hPa 0,0 mm 0,0 km/h (0 Bft) S-SW 212 ° 0 min 0,000 mm 0,0 UV-I 0 W/m² -0,8 °C 1,6 °C 0,0 km/h (0 Bft)
01.05.2017 04:46 1,4 °C 1,6 °C 85 % 1005,7 hPa 0,0 mm 0,0 km/h (0 Bft) S-SW 212 ° 0 min 0,000 mm 0,0 UV-I 0 W/m² -0,8 °C 1,4 °C 0,0 km/h (0 Bft)
01.05.2017 04:47 1,3 °C 1,4 °C 85 % 1005,7 hPa 0,0 mm 0,9 km/h (0 Bft) S-SW 212 ° 0 min 0,000 mm 0,0 UV-I 0 W/m² -0,9 °C 1,3 °C 1,6 km/h (1 Bft)
01.05.2017 04:48 1,3 °C 1,3 °C 86 % 1005,7 hPa 0,0 mm 0,1 km/h (0 Bft) S-SW 212 ° 0 min 0,000 mm 0,0 UV-I 0 W/m² -0,8 °C 1,3 °C 1,6 km/h (1 Bft)
01.05.2017 04:49 1,3 °C 1,3 °C 86 % 1005,8 hPa 0,0 mm 0,0 km/h (0 Bft) S-SW 212 ° 0 min 0,000 mm 0,0 UV-I 0 W/m² -0,8 °C 1,3 °C 0,0 km/h (0 Bft)
01.05.2017 04:50 1,3 °C 1,3 °C 86 % 1005,8 hPa 0,0 mm 0,0 km/h (0 Bft) S-SW 212 ° 0 min 0,000 mm 0,0 UV-I 0 W/m² -0,8 °C 1,3 °C 0,0 km/h (0 Bft)
01.05.2017 04:51 1,4 °C 1,4 °C 86 % 1005,7 hPa 0,0 mm 0,0 km/h (0 Bft) S-SW 212 ° 0 min 0,000 mm 0,0 UV-I 0 W/m² -0,7 °C 1,4 °C 0,0 km/h (0 Bft)
01.05.2017 04:52 1,5 °C 1,5 °C 86 % 1005,7 hPa 0,0 mm 1,3 km/h (1 Bft) S-SW 212 ° 0 min 0,000 mm 0,0 UV-I 0 W/m² -0,6 °C 1,5 °C 3,2 km/h (1 Bft)
01.05.2017 04:53 1,7 °C 1,7 °C 85 % 1005,7 hPa 0,0 mm 2,3 km/h (1 Bft) S-SW 212 ° 0 min 0,000 mm 0,0 UV-I 0 W/m² -0,5 °C 1,7 °C 3,2 km/h (1 Bft)
01.05.2017 04:54 2,3 °C 2,3 °C 82 % 1005,7 hPa 0,0 mm 5,0 km/h (1 Bft) S 185 ° 0 min 0,000 mm 0,0 UV-I 0 W/m² -0,4 °C 1,0 °C 8,0 km/h (2 Bft)
01.05.2017 04:55 2,9 °C 2,9 °C 81 % 1005,7 hPa 0,0 mm 4,8 km/h (1 Bft) S-SO 168 ° 0 min 0,000 mm 0,0 UV-I 0 W/m² -0,0 °C 1,8 °C 6,4 km/h (2 Bft)
01.05.2017 04:56 3,4 °C 3,4 °C 79 % 1005,7 hPa 0,0 mm 4,2 km/h (1 Bft) S-SO 155 ° 0 min 0,000 mm 0,0 UV-I 0 W/m² 0,1 °C 3,4 °C 6,4 km/h (2 Bft)
01.05.2017 04:57 3,9 °C 3,9 °C 78 % 1005,7 hPa 0,0 mm 2,9 km/h (1 Bft) S-SO 155 ° 0 min 0,000 mm 0,0 UV-I 0 W/m² 0,4 °C 3,9 °C 4,8 km/h (1 Bft)
01.05.2017 04:58 4,3 °C 4,3 °C 74 % 1005,7 hPa 0,0 mm 0,9 km/h (0 Bft) S-SO 155 ° 0 min 0,000 mm 0,0 UV-I 0 W/m² 0,1 °C 4,3 °C 3,2 km/h (1 Bft)
01.05.2017 04:59 4,5 °C 4,5 °C 74 % 1005,7 hPa 0,0 mm 1,6 km/h (1 Bft) W-NW 285 ° 0 min 0,000 mm 0,0 UV-I 0 W/m² 0,3 °C 4,5 °C 6,4 km/h (2 Bft)
01.05.2017 05:00 4,4 °C 4,6 °C 74 % 1005,8 hPa 0,0 mm 4,8 km/h (1 Bft) W-NW 294 ° 0 min 0,000 mm 0,0 UV-I 0 W/m² 0,2 °C 3,5 °C 6,4 km/h (2 Bft)
01.05.2017 05:01 4,1 °C 4,4 °C 75 % 1005,7 hPa 0,0 mm 1,8 km/h (1 Bft) W-NW 294 ° 0 min 0,000 mm 0,0 UV-I 0 W/m² 0,1 °C 4,1 °C 3,2 km/h (1 Bft)
01.05.2017 05:02 3,7 °C 4,1 °C 75 % 1005,7 hPa 0,0 mm 0,0 km/h (0 Bft) W-NW 294 ° 0 min 0,000 mm 0,0 UV-I 0 W/m² -0,3 °C 3,7 °C 0,0 km/h (0 Bft)
01.05.2017 05:03 3,2 °C 3,7 °C 76 % 1005,7 hPa 0,0 mm 0,0 km/h (0 Bft) W-NW 294 ° 0 min 0,000 mm 0,0 UV-I 0 W/m² -0,6 °C 3,2 °C 0,0 km/h (0 Bft)
01.05.2017 05:04 2,9 °C 3,2 °C 78 % 1005,7 hPa 0,0 mm 0,0 km/h (0 Bft) W-NW 294 ° 0 min 0,000 mm 0,0 UV-I 0 W/m² -0,5 °C 2,9 °C 0,0 km/h (0 Bft)
01.05.2017 05:05 2,6 °C 2,9 °C 79 % 1005,7 hPa 0,0 mm 0,0 km/h (0 Bft) W-NW 294 ° 0 min 0,000 mm 0,0 UV-I 0 W/m² -0,7 °C 2,6 °C 0,0 km/h (0 Bft)
01.05.2017 05:06 2,2 °C 2,6 °C 80 % 1005,7 hPa 0,0 mm 0,0 km/h (0 Bft) W-NW 294 ° 0 min 0,000 mm 0,0 UV-I 0 W/m² -0,9 °C 2,2 °C 0,0 km/h (0 Bft)
01.05.2017 05:07 2,0 °C 2,2 °C 81 % 1005,6 hPa 0,0 mm 0,0 km/h (0 Bft) W-NW 294 ° 0 min 0,000 mm 0,0 UV-I 0 W/m² -0,9 °C 2,0 °C 0,0 km/h (0 Bft)
01.05.2017 05:08 1,8 °C 2,0 °C 82 % 1005,6 hPa 0,0 mm 0,0 km/h (0 Bft) W-NW 294 ° 0 min 0,000 mm 0,0 UV-I 0 W/m² -0,9 °C 1,8 °C 0,0 km/h (0 Bft)
01.05.2017 05:09 1,9 °C 1,9 °C 83 % 1005,6 hPa 0,0 mm 3,5 km/h (1 Bft) S-SO 161 ° 0 min 0,000 mm 0,0 UV-I 0 W/m² -0,7 °C 1,9 °C 8,0 km/h (2 Bft)
01.05.2017 05:10 2,2 °C 2,2 °C 82 % 1005,6 hPa 0,0 mm 3,2 km/h (1 Bft) S-SO 161 ° 0 min 0,000 mm 0,0 UV-I 0 W/m² -0,5 °C 2,2 °C 6,4 km/h (2 Bft)
01.05.2017 05:11 2,4 °C 2,4 °C 81 % 1005,6 hPa 0,0 mm 3,6 km/h (1 Bft) NW 307 ° 0 min 0,000 mm 0,0 UV-I 0 W/m² -0,5 °C 2,4 °C 8,0 km/h (2 Bft)
01.05.2017 05:12 2,4 °C 2,4 °C 81 % 1005,6 hPa 0,0 mm 2,3 km/h (1 Bft) W 266 ° 0 min 0,000 mm 0,0 UV-I 0 W/m² -0,5 °C 2,4 °C 4,8 km/h (1 Bft)
01.05.2017 05:13 2,4 °C 2,5 °C 81 % 1005,6 hPa 0,0 mm 4,2 km/h (1 Bft) W-SW 244 ° 0 min 0,000 mm 0,0 UV-I 0 W/m² -0,5 °C 2,4 °C 6,4 km/h (2 Bft)
01.05.2017 05:14 2,4 °C 2,4 °C 81 % 1005,6 hPa 0,0 mm 3,6 km/h (1 Bft) W-SW 240 ° 0 min 0,000 mm 0,0 UV-I 0 W/m² -0,5 °C 2,4 °C 6,4 km/h (2 Bft)
01.05.2017 05:15 2,4 °C 2,4 °C 81 % 1005,6 hPa 0,0 mm 1,0 km/h (0 Bft) SW 236 ° 0 min 0,000 mm 0,0 UV-I 0 W/m² -0,5 °C 2,4 °C 3,2 km/h (1 Bft)
01.05.2017 05:16 2,5 °C 2,5 °C 81 % 1005,6 hPa 0,0 mm 2,9 km/h (1 Bft) S-SW 211 ° 0 min 0,000 mm 0,0 UV-I 0 W/m² -0,4 °C 2,5 °C 3,2 km/h (1 Bft)
01.05.2017 05:17 2,4 °C 2,5 °C 81 % 1005,6 hPa 0,0 mm 2,7 km/h (1 Bft) S-SW 211 ° 0 min 0,000 mm 0,0 UV-I 0 W/m² -0,5 °C 2,4 °C 3,2 km/h (1 Bft)
01.05.2017 05:18 2,3 °C 2,4 °C 82 % 1005,5 hPa 0,0 mm 0,4 km/h (0 Bft) S-SW 211 ° 0 min 0,000 mm 0,0 UV-I 0 W/m² -0,4 °C 2,3 °C 1,6 km/h (1 Bft)
01.05.2017 05:19 2,3 °C 2,3 °C 82 % 1005,5 hPa 0,0 mm 0,1 km/h (0 Bft) S-SW 211 ° 0 min 0,000 mm 0,0 UV-I 0 W/m² -0,4 °C 2,3 °C 1,6 km/h (1 Bft)
01.05.2017 05:20 2,2 °C 2,3 °C 82 % 1005,6 hPa 0,0 mm 0,0 km/h (0 Bft) S-SW 211 ° 0 min 0,000 mm 0,0 UV-I 0 W/m² -0,5 °C 2,2 °C 0,0 km/h (0 Bft)
01.05.2017 05:21 2,2 °C 2,2 °C 82 % 1005,6 hPa 0,0 mm 1,3 km/h (1 Bft) S-SW 211 ° 0 min 0,000 mm 0,0 UV-I 0 W/m² -0,5 °C 2,2 °C 3,2 km/h (1 Bft)
01.05.2017 05:22 2,2 °C 2,2 °C 83 % 1005,6 hPa 0,0 mm 2,5 km/h (1 Bft) S-SW 212 ° 0 min 0,000 mm 0,0 UV-I 0 W/m² -0,4 °C 2,2 °C 3,2 km/h (1 Bft)
01.05.2017 05:23 2,2 °C 2,2 °C 83 % 1005,6 hPa 0,0 mm 2,1 km/h (1 Bft) W 278 ° 0 min 0,000 mm 0,0 UV-I 0 W/m² -0,4 °C 2,2 °C 4,8 km/h (1 Bft)
01.05.2017 05:24 2,1 °C 2,2 °C 82 % 1005,6 hPa 0,0 mm 0,0 km/h (0 Bft) W 277 ° 0 min 0,000 mm 0,0 UV-I 0 W/m² -0,6 °C 2,1 °C 0,0 km/h (0 Bft)
01.05.2017 05:25 1,9 °C 2,1 °C 82 % 1005,6 hPa 0,0 mm 0,1 km/h (0 Bft) W 277 ° 0 min 0,000 mm 0,0 UV-I 0 W/m² -0,8 °C 1,9 °C 1,6 km/h (1 Bft)
01.05.2017 05:26 1,8 °C 1,9 °C 83 % 1005,6 hPa 0,0 mm 1,9 km/h (1 Bft) S 180 ° 0 min 0,000 mm 0,0 UV-I 0 W/m² -0,8 °C 1,8 °C 4,8 km/h (1 Bft)
01.05.2017 05:27 1,9 °C 1,9 °C 83 % 1005,6 hPa 0,0 mm 3,3 km/h (1 Bft) S 180 ° 0 min 0,000 mm 0,0 UV-I 0 W/m² -0,7 °C 1,9 °C 4,8 km/h (1 Bft)
01.05.2017 05:28 2,2 °C 2,2 °C 84 % 1005,6 hPa 0,0 mm 3,2 km/h (1 Bft) S 180 ° 0 min 0,000 mm 0,0 UV-I 0 W/m² -0,2 °C 2,2 °C 4,8 km/h (1 Bft)
01.05.2017 05:29 2,4 °C 2,4 °C 84 % 1005,5 hPa 0,0 mm 2,1 km/h (1 Bft) S 180 ° 0 min 0,000 mm 0,0 UV-I 0 W/m² -0,0 °C 2,4 °C 4,8 km/h (1 Bft)
01.05.2017 05:30 2,4 °C 2,4 °C 83 % 1005,4 hPa 0,0 mm 2,3 km/h (1 Bft) W-NW 287 ° 0 min 0,000 mm 0,0 UV-I 0 W/m² -0,2 °C 2,4 °C 4,8 km/h (1 Bft)
01.05.2017 05:31 2,4 °C 2,4 °C 82 % 1005,4 hPa 0,0 mm 4,2 km/h (1 Bft) SO 126 ° 0 min 0,000 mm 0,0 UV-I 0 W/m² -0,4 °C 2,4 °C 11,3 km/h (2 Bft)
01.05.2017 05:32 2,7 °C 2,7 °C 82 % 1005,4 hPa 0,0 mm 7,3 km/h (2 Bft) SO 130 ° 0 min 0,000 mm 0,0 UV-I 0 W/m² -0,1 °C 0,6 °C 11,3 km/h (2 Bft)
01.05.2017 05:33 3,0 °C 3,0 °C 82 % 1005,4 hPa 0,0 mm 2,6 km/h (1 Bft) W 280 ° 0 min 0,000 mm 0,0 UV-I 0 W/m² 0,2 °C 3,0 °C 6,4 km/h (2 Bft)
01.05.2017 05:34 3,0 °C 3,1 °C 79 % 1005,5 hPa 0,0 mm 6,6 km/h (2 Bft) W-NW 298 ° 0 min 0,000 mm 0,0 UV-I 0 W/m² -0,3 °C 1,2 °C 9,7 km/h (2 Bft)
01.05.2017 05:35 2,9 °C 3,0 °C 80 % 1005,5 hPa 0,0 mm 1,8 km/h (1 Bft) W-NW 299 ° 0 min 0,000 mm 0,0 UV-I 0 W/m² -0,2 °C 2,9 °C 6,4 km/h (2 Bft)
01.05.2017 05:36 2,7 °C 2,9 °C 80 % 1005,5 hPa 0,0 mm 0,5 km/h (0 Bft) W-NW 299 ° 0 min 0,000 mm 0,0 UV-I 0 W/m² -0,4 °C 2,7 °C 1,6 km/h (1 Bft)
01.05.2017 05:37 2,6 °C 2,7 °C 80 % 1005,5 hPa 0,0 mm 0,0 km/h (0 Bft) W-NW 299 ° 0 min 0,000 mm 0,0 UV-I 0 W/m² -0,5 °C 2,6 °C 0,0 km/h (0 Bft)
01.05.2017 05:38 2,5 °C 2,6 °C 80 % 1005,5 hPa 0,0 mm 0,3 km/h (0 Bft) W-NW 299 ° 0 min 0,000 mm 0,0 UV-I 0 W/m² -0,6 °C 2,5 °C 3,2 km/h (1 Bft)
01.05.2017 05:39 2,6 °C 2,6 °C 81 % 1005,4 hPa 0,0 mm 4,9 km/h (1 Bft) O 80 ° 0 min 0,000 mm 0,0 UV-I 0 W/m² -0,3 °C 1,4 °C 6,4 km/h (2 Bft)
01.05.2017 05:40 2,5 °C 2,6 °C 81 % 1005,4 hPa 0,0 mm 1,7 km/h (1 Bft) N-NO 17 ° 0 min 0,000 mm 0,0 UV-I 0 W/m² -0,4 °C 2,5 °C 4,8 km/h (1 Bft)
01.05.2017 05:41 2,5 °C 2,5 °C 81 % 1005,5 hPa 0,0 mm 4,1 km/h (1 Bft) N-NW 331 ° 0 min 0,000 mm 0,0 UV-I 0 W/m² -0,4 °C 2,5 °C 4,8 km/h (1 Bft)
01.05.2017 05:42 2,4 °C 2,5 °C 81 % 1005,5 hPa 0,0 mm 1,6 km/h (1 Bft) N-NW 331 ° 0 min 0,000 mm 0,0 UV-I 0 W/m² -0,5 °C 2,4 °C 3,2 km/h (1 Bft)
01.05.2017 05:43 2,4 °C 2,4 °C 81 % 1005,5 hPa 0,0 mm 1,3 km/h (1 Bft) N-NW 331 ° 0 min 0,000 mm 0,0 UV-I 0 W/m² -0,5 °C 2,4 °C 3,2 km/h (1 Bft)
01.05.2017 05:44 2,3 °C 2,4 °C 81 % 1005,5 hPa 0,0 mm 1,8 km/h (1 Bft) N-NW 331 ° 0 min 0,000 mm 0,0 UV-I 0 W/m² -0,6 °C 2,3 °C 3,2 km/h (1 Bft)
01.05.2017 05:45 2,4 °C 2,4 °C 82 % 1005,5 hPa 0,0 mm 1,6 km/h (1 Bft) N-NW 331 ° 0 min 0,000 mm 0,0 UV-I 5 W/m² -0,4 °C 2,4 °C 3,2 km/h (1 Bft)
01.05.2017 05:46 2,7 °C 2,7 °C 82 % 1005,4 hPa 0,0 mm 3,0 km/h (1 Bft) O 101 ° 0 min 0,000 mm 0,0 UV-I 7 W/m² -0,1 °C 2,7 °C 4,8 km/h (1 Bft)
01.05.2017 05:47 2,8 °C 2,8 °C 82 % 1005,4 hPa 0,0 mm 3,5 km/h (1 Bft) O 101 ° 0 min 0,000 mm 0,0 UV-I 7 W/m² 0,0 °C 2,8 °C 4,8 km/h (1 Bft)
01.05.2017 05:48 2,8 °C 2,8 °C 84 % 1005,4 hPa 0,0 mm 3,1 km/h (1 Bft) O 101 ° 0 min 0,000 mm 0,0 UV-I 9 W/m² 0,4 °C 2,8 °C 4,8 km/h (1 Bft)
01.05.2017 05:49 2,8 °C 2,8 °C 83 % 1005,4 hPa 0,0 mm 2,4 km/h (1 Bft) N-NW 331 ° 0 min 0,000 mm 0,0 UV-I 9 W/m² 0,2 °C 2,8 °C 4,8 km/h (1 Bft)
01.05.2017 05:50 2,8 °C 2,8 °C 82 % 1005,5 hPa 0,0 mm 4,4 km/h (1 Bft) N-NW 331 ° 0 min 0,000 mm 0,0 UV-I 11 W/m² 0,0 °C 2,8 °C 6,4 km/h (2 Bft)
01.05.2017 05:51 2,7 °C 2,8 °C 81 % 1005,5 hPa 0,0 mm 0,5 km/h (0 Bft) N-NW 331 ° 0 min 0,000 mm 0,0 UV-I 11 W/m² -0,2 °C 2,7 °C 1,6 km/h (1 Bft)
01.05.2017 05:52 2,7 °C 2,7 °C 81 % 1005,5 hPa 0,0 mm 0,8 km/h (0 Bft) N-NW 331 ° 0 min 0,000 mm 0,0 UV-I 11 W/m² -0,2 °C 2,7 °C 1,6 km/h (1 Bft)
01.05.2017 05:53 2,6 °C 2,7 °C 81 % 1005,4 hPa 0,0 mm 1,6 km/h (1 Bft) N-NW 331 ° 0 min 0,000 mm 0,0 UV-I 12 W/m² -0,3 °C 2,6 °C 3,2 km/h (1 Bft)
01.05.2017 05:54 2,7 °C 2,7 °C 81 % 1005,5 hPa 0,0 mm 1,0 km/h (0 Bft) N-NW 331 ° 0 min 0,000 mm 0,0 UV-I 12 W/m² -0,2 °C 2,7 °C 1,6 km/h (1 Bft)
01.05.2017 05:55 2,7 °C 2,7 °C 81 % 1005,4 hPa 0,0 mm 0,1 km/h (0 Bft) N-NW 331 ° 0 min 0,000 mm 0,0 UV-I 12 W/m² -0,2 °C 2,7 °C 1,6 km/h (1 Bft)
01.05.2017 05:56 2,7 °C 2,7 °C 81 % 1005,4 hPa 0,0 mm 0,0 km/h (0 Bft) N-NW 331 ° 0 min 0,000 mm 0,0 UV-I 12 W/m² -0,2 °C 2,7 °C 0,0 km/h (0 Bft)
01.05.2017 05:57 2,8 °C 2,8 °C 82 % 1005,4 hPa 0,0 mm 2,3 km/h (1 Bft) NO 49 ° 0 min 0,000 mm 0,0 UV-I 11 W/m² 0,0 °C 2,8 °C 4,8 km/h (1 Bft)
01.05.2017 05:58 3,0 °C 3,0 °C 82 % 1005,4 hPa 0,0 mm 4,2 km/h (1 Bft) O-NO 66 ° 0 min 0,000 mm 0,0 UV-I 11 W/m² 0,2 °C 3,0 °C 4,8 km/h (1 Bft)
01.05.2017 05:59 3,1 °C 3,1 °C 82 % 1005,3 hPa 0,0 mm 3,5 km/h (1 Bft) O-NO 66 ° 0 min 0,000 mm 0,0 UV-I 7 W/m² 0,3 °C 3,1 °C 6,4 km/h (2 Bft)
01.05.2017 06:00 3,3 °C 3,3 °C 82 % 1005,4 hPa 0,0 mm 2,5 km/h (1 Bft) O-NO 66 ° 0 min 0,000 mm 0,0 UV-I 5 W/m² 0,5 °C 3,3 °C 4,8 km/h (1 Bft)
01.05.2017 06:01 3,4 °C 3,4 °C 80 % 1005,3 hPa 0,0 mm 0,4 km/h (0 Bft) O-NO 66 ° 0 min 0,000 mm 0,0 UV-I 5 W/m² 0,3 °C 3,4 °C 1,6 km/h (1 Bft)
01.05.2017 06:02 3,6 °C 3,6 °C 80 % 1005,3 hPa 0,0 mm 1,0 km/h (0 Bft) O-SO 110 ° 0 min 0,000 mm 0,0 UV-I 5 W/m² 0,5 °C 3,6 °C 4,8 km/h (1 Bft)
01.05.2017 06:03 3,7 °C 3,7 °C 77 % 1005,3 hPa 0,0 mm 3,0 km/h (1 Bft) O-SO 110 ° 0 min 0,000 mm 0,0 UV-I 5 W/m² 0,1 °C 3,7 °C 4,8 km/h (1 Bft)
01.05.2017 06:04 3,8 °C 3,8 °C 77 % 1005,3 hPa 0,0 mm 2,6 km/h (1 Bft) N-NW 332 ° 0 min 0,000 mm 0,0 UV-I 5 W/m² 0,1 °C 3,8 °C 4,8 km/h (1 Bft)
01.05.2017 06:05 3,7 °C 3,8 °C 78 % 1005,3 hPa 0,0 mm 0,5 km/h (0 Bft) N-NW 332 ° 0 min 0,000 mm 0,0 UV-I 7 W/m² 0,2 °C 3,7 °C 1,6 km/h (1 Bft)
01.05.2017 06:06 3,4 °C 3,7 °C 78 % 1005,2 hPa 0,0 mm 0,0 km/h (0 Bft) N-NW 332 ° 0 min 0,000 mm 0,0 UV-I 7 W/m² -0,1 °C 3,4 °C 0,0 km/h (0 Bft)
01.05.2017 06:07 3,2 °C 3,4 °C 79 % 1005,2 hPa 0,0 mm 0,0 km/h (0 Bft) N-NW 332 ° 0 min 0,000 mm 0,0 UV-I 7 W/m² -0,1 °C 3,2 °C 0,0 km/h (0 Bft)
01.05.2017 06:08 3,0 °C 3,2 °C 80 % 1005,3 hPa 0,0 mm 0,0 km/h (0 Bft) N-NW 332 ° 0 min 0,000 mm 0,0 UV-I 7 W/m² -0,1 °C 3,0 °C 0,0 km/h (0 Bft)
01.05.2017 06:09 2,9 °C 3,0 °C 80 % 1005,4 hPa 0,0 mm 0,7 km/h (0 Bft) N-NW 332 ° 0 min 0,000 mm 0,0 UV-I 7 W/m² -0,2 °C 2,9 °C 3,2 km/h (1 Bft)
01.05.2017 06:10 2,8 °C 2,9 °C 81 % 1005,4 hPa 0,0 mm 0,1 km/h (0 Bft) N-NW 332 ° 0 min 0,000 mm 0,0 UV-I 7 W/m² -0,1 °C 2,8 °C 1,6 km/h (1 Bft)
01.05.2017 06:11 2,7 °C 2,8 °C 82 % 1005,4 hPa 0,0 mm 0,0 km/h (0 Bft) N-NW 332 ° 0 min 0,000 mm 0,0 UV-I 9 W/m² -0,1 °C 2,7 °C 0,0 km/h (0 Bft)
01.05.2017 06:12 2,6 °C 2,7 °C 82 % 1005,4 hPa 0,0 mm 0,0 km/h (0 Bft) N-NW 332 ° 0 min 0,000 mm 0,0 UV-I 9 W/m² -0,2 °C 2,6 °C 0,0 km/h (0 Bft)
01.05.2017 06:13 2,6 °C 2,6 °C 82 % 1005,4 hPa 0,0 mm 2,0 km/h (1 Bft) O-SO 109 ° 0 min 0,000 mm 0,0 UV-I 9 W/m² -0,2 °C 2,6 °C 4,8 km/h (1 Bft)
01.05.2017 06:14 2,7 °C 2,7 °C 82 % 1005,4 hPa 0,0 mm 3,1 km/h (1 Bft) O-SO 109 ° 0 min 0,000 mm 0,0 UV-I 11 W/m² -0,1 °C 2,7 °C 4,8 km/h (1 Bft)
01.05.2017 06:15 2,6 °C 2,7 °C 82 % 1005,5 hPa 0,0 mm 2,6 km/h (1 Bft) O-SO 109 ° 0 min 0,000 mm 0,0 UV-I 11 W/m² -0,2 °C 2,6 °C 4,8 km/h (1 Bft)
01.05.2017 06:16 2,6 °C 2,6 °C 82 % 1005,4 hPa 0,0 mm 0,2 km/h (0 Bft) O-SO 109 ° 0 min 0,000 mm 0,0 UV-I 11 W/m² -0,2 °C 2,6 °C 1,6 km/h (1 Bft)
01.05.2017 06:17 2,7 °C 2,7 °C 83 % 1005,4 hPa 0,0 mm 0,0 km/h (0 Bft) O-SO 109 ° 0 min 0,000 mm 0,0 UV-I 12 W/m² 0,1 °C 2,7 °C 0,0 km/h (0 Bft)
01.05.2017 06:18 2,9 °C 2,9 °C 83 % 1005,4 hPa 0,0 mm 0,0 km/h (0 Bft) O-SO 109 ° 0 min 0,000 mm 0,0 UV-I 14 W/m² 0,3 °C 2,9 °C 0,0 km/h (0 Bft)
01.05.2017 06:19 3,2 °C 3,2 °C 82 % 1005,3 hPa 0,0 mm 0,0 km/h (0 Bft) O-SO 109 ° 0 min 0,000 mm 0,0 UV-I 14 W/m² 0,4 °C 3,2 °C 0,0 km/h (0 Bft)
01.05.2017 06:20 3,2 °C 3,3 °C 82 % 1005,3 hPa 0,0 mm 0,0 km/h (0 Bft) O-SO 109 ° 0 min 0,000 mm 0,0 UV-I 16 W/m² 0,4 °C 3,2 °C 0,0 km/h (0 Bft)
01.05.2017 06:21 3,2 °C 3,3 °C 82 % 1005,3 hPa 0,0 mm 0,0 km/h (0 Bft) O-SO 109 ° 0 min 0,000 mm 0,0 UV-I 16 W/m² 0,4 °C 3,2 °C 0,0 km/h (0 Bft)
01.05.2017 06:22 3,2 °C 3,2 °C 81 % 1005,4 hPa 0,0 mm 0,4 km/h (0 Bft) O-SO 109 ° 0 min 0,000 mm 0,0 UV-I 16 W/m² 0,3 °C 3,2 °C 3,2 km/h (1 Bft)
01.05.2017 06:23 2,9 °C 3,2 °C 81 % 1005,5 hPa 0,0 mm 4,3 km/h (1 Bft) NW 317 ° 0 min 0,000 mm 0,0 UV-I 18 W/m² -0,0 °C 2,9 °C 6,4 km/h (2 Bft)
01.05.2017 06:24 2,8 °C 2,9 °C 82 % 1005,5 hPa 0,0 mm 3,6 km/h (1 Bft) W-NW 301 ° 0 min 0,000 mm 0,0 UV-I 19 W/m² 0,0 °C 2,8 °C 6,4 km/h (2 Bft)
01.05.2017 06:25 2,7 °C 2,8 °C 82 % 1005,4 hPa 0,0 mm 3,0 km/h (1 Bft) W-NW 301 ° 0 min 0,000 mm 0,0 UV-I 21 W/m² -0,1 °C 2,7 °C 4,8 km/h (1 Bft)
01.05.2017 06:26 2,7 °C 2,7 °C 82 % 1005,4 hPa 0,0 mm 2,1 km/h (1 Bft) S-SW 195 ° 0 min 0,000 mm 0,0 UV-I 21 W/m² -0,1 °C 2,7 °C 4,8 km/h (1 Bft)
01.05.2017 06:27 2,9 °C 2,9 °C 82 % 1005,5 hPa 0,0 mm 4,0 km/h (1 Bft) S-SO 168 ° 0 min 0,000 mm 0,0 UV-I 23 W/m² 0,1 °C 2,9 °C 6,4 km/h (2 Bft)
01.05.2017 06:28 3,1 °C 3,1 °C 83 % 1005,5 hPa 0,0 mm 3,9 km/h (1 Bft) S-SO 154 ° 0 min 0,000 mm 0,0 UV-I 25 W/m² 0,5 °C 3,1 °C 6,4 km/h (2 Bft)
01.05.2017 06:29 3,3 °C 3,3 °C 82 % 1005,5 hPa 0,0 mm 2,2 km/h (1 Bft) S-SO 154 ° 0 min 0,000 mm 0,0 UV-I 26 W/m² 0,5 °C 3,3 °C 3,2 km/h (1 Bft)
01.05.2017 06:30 3,6 °C 3,6 °C 81 % 1005,5 hPa 0,0 mm 1,9 km/h (1 Bft) S-SO 154 ° 0 min 0,000 mm 0,0 UV-I 26 W/m² 0,7 °C 3,6 °C 3,2 km/h (1 Bft)
01.05.2017 06:31 3,9 °C 3,9 °C 80 % 1005,5 hPa 0,0 mm 1,1 km/h (1 Bft) S-SO 154 ° 0 min 0,000 mm 0,0 UV-I 28 W/m² 0,8 °C 3,9 °C 1,6 km/h (1 Bft)
01.05.2017 06:32 4,2 °C 4,2 °C 79 % 1005,4 hPa 0,0 mm 0,0 km/h (0 Bft) S-SO 154 ° 0 min 0,000 mm 0,0 UV-I 28 W/m² 0,9 °C 4,2 °C 0,0 km/h (0 Bft)
01.05.2017 06:33 4,5 °C 4,5 °C 78 % 1005,5 hPa 0,0 mm 0,4 km/h (0 Bft) S-SW 202 ° 0 min 0,000 mm 0,0 UV-I 30 W/m² 1,0 °C 4,5 °C 3,2 km/h (1 Bft)
01.05.2017 06:34 4,4 °C 4,5 °C 78 % 1005,5 hPa 0,0 mm 3,2 km/h (1 Bft) W-NW 290 ° 0 min 0,000 mm 0,0 UV-I 33 W/m² 0,9 °C 4,4 °C 6,4 km/h (2 Bft)
01.05.2017 06:35 4,3 °C 4,4 °C 78 % 1005,5 hPa 0,0 mm 2,4 km/h (1 Bft) W-NW 290 ° 0 min 0,000 mm 0,0 UV-I 37 W/m² 0,8 °C 4,3 °C 4,8 km/h (1 Bft)
01.05.2017 06:36 4,0 °C 4,3 °C 78 % 1005,6 hPa 0,0 mm 0,1 km/h (0 Bft) W-NW 290 ° 0 min 0,000 mm 0,0 UV-I 39 W/m² 0,5 °C 4,0 °C 1,6 km/h (1 Bft)
01.05.2017 06:37 3,8 °C 4,0 °C 79 % 1005,6 hPa 0,0 mm 0,0 km/h (0 Bft) W-NW 290 ° 0 min 0,000 mm 0,0 UV-I 39 W/m² 0,5 °C 3,8 °C 0,0 km/h (0 Bft)
01.05.2017 06:38 3,6 °C 3,8 °C 80 % 1005,6 hPa 0,0 mm 0,0 km/h (0 Bft) W-NW 290 ° 0 min 0,000 mm 0,0 UV-I 39 W/m² 0,5 °C 3,6 °C 0,0 km/h (0 Bft)
01.05.2017 06:39 3,4 °C 3,6 °C 81 % 1005,6 hPa 0,0 mm 1,5 km/h (1 Bft) NW 306 ° 0 min 0,000 mm 0,0 UV-I 39 W/m² 0,5 °C 3,4 °C 4,8 km/h (1 Bft)
01.05.2017 06:40 3,2 °C 3,4 °C 81 % 1005,7 hPa 0,0 mm 2,7 km/h (1 Bft) NW 310 ° 0 min 0,000 mm 0,0 UV-I 40 W/m² 0,3 °C 3,2 °C 4,8 km/h (1 Bft)
01.05.2017 06:41 3,0 °C 3,2 °C 82 % 1005,7 hPa 0,0 mm 0,3 km/h (0 Bft) W 278 ° 0 min 0,000 mm 0,0 UV-I 42 W/m² 0,2 °C 3,0 °C 3,2 km/h (1 Bft)
01.05.2017 06:42 2,9 °C 3,0 °C 82 % 1005,8 hPa 0,0 mm 3,2 km/h (1 Bft) S-SW 196 ° 0 min 0,000 mm 0,0 UV-I 42 W/m² 0,1 °C 2,9 °C 4,8 km/h (1 Bft)
01.05.2017 06:43 2,9 °C 3,0 °C 83 % 1005,8 hPa 0,0 mm 2,0 km/h (1 Bft) S-SW 196 ° 0 min 0,000 mm 0,0 UV-I 44 W/m² 0,3 °C 2,9 °C 3,2 km/h (1 Bft)
01.05.2017 06:44 3,1 °C 3,1 °C 83 % 1005,8 hPa 0,0 mm 1,8 km/h (1 Bft) S-SW 196 ° 0 min 0,000 mm 0,0 UV-I 46 W/m² 0,5 °C 3,1 °C 3,2 km/h (1 Bft)
01.05.2017 06:45 3,2 °C 3,2 °C 83 % 1005,8 hPa 0,0 mm 2,2 km/h (1 Bft) S-SW 196 ° 0 min 0,000 mm 0,0 UV-I 44 W/m² 0,6 °C 3,2 °C 3,2 km/h (1 Bft)
01.05.2017 06:46 3,4 °C 3,4 °C 83 % 1005,8 hPa 0,0 mm 1,3 km/h (1 Bft) S-SW 196 ° 0 min 0,000 mm 0,0 UV-I 44 W/m² 0,8 °C 3,4 °C 1,6 km/h (1 Bft)
01.05.2017 06:47 3,8 °C 3,8 °C 79 % 1005,8 hPa 0,0 mm 1,8 km/h (1 Bft) S-SW 196 ° 0 min 0,000 mm 0,0 UV-I 44 W/m² 0,5 °C 3,8 °C 3,2 km/h (1 Bft)
01.05.2017 06:48 4,3 °C 4,3 °C 76 % 1005,7 hPa 0,0 mm 2,1 km/h (1 Bft) S-SW 195 ° 0 min 0,000 mm 0,0 UV-I 46 W/m² 0,5 °C 4,3 °C 3,2 km/h (1 Bft)
01.05.2017 06:49 4,7 °C 4,7 °C 76 % 1005,7 hPa 0,0 mm 0,5 km/h (0 Bft) S-SW 195 ° 0 min 0,000 mm 0,0 UV-I 47 W/m² 0,8 °C 4,7 °C 1,6 km/h (1 Bft)
01.05.2017 06:50 4,9 °C 4,9 °C 77 % 1005,7 hPa 0,0 mm 0,0 km/h (0 Bft) S-SW 195 ° 0 min 0,000 mm 0,0 UV-I 47 W/m² 1,2 °C 4,9 °C 0,0 km/h (0 Bft)
01.05.2017 06:51 4,9 °C 4,9 °C 76 % 1005,6 hPa 0,0 mm 0,0 km/h (0 Bft) S-SW 195 ° 0 min 0,000 mm 0,0 UV-I 44 W/m² 1,0 °C 4,9 °C 0,0 km/h (0 Bft)
01.05.2017 06:52 5,1 °C 5,1 °C 75 % 1005,6 hPa 0,0 mm 0,0 km/h (0 Bft) S-SW 195 ° 0 min 0,000 mm 0,0 UV-I 42 W/m² 1,0 °C 5,1 °C 0,0 km/h (0 Bft)
01.05.2017 06:53 5,1 °C 5,1 °C 75 % 1005,6 hPa 0,0 mm 0,0 km/h (0 Bft) S-SW 195 ° 0 min 0,000 mm 0,0 UV-I 40 W/m² 1,0 °C 5,1 °C 0,0 km/h (0 Bft)
01.05.2017 06:54 5,2 °C 5,2 °C 76 % 1005,6 hPa 0,0 mm 0,0 km/h (0 Bft) S-SW 195 ° 0 min 0,000 mm 0,0 UV-I 40 W/m² 1,3 °C 5,2 °C 0,0 km/h (0 Bft)
01.05.2017 06:55 5,4 °C 5,4 °C 72 % 1005,7 hPa 0,0 mm 0,4 km/h (0 Bft) S-SW 195 ° 0 min 0,000 mm 0,0 UV-I 42 W/m² 0,8 °C 5,4 °C 1,6 km/h (1 Bft)
01.05.2017 06:56 5,7 °C 5,7 °C 70 % 1005,7 hPa 0,0 mm 3,1 km/h (1 Bft) S-SW 195 ° 0 min 0,000 mm 0,0 UV-I 42 W/m² 0,7 °C 5,7 °C 3,2 km/h (1 Bft)
01.05.2017 06:57 5,9 °C 5,9 °C 69 % 1005,6 hPa 0,0 mm 2,9 km/h (1 Bft) S-SW 195 ° 0 min 0,000 mm 0,0 UV-I 42 W/m² 0,7 °C 5,9 °C 4,8 km/h (1 Bft)
01.05.2017 06:58 6,2 °C 6,2 °C 69 % 1005,7 hPa 0,0 mm 1,3 km/h (1 Bft) S-SW 195 ° 0 min 0,000 mm 0,0 UV-I 44 W/m² 0,9 °C 6,2 °C 3,2 km/h (1 Bft)
01.05.2017 06:59 6,3 °C 6,3 °C 70 % 1005,7 hPa 0,0 mm 0,0 km/h (0 Bft) S-SW 195 ° 0 min 0,000 mm 0,0 UV-I 46 W/m² 1,2 °C 6,3 °C 0,0 km/h (0 Bft)
01.05.2017 07:00 6,3 °C 6,3 °C 70 % 1005,7 hPa 0,0 mm 0,0 km/h (0 Bft) S-SW 195 ° 0 min 0,000 mm 0,0 UV-I 46 W/m² 1,2 °C 6,3 °C 0,0 km/h (0 Bft)
01.05.2017 07:01 6,3 °C 6,3 °C 70 % 1005,7 hPa 0,0 mm 0,0 km/h (0 Bft) S-SW 195 ° 0 min 0,025 mm 0,0 UV-I 47 W/m² 1,2 °C 6,3 °C 0,0 km/h (0 Bft)
01.05.2017 07:02 6,3 °C 6,3 °C 70 % 1005,7 hPa 0,0 mm 1,0 km/h (0 Bft) S-SW 197 ° 0 min 0,000 mm 0,0 UV-I 47 W/m² 1,2 °C 6,3 °C 3,2 km/h (1 Bft)
01.05.2017 07:03 6,1 °C 6,3 °C 74 % 1005,7 hPa 0,0 mm 2,8 km/h (1 Bft) S-SW 197 ° 0 min 0,000 mm 0,0 UV-I 49 W/m² 1,8 °C 6,1 °C 3,2 km/h (1 Bft)
01.05.2017 07:04 5,9 °C 6,1 °C 75 % 1005,8 hPa 0,0 mm 1,4 km/h (1 Bft) S-SW 197 ° 0 min 0,000 mm 0,0 UV-I 51 W/m² 1,8 °C 5,9 °C 3,2 km/h (1 Bft)
01.05.2017 07:05 5,7 °C 5,9 °C 75 % 1005,8 hPa 0,0 mm 1,1 km/h (1 Bft) S-SW 197 ° 0 min 0,000 mm 0,0 UV-I 51 W/m² 1,6 °C 5,7 °C 3,2 km/h (1 Bft)
01.05.2017 07:06 5,6 °C 5,7 °C 75 % 1005,8 hPa 0,0 mm 1,9 km/h (1 Bft) S-SW 197 ° 0 min 0,000 mm 0,0 UV-I 51 W/m² 1,5 °C 5,6 °C 3,2 km/h (1 Bft)
01.05.2017 07:07 5,5 °C 5,6 °C 76 % 1005,9 hPa 0,0 mm 1,0 km/h (0 Bft) S-SW 197 ° 0 min 0,000 mm 0,0 UV-I 53 W/m² 1,6 °C 5,5 °C 3,2 km/h (1 Bft)
01.05.2017 07:08 5,6 °C 5,6 °C 73 % 1005,9 hPa 0,0 mm 0,0 km/h (0 Bft) S-SW 197 ° 0 min 0,000 mm 0,0 UV-I 53 W/m² 1,2 °C 5,6 °C 0,0 km/h (0 Bft)
01.05.2017 07:09 5,7 °C 5,7 °C 72 % 1005,9 hPa 0,0 mm 0,3 km/h (0 Bft) S-SW 197 ° 0 min 0,000 mm 0,0 UV-I 54 W/m² 1,1 °C 5,7 °C 1,6 km/h (1 Bft)
01.05.2017 07:10 5,9 °C 5,9 °C 70 % 1005,9 hPa 0,0 mm 2,1 km/h (1 Bft) S-SW 197 ° 0 min 0,000 mm 0,0 UV-I 54 W/m² 0,9 °C 5,9 °C 3,2 km/h (1 Bft)
01.05.2017 07:11 6,2 °C 6,2 °C 69 % 1005,9 hPa 0,0 mm 0,4 km/h (0 Bft) S-SW 197 ° 0 min 0,000 mm 0,0 UV-I 54 W/m² 0,9 °C 6,2 °C 1,6 km/h (1 Bft)
01.05.2017 07:12 6,4 °C 6,4 °C 68 % 1006,0 hPa 0,0 mm 0,2 km/h (0 Bft) S-SW 197 ° 0 min 0,000 mm 0,0 UV-I 54 W/m² 0,9 °C 6,4 °C 1,6 km/h (1 Bft)
01.05.2017 07:13 6,5 °C 6,5 °C 68 % 1005,9 hPa 0,0 mm 0,6 km/h (0 Bft) S-SW 197 ° 0 min 0,000 mm 0,0 UV-I 54 W/m² 1,0 °C 6,5 °C 1,6 km/h (1 Bft)
01.05.2017 07:14 6,6 °C 6,6 °C 68 % 1006,0 hPa 0,0 mm 0,6 km/h (0 Bft) S-SW 197 ° 0 min 0,000 mm 0,0 UV-I 56 W/m² 1,1 °C 6,6 °C 1,6 km/h (1 Bft)
01.05.2017 07:15 6,7 °C 6,7 °C 67 % 1006,0 hPa 0,0 mm 0,2 km/h (0 Bft) S-SW 197 ° 0 min 0,000 mm 0,0 UV-I 58 W/m² 1,0 °C 6,7 °C 1,6 km/h (1 Bft)
01.05.2017 07:16 6,7 °C 6,7 °C 68 % 1006,0 hPa 0,0 mm 0,0 km/h (0 Bft) S-SW 197 ° 0 min 0,000 mm 0,0 UV-I 60 W/m² 1,2 °C 6,7 °C 0,0 km/h (0 Bft)
01.05.2017 07:17 6,8 °C 6,8 °C 66 % 1006,0 hPa 0,0 mm 1,0 km/h (0 Bft) S-SW 197 ° 0 min 0,000 mm 0,0 UV-I 62 W/m² 0,9 °C 6,8 °C 4,8 km/h (1 Bft)
01.05.2017 07:18 6,9 °C 6,9 °C 65 % 1006,0 hPa 0,0 mm 3,2 km/h (1 Bft) S-SW 197 ° 0 min 0,000 mm 0,0 UV-I 62 W/m² 0,8 °C 6,9 °C 4,8 km/h (1 Bft)
01.05.2017 07:19 6,9 °C 6,9 °C 66 % 1006,0 hPa 0,0 mm 4,0 km/h (1 Bft) S-SW 197 ° 0 min 0,000 mm 0,0 UV-I 63 W/m² 1,0 °C 6,9 °C 4,8 km/h (1 Bft)
01.05.2017 07:20 7,0 °C 7,0 °C 66 % 1006,0 hPa 0,0 mm 3,8 km/h (1 Bft) S-SW 197 ° 0 min 0,000 mm 0,0 UV-I 65 W/m² 1,1 °C 7,0 °C 4,8 km/h (1 Bft)
01.05.2017 07:21 7,0 °C 7,0 °C 66 % 1006,1 hPa 0,0 mm 1,1 km/h (1 Bft) S-SW 197 ° 0 min 0,000 mm 0,0 UV-I 69 W/m² 1,1 °C 7,0 °C 3,2 km/h (1 Bft)
01.05.2017 07:22 6,9 °C 7,0 °C 68 % 1006,1 hPa 0,0 mm 1,8 km/h (1 Bft) S-SW 197 ° 0 min 0,000 mm 0,0 UV-I 72 W/m² 1,4 °C 6,9 °C 3,2 km/h (1 Bft)
01.05.2017 07:23 6,9 °C 6,9 °C 68 % 1006,2 hPa 0,0 mm 1,7 km/h (1 Bft) S-SW 197 ° 0 min 0,000 mm 0,0 UV-I 84 W/m² 1,4 °C 6,9 °C 3,2 km/h (1 Bft)
01.05.2017 07:24 6,9 °C 6,9 °C 69 % 1006,2 hPa 0,0 mm 1,1 km/h (1 Bft) S-SW 197 ° 0 min 0,000 mm 0,5 UV-I 91 W/m² 1,6 °C 6,9 °C 1,6 km/h (1 Bft)
01.05.2017 07:25 6,8 °C 6,9 °C 68 % 1006,2 hPa 0,0 mm 2,8 km/h (1 Bft) S-SW 197 ° 0 min 0,000 mm 0,5 UV-I 93 W/m² 1,3 °C 6,8 °C 3,2 km/h (1 Bft)
01.05.2017 07:26 6,8 °C 6,8 °C 69 % 1006,3 hPa 0,0 mm 1,9 km/h (1 Bft) S-SW 197 ° 0 min 0,000 mm 0,5 UV-I 104 W/m² 1,5 °C 6,8 °C 3,2 km/h (1 Bft)
01.05.2017 07:27 6,9 °C 6,9 °C 72 % 1006,3 hPa 0,0 mm 2,1 km/h (1 Bft) S-SW 197 ° 0 min 0,000 mm 0,5 UV-I 109 W/m² 2,2 °C 6,9 °C 3,2 km/h (1 Bft)
01.05.2017 07:28 6,9 °C 6,9 °C 73 % 1006,3 hPa 0,0 mm 2,1 km/h (1 Bft) S-SW 197 ° 0 min 0,000 mm 0,5 UV-I 74 W/m² 2,4 °C 6,9 °C 3,2 km/h (1 Bft)
01.05.2017 07:29 6,9 °C 6,9 °C 74 % 1006,3 hPa 0,0 mm 2,8 km/h (1 Bft) SW 216 ° 0 min 0,000 mm 0,5 UV-I 69 W/m² 2,6 °C 6,9 °C 4,8 km/h (1 Bft)
01.05.2017 07:30 7,0 °C 7,0 °C 70 % 1006,3 hPa 0,0 mm 3,0 km/h (1 Bft) W-SW 251 ° 0 min 0,000 mm 0,5 UV-I 72 W/m² 1,9 °C 7,0 °C 4,8 km/h (1 Bft)
01.05.2017 07:31 7,1 °C 7,1 °C 69 % 1006,4 hPa 0,0 mm 3,5 km/h (1 Bft) W-SW 250 ° 0 min 0,000 mm 0,5 UV-I 74 W/m² 1,8 °C 7,1 °C 4,8 km/h (1 Bft)
01.05.2017 07:32 7,1 °C 7,1 °C 69 % 1006,4 hPa 0,0 mm 2,7 km/h (1 Bft) W-SW 250 ° 0 min 0,000 mm 0,5 UV-I 76 W/m² 1,8 °C 7,1 °C 4,8 km/h (1 Bft)
01.05.2017 07:33 7,1 °C 7,1 °C 71 % 1006,4 hPa 0,0 mm 3,9 km/h (1 Bft) W 269 ° 0 min 0,000 mm 0,5 UV-I 79 W/m² 2,2 °C 7,1 °C 6,4 km/h (2 Bft)
01.05.2017 07:34 7,1 °C 7,1 °C 70 % 1006,6 hPa 0,0 mm 4,4 km/h (1 Bft) W 273 ° 0 min 0,000 mm 0,5 UV-I 83 W/m² 2,0 °C 7,1 °C 6,4 km/h (2 Bft)
01.05.2017 07:35 7,1 °C 7,1 °C 71 % 1006,6 hPa 0,0 mm 2,1 km/h (1 Bft) W 273 ° 0 min 0,000 mm 0,6 UV-I 95 W/m² 2,2 °C 7,1 °C 3,2 km/h (1 Bft)
01.05.2017 07:36 7,1 °C 7,1 °C 70 % 1006,6 hPa 0,0 mm 2,7 km/h (1 Bft) W-SW 257 ° 0 min 0,000 mm 0,6 UV-I 95 W/m² 2,0 °C 7,1 °C 4,8 km/h (1 Bft)
01.05.2017 07:37 7,1 °C 7,1 °C 71 % 1006,8 hPa 0,0 mm 5,2 km/h (1 Bft) W 264 ° 0 min 0,000 mm 0,6 UV-I 111 W/m² 2,2 °C 6,4 °C 6,4 km/h (2 Bft)
01.05.2017 07:38 7,1 °C 7,1 °C 72 % 1006,8 hPa 0,0 mm 7,6 km/h (2 Bft) W 269 ° 0 min 0,000 mm 0,6 UV-I 105 W/m² 2,4 °C 5,7 °C 11,3 km/h (2 Bft)
01.05.2017 07:39 7,1 °C 7,1 °C 71 % 1006,9 hPa 0,0 mm 6,4 km/h (2 Bft) W 263 ° 0 min 0,000 mm 0,6 UV-I 111 W/m² 2,2 °C 6,0 °C 11,3 km/h (2 Bft)
01.05.2017 07:40 7,2 °C 7,2 °C 71 % 1006,9 hPa 0,0 mm 8,9 km/h (2 Bft) W-SW 245 ° 0 min 0,000 mm 0,6 UV-I 104 W/m² 2,3 °C 5,5 °C 12,9 km/h (3 Bft)
01.05.2017 07:41 7,3 °C 7,3 °C 72 % 1007,0 hPa 0,0 mm 9,7 km/h (2 Bft) W-NW 287 ° 0 min 0,000 mm 0,6 UV-I 97 W/m² 2,6 °C 5,5 °C 12,9 km/h (3 Bft)
01.05.2017 07:42 7,3 °C 7,4 °C 70 % 1007,1 hPa 0,0 mm 8,1 km/h (2 Bft) W 261 ° 0 min 0,000 mm 0,6 UV-I 91 W/m² 2,2 °C 5,8 °C 11,3 km/h (2 Bft)
01.05.2017 07:43 7,4 °C 7,4 °C 70 % 1007,1 hPa 0,0 mm 10,5 km/h (2 Bft) W 267 ° 0 min 0,000 mm 0,7 UV-I 93 W/m² 2,3 °C 5,4 °C 16,1 km/h (3 Bft)
01.05.2017 07:44 7,5 °C 7,6 °C 69 % 1007,1 hPa 0,0 mm 7,6 km/h (2 Bft) W-SW 249 ° 0 min 0,000 mm 0,7 UV-I 98 W/m² 2,2 °C 6,2 °C 12,9 km/h (3 Bft)
01.05.2017 07:45 7,6 °C 7,6 °C 69 % 1007,2 hPa 0,0 mm 7,9 km/h (2 Bft) W 275 ° 0 min 0,000 mm 0,7 UV-I 111 W/m² 2,3 °C 6,2 °C 12,9 km/h (3 Bft)
01.05.2017 07:46 7,7 °C 7,7 °C 70 % 1007,2 hPa 0,0 mm 4,5 km/h (1 Bft) W 267 ° 0 min 0,000 mm 0,7 UV-I 114 W/m² 2,6 °C 7,7 °C 6,4 km/h (2 Bft)
01.05.2017 07:47 7,7 °C 7,7 °C 70 % 1007,2 hPa 0,0 mm 5,5 km/h (1 Bft) W 275 ° 0 min 0,000 mm 0,8 UV-I 141 W/m² 2,6 °C 7,0 °C 9,7 km/h (2 Bft)
01.05.2017 07:48 7,8 °C 7,8 °C 70 % 1007,1 hPa 0,0 mm 4,0 km/h (1 Bft) W 263 ° 0 min 0,000 mm 0,8 UV-I 146 W/m² 2,7 °C 7,8 °C 6,4 km/h (2 Bft)
01.05.2017 07:49 7,8 °C 7,8 °C 70 % 1007,1 hPa 0,0 mm 3,2 km/h (1 Bft) W 276 ° 0 min 0,000 mm 0,8 UV-I 158 W/m² 2,7 °C 7,8 °C 4,8 km/h (1 Bft)
01.05.2017 07:50 8,0 °C 8,0 °C 69 % 1007,1 hPa 0,0 mm 3,2 km/h (1 Bft) W 270 ° 0 min 0,000 mm 0,9 UV-I 179 W/m² 2,7 °C 8,0 °C 4,8 km/h (1 Bft)
01.05.2017 07:51 8,2 °C 8,2 °C 71 % 1007,0 hPa 0,0 mm 0,9 km/h (0 Bft) W 270 ° 0 min 0,000 mm 0,9 UV-I 188 W/m² 3,3 °C 8,2 °C 3,2 km/h (1 Bft)
01.05.2017 07:52 8,3 °C 8,3 °C 66 % 1007,0 hPa 0,0 mm 0,2 km/h (0 Bft) W 270 ° 0 min 0,000 mm 0,9 UV-I 211 W/m² 2,3 °C 8,3 °C 1,6 km/h (1 Bft)
01.05.2017 07:53 8,6 °C 8,6 °C 68 % 1007,1 hPa 0,0 mm 0,0 km/h (0 Bft) W 270 ° 0 min 0,000 mm 1,0 UV-I 223 W/m² 3,0 °C 8,6 °C 0,0 km/h (0 Bft)
01.05.2017 07:54 8,8 °C 8,8 °C 67 % 1007,1 hPa 0,0 mm 1,5 km/h (1 Bft) W 270 ° 0 min 0,000 mm 1,0 UV-I 250 W/m² 3,0 °C 8,8 °C 4,8 km/h (1 Bft)
01.05.2017 07:55 9,0 °C 9,0 °C 67 % 1007,1 hPa 0,0 mm 2,9 km/h (1 Bft) W 270 ° 0 min 0,000 mm 1,1 UV-I 269 W/m² 3,2 °C 9,0 °C 4,8 km/h (1 Bft)
01.05.2017 07:56 9,1 °C 9,1 °C 66 % 1007,1 hPa 0,0 mm 1,3 km/h (1 Bft) W 270 ° 0 min 0,000 mm 1,1 UV-I 279 W/m² 3,1 °C 9,1 °C 3,2 km/h (1 Bft)
01.05.2017 07:57 9,2 °C 9,2 °C 66 % 1007,1 hPa 0,0 mm 0,5 km/h (0 Bft) W 270 ° 0 min 0,000 mm 1,1 UV-I 279 W/m² 3,2 °C 9,2 °C 3,2 km/h (1 Bft)
01.05.2017 07:58 9,3 °C 9,3 °C 67 % 1007,1 hPa 0,0 mm 1,9 km/h (1 Bft) W 270 ° 0 min 0,000 mm 1,1 UV-I 265 W/m² 3,5 °C 9,3 °C 3,2 km/h (1 Bft)
01.05.2017 07:59 9,3 °C 9,3 °C 67 % 1007,2 hPa 0,0 mm 2,6 km/h (1 Bft) W 272 ° 1 min 0,000 mm 1,2 UV-I 311 W/m² 3,5 °C 9,3 °C 3,2 km/h (1 Bft)
01.05.2017 08:00 9,3 °C 9,3 °C 70 % 1007,2 hPa 0,0 mm 2,7 km/h (1 Bft) NW 304 ° 1 min 0,000 mm 1,2 UV-I 325 W/m² 4,1 °C 9,3 °C 6,4 km/h (2 Bft)
01.05.2017 08:01 9,6 °C 9,6 °C 68 % 1007,2 hPa 0,0 mm 5,1 km/h (1 Bft) W-NW 285 ° 1 min 0,051 mm 1,2 UV-I 327 W/m² 4,0 °C 9,3 °C 6,4 km/h (2 Bft)
01.05.2017 08:02 9,7 °C 9,7 °C 67 % 1007,2 hPa 0,0 mm 4,8 km/h (1 Bft) W-SW 257 ° 1 min 0,000 mm 1,2 UV-I 332 W/m² 3,9 °C 9,5 °C 9,7 km/h (2 Bft)
01.05.2017 08:03 9,9 °C 9,9 °C 63 % 1007,2 hPa 0,0 mm 9,8 km/h (2 Bft) W-NW 292 ° 1 min 0,000 mm 1,2 UV-I 332 W/m² 3,2 °C 8,5 °C 12,9 km/h (3 Bft)
01.05.2017 08:04 10,2 °C 10,2 °C 60 % 1007,2 hPa 0,0 mm 6,0 km/h (2 Bft) W-NW 286 ° 1 min 0,000 mm 1,2 UV-I 348 W/m² 2,8 °C 10,2 °C 11,3 km/h (2 Bft)
01.05.2017 08:05 10,3 °C 10,3 °C 60 % 1007,2 hPa 0,0 mm 8,2 km/h (2 Bft) W-NW 303 ° 1 min 0,000 mm 1,2 UV-I 330 W/m² 2,9 °C 10,3 °C 16,1 km/h (3 Bft)
01.05.2017 08:06 10,4 °C 10,4 °C 57 % 1007,3 hPa 0,0 mm 6,8 km/h (2 Bft) W-NW 286 ° 1 min 0,000 mm 1,2 UV-I 294 W/m² 2,3 °C 10,4 °C 11,3 km/h (2 Bft)
01.05.2017 08:07 10,5 °C 10,5 °C 57 % 1007,3 hPa 0,0 mm 7,2 km/h (2 Bft) W 274 ° 0 min 0,000 mm 1,2 UV-I 278 W/m² 2,3 °C 10,5 °C 11,3 km/h (2 Bft)
01.05.2017 08:08 10,5 °C 10,5 °C 55 % 1007,2 hPa 0,0 mm 7,8 km/h (2 Bft) W 272 ° 1 min 0,000 mm 1,3 UV-I 345 W/m² 1,8 °C 10,5 °C 11,3 km/h (2 Bft)
01.05.2017 08:09 10,5 °C 10,5 °C 56 % 1007,3 hPa 0,0 mm 5,6 km/h (1 Bft) W-NW 298 ° 1 min 0,000 mm 1,2 UV-I 297 W/m² 2,1 °C 10,5 °C 11,3 km/h (2 Bft)
01.05.2017 08:10 10,4 °C 10,5 °C 57 % 1007,3 hPa 0,0 mm 9,8 km/h (2 Bft) W-NW 300 ° 1 min 0,000 mm 1,2 UV-I 294 W/m² 2,3 °C 10,4 °C 12,9 km/h (3 Bft)
01.05.2017 08:11 10,4 °C 10,4 °C 56 % 1007,3 hPa 0,0 mm 7,1 km/h (2 Bft) NW 306 ° 0 min 0,000 mm 1,2 UV-I 279 W/m² 2,0 °C 10,4 °C 14,5 km/h (3 Bft)
01.05.2017 08:12 10,3 °C 10,4 °C 57 % 1007,3 hPa 0,0 mm 5,7 km/h (1 Bft) W-NW 288 ° 0 min 0,000 mm 1,2 UV-I 220 W/m² 2,2 °C 10,3 °C 11,3 km/h (2 Bft)
01.05.2017 08:13 10,3 °C 10,3 °C 58 % 1007,3 hPa 0,0 mm 8,6 km/h (2 Bft) W-NW 286 ° 0 min 0,000 mm 1,1 UV-I 195 W/m² 2,4 °C 10,3 °C 12,9 km/h (3 Bft)
01.05.2017 08:14 10,2 °C 10,3 °C 58 % 1007,3 hPa 0,0 mm 6,7 km/h (2 Bft) W-NW 300 ° 0 min 0,000 mm 1,1 UV-I 172 W/m² 2,3 °C 10,2 °C 9,7 km/h (2 Bft)
01.05.2017 08:15 10,2 °C 10,2 °C 60 % 1007,5 hPa 0,0 mm 10,9 km/h (2 Bft) W-NW 294 ° 0 min 0,000 mm 1,1 UV-I 174 W/m² 2,8 °C 10,2 °C 14,5 km/h (3 Bft)
01.05.2017 08:16 10,1 °C 10,2 °C 60 % 1007,5 hPa 0,0 mm 7,2 km/h (2 Bft) NW 321 ° 0 min 0,000 mm 1,2 UV-I 183 W/m² 2,7 °C 10,1 °C 12,9 km/h (3 Bft)
01.05.2017 08:17 10,1 °C 10,1 °C 61 % 1007,5 hPa 0,0 mm 6,3 km/h (2 Bft) W-NW 290 ° 0 min 0,000 mm 1,2 UV-I 192 W/m² 2,9 °C 10,1 °C 12,9 km/h (3 Bft)
01.05.2017 08:18 10,0 °C 10,1 °C 60 % 1007,5 hPa 0,0 mm 10,7 km/h (2 Bft) W 278 ° 0 min 0,000 mm 1,3 UV-I 223 W/m² 2,6 °C 8,5 °C 16,1 km/h (3 Bft)
01.05.2017 08:19 9,9 °C 10,0 °C 60 % 1007,6 hPa 0,0 mm 8,3 km/h (2 Bft) W-SW 255 ° 0 min 0,000 mm 1,3 UV-I 225 W/m² 2,5 °C 8,8 °C 12,9 km/h (3 Bft)
01.05.2017 08:20 9,8 °C 9,9 °C 60 % 1007,5 hPa 0,0 mm 18,0 km/h (3 Bft) W-NW 282 ° 0 min 0,000 mm 1,3 UV-I 241 W/m² 2,4 °C 7,3 °C 24,1 km/h (4 Bft)
01.05.2017 08:21 9,7 °C 9,8 °C 60 % 1007,6 hPa 0,0 mm 11,1 km/h (2 Bft) W-NW 298 ° 0 min 0,000 mm 1,3 UV-I 204 W/m² 2,3 °C 8,1 °C 17,7 km/h (3 Bft)
01.05.2017 08:22 9,7 °C 9,7 °C 60 % 1007,7 hPa 0,0 mm 11,6 km/h (2 Bft) NW 310 ° 0 min 0,000 mm 1,3 UV-I 195 W/m² 2,3 °C 8,0 °C 22,5 km/h (4 Bft)
01.05.2017 08:23 9,6 °C 9,7 °C 62 % 1007,7 hPa 0,0 mm 10,5 km/h (2 Bft) W 273 ° 0 min 0,000 mm 1,3 UV-I 193 W/m² 2,7 °C 8,1 °C 17,7 km/h (3 Bft)
01.05.2017 08:24 9,5 °C 9,6 °C 60 % 1007,7 hPa 0,0 mm 17,1 km/h (3 Bft) W 277 ° 0 min 0,000 mm 1,3 UV-I 195 W/m² 2,1 °C 7,0 °C 22,5 km/h (4 Bft)
01.05.2017 08:25 9,4 °C 9,5 °C 61 % 1007,7 hPa 0,0 mm 12,2 km/h (2 Bft) W 261 ° 0 min 0,000 mm 1,3 UV-I 199 W/m² 2,3 °C 7,6 °C 17,7 km/h (3 Bft)
01.05.2017 08:26 9,3 °C 9,4 °C 62 % 1007,7 hPa 0,0 mm 6,9 km/h (2 Bft) W 277 ° 0 min 0,000 mm 1,4 UV-I 213 W/m² 2,4 °C 8,4 °C 11,3 km/h (2 Bft)
01.05.2017 08:27 9,3 °C 9,3 °C 62 % 1007,7 hPa 0,0 mm 5,9 km/h (2 Bft) W 259 ° 1 min 0,000 mm 1,8 UV-I 476 W/m² 2,4 °C 8,7 °C 14,5 km/h (3 Bft)
01.05.2017 08:28 9,4 °C 9,4 °C 64 % 1007,8 hPa 0,0 mm 8,7 km/h (2 Bft) W 279 ° 1 min 0,000 mm 1,9 UV-I 489 W/m² 2,9 °C 8,2 °C 12,9 km/h (3 Bft)
01.05.2017 08:29 9,6 °C 9,6 °C 65 % 1007,7 hPa 0,0 mm 8,6 km/h (2 Bft) NW 313 ° 1 min 0,000 mm 1,9 UV-I 494 W/m² 3,4 °C 8,4 °C 12,9 km/h (3 Bft)
01.05.2017 08:30 9,6 °C 9,6 °C 63 % 1007,7 hPa 0,0 mm 5,4 km/h (1 Bft) NW 313 ° 1 min 0,000 mm 1,9 UV-I 504 W/m² 2,9 °C 9,2 °C 9,7 km/h (2 Bft)
01.05.2017 08:31 9,8 °C 9,8 °C 64 % 1007,7 hPa 0,0 mm 6,6 km/h (2 Bft) W 265 ° 1 min 0,000 mm 1,9 UV-I 510 W/m² 3,3 °C 9,1 °C 9,7 km/h (2 Bft)
01.05.2017 08:32 9,8 °C 9,8 °C 63 % 1007,8 hPa 0,0 mm 7,6 km/h (2 Bft) W-NW 286 ° 1 min 0,000 mm 2,0 UV-I 510 W/m² 3,1 °C 8,9 °C 11,3 km/h (2 Bft)
01.05.2017 08:33 10,0 °C 10,0 °C 64 % 1007,7 hPa 0,0 mm 8,7 km/h (2 Bft) W-SW 250 ° 1 min 0,000 mm 1,9 UV-I 512 W/m² 3,5 °C 8,9 °C 12,9 km/h (3 Bft)
01.05.2017 08:34 10,1 °C 10,1 °C 62 % 1007,7 hPa 0,0 mm 13,4 km/h (3 Bft) W 275 ° 1 min 0,000 mm 1,8 UV-I 512 W/m² 3,2 °C 10,1 °C 16,1 km/h (3 Bft)
01.05.2017 08:35 10,1 °C 10,1 °C 64 % 1007,8 hPa 0,0 mm 10,6 km/h (2 Bft) W-SW 251 ° 1 min 0,000 mm 1,9 UV-I 369 W/m² 3,6 °C 10,1 °C 14,5 km/h (3 Bft)
01.05.2017 08:36 10,1 °C 10,1 °C 63 % 1007,8 hPa 0,0 mm 7,1 km/h (2 Bft) W-NW 283 ° 1 min 0,000 mm 1,9 UV-I 369 W/m² 3,4 °C 10,1 °C 11,3 km/h (2 Bft)
01.05.2017 08:37 10,2 °C 10,2 °C 66 % 1007,7 hPa 0,0 mm 7,8 km/h (2 Bft) W-SW 242 ° 1 min 0,000 mm 1,8 UV-I 339 W/m² 4,1 °C 10,2 °C 14,5 km/h (3 Bft)
01.05.2017 08:38 10,3 °C 10,3 °C 63 % 1007,8 hPa 0,0 mm 7,8 km/h (2 Bft) W-NW 295 ° 1 min 0,000 mm 1,6 UV-I 292 W/m² 3,6 °C 10,3 °C 14,5 km/h (3 Bft)
01.05.2017 08:39 10,2 °C 10,3 °C 64 % 1007,8 hPa 0,0 mm 9,3 km/h (2 Bft) SW 215 ° 0 min 0,000 mm 1,5 UV-I 250 W/m² 3,7 °C 10,2 °C 14,5 km/h (3 Bft)
01.05.2017 08:40 10,1 °C 10,2 °C 62 % 1007,8 hPa 0,0 mm 11,5 km/h (2 Bft) W-NW 284 ° 0 min 0,000 mm 1,5 UV-I 230 W/m² 3,2 °C 10,1 °C 19,3 km/h (3 Bft)
01.05.2017 08:41 10,0 °C 10,1 °C 64 % 1007,8 hPa 0,0 mm 12,5 km/h (3 Bft) W-NW 294 ° 0 min 0,000 mm 1,5 UV-I 236 W/m² 3,5 °C 8,2 °C 19,3 km/h (3 Bft)
01.05.2017 08:42 9,9 °C 10,0 °C 64 % 1007,8 hPa 0,0 mm 8,3 km/h (2 Bft) W-NW 302 ° 0 min 0,000 mm 1,5 UV-I 234 W/m² 3,4 °C 8,8 °C 14,5 km/h (3 Bft)
01.05.2017 08:43 9,8 °C 9,9 °C 65 % 1007,8 hPa 0,0 mm 15,7 km/h (3 Bft) W-SW 248 ° 0 min 0,000 mm 1,5 UV-I 248 W/m² 3,5 °C 7,6 °C 22,5 km/h (4 Bft)
01.05.2017 08:44 9,7 °C 9,8 °C 65 % 1007,8 hPa 0,0 mm 8,8 km/h (2 Bft) W-NW 296 ° 0 min 0,000 mm 1,5 UV-I 234 W/m² 3,4 °C 8,5 °C 14,5 km/h (3 Bft)
01.05.2017 08:45 9,6 °C 9,7 °C 67 % 1007,8 hPa 0,0 mm 11,9 km/h (2 Bft) W-SW 252 ° 0 min 0,000 mm 1,6 UV-I 250 W/m² 3,8 °C 7,8 °C 17,7 km/h (3 Bft)
01.05.2017 08:46 9,6 °C 9,6 °C 67 % 1007,9 hPa 0,0 mm 7,5 km/h (2 Bft) W 266 ° 0 min 0,000 mm 1,7 UV-I 250 W/m² 3,8 °C 8,6 °C 11,3 km/h (2 Bft)
01.05.2017 08:47 9,6 °C 9,6 °C 69 % 1007,9 hPa 0,0 mm 7,6 km/h (2 Bft) W-NW 292 ° 0 min 0,000 mm 1,7 UV-I 276 W/m² 4,2 °C 8,6 °C 14,5 km/h (3 Bft)
01.05.2017 08:48 9,7 °C 9,7 °C 69 % 1007,9 hPa 0,0 mm 7,1 km/h (2 Bft) W-NW 297 ° 1 min 0,000 mm 1,8 UV-I 299 W/m² 4,3 °C 8,9 °C 11,3 km/h (2 Bft)
01.05.2017 08:49 9,7 °C 9,7 °C 68 % 1007,9 hPa 0,0 mm 8,1 km/h (2 Bft) W 265 ° 1 min 0,000 mm 2,0 UV-I 374 W/m² 4,1 °C 8,6 °C 14,5 km/h (3 Bft)
01.05.2017 08:50 9,7 °C 9,7 °C 68 % 1007,9 hPa 0,0 mm 11,4 km/h (2 Bft) W 271 ° 1 min 0,000 mm 2,0 UV-I 403 W/m² 4,1 °C 8,0 °C 14,5 km/h (3 Bft)
01.05.2017 08:51 9,8 °C 9,8 °C 68 % 1007,9 hPa 0,0 mm 12,8 km/h (3 Bft) W-NW 296 ° 1 min 0,000 mm 2,2 UV-I 466 W/m² 4,2 °C 8,0 °C 16,1 km/h (3 Bft)
01.05.2017 08:52 9,8 °C 9,8 °C 67 % 1008,0 hPa 0,0 mm 14,2 km/h (3 Bft) W-NW 302 ° 1 min 0,000 mm 2,1 UV-I 418 W/m² 4,0 °C 7,8 °C 20,9 km/h (4 Bft)
01.05.2017 08:53 9,8 °C 9,8 °C 68 % 1008,0 hPa 0,0 mm 14,9 km/h (3 Bft) W 279 ° 1 min 0,000 mm 2,0 UV-I 415 W/m² 4,2 °C 7,7 °C 25,7 km/h (4 Bft)
01.05.2017 08:54 9,8 °C 9,9 °C 68 % 1008,1 hPa 0,0 mm 13,8 km/h (3 Bft) W-NW 289 ° 1 min 0,000 mm 1,9 UV-I 346 W/m² 4,2 °C 7,8 °C 22,5 km/h (4 Bft)
01.05.2017 08:55 9,8 °C 9,8 °C 67 % 1008,0 hPa 0,0 mm 17,7 km/h (3 Bft) W 271 ° 1 min 0,000 mm 2,1 UV-I 457 W/m² 4,0 °C 7,4 °C 22,5 km/h (4 Bft)
01.05.2017 08:56 9,8 °C 9,8 °C 68 % 1008,1 hPa 0,0 mm 10,6 km/h (2 Bft) W-NW 300 ° 1 min 0,000 mm 2,1 UV-I 455 W/m² 4,2 °C 8,3 °C 19,3 km/h (3 Bft)
01.05.2017 08:57 9,8 °C 9,8 °C 69 % 1008,2 hPa 0,0 mm 15,1 km/h (3 Bft) S-SW 201 ° 1 min 0,000 mm 2,1 UV-I 434 W/m² 4,4 °C 7,7 °C 25,7 km/h (4 Bft)
01.05.2017 08:58 9,8 °C 9,8 °C 69 % 1008,1 hPa 0,0 mm 18,0 km/h (3 Bft) W 277 ° 1 min 0,000 mm 2,2 UV-I 443 W/m² 4,4 °C 7,3 °C 29,0 km/h (5 Bft)
01.05.2017 08:59 9,8 °C 9,8 °C 70 % 1008,2 hPa 0,0 mm 16,9 km/h (3 Bft) W 260 ° 1 min 0,000 mm 2,2 UV-I 446 W/m² 4,6 °C 7,4 °C 24,1 km/h (4 Bft)
01.05.2017 09:00 9,9 °C 9,9 °C 70 % 1008,1 hPa 0,0 mm 18,3 km/h (3 Bft) W-SW 254 ° 1 min 0,000 mm 2,2 UV-I 445 W/m² 4,7 °C 7,4 °C 30,6 km/h (5 Bft)
01.05.2017 09:01 9,9 °C 9,9 °C 69 % 1008,2 hPa 0,0 mm 15,9 km/h (3 Bft) W-SW 238 ° 1 min 0,178 mm 2,2 UV-I 385 W/m² 4,5 °C 7,7 °C 25,7 km/h (4 Bft)
01.05.2017 09:02 9,8 °C 9,9 °C 69 % 1008,2 hPa 0,0 mm 13,3 km/h (3 Bft) W-NW 286 ° 1 min 0,000 mm 2,0 UV-I 399 W/m² 4,4 °C 7,9 °C 17,7 km/h (3 Bft)
01.05.2017 09:03 9,8 °C 9,8 °C 70 % 1008,2 hPa 0,0 mm 17,6 km/h (3 Bft) W-NW 284 ° 1 min 0,000 mm 2,2 UV-I 410 W/m² 4,6 °C 7,4 °C 22,5 km/h (4 Bft)
01.05.2017 09:04 9,8 °C 9,8 °C 70 % 1008,3 hPa 0,0 mm 13,0 km/h (3 Bft) W 272 ° 1 min 0,000 mm 2,3 UV-I 476 W/m² 4,6 °C 7,9 °C 17,7 km/h (3 Bft)
01.05.2017 09:05 9,9 °C 9,9 °C 71 % 1008,3 hPa 0,0 mm 10,5 km/h (2 Bft) W 271 ° 1 min 0,000 mm 2,3 UV-I 462 W/m² 4,9 °C 8,4 °C 14,5 km/h (3 Bft)
01.05.2017 09:06 9,9 °C 9,9 °C 70 % 1008,2 hPa 0,0 mm 10,4 km/h (2 Bft) W-SW 240 ° 1 min 0,000 mm 2,3 UV-I 475 W/m² 4,7 °C 8,4 °C 14,5 km/h (3 Bft)
01.05.2017 09:07 10,0 °C 10,0 °C 71 % 1008,3 hPa 0,0 mm 14,8 km/h (3 Bft) W 269 ° 1 min 0,000 mm 2,2 UV-I 432 W/m² 5,0 °C 7,9 °C 24,1 km/h (4 Bft)
01.05.2017 09:08 10,1 °C 10,1 °C 71 % 1008,3 hPa 0,0 mm 11,5 km/h (2 Bft) W-SW 255 ° 1 min 0,000 mm 2,3 UV-I 468 W/m² 5,1 °C 10,1 °C 17,7 km/h (3 Bft)
01.05.2017 09:09 10,1 °C 10,1 °C 72 % 1008,4 hPa 0,0 mm 19,7 km/h (3 Bft) W-NW 291 ° 1 min 0,000 mm 2,3 UV-I 464 W/m² 5,3 °C 10,1 °C 27,4 km/h (4 Bft)
01.05.2017 09:10 10,1 °C 10,1 °C 71 % 1008,2 hPa 0,0 mm 14,6 km/h (3 Bft) W-NW 288 ° 1 min 0,000 mm 2,3 UV-I 459 W/m² 5,1 °C 10,1 °C 25,7 km/h (4 Bft)
01.05.2017 09:11 10,0 °C 10,1 °C 71 % 1008,3 hPa 0,0 mm 16,5 km/h (3 Bft) NW 310 ° 1 min 0,000 mm 2,3 UV-I 454 W/m² 5,0 °C 7,7 °C 22,5 km/h (4 Bft)
01.05.2017 09:12 10,1 °C 10,1 °C 72 % 1008,3 hPa 0,0 mm 11,4 km/h (2 Bft) W 277 ° 1 min 0,000 mm 2,3 UV-I 446 W/m² 5,3 °C 10,1 °C 16,1 km/h (3 Bft)
01.05.2017 09:13 10,1 °C 10,1 °C 71 % 1008,4 hPa 0,0 mm 15,6 km/h (3 Bft) W-NW 302 ° 1 min 0,000 mm 2,3 UV-I 462 W/m² 5,1 °C 10,1 °C 20,9 km/h (4 Bft)
01.05.2017 09:14 10,1 °C 10,1 °C 70 % 1008,4 hPa 0,0 mm 17,1 km/h (3 Bft) NW 313 ° 1 min 0,000 mm 2,5 UV-I 476 W/m² 4,9 °C 10,1 °C 22,5 km/h (4 Bft)
01.05.2017 09:15 10,1 °C 10,1 °C 71 % 1008,4 hPa 0,0 mm 15,3 km/h (3 Bft) W 273 ° 1 min 0,000 mm 2,5 UV-I 483 W/m² 5,1 °C 10,1 °C 20,9 km/h (4 Bft)
01.05.2017 09:16 10,1 °C 10,1 °C 72 % 1008,4 hPa 0,0 mm 12,1 km/h (2 Bft) W 280 ° 1 min 0,000 mm 2,5 UV-I 494 W/m² 5,3 °C 10,1 °C 17,7 km/h (3 Bft)
01.05.2017 09:17 10,1 °C 10,1 °C 70 % 1008,4 hPa 0,0 mm 15,7 km/h (3 Bft) W-SW 247 ° 1 min 0,000 mm 2,5 UV-I 494 W/m² 4,9 °C 10,1 °C 20,9 km/h (4 Bft)
01.05.2017 09:18 10,1 °C 10,1 °C 70 % 1008,5 hPa 0,0 mm 12,3 km/h (3 Bft) W-NW 288 ° 1 min 0,000 mm 2,5 UV-I 496 W/m² 4,9 °C 10,1 °C 20,9 km/h (4 Bft)
01.05.2017 09:19 10,1 °C 10,1 °C 71 % 1008,5 hPa 0,0 mm 16,9 km/h (3 Bft) W-SW 257 ° 1 min 0,000 mm 2,6 UV-I 506 W/m² 5,1 °C 10,1 °C 22,5 km/h (4 Bft)
01.05.2017 09:20 10,1 °C 10,1 °C 72 % 1008,6 hPa 0,0 mm 12,7 km/h (3 Bft) W-NW 288 ° 1 min 0,000 mm 2,6 UV-I 515 W/m² 5,3 °C 10,1 °C 16,1 km/h (3 Bft)
01.05.2017 09:21 10,2 °C 10,2 °C 72 % 1008,5 hPa 0,0 mm 14,4 km/h (3 Bft) SW 232 ° 1 min 0,000 mm 2,7 UV-I 526 W/m² 5,4 °C 10,2 °C 24,1 km/h (4 Bft)
01.05.2017 09:22 10,2 °C 10,2 °C 72 % 1008,5 hPa 0,0 mm 18,5 km/h (3 Bft) W 273 ° 1 min 0,000 mm 2,6 UV-I 526 W/m² 5,4 °C 10,2 °C 25,7 km/h (4 Bft)
01.05.2017 09:23 10,2 °C 10,2 °C 71 % 1008,6 hPa 0,0 mm 12,9 km/h (3 Bft) W 271 ° 1 min 0,000 mm 2,7 UV-I 520 W/m² 5,2 °C 10,2 °C 22,5 km/h (4 Bft)
01.05.2017 09:24 10,2 °C 10,2 °C 71 % 1008,6 hPa 0,0 mm 16,6 km/h (3 Bft) W 269 ° 1 min 0,000 mm 2,7 UV-I 533 W/m² 5,2 °C 10,2 °C 22,5 km/h (4 Bft)
01.05.2017 09:25 10,2 °C 10,2 °C 73 % 1008,6 hPa 0,0 mm 16,5 km/h (3 Bft) W-SW 257 ° 1 min 0,000 mm 2,7 UV-I 548 W/m² 5,6 °C 10,2 °C 22,5 km/h (4 Bft)
01.05.2017 09:26 10,3 °C 10,3 °C 73 % 1008,6 hPa 0,0 mm 14,4 km/h (3 Bft) W-SW 256 ° 1 min 0,000 mm 2,8 UV-I 545 W/m² 5,7 °C 10,3 °C 19,3 km/h (3 Bft)
01.05.2017 09:27 10,2 °C 10,3 °C 72 % 1008,6 hPa 0,0 mm 16,7 km/h (3 Bft) N-NW 338 ° 1 min 0,000 mm 2,8 UV-I 545 W/m² 5,4 °C 10,2 °C 27,4 km/h (4 Bft)
01.05.2017 09:28 10,2 °C 10,2 °C 70 % 1008,6 hPa 0,0 mm 18,5 km/h (3 Bft) W 277 ° 1 min 0,000 mm 2,8 UV-I 545 W/m² 5,0 °C 10,2 °C 25,7 km/h (4 Bft)
01.05.2017 09:29 10,2 °C 10,2 °C 71 % 1008,6 hPa 0,0 mm 20,3 km/h (4 Bft) W-NW 284 ° 1 min 0,000 mm 2,9 UV-I 570 W/m² 5,2 °C 10,2 °C 25,7 km/h (4 Bft)
01.05.2017 09:30 10,1 °C 10,2 °C 71 % 1008,6 hPa 0,0 mm 18,9 km/h (3 Bft) W 259 ° 1 min 0,000 mm 2,9 UV-I 584 W/m² 5,1 °C 10,1 °C 25,7 km/h (4 Bft)
01.05.2017 09:31 10,0 °C 10,1 °C 70 % 1008,6 hPa 0,0 mm 10,0 km/h (2 Bft) W 281 ° 1 min 0,000 mm 2,9 UV-I 584 W/m² 4,8 °C 8,6 °C 17,7 km/h (3 Bft)
01.05.2017 09:32 9,9 °C 10,0 °C 71 % 1008,5 hPa 0,0 mm 12,0 km/h (2 Bft) NW 325 ° 1 min 0,000 mm 2,7 UV-I 580 W/m² 4,9 °C 8,2 °C 25,7 km/h (4 Bft)
01.05.2017 09:33 10,0 °C 10,0 °C 72 % 1008,6 hPa 0,0 mm 17,2 km/h (3 Bft) NW 304 ° 1 min 0,000 mm 3,0 UV-I 580 W/m² 5,2 °C 7,7 °C 22,5 km/h (4 Bft)
01.05.2017 09:34 10,0 °C 10,1 °C 72 % 1008,6 hPa 0,0 mm 13,2 km/h (3 Bft) W-NW 286 ° 1 min 0,000 mm 3,0 UV-I 580 W/m² 5,2 °C 8,1 °C 17,7 km/h (3 Bft)
01.05.2017 09:35 10,1 °C 10,1 °C 72 % 1008,7 hPa 0,0 mm 15,3 km/h (3 Bft) W-NW 291 ° 1 min 0,000 mm 2,9 UV-I 580 W/m² 5,3 °C 10,1 °C 22,5 km/h (4 Bft)
01.05.2017 09:36 10,1 °C 10,1 °C 71 % 1008,7 hPa 0,0 mm 12,8 km/h (3 Bft) W-NW 303 ° 1 min 0,000 mm 2,9 UV-I 543 W/m² 5,1 °C 10,1 °C 17,7 km/h (3 Bft)
01.05.2017 09:37 10,1 °C 10,1 °C 72 % 1008,7 hPa 0,0 mm 15,1 km/h (3 Bft) N 350 ° 1 min 0,000 mm 1,9 UV-I 543 W/m² 5,3 °C 10,1 °C 24,1 km/h (4 Bft)
01.05.2017 09:38 10,1 °C 10,1 °C 71 % 1008,7 hPa 0,0 mm 12,1 km/h (2 Bft) W 277 ° 1 min 0,000 mm 3,0 UV-I 543 W/m² 5,1 °C 10,1 °C 22,5 km/h (4 Bft)
01.05.2017 09:39 10,0 °C 10,1 °C 72 % 1008,7 hPa 0,0 mm 14,8 km/h (3 Bft) W-NW 288 ° 1 min 0,000 mm 2,9 UV-I 541 W/m² 5,2 °C 7,9 °C 20,9 km/h (4 Bft)
01.05.2017 09:40 9,9 °C 10,0 °C 72 % 1008,7 hPa 0,0 mm 15,2 km/h (3 Bft) W 281 ° 1 min 0,000 mm 2,9 UV-I 445 W/m² 5,1 °C 7,8 °C 22,5 km/h (4 Bft)
01.05.2017 09:41 9,9 °C 9,9 °C 72 % 1008,7 hPa 0,0 mm 8,8 km/h (2 Bft) NW 325 ° 1 min 0,000 mm 3,1 UV-I 445 W/m² 5,1 °C 8,7 °C 16,1 km/h (3 Bft)
01.05.2017 09:42 10,1 °C 10,1 °C 74 % 1008,7 hPa 0,0 mm 14,8 km/h (3 Bft) NW 319 ° 1 min 0,000 mm 3,0 UV-I 606 W/m² 5,7 °C 10,1 °C 24,1 km/h (4 Bft)
01.05.2017 09:43 10,1 °C 10,2 °C 71 % 1008,7 hPa 0,0 mm 14,6 km/h (3 Bft) NW 311 ° 0 min 0,000 mm 2,0 UV-I 156 W/m² 5,1 °C 10,1 °C 19,3 km/h (3 Bft)
01.05.2017 09:44 10,1 °C 10,1 °C 71 % 1008,7 hPa 0,0 mm 13,7 km/h (3 Bft) NW 321 ° 0 min 0,000 mm 3,1 UV-I 156 W/m² 5,1 °C 10,1 °C 20,9 km/h (4 Bft)
01.05.2017 09:45 10,1 °C 10,1 °C 73 % 1008,7 hPa 0,0 mm 12,9 km/h (3 Bft) NW 315 ° 0 min 0,000 mm 2,9 UV-I 156 W/m² 5,5 °C 10,1 °C 20,9 km/h (4 Bft)
01.05.2017 09:46 10,1 °C 10,1 °C 72 % 1008,8 hPa 0,0 mm 11,7 km/h (2 Bft) NW 319 ° 1 min 0,000 mm 3,1 UV-I 555 W/m² 5,3 °C 10,1 °C 17,7 km/h (3 Bft)
01.05.2017 09:47 10,1 °C 10,1 °C 73 % 1008,7 hPa 0,0 mm 15,2 km/h (3 Bft) N-NW 339 ° 1 min 0,000 mm 3,2 UV-I 619 W/m² 5,5 °C 10,1 °C 24,1 km/h (4 Bft)
01.05.2017 09:48 10,2 °C 10,2 °C 72 % 1008,7 hPa 0,0 mm 14,7 km/h (3 Bft) W 269 ° 1 min 0,000 mm 2,0 UV-I 619 W/m² 5,4 °C 10,2 °C 20,9 km/h (4 Bft)
01.05.2017 09:49 10,2 °C 10,2 °C 71 % 1008,8 hPa 0,0 mm 14,6 km/h (3 Bft) W-NW 289 ° 1 min 0,000 mm 3,3 UV-I 619 W/m² 5,2 °C 10,2 °C 24,1 km/h (4 Bft)
01.05.2017 09:50 10,1 °C 10,2 °C 71 % 1008,9 hPa 0,0 mm 13,5 km/h (3 Bft) W-NW 284 ° 1 min 0,000 mm 2,3 UV-I 619 W/m² 5,1 °C 10,1 °C 19,3 km/h (3 Bft)
01.05.2017 09:51 10,0 °C 10,1 °C 72 % 1008,9 hPa 0,0 mm 13,8 km/h (3 Bft) W-NW 299 ° 1 min 0,000 mm 2,6 UV-I 619 W/m² 5,2 °C 8,1 °C 19,3 km/h (3 Bft)
01.05.2017 09:52 9,9 °C 10,0 °C 72 % 1009,0 hPa 0,0 mm 10,4 km/h (2 Bft) NW 309 ° 1 min 0,000 mm 2,6 UV-I 619 W/m² 5,1 °C 8,4 °C 20,9 km/h (4 Bft)
01.05.2017 09:53 9,9 °C 9,9 °C 72 % 1009,0 hPa 0,0 mm 11,6 km/h (2 Bft) W 261 ° 1 min 0,000 mm 3,3 UV-I 619 W/m² 5,1 °C 8,3 °C 19,3 km/h (3 Bft)
01.05.2017 09:54 9,9 °C 9,9 °C 72 % 1009,0 hPa 0,0 mm 10,2 km/h (2 Bft) NW 309 ° 1 min 0,000 mm 3,3 UV-I 622 W/m² 5,1 °C 8,5 °C 14,5 km/h (3 Bft)
01.05.2017 09:55 10,1 °C 10,1 °C 73 % 1009,0 hPa 0,0 mm 11,1 km/h (2 Bft) N-NW 330 ° 1 min 0,000 mm 3,4 UV-I 647 W/m² 5,5 °C 10,1 °C 17,7 km/h (3 Bft)
01.05.2017 09:56 10,2 °C 10,2 °C 72 % 1009,0 hPa 0,0 mm 14,1 km/h (3 Bft) W 265 ° 1 min 0,000 mm 3,4 UV-I 670 W/m² 5,4 °C 10,2 °C 19,3 km/h (3 Bft)
01.05.2017 09:57 10,3 °C 10,3 °C 73 % 1009,0 hPa 0,0 mm 13,2 km/h (3 Bft) NW 305 ° 1 min 0,000 mm 2,9 UV-I 589 W/m² 5,7 °C 10,3 °C 17,7 km/h (3 Bft)
01.05.2017 09:58 10,3 °C 10,3 °C 71 % 1009,0 hPa 0,0 mm 12,5 km/h (3 Bft) NW 325 ° 1 min 0,000 mm 2,7 UV-I 589 W/m² 5,3 °C 10,3 °C 19,3 km/h (3 Bft)
01.05.2017 09:59 10,2 °C 10,3 °C 72 % 1009,0 hPa 0,0 mm 9,8 km/h (2 Bft) W-NW 288 ° 0 min 0,000 mm 3,4 UV-I 183 W/m² 5,4 °C 10,2 °C 16,1 km/h (3 Bft)
01.05.2017 10:00 10,3 °C 10,3 °C 73 % 1008,9 hPa 0,0 mm 11,5 km/h (2 Bft) W-NW 302 ° 1 min 0,000 mm 3,5 UV-I 650 W/m² 5,7 °C 10,3 °C 16,1 km/h (3 Bft)
01.05.2017 10:01 10,3 °C 10,3 °C 73 % 1009,0 hPa 0,0 mm 13,3 km/h (3 Bft) W-NW 284 ° 1 min 0,254 mm 3,5 UV-I 652 W/m² 5,7 °C 10,3 °C 19,3 km/h (3 Bft)
01.05.2017 10:02 10,3 °C 10,3 °C 71 % 1009,0 hPa 0,0 mm 12,3 km/h (3 Bft) W 265 ° 1 min 0,000 mm 3,4 UV-I 652 W/m² 5,3 °C 10,3 °C 20,9 km/h (4 Bft)
01.05.2017 10:03 10,2 °C 10,3 °C 71 % 1009,0 hPa 0,0 mm 19,4 km/h (3 Bft) W-SW 257 ° 1 min 0,000 mm 3,5 UV-I 422 W/m² 5,2 °C 10,2 °C 29,0 km/h (5 Bft)
01.05.2017 10:04 10,2 °C 10,2 °C 72 % 1009,0 hPa 0,0 mm 16,2 km/h (3 Bft) W-NW 282 ° 1 min 0,000 mm 3,5 UV-I 422 W/m² 5,4 °C 10,2 °C 20,9 km/h (4 Bft)
01.05.2017 10:05 10,3 °C 10,3 °C 74 % 1009,0 hPa 0,0 mm 12,9 km/h (3 Bft) W 260 ° 1 min 0,000 mm 3,3 UV-I 422 W/m² 5,9 °C 10,3 °C 17,7 km/h (3 Bft)
01.05.2017 10:06 10,3 °C 10,3 °C 72 % 1009,1 hPa 0,0 mm 16,3 km/h (3 Bft) NW 307 ° 1 min 0,000 mm 3,7 UV-I 700 W/m² 5,5 °C 10,3 °C 22,5 km/h (4 Bft)
01.05.2017 10:07 10,3 °C 10,3 °C 72 % 1009,1 hPa 0,0 mm 13,4 km/h (3 Bft) W-NW 292 ° 1 min 0,000 mm 3,0 UV-I 744 W/m² 5,5 °C 10,3 °C 19,3 km/h (3 Bft)
01.05.2017 10:08 10,3 °C 10,3 °C 72 % 1009,0 hPa 0,0 mm 18,1 km/h (3 Bft) W 267 ° 1 min 0,000 mm 3,7 UV-I 707 W/m² 5,5 °C 10,3 °C 27,4 km/h (4 Bft)
01.05.2017 10:09 10,4 °C 10,4 °C 73 % 1009,1 hPa 0,0 mm 9,3 km/h (2 Bft) W-NW 287 ° 1 min 0,000 mm 3,6 UV-I 691 W/m² 5,8 °C 10,4 °C 16,1 km/h (3 Bft)
01.05.2017 10:10 10,4 °C 10,5 °C 73 % 1009,0 hPa 0,0 mm 12,9 km/h (3 Bft) W 263 ° 1 min 0,000 mm 3,5 UV-I 691 W/m² 5,8 °C 10,4 °C 14,5 km/h (3 Bft)
01.05.2017 10:11 10,6 °C 10,6 °C 72 % 1009,1 hPa 0,0 mm 8,6 km/h (2 Bft) W-NW 288 ° 1 min 0,000 mm 3,7 UV-I 670 W/m² 5,8 °C 10,6 °C 16,1 km/h (3 Bft)
01.05.2017 10:12 10,6 °C 10,6 °C 71 % 1009,1 hPa 0,0 mm 14,2 km/h (3 Bft) W-NW 298 ° 1 min 0,000 mm 3,7 UV-I 687 W/m² 5,6 °C 10,6 °C 19,3 km/h (3 Bft)
01.05.2017 10:13 10,5 °C 10,6 °C 71 % 1009,0 hPa 0,0 mm 12,5 km/h (3 Bft) W-NW 298 ° 1 min 0,000 mm 3,9 UV-I 742 W/m² 5,5 °C 10,5 °C 16,1 km/h (3 Bft)
01.05.2017 10:14 10,6 °C 10,6 °C 73 % 1009,1 hPa 0,0 mm 10,5 km/h (2 Bft) W-SW 256 ° 1 min 0,000 mm 3,8 UV-I 763 W/m² 6,0 °C 10,6 °C 16,1 km/h (3 Bft)
01.05.2017 10:15 10,6 °C 10,6 °C 72 % 1009,0 hPa 0,0 mm 9,8 km/h (2 Bft) W-NW 303 ° 1 min 0,000 mm 2,4 UV-I 763 W/m² 5,8 °C 10,6 °C 17,7 km/h (3 Bft)
01.05.2017 10:16 10,4 °C 10,6 °C 69 % 1009,1 hPa 0,0 mm 15,1 km/h (3 Bft) W 263 ° 1 min 0,000 mm 2,1 UV-I 763 W/m² 5,0 °C 10,4 °C 22,5 km/h (4 Bft)
01.05.2017 10:17 10,2 °C 10,4 °C 68 % 1009,1 hPa 0,0 mm 14,8 km/h (3 Bft) W-SW 242 ° 1 min 0,000 mm 2,1 UV-I 763 W/m² 4,6 °C 10,2 °C 17,7 km/h (3 Bft)
01.05.2017 10:18 10,1 °C 10,2 °C 69 % 1009,1 hPa 0,0 mm 12,0 km/h (2 Bft) NW 307 ° 0 min 0,000 mm 2,2 UV-I 214 W/m² 4,7 °C 10,1 °C 19,3 km/h (3 Bft)
01.05.2017 10:19 9,9 °C 10,1 °C 70 % 1009,1 hPa 0,0 mm 10,6 km/h (2 Bft) W-SW 258 ° 0 min 0,000 mm 2,2 UV-I 260 W/m² 4,7 °C 8,4 °C 14,5 km/h (3 Bft)
01.05.2017 10:20 9,7 °C 9,9 °C 71 % 1009,1 hPa 0,0 mm 8,2 km/h (2 Bft) N-NW 327 ° 0 min 0,000 mm 2,2 UV-I 220 W/m² 4,7 °C 8,6 °C 14,5 km/h (3 Bft)
01.05.2017 10:21 9,7 °C 9,7 °C 72 % 1009,1 hPa 0,0 mm 11,7 km/h (2 Bft) W 279 ° 0 min 0,000 mm 3,2 UV-I 288 W/m² 4,9 °C 8,0 °C 16,1 km/h (3 Bft)
01.05.2017 10:22 9,7 °C 9,7 °C 72 % 1009,1 hPa 0,0 mm 10,5 km/h (2 Bft) W-NW 300 ° 0 min 0,000 mm 2,0 UV-I 248 W/m² 4,9 °C 8,2 °C 17,7 km/h (3 Bft)
01.05.2017 10:23 9,7 °C 9,7 °C 72 % 1009,1 hPa 0,0 mm 18,3 km/h (3 Bft) W 266 ° 0 min 0,000 mm 2,0 UV-I 248 W/m² 4,9 °C 7,2 °C 22,5 km/h (4 Bft)
01.05.2017 10:24 9,7 °C 9,7 °C 71 % 1009,1 hPa 0,0 mm 9,4 km/h (2 Bft) W 277 ° 1 min 0,000 mm 2,4 UV-I 302 W/m² 4,7 °C 8,4 °C 20,9 km/h (4 Bft)
01.05.2017 10:25 9,7 °C 9,7 °C 72 % 1009,2 hPa 0,0 mm 11,5 km/h (2 Bft) W-NW 293 ° 1 min 0,000 mm 2,5 UV-I 346 W/m² 4,9 °C 8,0 °C 17,7 km/h (3 Bft)
01.05.2017 10:26 9,7 °C 9,7 °C 72 % 1009,2 hPa 0,0 mm 14,9 km/h (3 Bft) W 271 ° 1 min 0,000 mm 2,5 UV-I 353 W/m² 4,9 °C 7,6 °C 22,5 km/h (4 Bft)
01.05.2017 10:27 9,7 °C 9,7 °C 72 % 1009,2 hPa 0,0 mm 13,5 km/h (3 Bft) NW 318 ° 1 min 0,000 mm 2,3 UV-I 323 W/m² 4,9 °C 7,7 °C 17,7 km/h (3 Bft)
01.05.2017 10:28 9,7 °C 9,7 °C 72 % 1009,2 hPa 0,0 mm 12,9 km/h (3 Bft) W 274 ° 1 min 0,000 mm 3,2 UV-I 355 W/m² 4,9 °C 7,8 °C 19,3 km/h (3 Bft)
01.05.2017 10:29 9,7 °C 9,7 °C 72 % 1009,2 hPa 0,0 mm 11,9 km/h (2 Bft) W 263 ° 1 min 0,000 mm 2,2 UV-I 311 W/m² 4,9 °C 8,0 °C 19,3 km/h (3 Bft)
01.05.2017 10:30 9,7 °C 9,7 °C 72 % 1009,1 hPa 0,0 mm 7,0 km/h (2 Bft) W-NW 297 ° 1 min 0,000 mm 2,4 UV-I 311 W/m² 4,9 °C 8,9 °C 12,9 km/h (3 Bft)
01.05.2017 10:31 9,7 °C 9,7 °C 73 % 1009,1 hPa 0,0 mm 8,9 km/h (2 Bft) W-NW 303 ° 1 min 0,000 mm 2,0 UV-I 483 W/m² 5,1 °C 8,5 °C 17,7 km/h (3 Bft)
01.05.2017 10:32 9,8 °C 9,8 °C 73 % 1009,1 hPa 0,0 mm 3,8 km/h (1 Bft) W 259 ° 1 min 0,000 mm 1,9 UV-I 483 W/m² 5,2 °C 9,8 °C 6,4 km/h (2 Bft)
01.05.2017 10:33 9,8 °C 9,8 °C 74 % 1009,2 hPa 0,0 mm 9,9 km/h (2 Bft) W 273 ° 0 min 0,000 mm 2,0 UV-I 255 W/m² 5,4 °C 8,4 °C 17,7 km/h (3 Bft)
01.05.2017 10:34 9,9 °C 9,9 °C 73 % 1009,2 hPa 0,0 mm 15,0 km/h (3 Bft) W-NW 292 ° 0 min 0,000 mm 2,1 UV-I 267 W/m² 5,3 °C 7,8 °C 22,5 km/h (4 Bft)
01.05.2017 10:35 9,9 °C 9,9 °C 72 % 1009,2 hPa 0,0 mm 15,2 km/h (3 Bft) W-NW 288 ° 0 min 0,000 mm 2,2 UV-I 265 W/m² 5,1 °C 7,8 °C 20,9 km/h (4 Bft)
01.05.2017 10:36 9,8 °C 9,9 °C 72 % 1009,2 hPa 0,0 mm 8,9 km/h (2 Bft) W-NW 293 ° 0 min 0,000 mm 2,3 UV-I 265 W/m² 5,0 °C 8,6 °C 14,5 km/h (3 Bft)
01.05.2017 10:37 9,8 °C 9,8 °C 72 % 1009,2 hPa 0,0 mm 13,9 km/h (3 Bft) W-NW 288 ° 0 min 0,000 mm 3,1 UV-I 265 W/m² 5,0 °C 7,8 °C 19,3 km/h (3 Bft)
01.05.2017 10:38 9,8 °C 9,8 °C 73 % 1009,2 hPa 0,0 mm 11,1 km/h (2 Bft) NW 304 ° 1 min 0,000 mm 3,2 UV-I 355 W/m² 5,2 °C 8,2 °C 16,1 km/h (3 Bft)
01.05.2017 10:39 9,9 °C 9,9 °C 74 % 1009,2 hPa 0,0 mm 6,0 km/h (2 Bft) W 279 ° 1 min 0,000 mm 4,4 UV-I 355 W/m² 5,5 °C 9,4 °C 11,3 km/h (2 Bft)
01.05.2017 10:40 10,1 °C 10,1 °C 75 % 1009,3 hPa 0,0 mm 6,2 km/h (2 Bft) NW 314 ° 1 min 0,000 mm 3,2 UV-I 355 W/m² 5,9 °C 10,1 °C 12,9 km/h (3 Bft)
01.05.2017 10:41 10,3 °C 10,3 °C 73 % 1009,3 hPa 0,0 mm 12,2 km/h (2 Bft) W-NW 286 ° 1 min 0,000 mm 2,3 UV-I 330 W/m² 5,7 °C 10,3 °C 22,5 km/h (4 Bft)
01.05.2017 10:42 10,3 °C 10,3 °C 73 % 1009,3 hPa 0,0 mm 13,9 km/h (3 Bft) N 355 ° 0 min 0,000 mm 1,9 UV-I 279 W/m² 5,7 °C 10,3 °C 19,3 km/h (3 Bft)
01.05.2017 10:43 10,2 °C 10,3 °C 72 % 1009,3 hPa 0,0 mm 9,3 km/h (2 Bft) NW 313 ° 0 min 0,000 mm 1,8 UV-I 234 W/m² 5,4 °C 10,2 °C 17,7 km/h (3 Bft)
01.05.2017 10:44 10,1 °C 10,2 °C 72 % 1009,3 hPa 0,0 mm 12,1 km/h (2 Bft) NW 308 ° 0 min 0,000 mm 1,9 UV-I 223 W/m² 5,3 °C 10,1 °C 17,7 km/h (3 Bft)
01.05.2017 10:45 10,0 °C 10,1 °C 72 % 1009,3 hPa 0,0 mm 11,5 km/h (2 Bft) NW 314 ° 0 min 0,000 mm 2,0 UV-I 232 W/m² 5,2 °C 8,4 °C 17,7 km/h (3 Bft)
01.05.2017 10:46 9,9 °C 10,0 °C 72 % 1009,3 hPa 0,0 mm 10,9 km/h (2 Bft) W-NW 300 ° 1 min 0,000 mm 2,1 UV-I 292 W/m² 5,1 °C 8,4 °C 19,3 km/h (3 Bft)
01.05.2017 10:47 9,8 °C 9,9 °C 72 % 1009,3 hPa 0,0 mm 10,2 km/h (2 Bft) W 263 ° 1 min 0,000 mm 2,2 UV-I 308 W/m² 5,0 °C 8,4 °C 16,1 km/h (3 Bft)
01.05.2017 10:48 9,8 °C 9,8 °C 74 % 1009,3 hPa 0,0 mm 7,3 km/h (2 Bft) W-NW 297 ° 1 min 0,000 mm 2,0 UV-I 352 W/m² 5,4 °C 8,9 °C 12,9 km/h (3 Bft)
01.05.2017 10:49 9,8 °C 9,8 °C 74 % 1009,3 hPa 0,0 mm 12,2 km/h (2 Bft) W-NW 298 ° 1 min 0,000 mm 1,7 UV-I 352 W/m² 5,4 °C 8,0 °C 17,7 km/h (3 Bft)
01.05.2017 10:50 9,9 °C 9,9 °C 74 % 1009,4 hPa 0,0 mm 12,6 km/h (3 Bft) NW 323 ° 0 min 0,000 mm 1,6 UV-I 227 W/m² 5,5 °C 8,1 °C 17,7 km/h (3 Bft)
01.05.2017 10:51 9,9 °C 9,9 °C 73 % 1009,4 hPa 0,0 mm 9,5 km/h (2 Bft) W-NW 288 ° 0 min 0,000 mm 1,5 UV-I 216 W/m² 5,3 °C 8,6 °C 17,7 km/h (3 Bft)
01.05.2017 10:52 9,8 °C 9,9 °C 73 % 1009,4 hPa 0,0 mm 11,5 km/h (2 Bft) NW 307 ° 0 min 0,000 mm 1,5 UV-I 197 W/m² 5,2 °C 8,1 °C 17,7 km/h (3 Bft)
01.05.2017 10:53 9,8 °C 9,8 °C 73 % 1009,4 hPa 0,0 mm 14,3 km/h (3 Bft) NW 321 ° 0 min 0,000 mm 1,4 UV-I 188 W/m² 5,2 °C 7,8 °C 17,7 km/h (3 Bft)
01.05.2017 10:54 9,6 °C 9,8 °C 72 % 1009,4 hPa 0,0 mm 7,2 km/h (2 Bft) W-NW 285 ° 0 min 0,000 mm 1,3 UV-I 178 W/m² 4,8 °C 8,7 °C 14,5 km/h (3 Bft)
01.05.2017 10:55 9,6 °C 9,6 °C 73 % 1009,4 hPa 0,0 mm 12,1 km/h (2 Bft) NW 316 ° 0 min 0,000 mm 1,3 UV-I 169 W/m² 5,0 °C 7,8 °C 20,9 km/h (4 Bft)
01.05.2017 10:56 9,4 °C 9,6 °C 72 % 1009,4 hPa 0,0 mm 12,0 km/h (2 Bft) W-NW 288 ° 0 min 0,000 mm 1,2 UV-I 169 W/m² 4,6 °C 7,6 °C 17,7 km/h (3 Bft)
01.05.2017 10:57 9,3 °C 9,4 °C 73 % 1009,4 hPa 0,0 mm 10,7 km/h (2 Bft) W 277 ° 0 min 0,000 mm 1,2 UV-I 158 W/m² 4,7 °C 7,7 °C 16,1 km/h (3 Bft)
01.05.2017 10:58 9,3 °C 9,4 °C 73 % 1009,5 hPa 0,0 mm 13,5 km/h (3 Bft) W-NW 303 ° 0 min 0,000 mm 1,2 UV-I 167 W/m² 4,7 °C 7,2 °C 20,9 km/h (4 Bft)
01.05.2017 10:59 9,3 °C 9,3 °C 73 % 1009,5 hPa 0,0 mm 9,6 km/h (2 Bft) W-NW 298 ° 0 min 0,000 mm 1,4 UV-I 176 W/m² 4,7 °C 7,9 °C 14,5 km/h (3 Bft)
01.05.2017 11:00 9,2 °C 9,3 °C 74 % 1009,5 hPa 0,0 mm 9,6 km/h (2 Bft) W 265 ° 0 min 0,000 mm 1,5 UV-I 190 W/m² 4,8 °C 7,7 °C 12,9 km/h (3 Bft)
01.05.2017 11:01 9,2 °C 9,3 °C 75 % 1009,5 hPa 0,0 mm 7,0 km/h (2 Bft) W 281 ° 0 min 0,203 mm 1,6 UV-I 204 W/m² 5,0 °C 8,3 °C 9,7 km/h (2 Bft)
01.05.2017 11:02 9,3 °C 9,3 °C 75 % 1009,5 hPa 0,0 mm 5,9 km/h (2 Bft) NW 316 ° 0 min 0,000 mm 1,7 UV-I 218 W/m² 5,1 °C 8,7 °C 12,9 km/h (3 Bft)
01.05.2017 11:03 9,3 °C 9,3 °C 75 % 1009,4 hPa 0,0 mm 9,0 km/h (2 Bft) NW 313 ° 0 min 0,000 mm 1,8 UV-I 229 W/m² 5,1 °C 8,0 °C 14,5 km/h (3 Bft)
01.05.2017 11:04 9,3 °C 9,3 °C 75 % 1009,4 hPa 0,0 mm 12,0 km/h (2 Bft) N-NW 327 ° 0 min 0,000 mm 1,8 UV-I 239 W/m² 5,1 °C 7,5 °C 19,3 km/h (3 Bft)
01.05.2017 11:05 9,3 °C 9,3 °C 75 % 1009,5 hPa 0,0 mm 12,3 km/h (3 Bft) NW 310 ° 0 min 0,000 mm 1,9 UV-I 243 W/m² 5,1 °C 7,4 °C 14,5 km/h (3 Bft)
01.05.2017 11:06 9,3 °C 9,3 °C 75 % 1009,5 hPa 0,0 mm 10,1 km/h (2 Bft) N 351 ° 0 min 0,000 mm 1,9 UV-I 246 W/m² 5,1 °C 7,8 °C 16,1 km/h (3 Bft)
01.05.2017 11:07 9,4 °C 9,4 °C 75 % 1009,5 hPa 0,0 mm 11,2 km/h (2 Bft) W-NW 302 ° 0 min 0,000 mm 1,9 UV-I 250 W/m² 5,2 °C 7,7 °C 14,5 km/h (3 Bft)
01.05.2017 11:08 9,4 °C 9,4 °C 75 % 1009,4 hPa 0,0 mm 17,9 km/h (3 Bft) W 265 ° 0 min 0,000 mm 1,9 UV-I 253 W/m² 5,2 °C 6,8 °C 25,7 km/h (4 Bft)
01.05.2017 11:09 9,4 °C 9,4 °C 74 % 1009,5 hPa 0,0 mm 7,6 km/h (2 Bft) NW 324 ° 0 min 0,000 mm 1,9 UV-I 244 W/m² 5,0 °C 8,4 °C 11,3 km/h (2 Bft)
01.05.2017 11:10 9,4 °C 9,4 °C 74 % 1009,5 hPa 0,0 mm 8,5 km/h (2 Bft) W-NW 298 ° 0 min 0,000 mm 1,9 UV-I 234 W/m² 5,0 °C 8,2 °C 16,1 km/h (3 Bft)
01.05.2017 11:11 9,4 °C 9,4 °C 75 % 1009,4 hPa 0,0 mm 10,4 km/h (2 Bft) W-NW 284 ° 0 min 0,000 mm 1,8 UV-I 229 W/m² 5,2 °C 7,8 °C 14,5 km/h (3 Bft)
01.05.2017 11:12 9,4 °C 9,4 °C 75 % 1009,5 hPa 0,0 mm 12,3 km/h (3 Bft) W 266 ° 0 min 0,000 mm 1,8 UV-I 236 W/m² 5,2 °C 7,5 °C 17,7 km/h (3 Bft)
01.05.2017 11:13 9,4 °C 9,4 °C 75 % 1009,5 hPa 0,0 mm 10,1 km/h (2 Bft) W-NW 295 ° 0 min 0,000 mm 1,9 UV-I 246 W/m² 5,2 °C 7,9 °C 19,3 km/h (3 Bft)
01.05.2017 11:14 9,4 °C 9,4 °C 76 % 1009,5 hPa 0,0 mm 9,9 km/h (2 Bft) W 275 ° 0 min 0,000 mm 2,1 UV-I 265 W/m² 5,4 °C 7,9 °C 16,1 km/h (3 Bft)
01.05.2017 11:15 9,4 °C 9,4 °C 76 % 1009,4 hPa 0,0 mm 6,6 km/h (2 Bft) W 273 ° 0 min 0,000 mm 2,3 UV-I 285 W/m² 5,4 °C 8,6 °C 11,3 km/h (2 Bft)
01.05.2017 11:16 9,4 °C 9,4 °C 75 % 1009,5 hPa 0,0 mm 15,8 km/h (3 Bft) W-SW 256 ° 1 min 0,000 mm 2,4 UV-I 306 W/m² 5,2 °C 7,1 °C 22,5 km/h (4 Bft)
01.05.2017 11:17 9,4 °C 9,4 °C 75 % 1009,5 hPa 0,0 mm 15,5 km/h (3 Bft) W-NW 286 ° 1 min 0,000 mm 2,6 UV-I 311 W/m² 5,2 °C 7,1 °C 24,1 km/h (4 Bft)
01.05.2017 11:18 9,4 °C 9,4 °C 74 % 1009,4 hPa 0,0 mm 16,5 km/h (3 Bft) W 259 ° 1 min 0,000 mm 2,6 UV-I 316 W/m² 5,0 °C 7,0 °C 24,1 km/h (4 Bft)
01.05.2017 11:19 9,4 °C 9,4 °C 75 % 1009,5 hPa 0,0 mm 13,1 km/h (3 Bft) W-SW 255 ° 1 min 0,000 mm 2,6 UV-I 325 W/m² 5,2 °C 7,4 °C 17,7 km/h (3 Bft)
01.05.2017 11:20 9,3 °C 9,4 °C 74 % 1009,6 hPa 0,0 mm 9,3 km/h (2 Bft) W-NW 287 ° 1 min 0,000 mm 2,7 UV-I 338 W/m² 4,9 °C 7,9 °C 14,5 km/h (3 Bft)
01.05.2017 11:21 9,3 °C 9,3 °C 74 % 1009,6 hPa 0,0 mm 10,1 km/h (2 Bft) W 277 ° 1 min 0,000 mm 2,6 UV-I 323 W/m² 4,9 °C 7,8 °C 14,5 km/h (3 Bft)
01.05.2017 11:22 9,4 °C 9,4 °C 75 % 1009,6 hPa 0,0 mm 9,6 km/h (2 Bft) W-NW 284 ° 1 min 0,000 mm 2,5 UV-I 299 W/m² 5,2 °C 8,0 °C 16,1 km/h (3 Bft)
01.05.2017 11:23 9,4 °C 9,4 °C 75 % 1009,6 hPa 0,0 mm 15,6 km/h (3 Bft) W-SW 258 ° 0 min 0,000 mm 2,1 UV-I 276 W/m² 5,2 °C 7,1 °C 20,9 km/h (4 Bft)
01.05.2017 11:24 9,4 °C 9,4 °C 75 % 1009,6 hPa 0,0 mm 12,5 km/h (3 Bft) W-NW 283 ° 0 min 0,000 mm 1,9 UV-I 251 W/m² 5,2 °C 7,5 °C 17,7 km/h (3 Bft)
01.05.2017 11:25 9,3 °C 9,4 °C 74 % 1009,6 hPa 0,0 mm 12,5 km/h (3 Bft) S-SW 210 ° 0 min 0,000 mm 1,8 UV-I 232 W/m² 4,9 °C 7,4 °C 14,5 km/h (3 Bft)
01.05.2017 11:26 9,3 °C 9,3 °C 74 % 1009,6 hPa 0,0 mm 20,4 km/h (4 Bft) W 281 ° 0 min 0,000 mm 1,7 UV-I 220 W/m² 4,9 °C 6,5 °C 25,7 km/h (4 Bft)
01.05.2017 11:27 9,2 °C 9,3 °C 74 % 1009,6 hPa 0,0 mm 16,9 km/h (3 Bft) W 261 ° 0 min 0,000 mm 1,5 UV-I 188 W/m² 4,8 °C 6,7 °C 24,1 km/h (4 Bft)
01.05.2017 11:28 9,2 °C 9,2 °C 75 % 1009,6 hPa 0,0 mm 8,7 km/h (2 Bft) W 259 ° 0 min 0,000 mm 1,3 UV-I 178 W/m² 5,0 °C 7,9 °C 11,3 km/h (2 Bft)
01.05.2017 11:29 9,1 °C 9,2 °C 74 % 1009,6 hPa 0,0 mm 7,5 km/h (2 Bft) W-NW 284 ° 0 min 0,000 mm 1,3 UV-I 171 W/m² 4,7 °C 8,1 °C 12,9 km/h (3 Bft)
01.05.2017 11:30 9,1 °C 9,1 °C 75 % 1009,6 hPa 0,0 mm 11,2 km/h (2 Bft) W-NW 291 ° 0 min 0,000 mm 1,3 UV-I 172 W/m² 4,9 °C 7,4 °C 17,7 km/h (3 Bft)
01.05.2017 11:31 9,1 °C 9,1 °C 74 % 1009,6 hPa 0,0 mm 10,5 km/h (2 Bft) W 272 ° 0 min 0,000 mm 1,3 UV-I 172 W/m² 4,7 °C 7,5 °C 17,7 km/h (3 Bft)
01.05.2017 11:32 8,9 °C 9,1 °C 74 % 1009,6 hPa 0,0 mm 11,7 km/h (2 Bft) W 277 ° 0 min 0,000 mm 1,4 UV-I 179 W/m² 4,5 °C 7,0 °C 16,1 km/h (3 Bft)
01.05.2017 11:33 8,9 °C 8,9 °C 75 % 1009,6 hPa 0,0 mm 9,0 km/h (2 Bft) W-NW 301 ° 0 min 0,000 mm 1,4 UV-I 193 W/m² 4,7 °C 7,5 °C 19,3 km/h (3 Bft)
01.05.2017 11:34 8,9 °C 8,9 °C 75 % 1009,6 hPa 0,0 mm 14,1 km/h (3 Bft) W 261 ° 0 min 0,000 mm 1,5 UV-I 197 W/m² 4,7 °C 6,7 °C 19,3 km/h (3 Bft)
01.05.2017 11:35 8,9 °C 8,9 °C 75 % 1009,6 hPa 0,0 mm 14,1 km/h (3 Bft) W 267 ° 0 min 0,000 mm 1,5 UV-I 197 W/m² 4,7 °C 6,7 °C 20,9 km/h (4 Bft)
01.05.2017 11:36 8,8 °C 8,9 °C 75 % 1009,6 hPa 0,0 mm 14,1 km/h (3 Bft) W-NW 288 ° 0 min 0,000 mm 1,5 UV-I 197 W/m² 4,6 °C 6,6 °C 19,3 km/h (3 Bft)
01.05.2017 11:37 8,8 °C 8,8 °C 75 % 1009,7 hPa 0,0 mm 9,7 km/h (2 Bft) W-NW 295 ° 0 min 0,000 mm 1,5 UV-I 199 W/m² 4,6 °C 7,3 °C 17,7 km/h (3 Bft)
01.05.2017 11:38 8,7 °C 8,8 °C 75 % 1009,7 hPa 0,0 mm 13,8 km/h (3 Bft) W-NW 292 ° 0 min 0,000 mm 1,6 UV-I 207 W/m² 4,5 °C 6,5 °C 17,7 km/h (3 Bft)
01.05.2017 11:39 8,7 °C 8,7 °C 75 % 1009,7 hPa 0,0 mm 13,1 km/h (3 Bft) W-NW 286 ° 0 min 0,000 mm 1,7 UV-I 220 W/m² 4,5 °C 6,6 °C 17,7 km/h (3 Bft)
01.05.2017 11:40 8,7 °C 8,7 °C 75 % 1009,7 hPa 0,0 mm 8,6 km/h (2 Bft) W 266 ° 0 min 0,000 mm 1,7 UV-I 220 W/m² 4,5 °C 7,4 °C 14,5 km/h (3 Bft)
01.05.2017 11:41 8,7 °C 8,7 °C 76 % 1009,7 hPa 0,0 mm 11,9 km/h (2 Bft) W-SW 245 ° 0 min 0,000 mm 1,7 UV-I 223 W/m² 4,7 °C 6,8 °C 19,3 km/h (3 Bft)
01.05.2017 11:42 8,7 °C 8,8 °C 76 % 1009,7 hPa 0,0 mm 10,3 km/h (2 Bft) W-NW 294 ° 0 min 0,000 mm 1,8 UV-I 227 W/m² 4,7 °C 7,0 °C 16,1 km/h (3 Bft)
01.05.2017 11:43 8,8 °C 8,8 °C 76 % 1009,7 hPa 0,0 mm 14,3 km/h (3 Bft) W 261 ° 0 min 0,000 mm 1,8 UV-I 239 W/m² 4,8 °C 6,5 °C 22,5 km/h (4 Bft)
01.05.2017 11:44 8,8 °C 8,8 °C 77 % 1009,7 hPa 0,0 mm 13,6 km/h (3 Bft) W-SW 256 ° 0 min 0,000 mm 1,9 UV-I 250 W/m² 5,0 °C 6,6 °C 17,7 km/h (3 Bft)
01.05.2017 11:45 8,8 °C 8,8 °C 77 % 1009,7 hPa 0,0 mm 14,2 km/h (3 Bft) W-SW 257 ° 0 min 0,000 mm 1,8 UV-I 230 W/m² 5,0 °C 6,5 °C 17,7 km/h (3 Bft)
01.05.2017 11:46 8,8 °C 8,8 °C 75 % 1009,7 hPa 0,0 mm 8,3 km/h (2 Bft) W-NW 282 ° 0 min 0,000 mm 1,6 UV-I 216 W/m² 4,6 °C 7,5 °C 16,1 km/h (3 Bft)
01.05.2017 11:47 8,8 °C 8,8 °C 76 % 1009,7 hPa 0,0 mm 6,9 km/h (2 Bft) W-NW 288 ° 0 min 0,000 mm 1,5 UV-I 207 W/m² 4,8 °C 7,9 °C 11,3 km/h (2 Bft)
01.05.2017 11:48 8,8 °C 8,8 °C 76 % 1009,7 hPa 0,0 mm 7,0 km/h (2 Bft) W 271 ° 0 min 0,000 mm 1,5 UV-I 204 W/m² 4,8 °C 7,8 °C 11,3 km/h (2 Bft)
01.05.2017 11:49 8,8 °C 8,8 °C 77 % 1009,7 hPa 0,0 mm 9,5 km/h (2 Bft) W-SW 254 ° 0 min 0,000 mm 1,5 UV-I 204 W/m² 5,0 °C 7,3 °C 12,9 km/h (3 Bft)
01.05.2017 11:50 8,8 °C 8,8 °C 76 % 1009,8 hPa 0,0 mm 14,6 km/h (3 Bft) W 275 ° 0 min 0,000 mm 1,5 UV-I 206 W/m² 4,8 °C 6,5 °C 22,5 km/h (4 Bft)
01.05.2017 11:51 8,7 °C 8,8 °C 75 % 1009,7 hPa 0,0 mm 13,0 km/h (3 Bft) W 275 ° 0 min 0,000 mm 1,6 UV-I 216 W/m² 4,5 °C 6,6 °C 22,5 km/h (4 Bft)
01.05.2017 11:52 8,6 °C 8,7 °C 75 % 1009,8 hPa 0,0 mm 18,1 km/h (3 Bft) W-SW 252 ° 0 min 0,000 mm 1,6 UV-I 211 W/m² 4,4 °C 5,8 °C 25,7 km/h (4 Bft)
01.05.2017 11:53 8,6 °C 8,6 °C 76 % 1009,8 hPa 0,0 mm 11,1 km/h (2 Bft) W 263 ° 0 min 0,000 mm 1,5 UV-I 200 W/m² 4,6 °C 6,8 °C 16,1 km/h (3 Bft)
01.05.2017 11:54 8,5 °C 8,6 °C 76 % 1009,8 hPa 0,0 mm 9,1 km/h (2 Bft) W-SW 257 ° 0 min 0,000 mm 1,4 UV-I 185 W/m² 4,5 °C 7,0 °C 19,3 km/h (3 Bft)
01.05.2017 11:55 8,5 °C 8,5 °C 76 % 1009,8 hPa 0,0 mm 15,6 km/h (3 Bft) W 267 ° 0 min 0,000 mm 1,3 UV-I 169 W/m² 4,5 °C 6,0 °C 22,5 km/h (4 Bft)
01.05.2017 11:56 8,4 °C 8,5 °C 76 % 1009,9 hPa 0,0 mm 12,5 km/h (3 Bft) NW 324 ° 0 min 0,000 mm 1,2 UV-I 158 W/m² 4,4 °C 6,3 °C 17,7 km/h (3 Bft)
01.05.2017 11:57 8,3 °C 8,4 °C 76 % 1009,9 hPa 0,0 mm 14,9 km/h (3 Bft) W-NW 295 ° 0 min 0,000 mm 1,2 UV-I 158 W/m² 4,3 °C 5,8 °C 19,3 km/h (3 Bft)
01.05.2017 11:58 8,3 °C 8,3 °C 76 % 1009,9 hPa 0,0 mm 11,9 km/h (2 Bft) W-NW 283 ° 0 min 0,000 mm 1,3 UV-I 160 W/m² 4,3 °C 6,3 °C 20,9 km/h (4 Bft)
01.05.2017 11:59 8,2 °C 8,3 °C 76 % 1009,9 hPa 0,0 mm 13,5 km/h (3 Bft) W 265 ° 0 min 0,000 mm 1,3 UV-I 162 W/m² 4,2 °C 5,9 °C 17,7 km/h (3 Bft)
01.05.2017 12:00 8,2 °C 8,2 °C 77 % 1009,8 hPa 0,0 mm 14,7 km/h (3 Bft) W-NW 297 ° 0 min 0,127 mm 1,3 UV-I 163 W/m² 4,4 °C 5,7 °C 19,3 km/h (3 Bft)
01.05.2017 12:01 8,1 °C 8,2 °C 76 % 1009,9 hPa 0,0 mm 12,4 km/h (3 Bft) W-NW 282 ° 0 min 0,000 mm 1,3 UV-I 165 W/m² 4,1 °C 5,9 °C 17,7 km/h (3 Bft)
01.05.2017 12:02 8,1 °C 8,1 °C 77 % 1009,9 hPa 0,0 mm 8,3 km/h (2 Bft) NW 313 ° 0 min 0,000 mm 1,4 UV-I 163 W/m² 4,3 °C 6,7 °C 17,7 km/h (3 Bft)
01.05.2017 12:03 8,1 °C 8,1 °C 77 % 1009,9 hPa 0,0 mm 11,5 km/h (2 Bft) NW 313 ° 0 min 0,000 mm 1,3 UV-I 160 W/m² 4,3 °C 6,1 °C 16,1 km/h (3 Bft)
01.05.2017 12:04 8,1 °C 8,1 °C 77 % 1010,0 hPa 0,0 mm 11,5 km/h (2 Bft) N-NW 327 ° 0 min 0,000 mm 1,2 UV-I 146 W/m² 4,3 °C 6,1 °C 16,1 km/h (3 Bft)
01.05.2017 12:05 8,0 °C 8,1 °C 77 % 1010,0 hPa 0,0 mm 8,9 km/h (2 Bft) W 271 ° 0 min 0,000 mm 1,1 UV-I 139 W/m² 4,2 °C 6,5 °C 14,5 km/h (3 Bft)
01.05.2017 12:06 8,0 °C 8,1 °C 78 % 1010,0 hPa 0,0 mm 7,9 km/h (2 Bft) W 277 ° 0 min 0,000 mm 1,1 UV-I 132 W/m² 4,4 °C 6,7 °C 11,3 km/h (2 Bft)
01.05.2017 12:07 8,0 °C 8,0 °C 78 % 1010,0 hPa 0,0 mm 14,1 km/h (3 Bft) W 264 ° 0 min 0,000 mm 1,0 UV-I 127 W/m² 4,4 °C 5,6 °C 24,1 km/h (4 Bft)
01.05.2017 12:08 7,9 °C 8,0 °C 77 % 1010,1 hPa 0,0 mm 18,6 km/h (3 Bft) W-SW 256 ° 0 min 0,000 mm 1,0 UV-I 118 W/m² 4,1 °C 4,9 °C 22,5 km/h (4 Bft)
01.05.2017 12:09 7,8 °C 7,9 °C 78 % 1010,1 hPa 0,0 mm 11,4 km/h (2 Bft) W-NW 284 ° 0 min 0,000 mm 1,0 UV-I 116 W/m² 4,2 °C 5,7 °C 17,7 km/h (3 Bft)
01.05.2017 12:10 7,8 °C 7,8 °C 77 % 1010,1 hPa 0,0 mm 11,5 km/h (2 Bft) W 271 ° 0 min 0,000 mm 0,9 UV-I 111 W/m² 4,0 °C 5,7 °C 20,9 km/h (4 Bft)
01.05.2017 12:11 7,7 °C 7,8 °C 78 % 1010,1 hPa 0,0 mm 17,0 km/h (3 Bft) W 264 ° 0 min 0,000 mm 0,9 UV-I 107 W/m² 4,1 °C 4,8 °C 24,1 km/h (4 Bft)
01.05.2017 12:12 7,6 °C 7,7 °C 78 % 1010,2 hPa 0,0 mm 17,4 km/h (3 Bft) W 274 ° 0 min 0,000 mm 0,8 UV-I 102 W/m² 4,0 °C 4,6 °C 27,4 km/h (4 Bft)
01.05.2017 12:13 7,6 °C 7,6 °C 78 % 1010,2 hPa 0,0 mm 14,1 km/h (3 Bft) W 267 ° 0 min 0,000 mm 0,8 UV-I 95 W/m² 4,0 °C 5,1 °C 17,7 km/h (3 Bft)
01.05.2017 12:14 7,5 °C 7,6 °C 78 % 1010,2 hPa 0,0 mm 12,3 km/h (3 Bft) W 270 ° 0 min 0,000 mm 0,8 UV-I 93 W/m² 3,9 °C 5,2 °C 16,1 km/h (3 Bft)
01.05.2017 12:15 7,4 °C 7,5 °C 79 % 1010,1 hPa 0,0 mm 8,0 km/h (2 Bft) W 259 ° 0 min 0,000 mm 0,7 UV-I 88 W/m² 4,0 °C 6,0 °C 12,9 km/h (3 Bft)
01.05.2017 12:16 7,4 °C 7,4 °C 79 % 1010,2 hPa 0,0 mm 6,6 km/h (2 Bft) W 275 ° 0 min 0,000 mm 0,7 UV-I 81 W/m² 4,0 °C 6,3 °C 9,7 km/h (2 Bft)
01.05.2017 12:17 7,4 °C 7,4 °C 80 % 1010,1 hPa 0,0 mm 12,3 km/h (3 Bft) W 269 ° 0 min 0,000 mm 0,6 UV-I 74 W/m² 4,2 °C 5,1 °C 19,3 km/h (3 Bft)
01.05.2017 12:18 7,4 °C 7,4 °C 80 % 1010,2 hPa 0,0 mm 7,2 km/h (2 Bft) W-NW 303 ° 0 min 0,000 mm 0,6 UV-I 76 W/m² 4,2 °C 6,1 °C 14,5 km/h (3 Bft)
01.05.2017 12:19 7,4 °C 7,4 °C 79 % 1010,2 hPa 0,0 mm 5,7 km/h (1 Bft) W 263 ° 0 min 0,000 mm 0,7 UV-I 77 W/m² 4,0 °C 6,6 °C 12,9 km/h (3 Bft)
01.05.2017 12:20 7,4 °C 7,4 °C 79 % 1010,2 hPa 0,0 mm 7,4 km/h (2 Bft) NW 306 ° 0 min 0,000 mm 0,6 UV-I 76 W/m² 4,0 °C 6,1 °C 9,7 km/h (2 Bft)
01.05.2017 12:21 7,3 °C 7,4 °C 79 % 1010,2 hPa 0,0 mm 14,7 km/h (3 Bft) W 271 ° 0 min 0,000 mm 0,6 UV-I 69 W/m² 3,9 °C 4,6 °C 20,9 km/h (4 Bft)
01.05.2017 12:22 7,3 °C 7,3 °C 79 % 1010,2 hPa 0,0 mm 9,3 km/h (2 Bft) W-NW 294 ° 0 min 0,000 mm 0,6 UV-I 70 W/m² 3,9 °C 5,5 °C 12,9 km/h (3 Bft)
01.05.2017 12:23 7,3 °C 7,3 °C 79 % 1010,2 hPa 0,0 mm 11,2 km/h (2 Bft) W 275 ° 0 min 0,000 mm 0,6 UV-I 67 W/m² 3,9 °C 5,2 °C 19,3 km/h (3 Bft)
01.05.2017 12:24 7,2 °C 7,3 °C 79 % 1010,2 hPa 0,0 mm 18,0 km/h (3 Bft) W-SW 252 ° 0 min 0,000 mm 0,6 UV-I 67 W/m² 3,8 °C 4,1 °C 22,5 km/h (4 Bft)
01.05.2017 12:25 7,1 °C 7,2 °C 79 % 1010,2 hPa 0,0 mm 12,2 km/h (2 Bft) W-SW 254 ° 0 min 0,000 mm 0,6 UV-I 69 W/m² 3,7 °C 4,8 °C 19,3 km/h (3 Bft)
01.05.2017 12:26 7,1 °C 7,1 °C 79 % 1010,2 hPa 0,0 mm 6,0 km/h (2 Bft) W-NW 302 ° 0 min 0,000 mm 0,7 UV-I 83 W/m² 3,7 °C 6,1 °C 11,3 km/h (2 Bft)
01.05.2017 12:27 7,1 °C 7,1 °C 80 % 1010,2 hPa 0,0 mm 8,8 km/h (2 Bft) W 265 ° 0 min 0,000 mm 0,7 UV-I 86 W/m² 3,9 °C 5,4 °C 14,5 km/h (3 Bft)
01.05.2017 12:28 7,0 °C 7,1 °C 80 % 1010,2 hPa 0,0 mm 8,5 km/h (2 Bft) W 279 ° 0 min 0,000 mm 0,7 UV-I 84 W/m² 3,8 °C 5,4 °C 14,5 km/h (3 Bft)
01.05.2017 12:29 6,9 °C 7,0 °C 80 % 1010,2 hPa 0,0 mm 8,3 km/h (2 Bft) W 265 ° 0 min 0,000 mm 0,7 UV-I 83 W/m² 3,7 °C 5,3 °C 11,3 km/h (2 Bft)
01.05.2017 12:30 7,0 °C 7,0 °C 81 % 1010,2 hPa 0,0 mm 7,4 km/h (2 Bft) W 277 ° 0 min 0,000 mm 0,7 UV-I 84 W/m² 4,0 °C 5,6 °C 11,3 km/h (2 Bft)
01.05.2017 12:31 7,0 °C 7,0 °C 80 % 1010,2 hPa 0,0 mm 7,2 km/h (2 Bft) W-NW 296 ° 0 min 0,000 mm 0,7 UV-I 88 W/m² 3,8 °C 5,7 °C 11,3 km/h (2 Bft)
01.05.2017 12:32 7,0 °C 7,0 °C 80 % 1010,3 hPa 0,0 mm 3,6 km/h (1 Bft) W-NW 302 ° 0 min 0,000 mm 0,7 UV-I 88 W/m² 3,8 °C 7,0 °C 6,4 km/h (2 Bft)
01.05.2017 12:33 6,9 °C 7,0 °C 80 % 1010,2 hPa 0,0 mm 6,8 km/h (2 Bft) W 279 ° 0 min 0,000 mm 0,7 UV-I 86 W/m² 3,7 °C 5,7 °C 9,7 km/h (2 Bft)
01.05.2017 12:34 6,9 °C 7,0 °C 80 % 1010,3 hPa 0,0 mm 7,4 km/h (2 Bft) W 268 ° 0 min 0,000 mm 0,7 UV-I 88 W/m² 3,7 °C 5,5 °C 11,3 km/h (2 Bft)
01.05.2017 12:35 6,9 °C 7,0 °C 81 % 1010,3 hPa 0,0 mm 8,1 km/h (2 Bft) W 263 ° 0 min 0,000 mm 0,7 UV-I 90 W/m² 3,9 °C 5,3 °C 12,9 km/h (3 Bft)
01.05.2017 12:36 6,9 °C 6,9 °C 80 % 1010,3 hPa 0,0 mm 8,3 km/h (2 Bft) NW 304 ° 0 min 0,000 mm 0,8 UV-I 91 W/m² 3,7 °C 5,3 °C 14,5 km/h (3 Bft)
01.05.2017 12:37 6,9 °C 6,9 °C 81 % 1010,3 hPa 0,0 mm 13,6 km/h (3 Bft) W-NW 286 ° 0 min 0,000 mm 0,8 UV-I 91 W/m² 3,9 °C 4,3 °C 20,9 km/h (4 Bft)
01.05.2017 12:38 6,9 °C 6,9 °C 80 % 1010,3 hPa 0,0 mm 11,1 km/h (2 Bft) W-NW 302 ° 0 min 0,000 mm 0,8 UV-I 95 W/m² 3,7 °C 4,7 °C 14,5 km/h (3 Bft)
01.05.2017 12:39 6,9 °C 6,9 °C 80 % 1010,3 hPa 0,0 mm 13,8 km/h (3 Bft) W 278 ° 0 min 0,000 mm 0,8 UV-I 95 W/m² 3,7 °C 4,3 °C 22,5 km/h (4 Bft)
01.05.2017 12:40 6,8 °C 6,9 °C 80 % 1010,3 hPa 0,0 mm 14,4 km/h (3 Bft) W 263 ° 0 min 0,000 mm 0,8 UV-I 97 W/m² 3,6 °C 4,1 °C 24,1 km/h (4 Bft)
01.05.2017 12:41 6,8 °C 6,8 °C 79 % 1010,3 hPa 0,0 mm 15,3 km/h (3 Bft) W 266 ° 0 min 0,000 mm 0,9 UV-I 98 W/m² 3,4 °C 3,9 °C 20,9 km/h (4 Bft)
01.05.2017 12:42 6,8 °C 6,8 °C 80 % 1010,3 hPa 0,0 mm 13,7 km/h (3 Bft) W-SW 258 ° 0 min 0,000 mm 0,9 UV-I 100 W/m² 3,6 °C 4,2 °C 17,7 km/h (3 Bft)
01.05.2017 12:43 6,8 °C 6,8 °C 80 % 1010,3 hPa 0,0 mm 11,3 km/h (2 Bft) W-SW 244 ° 0 min 0,000 mm 0,9 UV-I 100 W/m² 3,6 °C 4,6 °C 14,5 km/h (3 Bft)
01.05.2017 12:44 6,8 °C 6,8 °C 81 % 1010,3 hPa 0,0 mm 11,1 km/h (2 Bft) W 272 ° 0 min 0,000 mm 0,9 UV-I 100 W/m² 3,8 °C 4,6 °C 16,1 km/h (3 Bft)
01.05.2017 12:45 6,8 °C 6,8 °C 80 % 1010,3 hPa 0,0 mm 10,3 km/h (2 Bft) W 269 ° 0 min 0,000 mm 0,9 UV-I 98 W/m² 3,6 °C 4,7 °C 14,5 km/h (3 Bft)
01.05.2017 12:46 6,7 °C 6,8 °C 80 % 1010,3 hPa 0,0 mm 12,3 km/h (3 Bft) W 274 ° 0 min 0,000 mm 0,8 UV-I 93 W/m² 3,5 °C 4,3 °C 19,3 km/h (3 Bft)
01.05.2017 12:47 6,7 °C 6,8 °C 80 % 1010,3 hPa 0,0 mm 14,1 km/h (3 Bft) W 266 ° 0 min 0,000 mm 0,8 UV-I 90 W/m² 3,5 °C 4,0 °C 22,5 km/h (4 Bft)
01.05.2017 12:48 6,7 °C 6,7 °C 80 % 1010,4 hPa 0,0 mm 8,9 km/h (2 Bft) NW 306 ° 0 min 0,000 mm 0,8 UV-I 90 W/m² 3,5 °C 4,9 °C 16,1 km/h (3 Bft)
01.05.2017 12:49 6,7 °C 6,7 °C 80 % 1010,4 hPa 0,0 mm 8,4 km/h (2 Bft) W 261 ° 0 min 0,000 mm 0,8 UV-I 83 W/m² 3,5 °C 5,0 °C 16,1 km/h (3 Bft)
01.05.2017 12:50 6,7 °C 6,7 °C 80 % 1010,4 hPa 0,0 mm 13,1 km/h (3 Bft) W-NW 292 ° 0 min 0,000 mm 0,7 UV-I 84 W/m² 3,5 °C 4,1 °C 19,3 km/h (3 Bft)
01.05.2017 12:51 6,6 °C 6,7 °C 80 % 1010,4 hPa 0,0 mm 5,7 km/h (1 Bft) SW 236 ° 0 min 0,000 mm 0,8 UV-I 90 W/m² 3,4 °C 5,7 °C 11,3 km/h (2 Bft)
01.05.2017 12:52 6,6 °C 6,7 °C 80 % 1010,4 hPa 0,0 mm 6,6 km/h (2 Bft) W-SW 256 ° 0 min 0,000 mm 0,8 UV-I 97 W/m² 3,4 °C 5,4 °C 11,3 km/h (2 Bft)
01.05.2017 12:53 6,6 °C 6,6 °C 79 % 1010,4 hPa 0,0 mm 9,2 km/h (2 Bft) W-NW 283 ° 0 min 0,000 mm 0,9 UV-I 100 W/m² 3,2 °C 4,7 °C 12,9 km/h (3 Bft)
01.05.2017 12:54 6,5 °C 6,6 °C 79 % 1010,4 hPa 0,0 mm 14,0 km/h (3 Bft) W-SW 254 ° 0 min 0,000 mm 0,9 UV-I 100 W/m² 3,1 °C 3,7 °C 24,1 km/h (4 Bft)
01.05.2017 12:55 6,4 °C 6,5 °C 79 % 1010,4 hPa 0,0 mm 17,4 km/h (3 Bft) W 265 ° 0 min 0,000 mm 0,9 UV-I 102 W/m² 3,0 °C 3,1 °C 22,5 km/h (4 Bft)
01.05.2017 12:56 6,4 °C 6,4 °C 79 % 1010,4 hPa 0,0 mm 16,4 km/h (3 Bft) W-NW 285 ° 0 min 0,000 mm 0,9 UV-I 104 W/m² 3,0 °C 3,3 °C 25,7 km/h (4 Bft)
01.05.2017 12:57 6,3 °C 6,4 °C 79 % 1010,4 hPa 0,0 mm 9,9 km/h (2 Bft) W-NW 286 ° 0 min 0,000 mm 0,9 UV-I 105 W/m² 2,9 °C 4,2 °C 20,9 km/h (4 Bft)
01.05.2017 12:58 6,3 °C 6,3 °C 79 % 1010,4 hPa 0,0 mm 15,2 km/h (3 Bft) W 281 ° 0 min 0,000 mm 1,0 UV-I 109 W/m² 2,9 °C 3,3 °C 19,3 km/h (3 Bft)
01.05.2017 12:59 6,3 °C 6,3 °C 80 % 1010,4 hPa 0,0 mm 10,5 km/h (2 Bft) NW 307 ° 0 min 0,000 mm 1,0 UV-I 113 W/m² 3,1 °C 4,1 °C 16,1 km/h (3 Bft)
01.05.2017 13:00 6,2 °C 6,3 °C 80 % 1010,4 hPa 0,0 mm 11,0 km/h (2 Bft) W 279 ° 0 min 0,076 mm 1,0 UV-I 116 W/m² 3,0 °C 3,9 °C 17,7 km/h (3 Bft)
01.05.2017 13:01 6,3 °C 6,3 °C 80 % 1010,3 hPa 0,0 mm 11,6 km/h (2 Bft) W 271 ° 0 min 0,000 mm 1,1 UV-I 128 W/m² 3,1 °C 3,9 °C 20,9 km/h (4 Bft)
01.05.2017 13:02 6,2 °C 6,3 °C 80 % 1010,3 hPa 0,0 mm 12,5 km/h (3 Bft) NW 304 ° 0 min 0,000 mm 1,2 UV-I 137 W/m² 3,0 °C 3,6 °C 19,3 km/h (3 Bft)
01.05.2017 13:03 6,2 °C 6,2 °C 80 % 1010,3 hPa 0,0 mm 12,6 km/h (3 Bft) W 261 ° 0 min 0,000 mm 1,2 UV-I 142 W/m² 3,0 °C 3,6 °C 20,9 km/h (4 Bft)
01.05.2017 13:04 6,2 °C 6,2 °C 80 % 1010,3 hPa 0,0 mm 10,4 km/h (2 Bft) W-NW 302 ° 0 min 0,000 mm 1,2 UV-I 146 W/m² 3,0 °C 4,0 °C 12,9 km/h (3 Bft)
01.05.2017 13:05 6,2 °C 6,2 °C 80 % 1010,3 hPa 0,0 mm 11,9 km/h (2 Bft) W-NW 283 ° 0 min 0,000 mm 1,2 UV-I 146 W/m² 3,0 °C 3,7 °C 16,1 km/h (3 Bft)
01.05.2017 13:06 6,2 °C 6,2 °C 80 % 1010,3 hPa 0,0 mm 10,7 km/h (2 Bft) W-NW 285 ° 0 min 0,000 mm 1,2 UV-I 139 W/m² 3,0 °C 4,0 °C 16,1 km/h (3 Bft)
01.05.2017 13:07 6,2 °C 6,2 °C 80 % 1010,3 hPa 0,0 mm 9,9 km/h (2 Bft) NW 321 ° 0 min 0,000 mm 1,2 UV-I 135 W/m² 3,0 °C 4,1 °C 16,1 km/h (3 Bft)
01.05.2017 13:08 6,2 °C 6,2 °C 80 % 1010,2 hPa 0,0 mm 9,6 km/h (2 Bft) W 281 ° 0 min 0,000 mm 1,1 UV-I 134 W/m² 3,0 °C 4,2 °C 17,7 km/h (3 Bft)
01.05.2017 13:09 6,2 °C 6,2 °C 80 % 1010,3 hPa 0,0 mm 10,5 km/h (2 Bft) W 270 ° 0 min 0,000 mm 1,1 UV-I 135 W/m² 3,0 °C 4,0 °C 20,9 km/h (4 Bft)
01.05.2017 13:10 6,2 °C 6,2 °C 80 % 1010,2 hPa 0,0 mm 13,7 km/h (3 Bft) W-NW 282 ° 0 min 0,000 mm 1,1 UV-I 134 W/m² 3,0 °C 3,4 °C 20,9 km/h (4 Bft)
01.05.2017 13:11 6,2 °C 6,2 °C 80 % 1010,2 hPa 0,0 mm 10,3 km/h (2 Bft) W-NW 286 ° 0 min 0,000 mm 1,1 UV-I 132 W/m² 3,0 °C 4,0 °C 17,7 km/h (3 Bft)
01.05.2017 13:12 6,1 °C 6,2 °C 80 % 1010,2 hPa 0,0 mm 12,9 km/h (3 Bft) W 266 ° 0 min 0,000 mm 1,1 UV-I 130 W/m² 2,9 °C 3,4 °C 14,5 km/h (3 Bft)
01.05.2017 13:13 6,1 °C 6,1 °C 80 % 1010,3 hPa 0,0 mm 8,4 km/h (2 Bft) W-NW 293 ° 0 min 0,000 mm 1,0 UV-I 125 W/m² 2,9 °C 4,3 °C 14,5 km/h (3 Bft)
01.05.2017 13:14 6,2 °C 6,2 °C 81 % 1010,3 hPa 0,0 mm 9,9 km/h (2 Bft) W-NW 285 ° 0 min 0,000 mm 1,0 UV-I 125 W/m² 3,2 °C 4,1 °C 16,1 km/h (3 Bft)
01.05.2017 13:15 6,2 °C 6,2 °C 80 % 1010,3 hPa 0,0 mm 13,0 km/h (3 Bft) W 280 ° 0 min 0,000 mm 1,0 UV-I 120 W/m² 3,0 °C 3,5 °C 14,5 km/h (3 Bft)
01.05.2017 13:16 6,1 °C 6,2 °C 80 % 1010,4 hPa 0,0 mm 13,7 km/h (3 Bft) W 261 ° 0 min 0,000 mm 0,9 UV-I 111 W/m² 2,9 °C 3,3 °C 24,1 km/h (4 Bft)
01.05.2017 13:17 6,1 °C 6,2 °C 79 % 1010,4 hPa 0,0 mm 19,7 km/h (3 Bft) W 265 ° 0 min 0,000 mm 0,9 UV-I 104 W/m² 2,7 °C 2,5 °C 25,7 km/h (4 Bft)
01.05.2017 13:18 6,1 °C 6,1 °C 78 % 1010,4 hPa 0,0 mm 15,1 km/h (3 Bft) W-NW 287 ° 0 min 0,000 mm 0,8 UV-I 91 W/m² 2,6 °C 3,1 °C 24,1 km/h (4 Bft)
01.05.2017 13:19 5,9 °C 6,1 °C 79 % 1010,4 hPa 0,0 mm 11,2 km/h (2 Bft) W-NW 292 ° 0 min 0,000 mm 0,8 UV-I 86 W/m² 2,5 °C 3,5 °C 20,9 km/h (4 Bft)
01.05.2017 13:20 5,9 °C 5,9 °C 79 % 1010,4 hPa 0,0 mm 12,3 km/h (3 Bft) W-NW 283 ° 0 min 0,000 mm 0,7 UV-I 84 W/m² 2,5 °C 3,3 °C 20,9 km/h (4 Bft)
01.05.2017 13:21 5,9 °C 5,9 °C 79 % 1010,4 hPa 0,0 mm 13,2 km/h (3 Bft) W 266 ° 0 min 0,000 mm 0,7 UV-I 84 W/m² 2,5 °C 3,1 °C 22,5 km/h (4 Bft)
01.05.2017 13:22 5,8 °C 5,9 °C 79 % 1010,5 hPa 0,0 mm 12,0 km/h (2 Bft) NW 317 ° 0 min 0,000 mm 0,7 UV-I 86 W/m² 2,4 °C 3,2 °C 22,5 km/h (4 Bft)
01.05.2017 13:23 5,8 °C 5,8 °C 78 % 1010,4 hPa 0,0 mm 17,7 km/h (3 Bft) W-NW 294 ° 0 min 0,000 mm 0,7 UV-I 90 W/m² 2,3 °C 2,4 °C 25,7 km/h (4 Bft)
01.05.2017 13:24 5,7 °C 5,8 °C 79 % 1010,5 hPa 0,0 mm 11,6 km/h (2 Bft) W-NW 288 ° 0 min 0,000 mm 0,8 UV-I 91 W/m² 2,3 °C 3,2 °C 19,3 km/h (3 Bft)
01.05.2017 13:25 5,7 °C 5,7 °C 79 % 1010,5 hPa 0,0 mm 7,5 km/h (2 Bft) W-NW 288 ° 0 min 0,000 mm 0,8 UV-I 95 W/m² 2,3 °C 4,1 °C 12,9 km/h (3 Bft)
01.05.2017 13:26 5,7 °C 5,7 °C 80 % 1010,5 hPa 0,0 mm 11,2 km/h (2 Bft) W-NW 292 ° 0 min 0,000 mm 0,8 UV-I 95 W/m² 2,5 °C 3,3 °C 17,7 km/h (3 Bft)
01.05.2017 13:27 5,7 °C 5,7 °C 79 % 1010,5 hPa 0,0 mm 9,3 km/h (2 Bft) W 261 ° 0 min 0,000 mm 0,8 UV-I 93 W/m² 2,3 °C 3,6 °C 14,5 km/h (3 Bft)
01.05.2017 13:28 5,7 °C 5,7 °C 79 % 1010,6 hPa 0,0 mm 7,6 km/h (2 Bft) NW 312 ° 0 min 0,000 mm 0,7 UV-I 91 W/m² 2,3 °C 4,1 °C 11,3 km/h (2 Bft)
01.05.2017 13:29 5,6 °C 5,7 °C 80 % 1010,6 hPa 0,0 mm 9,3 km/h (2 Bft) W-NW 292 ° 0 min 0,000 mm 0,7 UV-I 91 W/m² 2,4 °C 3,5 °C 19,3 km/h (3 Bft)
01.05.2017 13:30 5,6 °C 5,7 °C 79 % 1010,5 hPa 0,0 mm 13,9 km/h (3 Bft) W 264 ° 0 min 0,000 mm 0,7 UV-I 83 W/m² 2,3 °C 2,7 °C 20,9 km/h (4 Bft)
01.05.2017 13:31 5,6 °C 5,6 °C 79 % 1010,5 hPa 0,0 mm 20,7 km/h (4 Bft) W-SW 247 ° 0 min 0,000 mm 0,6 UV-I 79 W/m² 2,3 °C 1,7 °C 27,4 km/h (4 Bft)
01.05.2017 13:32 5,5 °C 5,6 °C 79 % 1010,6 hPa 0,0 mm 11,8 km/h (2 Bft) W 262 ° 0 min 0,000 mm 0,6 UV-I 74 W/m² 2,2 °C 2,9 °C 17,7 km/h (3 Bft)
01.05.2017 13:33 5,4 °C 5,5 °C 79 % 1010,6 hPa 0,0 mm 14,0 km/h (3 Bft) W-NW 284 ° 0 min 0,000 mm 0,6 UV-I 67 W/m² 2,1 °C 2,4 °C 19,3 km/h (3 Bft)
01.05.2017 13:34 5,4 °C 5,4 °C 79 % 1010,7 hPa 0,0 mm 11,5 km/h (2 Bft) W 270 ° 0 min 0,000 mm 0,5 UV-I 62 W/m² 2,1 °C 2,8 °C 22,5 km/h (4 Bft)
01.05.2017 13:35 5,4 °C 5,4 °C 79 % 1010,7 hPa 0,0 mm 16,2 km/h (3 Bft) NW 313 ° 0 min 0,000 mm 0,0 UV-I 54 W/m² 2,1 °C 2,1 °C 20,9 km/h (4 Bft)
01.05.2017 13:36 5,3 °C 5,4 °C 80 % 1010,8 hPa 0,0 mm 17,6 km/h (3 Bft) W 261 ° 0 min 0,000 mm 0,0 UV-I 49 W/m² 2,1 °C 1,7 °C 25,7 km/h (4 Bft)
01.05.2017 13:37 5,3 °C 5,3 °C 79 % 1010,7 hPa 0,0 mm 12,2 km/h (2 Bft) W-NW 282 ° 0 min 0,000 mm 0,0 UV-I 47 W/m² 2,0 °C 2,6 °C 16,1 km/h (3 Bft)
01.05.2017 13:38 5,3 °C 5,3 °C 80 % 1010,7 hPa 0,0 mm 6,9 km/h (2 Bft) W-SW 243 ° 0 min 0,000 mm 0,0 UV-I 46 W/m² 2,1 °C 3,8 °C 12,9 km/h (3 Bft)
01.05.2017 13:39 5,3 °C 5,3 °C 80 % 1010,8 hPa 0,0 mm 14,6 km/h (3 Bft) W-NW 290 ° 0 min 0,000 mm 0,0 UV-I 44 W/m² 2,1 °C 2,2 °C 22,5 km/h (4 Bft)
01.05.2017 13:40 5,2 °C 5,3 °C 79 % 1010,8 hPa 0,0 mm 11,0 km/h (2 Bft) W-SW 241 ° 0 min 0,000 mm 0,0 UV-I 42 W/m² 1,9 °C 2,7 °C 16,1 km/h (3 Bft)
01.05.2017 13:41 5,2 °C 5,2 °C 79 % 1010,8 hPa 0,0 mm 14,0 km/h (3 Bft) W-SW 254 ° 0 min 0,000 mm 0,0 UV-I 40 W/m² 1,9 °C 2,2 °C 24,1 km/h (4 Bft)
01.05.2017 13:42 5,2 °C 5,2 °C 79 % 1010,8 hPa 0,0 mm 14,9 km/h (3 Bft) W 264 ° 0 min 0,000 mm 0,0 UV-I 40 W/m² 1,9 °C 2,0 °C 22,5 km/h (4 Bft)
01.05.2017 13:43 5,1 °C 5,2 °C 79 % 1010,7 hPa 0,0 mm 22,4 km/h (4 Bft) W-SW 240 ° 0 min 0,000 mm 0,0 UV-I 42 W/m² 1,8 °C 0,9 °C 30,6 km/h (5 Bft)
01.05.2017 13:44 5,1 °C 5,1 °C 79 % 1010,9 hPa 0,0 mm 17,6 km/h (3 Bft) W 280 ° 0 min 0,000 mm 0,0 UV-I 46 W/m² 1,8 °C 1,5 °C 25,7 km/h (4 Bft)
01.05.2017 13:45 5,1 °C 5,1 °C 79 % 1010,9 hPa 0,0 mm 13,6 km/h (3 Bft) W 275 ° 0 min 0,000 mm 0,0 UV-I 46 W/m² 1,8 °C 2,1 °C 20,9 km/h (4 Bft)
01.05.2017 13:46 5,1 °C 5,1 °C 79 % 1010,8 hPa 0,0 mm 21,3 km/h (4 Bft) W 275 ° 0 min 0,000 mm 0,0 UV-I 47 W/m² 1,8 °C 1,0 °C 30,6 km/h (5 Bft)
01.05.2017 13:47 5,1 °C 5,1 °C 79 % 1010,8 hPa 0,0 mm 13,3 km/h (3 Bft) W 275 ° 0 min 0,000 mm 0,0 UV-I 47 W/m² 1,8 °C 2,1 °C 19,3 km/h (3 Bft)
01.05.2017 13:48 5,1 °C 5,1 °C 79 % 1010,8 hPa 0,0 mm 17,9 km/h (3 Bft) W-SW 248 ° 0 min 0,000 mm 0,0 UV-I 46 W/m² 1,8 °C 1,5 °C 25,7 km/h (4 Bft)
01.05.2017 13:49 5,1 °C 5,1 °C 80 % 1010,8 hPa 0,0 mm 13,9 km/h (3 Bft) W-SW 244 ° 0 min 0,000 mm 0,0 UV-I 46 W/m² 1,9 °C 2,0 °C 17,7 km/h (3 Bft)
01.05.2017 13:50 5,0 °C 5,1 °C 80 % 1010,8 hPa 0,0 mm 18,2 km/h (3 Bft) W-SW 257 ° 0 min 0,000 mm 0,0 UV-I 44 W/m² 1,8 °C 1,3 °C 27,4 km/h (4 Bft)
01.05.2017 13:51 5,1 °C 5,1 °C 80 % 1010,9 hPa 0,0 mm 19,4 km/h (3 Bft) W 265 ° 0 min 0,000 mm 0,0 UV-I 44 W/m² 1,9 °C 1,3 °C 29,0 km/h (5 Bft)
01.05.2017 13:52 5,0 °C 5,1 °C 79 % 1010,8 hPa 0,0 mm 10,9 km/h (2 Bft) W 264 ° 0 min 0,000 mm 0,0 UV-I 44 W/m² 1,7 °C 2,5 °C 16,1 km/h (3 Bft)
01.05.2017 13:53 4,9 °C 5,0 °C 80 % 1010,8 hPa 0,0 mm 10,1 km/h (2 Bft) NW 311 ° 0 min 0,000 mm 0,0 UV-I 44 W/m² 1,7 °C 2,5 °C 14,5 km/h (3 Bft)
01.05.2017 13:54 4,9 °C 4,9 °C 80 % 1010,9 hPa 0,0 mm 16,0 km/h (3 Bft) W 264 ° 0 min 0,000 mm 0,0 UV-I 44 W/m² 1,7 °C 1,5 °C 24,1 km/h (4 Bft)
01.05.2017 13:55 4,9 °C 4,9 °C 80 % 1010,8 hPa 0,0 mm 20,6 km/h (4 Bft) W-SW 257 ° 0 min 0,000 mm 0,0 UV-I 42 W/m² 1,7 °C 0,9 °C 29,0 km/h (5 Bft)
01.05.2017 13:56 4,9 °C 4,9 °C 80 % 1010,8 hPa 0,0 mm 18,2 km/h (3 Bft) SW 230 ° 0 min 0,000 mm 0,0 UV-I 42 W/m² 1,7 °C 1,2 °C 29,0 km/h (5 Bft)
01.05.2017 13:57 4,9 °C 4,9 °C 80 % 1010,9 hPa 0,0 mm 17,1 km/h (3 Bft) W 267 ° 0 min 0,000 mm 0,0 UV-I 40 W/m² 1,7 °C 1,3 °C 20,9 km/h (4 Bft)
01.05.2017 13:58 4,9 °C 4,9 °C 80 % 1010,9 hPa 0,0 mm 12,2 km/h (2 Bft) W 265 ° 0 min 0,000 mm 0,0 UV-I 40 W/m² 1,7 °C 2,1 °C 19,3 km/h (3 Bft)
01.05.2017 13:59 4,8 °C 4,9 °C 80 % 1010,9 hPa 0,0 mm 15,6 km/h (3 Bft) W-SW 250 ° 0 min 0,000 mm 0,0 UV-I 40 W/m² 1,6 °C 1,4 °C 22,5 km/h (4 Bft)
01.05.2017 14:00 4,8 °C 4,9 °C 80 % 1010,9 hPa 0,0 mm 12,2 km/h (2 Bft) W 279 ° 0 min 0,000 mm 0,0 UV-I 39 W/m² 1,6 °C 2,0 °C 14,5 km/h (3 Bft)
01.05.2017 14:01 4,8 °C 4,8 °C 80 % 1011,0 hPa 0,0 mm 12,2 km/h (2 Bft) W-SW 257 ° 0 min 0,051 mm 0,0 UV-I 39 W/m² 1,6 °C 2,0 °C 17,7 km/h (3 Bft)
01.05.2017 14:02 4,8 °C 4,8 °C 80 % 1010,9 hPa 0,0 mm 13,1 km/h (3 Bft) W-SW 252 ° 0 min 0,000 mm 0,0 UV-I 40 W/m² 1,6 °C 1,8 °C 24,1 km/h (4 Bft)
01.05.2017 14:03 4,8 °C 4,8 °C 81 % 1011,0 hPa 0,0 mm 24,2 km/h (4 Bft) W 267 ° 0 min 0,000 mm 0,0 UV-I 40 W/m² 1,8 °C 0,3 °C 33,8 km/h (5 Bft)
01.05.2017 14:04 4,8 °C 4,8 °C 81 % 1010,9 hPa 0,0 mm 19,2 km/h (3 Bft) W 264 ° 0 min 0,000 mm 0,0 UV-I 40 W/m² 1,8 °C 0,9 °C 27,4 km/h (4 Bft)
01.05.2017 14:05 4,7 °C 4,8 °C 81 % 1011,0 hPa 0,0 mm 17,3 km/h (3 Bft) W 277 ° 0 min 0,000 mm 0,0 UV-I 42 W/m² 1,7 °C 1,0 °C 25,7 km/h (4 Bft)
01.05.2017 14:06 4,7 °C 4,8 °C 81 % 1011,0 hPa 0,0 mm 14,1 km/h (3 Bft) W 279 ° 0 min 0,000 mm 0,0 UV-I 42 W/m² 1,7 °C 1,5 °C 20,9 km/h (4 Bft)
01.05.2017 14:07 4,7 °C 4,8 °C 81 % 1010,9 hPa 0,0 mm 14,5 km/h (3 Bft) W-NW 298 ° 0 min 0,000 mm 0,0 UV-I 42 W/m² 1,7 °C 1,5 °C 19,3 km/h (3 Bft)
01.05.2017 14:08 4,7 °C 4,7 °C 81 % 1011,0 hPa 0,0 mm 16,1 km/h (3 Bft) W 277 ° 0 min 0,000 mm 0,0 UV-I 44 W/m² 1,7 °C 1,2 °C 20,9 km/h (4 Bft)
01.05.2017 14:09 4,7 °C 4,7 °C 81 % 1011,1 hPa 0,0 mm 8,4 km/h (2 Bft) NW 307 ° 0 min 0,000 mm 0,0 UV-I 44 W/m² 1,7 °C 2,7 °C 12,9 km/h (3 Bft)
01.05.2017 14:10 4,7 °C 4,7 °C 81 % 1011,1 hPa 0,0 mm 11,9 km/h (2 Bft) W 270 ° 0 min 0,000 mm 0,0 UV-I 44 W/m² 1,7 °C 1,9 °C 16,1 km/h (3 Bft)
01.05.2017 14:11 4,7 °C 4,7 °C 81 % 1011,0 hPa 0,0 mm 9,5 km/h (2 Bft) SW 227 ° 0 min 0,000 mm 0,0 UV-I 44 W/m² 1,7 °C 2,4 °C 17,7 km/h (3 Bft)
01.05.2017 14:12 4,7 °C 4,7 °C 82 % 1011,1 hPa 0,0 mm 13,7 km/h (3 Bft) W-SW 254 ° 0 min 0,000 mm 0,0 UV-I 44 W/m² 1,9 °C 1,6 °C 17,7 km/h (3 Bft)
01.05.2017 14:13 4,7 °C 4,7 °C 82 % 1011,1 hPa 0,0 mm 15,3 km/h (3 Bft) W-NW 290 ° 0 min 0,000 mm 0,0 UV-I 42 W/m² 1,9 °C 1,3 °C 20,9 km/h (4 Bft)
01.05.2017 14:14 4,6 °C 4,7 °C 82 % 1011,2 hPa 0,0 mm 15,6 km/h (3 Bft) W-SW 248 ° 0 min 0,000 mm 0,0 UV-I 42 W/m² 1,8 °C 1,2 °C 25,7 km/h (4 Bft)
01.05.2017 14:15 4,6 °C 4,6 °C 82 % 1011,2 hPa 0,0 mm 19,4 km/h (3 Bft) W-NW 300 ° 0 min 0,000 mm 0,0 UV-I 40 W/m² 1,8 °C 0,6 °C 29,0 km/h (5 Bft)
01.05.2017 14:16 4,6 °C 4,6 °C 82 % 1011,1 hPa 0,0 mm 16,4 km/h (3 Bft) W-NW 301 ° 0 min 0,000 mm 0,0 UV-I 40 W/m² 1,8 °C 1,0 °C 25,7 km/h (4 Bft)
01.05.2017 14:17 4,5 °C 4,6 °C 82 % 1011,1 hPa 0,0 mm 21,3 km/h (4 Bft) W-SW 258 ° 0 min 0,000 mm 0,0 UV-I 35 W/m² 1,7 °C 0,3 °C 30,6 km/h (5 Bft)
01.05.2017 14:18 4,4 °C 4,5 °C 82 % 1011,1 hPa 0,0 mm 16,8 km/h (3 Bft) W 259 ° 0 min 0,000 mm 0,0 UV-I 35 W/m² 1,6 °C 0,7 °C 32,2 km/h (5 Bft)
01.05.2017 14:19 4,4 °C 4,5 °C 83 % 1011,2 hPa 0,0 mm 23,3 km/h (4 Bft) W 261 ° 0 min 0,000 mm 0,0 UV-I 35 W/m² 1,8 °C -0,1 °C 32,2 km/h (5 Bft)
01.05.2017 14:20 4,4 °C 4,4 °C 83 % 1011,2 hPa 0,0 mm 18,0 km/h (3 Bft) SW 232 ° 0 min 0,000 mm 0,0 UV-I 35 W/m² 1,8 °C 0,6 °C 25,7 km/h (4 Bft)
01.05.2017 14:21 4,4 °C 4,4 °C 83 % 1011,2 hPa 0,0 mm 24,1 km/h (4 Bft) W 279 ° 0 min 0,000 mm 0,0 UV-I 35 W/m² 1,8 °C -0,2 °C 29,0 km/h (5 Bft)
01.05.2017 14:22 4,3 °C 4,4 °C 83 % 1011,2 hPa 0,0 mm 12,4 km/h (3 Bft) W 279 ° 0 min 0,000 mm 0,0 UV-I 33 W/m² 1,7 °C 1,3 °C 22,5 km/h (4 Bft)
01.05.2017 14:23 4,3 °C 4,3 °C 83 % 1011,2 hPa 0,0 mm 17,0 km/h (3 Bft) W-NW 303 ° 0 min 0,000 mm 0,0 UV-I 33 W/m² 1,7 °C 0,6 °C 27,4 km/h (4 Bft)
01.05.2017 14:24 4,3 °C 4,3 °C 84 % 1011,2 hPa 0,0 mm 9,0 km/h (2 Bft) W 271 ° 0 min 0,000 mm 0,0 UV-I 33 W/m² 1,8 °C 2,1 °C 12,9 km/h (3 Bft)
01.05.2017 14:25 4,2 °C 4,3 °C 84 % 1011,3 hPa 0,0 mm 12,1 km/h (2 Bft) W-SW 255 ° 0 min 0,000 mm 0,0 UV-I 33 W/m² 1,7 °C 1,3 °C 17,7 km/h (3 Bft)
01.05.2017 14:26 4,2 °C 4,2 °C 85 % 1011,3 hPa 0,0 mm 16,0 km/h (3 Bft) W-SW 257 ° 0 min 0,000 mm 0,0 UV-I 35 W/m² 1,9 °C 0,6 °C 22,5 km/h (4 Bft)
01.05.2017 14:27 4,1 °C 4,2 °C 85 % 1011,3 hPa 0,0 mm 9,5 km/h (2 Bft) W 263 ° 0 min 0,000 mm 0,0 UV-I 37 W/m² 1,8 °C 1,7 °C 19,3 km/h (3 Bft)
01.05.2017 14:28 4,1 °C 4,1 °C 85 % 1011,3 hPa 0,0 mm 8,0 km/h (2 Bft) W 275 ° 0 min 0,000 mm 0,0 UV-I 39 W/m² 1,8 °C 2,1 °C 14,5 km/h (3 Bft)
01.05.2017 14:29 4,1 °C 4,1 °C 86 % 1011,3 hPa 0,0 mm 10,6 km/h (2 Bft) W-NW 296 ° 0 min 0,000 mm 0,0 UV-I 39 W/m² 2,0 °C 1,5 °C 14,5 km/h (3 Bft)
01.05.2017 14:30 4,0 °C 4,1 °C 86 % 1011,3 hPa 0,0 mm 8,3 km/h (2 Bft) W 271 ° 0 min 0,000 mm 0,0 UV-I 42 W/m² 1,9 °C 1,9 °C 12,9 km/h (3 Bft)
01.05.2017 14:31 4,0 °C 4,0 °C 86 % 1011,4 hPa 0,0 mm 15,4 km/h (3 Bft) W-NW 285 ° 0 min 0,000 mm 0,0 UV-I 44 W/m² 1,9 °C 0,5 °C 24,1 km/h (4 Bft)
01.05.2017 14:32 3,9 °C 4,0 °C 86 % 1011,4 hPa 0,0 mm 11,9 km/h (2 Bft) W 279 ° 0 min 0,000 mm 0,0 UV-I 44 W/m² 1,8 °C 0,9 °C 17,7 km/h (3 Bft)
01.05.2017 14:33 3,9 °C 3,9 °C 86 % 1011,4 hPa 0,0 mm 7,2 km/h (2 Bft) W 262 ° 0 min 0,000 mm 0,0 UV-I 44 W/m² 1,8 °C 2,1 °C 9,7 km/h (2 Bft)
01.05.2017 14:34 3,8 °C 3,9 °C 86 % 1011,4 hPa 0,0 mm 13,2 km/h (3 Bft) W 275 ° 0 min 0,000 mm 0,0 UV-I 46 W/m² 1,7 °C 0,6 °C 25,7 km/h (4 Bft)
01.05.2017 14:35 3,8 °C 3,8 °C 87 % 1011,6 hPa 0,0 mm 17,0 km/h (3 Bft) S-SW 193 ° 0 min 0,000 mm 0,0 UV-I 47 W/m² 1,8 °C -0,0 °C 30,6 km/h (5 Bft)
01.05.2017 14:36 3,7 °C 3,8 °C 86 % 1011,5 hPa 0,0 mm 17,5 km/h (3 Bft) W 265 ° 0 min 0,000 mm 0,0 UV-I 47 W/m² 1,6 °C -0,2 °C 25,7 km/h (4 Bft)
01.05.2017 14:37 3,6 °C 3,7 °C 86 % 1011,6 hPa 0,2 mm 20,6 km/h (4 Bft) W 260 ° 0 min 0,000 mm 0,0 UV-I 49 W/m² 1,5 °C -0,8 °C 27,4 km/h (4 Bft)
01.05.2017 14:38 3,5 °C 3,6 °C 86 % 1011,6 hPa 0,0 mm 17,5 km/h (3 Bft) W 268 ° 0 min 0,000 mm 0,0 UV-I 49 W/m² 1,4 °C -0,5 °C 24,1 km/h (4 Bft)
01.05.2017 14:39 3,4 °C 3,5 °C 86 % 1011,6 hPa 0,0 mm 24,9 km/h (4 Bft) W 264 ° 0 min 0,000 mm 0,0 UV-I 53 W/m² 1,3 °C -1,5 °C 32,2 km/h (5 Bft)
01.05.2017 14:40 3,2 °C 3,4 °C 86 % 1011,6 hPa 0,0 mm 17,6 km/h (3 Bft) NW 304 ° 0 min 0,000 mm 0,0 UV-I 56 W/m² 1,1 °C -0,9 °C 24,1 km/h (4 Bft)
01.05.2017 14:41 3,1 °C 3,2 °C 87 % 1011,6 hPa 0,0 mm 9,2 km/h (2 Bft) W 273 ° 0 min 0,000 mm 0,5 UV-I 58 W/m² 1,2 °C 0,6 °C 11,3 km/h (2 Bft)
01.05.2017 14:42 3,0 °C 3,1 °C 87 % 1011,8 hPa 0,2 mm 20,5 km/h (4 Bft) W-SW 253 ° 0 min 0,000 mm 0,6 UV-I 62 W/m² 1,1 °C -1,5 °C 29,0 km/h (5 Bft)
01.05.2017 14:43 2,9 °C 3,0 °C 87 % 1011,6 hPa 0,0 mm 14,6 km/h (3 Bft) W-SW 258 ° 0 min 0,000 mm 0,6 UV-I 67 W/m² 1,0 °C -0,8 °C 29,0 km/h (5 Bft)
01.05.2017 14:44 2,8 °C 2,9 °C 87 % 1011,7 hPa 0,0 mm 15,6 km/h (3 Bft) NW 307 ° 0 min 0,000 mm 0,6 UV-I 72 W/m² 0,9 °C -1,1 °C 24,1 km/h (4 Bft)
01.05.2017 14:45 2,7 °C 2,8 °C 88 % 1011,7 hPa 0,0 mm 15,0 km/h (3 Bft) W 279 ° 0 min 0,000 mm 0,7 UV-I 77 W/m² 0,9 °C -1,1 °C 19,3 km/h (3 Bft)
01.05.2017 14:46 2,7 °C 2,7 °C 88 % 1011,7 hPa 0,0 mm 10,4 km/h (2 Bft) W 269 ° 0 min 0,000 mm 0,7 UV-I 86 W/m² 0,9 °C -0,2 °C 16,1 km/h (3 Bft)
01.05.2017 14:47 2,7 °C 2,7 °C 88 % 1011,8 hPa 0,2 mm 10,3 km/h (2 Bft) W 267 ° 0 min 0,000 mm 0,7 UV-I 86 W/m² 0,9 °C -0,2 °C 20,9 km/h (4 Bft)
01.05.2017 14:48 2,6 °C 2,7 °C 88 % 1011,8 hPa 0,0 mm 13,2 km/h (3 Bft) W-NW 295 ° 0 min 0,000 mm 0,7 UV-I 84 W/m² 0,8 °C -0,9 °C 19,3 km/h (3 Bft)
01.05.2017 14:49 2,6 °C 2,6 °C 89 % 1011,8 hPa 0,0 mm 9,3 km/h (2 Bft) W-NW 284 ° 0 min 0,000 mm 0,7 UV-I 79 W/m² 1,0 °C -0,0 °C 12,9 km/h (3 Bft)
01.05.2017 14:50 2,5 °C 2,6 °C 89 % 1011,8 hPa 0,0 mm 12,7 km/h (3 Bft) W-NW 286 ° 0 min 0,000 mm 0,6 UV-I 74 W/m² 0,9 °C -0,9 °C 16,1 km/h (3 Bft)
01.05.2017 14:51 2,4 °C 2,5 °C 89 % 1011,8 hPa 0,0 mm 7,2 km/h (2 Bft) W 273 ° 0 min 0,000 mm 0,6 UV-I 67 W/m² 0,8 °C 0,3 °C 14,5 km/h (3 Bft)
01.05.2017 14:52 2,4 °C 2,4 °C 90 % 1011,9 hPa 0,2 mm 7,8 km/h (2 Bft) W 271 ° 0 min 0,000 mm 0,5 UV-I 62 W/m² 0,9 °C 0,1 °C 16,1 km/h (3 Bft)
01.05.2017 14:53 2,4 °C 2,4 °C 90 % 1011,9 hPa 0,0 mm 15,2 km/h (3 Bft) W 264 ° 0 min 0,000 mm 0,5 UV-I 60 W/m² 0,9 °C -1,5 °C 24,1 km/h (4 Bft)
01.05.2017 14:54 2,3 °C 2,4 °C 90 % 1011,9 hPa 0,0 mm 12,7 km/h (3 Bft) W-SW 253 ° 0 min 0,000 mm 0,5 UV-I 60 W/m² 0,8 °C -1,2 °C 16,1 km/h (3 Bft)
01.05.2017 14:55 2,3 °C 2,3 °C 90 % 1011,9 hPa 0,0 mm 12,0 km/h (2 Bft) W-NW 292 ° 0 min 0,000 mm 0,5 UV-I 62 W/m² 0,8 °C -1,0 °C 16,1 km/h (3 Bft)
01.05.2017 14:56 2,2 °C 2,3 °C 90 % 1011,9 hPa 0,0 mm 5,9 km/h (2 Bft) W-SW 253 ° 0 min 0,000 mm 0,5 UV-I 62 W/m² 0,7 °C 0,5 °C 11,3 km/h (2 Bft)
01.05.2017 14:57 2,2 °C 2,2 °C 90 % 1011,9 hPa 0,2 mm 10,5 km/h (2 Bft) W 261 ° 0 min 0,000 mm 0,5 UV-I 62 W/m² 0,7 °C -0,8 °C 12,9 km/h (3 Bft)
01.05.2017 14:58 2,2 °C 2,2 °C 90 % 1012,0 hPa 0,0 mm 9,9 km/h (2 Bft) W 261 ° 0 min 0,000 mm 0,5 UV-I 58 W/m² 0,7 °C -0,7 °C 17,7 km/h (3 Bft)
01.05.2017 14:59 2,1 °C 2,2 °C 90 % 1012,0 hPa 0,0 mm 9,7 km/h (2 Bft) W 279 ° 0 min 0,000 mm 0,5 UV-I 56 W/m² 0,6 °C -0,7 °C 12,9 km/h (3 Bft)
01.05.2017 15:00 2,1 °C 2,1 °C 90 % 1012,0 hPa 0,0 mm 8,9 km/h (2 Bft) W 268 ° 0 min 0,000 mm 0,0 UV-I 54 W/m² 0,6 °C -0,5 °C 16,1 km/h (3 Bft)
01.05.2017 15:01 2,1 °C 2,1 °C 90 % 1012,0 hPa 0,0 mm 5,6 km/h (1 Bft) W 259 ° 0 min 0,026 mm 0,0 UV-I 53 W/m² 0,6 °C 0,5 °C 11,3 km/h (2 Bft)
01.05.2017 15:02 2,1 °C 2,1 °C 91 % 1012,0 hPa 0,0 mm 16,9 km/h (3 Bft) W 262 ° 0 min 0,000 mm 0,0 UV-I 51 W/m² 0,8 °C -2,1 °C 24,1 km/h (4 Bft)
01.05.2017 15:03 2,1 °C 2,1 °C 91 % 1012,1 hPa 0,2 mm 12,4 km/h (3 Bft) W 260 ° 0 min 0,000 mm 0,0 UV-I 51 W/m² 0,8 °C -1,3 °C 24,1 km/h (4 Bft)
01.05.2017 15:04 2,1 °C 2,1 °C 91 % 1012,1 hPa 0,0 mm 8,2 km/h (2 Bft) W-NW 291 ° 0 min 0,000 mm 0,0 UV-I 58 W/m² 0,8 °C -0,3 °C 11,3 km/h (2 Bft)
01.05.2017 15:05 2,1 °C 2,1 °C 91 % 1012,1 hPa 0,0 mm 7,6 km/h (2 Bft) W 275 ° 0 min 0,000 mm 0,5 UV-I 62 W/m² 0,8 °C -0,2 °C 14,5 km/h (3 Bft)
01.05.2017 15:06 2,0 °C 2,1 °C 91 % 1012,1 hPa 0,0 mm 8,6 km/h (2 Bft) SW 233 ° 0 min 0,000 mm 0,6 UV-I 67 W/m² 0,7 °C -0,6 °C 16,1 km/h (3 Bft)
01.05.2017 15:07 2,0 °C 2,0 °C 91 % 1012,1 hPa 0,0 mm 9,3 km/h (2 Bft) W 263 ° 0 min 0,000 mm 0,6 UV-I 70 W/m² 0,7 °C -0,7 °C 19,3 km/h (3 Bft)
01.05.2017 15:08 2,1 °C 2,1 °C 91 % 1012,1 hPa 0,0 mm 9,9 km/h (2 Bft) W 275 ° 0 min 0,000 mm 0,6 UV-I 72 W/m² 0,8 °C -0,8 °C 19,3 km/h (3 Bft)
01.05.2017 15:09 2,0 °C 2,1 °C 91 % 1012,1 hPa 0,0 mm 9,5 km/h (2 Bft) W 267 ° 0 min 0,000 mm 0,6 UV-I 72 W/m² 0,7 °C -0,8 °C 14,5 km/h (3 Bft)
01.05.2017 15:10 2,1 °C 2,1 °C 91 % 1012,1 hPa 0,0 mm 10,3 km/h (2 Bft) W-SW 249 ° 0 min 0,000 mm 0,6 UV-I 69 W/m² 0,8 °C -0,9 °C 14,5 km/h (3 Bft)
01.05.2017 15:11 2,0 °C 2,1 °C 91 % 1012,3 hPa 0,0 mm 11,3 km/h (2 Bft) W-NW 302 ° 0 min 0,000 mm 0,6 UV-I 67 W/m² 0,7 °C -1,2 °C 14,5 km/h (3 Bft)
01.05.2017 15:12 2,1 °C 2,1 °C 91 % 1012,2 hPa 0,0 mm 11,3 km/h (2 Bft) W 267 ° 0 min 0,000 mm 0,5 UV-I 63 W/m² 0,8 °C -1,1 °C 17,7 km/h (3 Bft)
01.05.2017 15:13 2,1 °C 2,1 °C 92 % 1012,3 hPa 0,2 mm 10,2 km/h (2 Bft) W-SW 254 ° 0 min 0,000 mm 0,5 UV-I 60 W/m² 0,9 °C -0,9 °C 16,1 km/h (3 Bft)
01.05.2017 15:14 2,1 °C 2,1 °C 92 % 1012,3 hPa 0,0 mm 9,5 km/h (2 Bft) W 261 ° 0 min 0,000 mm 0,5 UV-I 58 W/m² 0,9 °C -0,7 °C 17,7 km/h (3 Bft)
01.05.2017 15:15 2,1 °C 2,2 °C 91 % 1012,4 hPa 0,0 mm 7,9 km/h (2 Bft) W-NW 292 ° 0 min 0,000 mm 0,0 UV-I 54 W/m² 0,8 °C -0,2 °C 12,9 km/h (3 Bft)
01.05.2017 15:16 2,1 °C 2,1 °C 91 % 1012,4 hPa 0,0 mm 9,8 km/h (2 Bft) W-NW 296 ° 0 min 0,000 mm 0,0 UV-I 47 W/m² 0,8 °C -0,8 °C 14,5 km/h (3 Bft)
01.05.2017 15:17 2,1 °C 2,1 °C 91 % 1012,4 hPa 0,0 mm 13,6 km/h (3 Bft) W-NW 284 ° 0 min 0,000 mm 0,0 UV-I 46 W/m² 0,8 °C -1,6 °C 17,7 km/h (3 Bft)
01.05.2017 15:18 2,1 °C 2,1 °C 91 % 1012,4 hPa 0,0 mm 12,8 km/h (3 Bft) W-NW 289 ° 0 min 0,000 mm 0,0 UV-I 46 W/m² 0,8 °C -1,4 °C 17,7 km/h (3 Bft)
01.05.2017 15:19 2,1 °C 2,1 °C 91 % 1012,4 hPa 0,2 mm 12,5 km/h (3 Bft) W 264 ° 0 min 0,000 mm 0,0 UV-I 47 W/m² 0,8 °C -1,4 °C 17,7 km/h (3 Bft)
01.05.2017 15:20 2,0 °C 2,1 °C 91 % 1012,4 hPa 0,0 mm 10,6 km/h (2 Bft) W 269 ° 0 min 0,000 mm 0,0 UV-I 49 W/m² 0,7 °C -1,1 °C 17,7 km/h (3 Bft)
01.05.2017 15:21 2,0 °C 2,0 °C 91 % 1012,4 hPa 0,0 mm 10,6 km/h (2 Bft) W 279 ° 0 min 0,000 mm 0,0 UV-I 51 W/m² 0,7 °C -1,1 °C 14,5 km/h (3 Bft)
01.05.2017 15:22 2,0 °C 2,0 °C 91 % 1012,5 hPa 0,0 mm 10,9 km/h (2 Bft) W-SW 257 ° 0 min 0,000 mm 0,0 UV-I 54 W/m² 0,7 °C -1,1 °C 17,7 km/h (3 Bft)
01.05.2017 15:23 1,9 °C 2,0 °C 91 % 1012,5 hPa 0,2 mm 10,4 km/h (2 Bft) W 265 ° 0 min 0,000 mm 0,0 UV-I 54 W/m² 0,6 °C -1,1 °C 16,1 km/h (3 Bft)
01.05.2017 15:24 1,9 °C 1,9 °C 91 % 1012,5 hPa 0,0 mm 13,4 km/h (3 Bft) W-SW 257 ° 0 min 0,000 mm 0,0 UV-I 54 W/m² 0,6 °C -1,8 °C 16,1 km/h (3 Bft)
01.05.2017 15:25 1,9 °C 1,9 °C 91 % 1012,5 hPa 0,0 mm 12,1 km/h (2 Bft) W 263 ° 0 min 0,000 mm 0,0 UV-I 54 W/m² 0,6 °C -1,5 °C 17,7 km/h (3 Bft)
01.05.2017 15:26 1,8 °C 1,9 °C 91 % 1012,4 hPa 0,0 mm 13,5 km/h (3 Bft) W 273 ° 0 min 0,000 mm 0,0 UV-I 51 W/m² 0,5 °C -1,9 °C 17,7 km/h (3 Bft)
01.05.2017 15:27 1,8 °C 1,8 °C 91 % 1012,5 hPa 0,0 mm 16,2 km/h (3 Bft) W-NW 284 ° 0 min 0,000 mm 0,0 UV-I 47 W/m² 0,5 °C -2,4 °C 22,5 km/h (4 Bft)
01.05.2017 15:28 1,8 °C 1,8 °C 91 % 1012,5 hPa 0,2 mm 12,4 km/h (3 Bft) W 271 ° 0 min 0,000 mm 0,0 UV-I 46 W/m² 0,5 °C -1,7 °C 22,5 km/h (4 Bft)
01.05.2017 15:29 1,8 °C 1,8 °C 91 % 1012,5 hPa 0,0 mm 12,3 km/h (3 Bft) W-SW 246 ° 0 min 0,000 mm 0,0 UV-I 46 W/m² 0,5 °C -1,7 °C 19,3 km/h (3 Bft)
01.05.2017 15:30 1,7 °C 1,8 °C 91 % 1012,5 hPa 0,0 mm 9,2 km/h (2 Bft) W 279 ° 0 min 0,000 mm 0,0 UV-I 46 W/m² 0,4 °C -1,1 °C 12,9 km/h (3 Bft)
01.05.2017 15:31 1,7 °C 1,7 °C 91 % 1012,5 hPa 0,0 mm 10,9 km/h (2 Bft) W-SW 248 ° 0 min 0,000 mm 0,0 UV-I 46 W/m² 0,4 °C -1,5 °C 14,5 km/h (3 Bft)
01.05.2017 15:32 1,7 °C 1,7 °C 91 % 1012,5 hPa 0,2 mm 13,4 km/h (3 Bft) W 280 ° 0 min 0,000 mm 0,0 UV-I 47 W/m² 0,4 °C -2,0 °C 17,7 km/h (3 Bft)
01.05.2017 15:33 1,7 °C 1,7 °C 92 % 1012,5 hPa 0,0 mm 10,8 km/h (2 Bft) SW 228 ° 0 min 0,000 mm 0,0 UV-I 47 W/m² 0,5 °C -1,5 °C 14,5 km/h (3 Bft)
01.05.2017 15:34 1,7 °C 1,7 °C 92 % 1012,5 hPa 0,0 mm 9,8 km/h (2 Bft) W 266 ° 0 min 0,000 mm 0,0 UV-I 47 W/m² 0,5 °C -1,2 °C 16,1 km/h (3 Bft)
01.05.2017 15:35 1,7 °C 1,7 °C 92 % 1012,5 hPa 0,0 mm 6,9 km/h (2 Bft) W 275 ° 0 min 0,000 mm 0,0 UV-I 47 W/m² 0,5 °C -0,4 °C 11,3 km/h (2 Bft)
01.05.2017 15:36 1,7 °C 1,7 °C 92 % 1012,5 hPa 0,0 mm 13,0 km/h (3 Bft) W-SW 257 ° 0 min 0,000 mm 0,0 UV-I 49 W/m² 0,5 °C -1,9 °C 20,9 km/h (4 Bft)
01.05.2017 15:37 1,7 °C 1,7 °C 92 % 1012,5 hPa 0,2 mm 13,2 km/h (3 Bft) W 279 ° 0 min 0,000 mm 0,0 UV-I 49 W/m² 0,5 °C -2,0 °C 19,3 km/h (3 Bft)
01.05.2017 15:38 1,7 °C 1,7 °C 92 % 1012,5 hPa 0,0 mm 18,3 km/h (3 Bft) W 263 ° 0 min 0,000 mm 0,0 UV-I 47 W/m² 0,5 °C -2,9 °C 20,9 km/h (4 Bft)
01.05.2017 15:39 1,7 °C 1,8 °C 92 % 1012,5 hPa 0,0 mm 12,1 km/h (2 Bft) W-SW 243 ° 0 min 0,000 mm 0,0 UV-I 47 W/m² 0,5 °C -1,8 °C 17,7 km/h (3 Bft)
01.05.2017 15:40 1,8 °C 1,8 °C 92 % 1012,5 hPa 0,0 mm 9,5 km/h (2 Bft) W 275 ° 0 min 0,000 mm 0,0 UV-I 46 W/m² 0,6 °C -1,0 °C 14,5 km/h (3 Bft)
01.05.2017 15:41 1,8 °C 1,8 °C 92 % 1012,6 hPa 0,0 mm 10,4 km/h (2 Bft) W-SW 257 ° 0 min 0,000 mm 0,0 UV-I 46 W/m² 0,6 °C -1,3 °C 14,5 km/h (3 Bft)
01.05.2017 15:42 1,8 °C 1,8 °C 92 % 1012,6 hPa 0,0 mm 8,7 km/h (2 Bft) W-SW 246 ° 0 min 0,000 mm 0,0 UV-I 44 W/m² 0,6 °C -0,8 °C 12,9 km/h (3 Bft)
01.05.2017 15:43 1,8 °C 1,8 °C 92 % 1012,6 hPa 0,0 mm 9,7 km/h (2 Bft) W-NW 284 ° 0 min 0,000 mm 0,0 UV-I 44 W/m² 0,6 °C -1,1 °C 14,5 km/h (3 Bft)
01.05.2017 15:44 1,8 °C 1,8 °C 92 % 1012,7 hPa 0,2 mm 7,1 km/h (2 Bft) W 260 ° 0 min 0,000 mm 0,0 UV-I 44 W/m² 0,6 °C -0,3 °C 9,7 km/h (2 Bft)
01.05.2017 15:45 1,8 °C 1,8 °C 92 % 1012,6 hPa 0,0 mm 11,5 km/h (2 Bft) W 261 ° 0 min 0,000 mm 0,0 UV-I 44 W/m² 0,6 °C -1,5 °C 20,9 km/h (4 Bft)
01.05.2017 15:46 1,9 °C 1,9 °C 92 % 1012,6 hPa 0,0 mm 16,0 km/h (3 Bft) W 262 ° 0 min 0,000 mm 0,0 UV-I 44 W/m² 0,7 °C -2,2 °C 24,1 km/h (4 Bft)
01.05.2017 15:47 1,9 °C 1,9 °C 92 % 1012,7 hPa 0,0 mm 16,5 km/h (3 Bft) W-SW 247 ° 0 min 0,000 mm 0,0 UV-I 44 W/m² 0,7 °C -2,3 °C 24,1 km/h (4 Bft)
01.05.2017 15:48 1,9 °C 1,9 °C 92 % 1012,7 hPa 0,0 mm 8,0 km/h (2 Bft) W 263 ° 0 min 0,000 mm 0,0 UV-I 44 W/m² 0,7 °C -0,5 °C 11,3 km/h (2 Bft)
01.05.2017 15:49 1,9 °C 1,9 °C 92 % 1012,7 hPa 0,0 mm 12,6 km/h (3 Bft) W-SW 243 ° 0 min 0,000 mm 0,0 UV-I 42 W/m² 0,7 °C -1,6 °C 17,7 km/h (3 Bft)
01.05.2017 15:50 2,0 °C 2,0 °C 92 % 1012,8 hPa 0,2 mm 12,0 km/h (2 Bft) W 274 ° 0 min 0,000 mm 0,0 UV-I 40 W/m² 0,8 °C -1,4 °C 17,7 km/h (3 Bft)
01.05.2017 15:51 1,9 °C 2,0 °C 92 % 1012,8 hPa 0,0 mm 12,3 km/h (3 Bft) W 279 ° 0 min 0,000 mm 0,0 UV-I 40 W/m² 0,7 °C -1,6 °C 16,1 km/h (3 Bft)
01.05.2017 15:52 2,0 °C 2,0 °C 92 % 1012,8 hPa 0,0 mm 12,7 km/h (3 Bft) W 266 ° 0 min 0,000 mm 0,0 UV-I 39 W/m² 0,8 °C -1,5 °C 16,1 km/h (3 Bft)
01.05.2017 15:53 2,0 °C 2,0 °C 92 % 1012,8 hPa 0,0 mm 10,1 km/h (2 Bft) SW 234 ° 0 min 0,000 mm 0,0 UV-I 39 W/m² 0,8 °C -0,9 °C 16,1 km/h (3 Bft)
01.05.2017 15:54 1,9 °C 2,0 °C 92 % 1012,8 hPa 0,0 mm 6,1 km/h (2 Bft) W 279 ° 0 min 0,000 mm 0,0 UV-I 37 W/m² 0,7 °C 0,1 °C 11,3 km/h (2 Bft)
01.05.2017 15:55 2,0 °C 2,0 °C 92 % 1012,8 hPa 0,0 mm 7,8 km/h (2 Bft) W-NW 296 ° 0 min 0,000 mm 0,0 UV-I 37 W/m² 0,8 °C -0,3 °C 12,9 km/h (3 Bft)
01.05.2017 15:56 2,0 °C 2,0 °C 92 % 1012,8 hPa 0,2 mm 6,6 km/h (2 Bft) W 275 ° 0 min 0,000 mm 0,0 UV-I 37 W/m² 0,8 °C 0,1 °C 11,3 km/h (2 Bft)
01.05.2017 15:57 2,0 °C 2,0 °C 92 % 1012,8 hPa 0,0 mm 9,5 km/h (2 Bft) W-SW 241 ° 0 min 0,000 mm 0,0 UV-I 37 W/m² 0,8 °C -0,8 °C 14,5 km/h (3 Bft)
01.05.2017 15:58 2,1 °C 2,1 °C 92 % 1012,8 hPa 0,0 mm 6,7 km/h (2 Bft) W 262 ° 0 min 0,000 mm 0,0 UV-I 37 W/m² 0,9 °C 0,1 °C 12,9 km/h (3 Bft)
01.05.2017 15:59 2,1 °C 2,1 °C 92 % 1012,9 hPa 0,0 mm 9,8 km/h (2 Bft) W 259 ° 0 min 0,000 mm 0,0 UV-I 37 W/m² 0,9 °C -0,8 °C 17,7 km/h (3 Bft)
01.05.2017 16:00 2,1 °C 2,1 °C 92 % 1012,9 hPa 0,0 mm 7,2 km/h (2 Bft) W 271 ° 0 min 0,000 mm 0,0 UV-I 37 W/m² 0,9 °C -0,0 °C 12,9 km/h (3 Bft)
01.05.2017 16:01 2,1 °C 2,1 °C 92 % 1012,9 hPa 0,0 mm 10,5 km/h (2 Bft) W 271 ° 0 min 0,025 mm 0,0 UV-I 37 W/m² 0,9 °C -0,9 °C 19,3 km/h (3 Bft)
01.05.2017 16:02 2,1 °C 2,1 °C 92 % 1012,9 hPa 0,0 mm 14,6 km/h (3 Bft) SW 229 ° 0 min 0,000 mm 0,0 UV-I 37 W/m² 0,9 °C -1,8 °C 22,5 km/h (4 Bft)
01.05.2017 16:03 2,1 °C 2,1 °C 92 % 1012,9 hPa 0,2 mm 9,4 km/h (2 Bft) W-SW 256 ° 0 min 0,000 mm 0,0 UV-I 37 W/m² 0,9 °C -0,7 °C 12,9 km/h (3 Bft)
01.05.2017 16:04 2,1 °C 2,1 °C 92 % 1012,9 hPa 0,0 mm 7,9 km/h (2 Bft) W-SW 244 ° 0 min 0,000 mm 0,0 UV-I 35 W/m² 0,9 °C -0,2 °C 11,3 km/h (2 Bft)
01.05.2017 16:05 2,1 °C 2,1 °C 92 % 1012,9 hPa 0,0 mm 10,8 km/h (2 Bft) W 268 ° 0 min 0,000 mm 0,0 UV-I 35 W/m² 0,9 °C -1,0 °C 16,1 km/h (3 Bft)
01.05.2017 16:06 2,2 °C 2,2 °C 92 % 1013,0 hPa 0,0 mm 9,9 km/h (2 Bft) W-SW 256 ° 0 min 0,000 mm 0,0 UV-I 35 W/m² 1,0 °C -0,7 °C 14,5 km/h (3 Bft)
01.05.2017 16:07 2,2 °C 2,2 °C 92 % 1013,1 hPa 0,0 mm 8,6 km/h (2 Bft) W 267 ° 0 min 0,000 mm 0,0 UV-I 35 W/m² 1,0 °C -0,3 °C 16,1 km/h (3 Bft)
01.05.2017 16:08 2,2 °C 2,2 °C 92 % 1013,1 hPa 0,0 mm 11,5 km/h (2 Bft) W 268 ° 0 min 0,000 mm 0,0 UV-I 37 W/m² 1,0 °C -1,0 °C 16,1 km/h (3 Bft)
01.05.2017 16:09 2,2 °C 2,2 °C 92 % 1013,1 hPa 0,2 mm 15,0 km/h (3 Bft) W 274 ° 0 min 0,000 mm 0,0 UV-I 37 W/m² 1,0 °C -1,7 °C 19,3 km/h (3 Bft)
01.05.2017 16:10 2,2 °C 2,2 °C 92 % 1013,1 hPa 0,0 mm 11,1 km/h (2 Bft) W 261 ° 0 min 0,000 mm 0,0 UV-I 37 W/m² 1,0 °C -0,9 °C 14,5 km/h (3 Bft)
01.05.2017 16:11 2,2 °C 2,2 °C 92 % 1013,1 hPa 0,0 mm 7,4 km/h (2 Bft) W 260 ° 0 min 0,000 mm 0,0 UV-I 37 W/m² 1,0 °C 0,0 °C 12,9 km/h (3 Bft)
01.05.2017 16:12 2,1 °C 2,2 °C 92 % 1013,1 hPa 0,0 mm 13,2 km/h (3 Bft) W 261 ° 0 min 0,000 mm 0,0 UV-I 37 W/m² 0,9 °C -1,5 °C 17,7 km/h (3 Bft)
01.05.2017 16:13 2,1 °C 2,1 °C 92 % 1013,1 hPa 0,2 mm 8,5 km/h (2 Bft) W 267 ° 0 min 0,000 mm 0,0 UV-I 37 W/m² 0,9 °C -0,4 °C 16,1 km/h (3 Bft)
01.05.2017 16:14 2,1 °C 2,1 °C 92 % 1013,2 hPa 0,0 mm 8,3 km/h (2 Bft) SW 236 ° 0 min 0,000 mm 0,0 UV-I 37 W/m² 0,9 °C -0,4 °C 12,9 km/h (3 Bft)
01.05.2017 16:15 2,1 °C 2,1 °C 92 % 1013,2 hPa 0,0 mm 9,5 km/h (2 Bft) SW 235 ° 0 min 0,000 mm 0,0 UV-I 37 W/m² 0,9 °C -0,7 °C 12,9 km/h (3 Bft)
01.05.2017 16:16 2,1 °C 2,1 °C 92 % 1013,2 hPa 0,0 mm 7,3 km/h (2 Bft) W-SW 239 ° 0 min 0,000 mm 0,0 UV-I 37 W/m² 0,9 °C -0,1 °C 12,9 km/h (3 Bft)
01.05.2017 16:17 2,1 °C 2,1 °C 92 % 1013,2 hPa 0,2 mm 7,3 km/h (2 Bft) W 280 ° 0 min 0,000 mm 0,0 UV-I 39 W/m² 0,9 °C -0,1 °C 11,3 km/h (2 Bft)
01.05.2017 16:18 2,0 °C 2,1 °C 92 % 1013,3 hPa 0,0 mm 7,6 km/h (2 Bft) W 259 ° 0 min 0,000 mm 0,0 UV-I 39 W/m² 0,8 °C -0,3 °C 14,5 km/h (3 Bft)
01.05.2017 16:19 2,0 °C 2,0 °C 92 % 1013,3 hPa 0,0 mm 14,3 km/h (3 Bft) W-NW 290 ° 0 min 0,000 mm 0,0 UV-I 39 W/m² 0,8 °C -1,8 °C 20,9 km/h (4 Bft)
01.05.2017 16:20 2,0 °C 2,0 °C 92 % 1013,3 hPa 0,0 mm 6,4 km/h (2 Bft) W 266 ° 0 min 0,000 mm 0,0 UV-I 37 W/m² 0,8 °C 0,1 °C 11,3 km/h (2 Bft)
01.05.2017 16:21 2,0 °C 2,0 °C 92 % 1013,3 hPa 0,2 mm 8,6 km/h (2 Bft) W-SW 237 ° 0 min 0,000 mm 0,0 UV-I 37 W/m² 0,8 °C -0,6 °C 11,3 km/h (2 Bft)
01.05.2017 16:22 1,9 °C 2,0 °C 92 % 1013,3 hPa 0,0 mm 8,4 km/h (2 Bft) W-SW 240 ° 0 min 0,000 mm 0,0 UV-I 39 W/m² 0,7 °C -0,6 °C 14,5 km/h (3 Bft)
01.05.2017 16:23 1,9 °C 2,0 °C 92 % 1013,3 hPa 0,0 mm 13,0 km/h (3 Bft) W 267 ° 0 min 0,000 mm 0,0 UV-I 39 W/m² 0,7 °C -1,7 °C 17,7 km/h (3 Bft)
01.05.2017 16:24 1,9 °C 1,9 °C 92 % 1013,4 hPa 0,2 mm 7,6 km/h (2 Bft) W 279 ° 0 min 0,000 mm 0,0 UV-I 40 W/m² 0,7 °C -0,4 °C 12,9 km/h (3 Bft)
01.05.2017 16:25 1,9 °C 1,9 °C 92 % 1013,4 hPa 0,0 mm 6,2 km/h (2 Bft) W-SW 253 ° 0 min 0,000 mm 0,0 UV-I 40 W/m² 0,7 °C 0,1 °C 9,7 km/h (2 Bft)
01.05.2017 16:26 1,9 °C 1,9 °C 92 % 1013,4 hPa 0,0 mm 4,7 km/h (1 Bft) W-NW 291 ° 0 min 0,000 mm 0,0 UV-I 42 W/m² 0,7 °C 0,7 °C 9,7 km/h (2 Bft)
01.05.2017 16:27 1,9 °C 1,9 °C 92 % 1013,3 hPa 0,2 mm 8,0 km/h (2 Bft) W-NW 294 ° 0 min 0,000 mm 0,0 UV-I 42 W/m² 0,7 °C -0,5 °C 9,7 km/h (2 Bft)
01.05.2017 16:28 1,8 °C 1,9 °C 92 % 1013,4 hPa 0,0 mm 7,2 km/h (2 Bft) W-SW 250 ° 0 min 0,000 mm 0,0 UV-I 44 W/m² 0,6 °C -0,4 °C 12,9 km/h (3 Bft)
01.05.2017 16:29 1,8 °C 1,8 °C 92 % 1013,4 hPa 0,0 mm 7,0 km/h (2 Bft) W 263 ° 0 min 0,000 mm 0,0 UV-I 44 W/m² 0,6 °C -0,3 °C 12,9 km/h (3 Bft)
01.05.2017 16:30 1,8 °C 1,8 °C 92 % 1013,4 hPa 0,2 mm 7,5 km/h (2 Bft) W-SW 253 ° 0 min 0,000 mm 0,0 UV-I 42 W/m² 0,6 °C -0,5 °C 11,3 km/h (2 Bft)
01.05.2017 16:31 1,8 °C 1,8 °C 92 % 1013,4 hPa 0,0 mm 10,1 km/h (2 Bft) SW 232 ° 0 min 0,000 mm 0,0 UV-I 42 W/m² 0,6 °C -1,2 °C 14,5 km/h (3 Bft)
01.05.2017 16:32 1,8 °C 1,8 °C 92 % 1013,4 hPa 0,0 mm 6,9 km/h (2 Bft) W-SW 249 ° 0 min 0,000 mm 0,0 UV-I 44 W/m² 0,6 °C -0,3 °C 11,3 km/h (2 Bft)
01.05.2017 16:33 1,7 °C 1,8 °C 92 % 1013,4 hPa 0,0 mm 5,8 km/h (2 Bft) W 265 ° 0 min 0,000 mm 0,0 UV-I 44 W/m² 0,5 °C 0,0 °C 11,3 km/h (2 Bft)
01.05.2017 16:34 1,7 °C 1,7 °C 92 % 1013,4 hPa 0,2 mm 14,6 km/h (3 Bft) W 265 ° 0 min 0,000 mm 0,0 UV-I 44 W/m² 0,5 °C -2,2 °C 19,3 km/h (3 Bft)
01.05.2017 16:35 1,7 °C 1,8 °C 92 % 1013,5 hPa 0,0 mm 9,6 km/h (2 Bft) W 269 ° 0 min 0,000 mm 0,0 UV-I 42 W/m² 0,5 °C -1,2 °C 16,1 km/h (3 Bft)
01.05.2017 16:36 1,7 °C 1,8 °C 92 % 1013,4 hPa 0,0 mm 9,0 km/h (2 Bft) W-SW 258 ° 0 min 0,000 mm 0,0 UV-I 42 W/m² 0,5 °C -1,0 °C 14,5 km/h (3 Bft)
01.05.2017 16:37 1,7 °C 1,7 °C 92 % 1013,5 hPa 0,0 mm 9,5 km/h (2 Bft) W-SW 238 ° 0 min 0,000 mm 0,0 UV-I 42 W/m² 0,5 °C -1,2 °C 12,9 km/h (3 Bft)
01.05.2017 16:38 1,7 °C 1,7 °C 92 % 1013,6 hPa 0,0 mm 8,4 km/h (2 Bft) W 275 ° 0 min 0,000 mm 0,0 UV-I 40 W/m² 0,5 °C -0,9 °C 11,3 km/h (2 Bft)
01.05.2017 16:39 1,7 °C 1,7 °C 92 % 1013,6 hPa 0,2 mm 6,6 km/h (2 Bft) W 275 ° 0 min 0,000 mm 0,0 UV-I 40 W/m² 0,5 °C -0,3 °C 11,3 km/h (2 Bft)
01.05.2017 16:40 1,7 °C 1,7 °C 92 % 1013,7 hPa 0,0 mm 10,5 km/h (2 Bft) W 277 ° 0 min 0,000 mm 0,0 UV-I 39 W/m² 0,5 °C -1,4 °C 14,5 km/h (3 Bft)
01.05.2017 16:41 1,7 °C 1,7 °C 92 % 1013,7 hPa 0,0 mm 8,3 km/h (2 Bft) W-SW 242 ° 0 min 0,000 mm 0,0 UV-I 37 W/m² 0,5 °C -0,8 °C 14,5 km/h (3 Bft)
01.05.2017 16:42 1,7 °C 1,7 °C 92 % 1013,7 hPa 0,0 mm 7,3 km/h (2 Bft) W 261 ° 0 min 0,000 mm 0,0 UV-I 37 W/m² 0,5 °C -0,5 °C 9,7 km/h (2 Bft)
01.05.2017 16:43 1,7 °C 1,7 °C 92 % 1013,7 hPa 0,2 mm 4,7 km/h (1 Bft) W 259 ° 0 min 0,000 mm 0,0 UV-I 37 W/m² 0,5 °C 0,5 °C 9,7 km/h (2 Bft)
01.05.2017 16:44 1,7 °C 1,7 °C 92 % 1013,6 hPa 0,0 mm 6,2 km/h (2 Bft) W-SW 252 ° 0 min 0,000 mm 0,0 UV-I 35 W/m² 0,5 °C -0,1 °C 8,0 km/h (2 Bft)
01.05.2017 16:45 1,7 °C 1,7 °C 92 % 1013,7 hPa 0,0 mm 5,6 km/h (1 Bft) W 267 ° 0 min 0,000 mm 0,0 UV-I 35 W/m² 0,5 °C 0,1 °C 14,5 km/h (3 Bft)
01.05.2017 16:46 1,7 °C 1,7 °C 92 % 1013,7 hPa 0,2 mm 13,6 km/h (3 Bft) W 261 ° 0 min 0,000 mm 0,0 UV-I 35 W/m² 0,5 °C -2,1 °C 19,3 km/h (3 Bft)
01.05.2017 16:47 1,6 °C 1,7 °C 92 % 1013,6 hPa 0,0 mm 8,9 km/h (2 Bft) W-SW 251 ° 0 min 0,000 mm 0,0 UV-I 35 W/m² 0,4 °C -1,1 °C 14,5 km/h (3 Bft)
01.05.2017 16:48 1,6 °C 1,6 °C 92 % 1013,7 hPa 0,0 mm 7,9 km/h (2 Bft) S-SW 204 ° 0 min 0,000 mm 0,0 UV-I 35 W/m² 0,4 °C -0,8 °C 11,3 km/h (2 Bft)
01.05.2017 16:49 1,6 °C 1,6 °C 92 % 1013,7 hPa 0,0 mm 6,9 km/h (2 Bft) W 267 ° 0 min 0,000 mm 0,0 UV-I 33 W/m² 0,4 °C -0,5 °C 11,3 km/h (2 Bft)
01.05.2017 16:50 1,6 °C 1,6 °C 92 % 1013,7 hPa 0,2 mm 7,5 km/h (2 Bft) W-SW 245 ° 0 min 0,000 mm 0,0 UV-I 33 W/m² 0,4 °C -0,7 °C 11,3 km/h (2 Bft)
01.05.2017 16:51 1,6 °C 1,6 °C 92 % 1013,8 hPa 0,0 mm 8,6 km/h (2 Bft) W-SW 248 ° 0 min 0,000 mm 0,0 UV-I 33 W/m² 0,4 °C -1,0 °C 16,1 km/h (3 Bft)
01.05.2017 16:52 1,5 °C 1,6 °C 92 % 1013,8 hPa 0,0 mm 7,2 km/h (2 Bft) W 260 ° 0 min 0,000 mm 0,0 UV-I 32 W/m² 0,3 °C -0,7 °C 11,3 km/h (2 Bft)
01.05.2017 16:53 1,5 °C 1,5 °C 92 % 1013,8 hPa 0,0 mm 4,8 km/h (1 Bft) W-SW 244 ° 0 min 0,000 mm 0,0 UV-I 32 W/m² 0,3 °C 0,2 °C 4,8 km/h (1 Bft)
01.05.2017 16:54 1,4 °C 1,5 °C 92 % 1013,8 hPa 0,2 mm 7,4 km/h (2 Bft) W 266 ° 0 min 0,000 mm 0,0 UV-I 32 W/m² 0,2 °C -0,9 °C 12,9 km/h (3 Bft)
01.05.2017 16:55 1,4 °C 1,4 °C 92 % 1013,8 hPa 0,0 mm 5,1 km/h (1 Bft) W 262 ° 0 min 0,000 mm 0,0 UV-I 32 W/m² 0,2 °C -0,0 °C 6,4 km/h (2 Bft)
01.05.2017 16:56 1,4 °C 1,4 °C 92 % 1013,8 hPa 0,2 mm 5,6 km/h (1 Bft) W 266 ° 0 min 0,000 mm 0,0 UV-I 33 W/m² 0,2 °C -0,3 °C 9,7 km/h (2 Bft)
01.05.2017 16:57 1,4 °C 1,4 °C 92 % 1013,9 hPa 0,0 mm 8,3 km/h (2 Bft) W-SW 252 ° 0 min 0,000 mm 0,0 UV-I 33 W/m² 0,2 °C -1,2 °C 11,3 km/h (2 Bft)
01.05.2017 16:58 1,4 °C 1,4 °C 92 % 1013,9 hPa 0,0 mm 7,9 km/h (2 Bft) W 267 ° 0 min 0,000 mm 0,0 UV-I 33 W/m² 0,2 °C -1,1 °C 12,9 km/h (3 Bft)
01.05.2017 16:59 1,4 °C 1,4 °C 92 % 1013,8 hPa 0,0 mm 8,0 km/h (2 Bft) W 263 ° 0 min 0,000 mm 0,0 UV-I 35 W/m² 0,2 °C -1,1 °C 9,7 km/h (2 Bft)
01.05.2017 17:00 1,4 °C 1,4 °C 92 % 1013,8 hPa 0,0 mm 8,9 km/h (2 Bft) W 273 ° 0 min 0,000 mm 0,0 UV-I 35 W/m² 0,2 °C -1,4 °C 11,3 km/h (2 Bft)
01.05.2017 17:01 1,3 °C 1,4 °C 92 % 1013,8 hPa 0,2 mm 6,6 km/h (2 Bft) W 268 ° 0 min 0,025 mm 0,0 UV-I 37 W/m² 0,1 °C -0,8 °C 11,3 km/h (2 Bft)
01.05.2017 17:02 1,3 °C 1,4 °C 92 % 1013,8 hPa 0,0 mm 9,9 km/h (2 Bft) W-SW 246 ° 0 min 0,000 mm 0,0 UV-I 37 W/m² 0,1 °C -1,7 °C 12,9 km/h (3 Bft)
01.05.2017 17:03 1,3 °C 1,4 °C 93 % 1013,8 hPa 0,0 mm 7,6 km/h (2 Bft) SW 236 ° 0 min 0,000 mm 0,0 UV-I 39 W/m² 0,3 °C -1,1 °C 11,3 km/h (2 Bft)
01.05.2017 17:04 1,3 °C 1,3 °C 93 % 1013,8 hPa 0,0 mm 4,5 km/h (1 Bft) W-SW 243 ° 0 min 0,000 mm 0,0 UV-I 39 W/m² 0,3 °C 1,3 °C 6,4 km/h (2 Bft)
01.05.2017 17:05 1,3 °C 1,3 °C 93 % 1013,9 hPa 0,2 mm 8,6 km/h (2 Bft) W 264 ° 0 min 0,000 mm 0,0 UV-I 39 W/m² 0,3 °C -1,4 °C 14,5 km/h (3 Bft)
01.05.2017 17:06 1,3 °C 1,3 °C 93 % 1013,8 hPa 0,0 mm 3,6 km/h (1 Bft) SW 221 ° 0 min 0,000 mm 0,0 UV-I 39 W/m² 0,3 °C 1,3 °C 4,8 km/h (1 Bft)
01.05.2017 17:07 1,3 °C 1,3 °C 93 % 1013,9 hPa 0,0 mm 2,8 km/h (1 Bft) W 268 ° 0 min 0,000 mm 0,0 UV-I 39 W/m² 0,3 °C 1,3 °C 4,8 km/h (1 Bft)
01.05.2017 17:08 1,3 °C 1,3 °C 93 % 1014,0 hPa 0,0 mm 4,0 km/h (1 Bft) W 271 ° 0 min 0,000 mm 0,0 UV-I 39 W/m² 0,3 °C 1,3 °C 6,4 km/h (2 Bft)
01.05.2017 17:09 1,2 °C 1,3 °C 93 % 1014,0 hPa 0,2 mm 4,8 km/h (1 Bft) W 262 ° 0 min 0,000 mm 0,0 UV-I 39 W/m² 0,2 °C -0,1 °C 6,4 km/h (2 Bft)
01.05.2017 17:10 1,2 °C 1,3 °C 93 % 1014,0 hPa 0,0 mm 6,4 km/h (2 Bft) W 273 ° 0 min 0,000 mm 0,0 UV-I 40 W/m² 0,2 °C -0,8 °C 12,9 km/h (3 Bft)
01.05.2017 17:11 1,2 °C 1,3 °C 93 % 1014,0 hPa 0,0 mm 5,1 km/h (1 Bft) W 277 ° 0 min 0,000 mm 0,0 UV-I 40 W/m² 0,2 °C -0,3 °C 9,7 km/h (2 Bft)
01.05.2017 17:12 1,2 °C 1,2 °C 93 % 1014,0 hPa 0,0 mm 9,8 km/h (2 Bft) W-SW 254 ° 0 min 0,000 mm 0,0 UV-I 42 W/m² 0,2 °C -1,8 °C 12,9 km/h (3 Bft)
01.05.2017 17:13 1,3 °C 1,3 °C 93 % 1014,0 hPa 0,2 mm 6,3 km/h (2 Bft) W 261 ° 0 min 0,000 mm 0,0 UV-I 42 W/m² 0,3 °C -0,6 °C 11,3 km/h (2 Bft)
01.05.2017 17:14 1,2 °C 1,3 °C 93 % 1014,1 hPa 0,0 mm 4,6 km/h (1 Bft) W-SW 253 ° 0 min 0,000 mm 0,0 UV-I 42 W/m² 0,2 °C -0,0 °C 6,4 km/h (2 Bft)
01.05.2017 17:15 1,2 °C 1,3 °C 93 % 1014,1 hPa 0,0 mm 4,7 km/h (1 Bft) SW 232 ° 0 min 0,000 mm 0,0 UV-I 44 W/m² 0,2 °C -0,1 °C 9,7 km/h (2 Bft)
01.05.2017 17:16 1,2 °C 1,2 °C 93 % 1014,0 hPa 0,0 mm 4,0 km/h (1 Bft) W-SW 252 ° 0 min 0,000 mm 0,0 UV-I 44 W/m² 0,2 °C 1,2 °C 6,4 km/h (2 Bft)
01.05.2017 17:17 1,3 °C 1,3 °C 93 % 1014,1 hPa 0,2 mm 6,6 km/h (2 Bft) W 263 ° 0 min 0,000 mm 0,0 UV-I 44 W/m² 0,3 °C -0,8 °C 11,3 km/h (2 Bft)
01.05.2017 17:18 1,3 °C 1,3 °C 93 % 1014,1 hPa 0,0 mm 6,6 km/h (2 Bft) W-SW 254 ° 0 min 0,000 mm 0,0 UV-I 44 W/m² 0,3 °C -0,8 °C 11,3 km/h (2 Bft)
01.05.2017 17:19 1,3 °C 1,3 °C 93 % 1014,1 hPa 0,0 mm 6,0 km/h (2 Bft) W 275 ° 0 min 0,000 mm 0,0 UV-I 42 W/m² 0,3 °C -0,5 °C 11,3 km/h (2 Bft)
01.05.2017 17:20 1,3 °C 1,3 °C 93 % 1014,2 hPa 0,0 mm 3,9 km/h (1 Bft) SW 227 ° 0 min 0,000 mm 0,0 UV-I 42 W/m² 0,3 °C 1,3 °C 4,8 km/h (1 Bft)
01.05.2017 17:21 1,3 °C 1,3 °C 93 % 1014,1 hPa 0,0 mm 4,1 km/h (1 Bft) SW 219 ° 0 min 0,000 mm 0,0 UV-I 42 W/m² 0,3 °C 1,3 °C 8,0 km/h (2 Bft)
01.05.2017 17:22 1,3 °C 1,3 °C 93 % 1014,1 hPa 0,2 mm 9,6 km/h (2 Bft) W 271 ° 0 min 0,000 mm 0,0 UV-I 40 W/m² 0,3 °C -1,7 °C 12,9 km/h (3 Bft)
01.05.2017 17:23 1,3 °C 1,3 °C 93 % 1014,0 hPa 0,0 mm 6,6 km/h (2 Bft) W 263 ° 0 min 0,000 mm 0,0 UV-I 42 W/m² 0,3 °C -0,8 °C 9,7 km/h (2 Bft)
01.05.2017 17:24 1,3 °C 1,3 °C 93 % 1014,1 hPa 0,0 mm 6,3 km/h (2 Bft) SW 218 ° 0 min 0,000 mm 0,0 UV-I 42 W/m² 0,3 °C -0,6 °C 9,7 km/h (2 Bft)
01.05.2017 17:25 1,3 °C 1,3 °C 93 % 1014,1 hPa 0,0 mm 6,2 km/h (2 Bft) W-SW 254 ° 0 min 0,000 mm 0,0 UV-I 44 W/m² 0,3 °C -0,6 °C 9,7 km/h (2 Bft)
01.05.2017 17:26 1,3 °C 1,3 °C 93 % 1014,1 hPa 0,0 mm 5,0 km/h (1 Bft) W-SW 258 ° 0 min 0,000 mm 0,0 UV-I 44 W/m² 0,3 °C -0,1 °C 6,4 km/h (2 Bft)
01.05.2017 17:27 1,3 °C 1,4 °C 93 % 1014,1 hPa 0,2 mm 6,2 km/h (2 Bft) W 273 ° 0 min 0,000 mm 0,0 UV-I 46 W/m² 0,3 °C -0,6 °C 11,3 km/h (2 Bft)
01.05.2017 17:28 1,4 °C 1,4 °C 93 % 1014,1 hPa 0,0 mm 3,4 km/h (1 Bft) W-SW 255 ° 0 min 0,000 mm 0,0 UV-I 47 W/m² 0,4 °C 1,4 °C 4,8 km/h (1 Bft)
01.05.2017 17:29 1,4 °C 1,4 °C 93 % 1014,0 hPa 0,0 mm 5,0 km/h (1 Bft) W 269 ° 0 min 0,000 mm 0,0 UV-I 49 W/m² 0,4 °C -0,0 °C 9,7 km/h (2 Bft)
01.05.2017 17:30 1,4 °C 1,4 °C 93 % 1014,1 hPa 0,0 mm 3,5 km/h (1 Bft) W-SW 251 ° 0 min 0,000 mm 0,0 UV-I 53 W/m² 0,4 °C 1,4 °C 4,8 km/h (1 Bft)
01.05.2017 17:31 1,4 °C 1,4 °C 93 % 1014,1 hPa 0,0 mm 1,9 km/h (1 Bft) W-SW 254 ° 0 min 0,000 mm 0,0 UV-I 54 W/m² 0,4 °C 1,4 °C 3,2 km/h (1 Bft)
01.05.2017 17:32 1,4 °C 1,4 °C 93 % 1014,0 hPa 0,0 mm 6,4 km/h (2 Bft) W 259 ° 0 min 0,000 mm 0,0 UV-I 56 W/m² 0,4 °C -0,6 °C 11,3 km/h (2 Bft)
01.05.2017 17:33 1,5 °C 1,5 °C 93 % 1014,0 hPa 0,2 mm 7,1 km/h (2 Bft) W 273 ° 0 min 0,000 mm 0,0 UV-I 56 W/m² 0,5 °C -0,7 °C 9,7 km/h (2 Bft)
01.05.2017 17:34 1,5 °C 1,5 °C 93 % 1014,0 hPa 0,0 mm 4,1 km/h (1 Bft) W 269 ° 0 min 0,000 mm 0,0 UV-I 56 W/m² 0,5 °C 1,5 °C 6,4 km/h (2 Bft)
01.05.2017 17:35 1,5 °C 1,5 °C 93 % 1014,0 hPa 0,0 mm 5,9 km/h (2 Bft) W-NW 296 ° 0 min 0,000 mm 0,0 UV-I 58 W/m² 0,5 °C -0,3 °C 6,4 km/h (2 Bft)
01.05.2017 17:36 1,5 °C 1,6 °C 93 % 1014,1 hPa 0,0 mm 4,5 km/h (1 Bft) W 261 ° 0 min 0,000 mm 0,0 UV-I 62 W/m² 0,5 °C 1,5 °C 6,4 km/h (2 Bft)
01.05.2017 17:37 1,5 °C 1,6 °C 93 % 1014,1 hPa 0,0 mm 4,4 km/h (1 Bft) W-SW 253 ° 0 min 0,000 mm 0,0 UV-I 65 W/m² 0,5 °C 1,5 °C 9,7 km/h (2 Bft)
01.05.2017 17:38 1,5 °C 1,6 °C 93 % 1014,1 hPa 0,0 mm 5,4 km/h (1 Bft) W-SW 258 ° 0 min 0,000 mm 0,0 UV-I 67 W/m² 0,5 °C -0,1 °C 6,4 km/h (2 Bft)
01.05.2017 17:39 1,5 °C 1,6 °C 93 % 1014,1 hPa 0,2 mm 8,7 km/h (2 Bft) W 262 ° 0 min 0,000 mm 0,0 UV-I 67 W/m² 0,5 °C -1,2 °C 14,5 km/h (3 Bft)
01.05.2017 17:40 1,6 °C 1,6 °C 93 % 1014,1 hPa 0,0 mm 7,6 km/h (2 Bft) W 261 ° 0 min 0,000 mm 0,0 UV-I 69 W/m² 0,6 °C -0,7 °C 12,9 km/h (3 Bft)
01.05.2017 17:41 1,6 °C 1,6 °C 93 % 1014,2 hPa 0,0 mm 3,9 km/h (1 Bft) W-NW 282 ° 0 min 0,000 mm 0,0 UV-I 69 W/m² 0,6 °C 1,6 °C 6,4 km/h (2 Bft)
01.05.2017 17:42 1,6 °C 1,6 °C 93 % 1014,2 hPa 0,0 mm 5,2 km/h (1 Bft) W-SW 257 ° 0 min 0,000 mm 0,0 UV-I 69 W/m² 0,6 °C 0,1 °C 6,4 km/h (2 Bft)
01.05.2017 17:43 1,6 °C 1,6 °C 93 % 1014,2 hPa 0,0 mm 4,8 km/h (1 Bft) W-SW 250 ° 0 min 0,000 mm 0,0 UV-I 67 W/m² 0,6 °C 0,3 °C 6,4 km/h (2 Bft)
01.05.2017 17:44 1,6 °C 1,6 °C 93 % 1014,2 hPa 0,2 mm 9,1 km/h (2 Bft) W-SW 258 ° 0 min 0,000 mm 0,0 UV-I 63 W/m² 0,6 °C -1,2 °C 14,5 km/h (3 Bft)
01.05.2017 17:45 1,6 °C 1,6 °C 93 % 1014,2 hPa 0,0 mm 4,8 km/h (1 Bft) SW 232 ° 0 min 0,000 mm 0,0 UV-I 62 W/m² 0,6 °C 0,3 °C 11,3 km/h (2 Bft)
01.05.2017 17:46 1,6 °C 1,6 °C 93 % 1014,2 hPa 0,0 mm 6,3 km/h (2 Bft) W-SW 253 ° 0 min 0,000 mm 0,0 UV-I 62 W/m² 0,6 °C -0,3 °C 9,7 km/h (2 Bft)
01.05.2017 17:47 1,6 °C 1,6 °C 93 % 1014,2 hPa 0,0 mm 8,0 km/h (2 Bft) W 265 ° 0 min 0,000 mm 0,0 UV-I 60 W/m² 0,6 °C -0,9 °C 11,3 km/h (2 Bft)
01.05.2017 17:48 1,6 °C 1,6 °C 93 % 1014,2 hPa 0,0 mm 4,8 km/h (1 Bft) S-SW 210 ° 0 min 0,000 mm 0,0 UV-I 56 W/m² 0,6 °C 0,3 °C 6,4 km/h (2 Bft)
01.05.2017 17:49 1,6 °C 1,6 °C 93 % 1014,3 hPa 0,0 mm 4,0 km/h (1 Bft) W-SW 252 ° 0 min 0,000 mm 0,0 UV-I 56 W/m² 0,6 °C 1,6 °C 8,0 km/h (2 Bft)
01.05.2017 17:50 1,6 °C 1,6 °C 93 % 1014,3 hPa 0,2 mm 5,6 km/h (1 Bft) W 264 ° 0 min 0,000 mm 0,0 UV-I 54 W/m² 0,6 °C -0,0 °C 11,3 km/h (2 Bft)
01.05.2017 17:51 1,6 °C 1,6 °C 93 % 1014,3 hPa 0,0 mm 8,4 km/h (2 Bft) W-SW 255 ° 0 min 0,000 mm 0,0 UV-I 54 W/m² 0,6 °C -1,0 °C 14,5 km/h (3 Bft)
01.05.2017 17:52 1,6 °C 1,6 °C 93 % 1014,3 hPa 0,0 mm 3,0 km/h (1 Bft) W 259 ° 0 min 0,000 mm 0,0 UV-I 54 W/m² 0,6 °C 1,6 °C 4,8 km/h (1 Bft)
01.05.2017 17:53 1,6 °C 1,6 °C 93 % 1014,3 hPa 0,0 mm 5,7 km/h (1 Bft) W-SW 248 ° 0 min 0,000 mm 0,0 UV-I 51 W/m² 0,6 °C -0,1 °C 9,7 km/h (2 Bft)
01.05.2017 17:54 1,6 °C 1,6 °C 93 % 1014,4 hPa 0,0 mm 5,6 km/h (1 Bft) W-SW 246 ° 0 min 0,000 mm 0,0 UV-I 49 W/m² 0,6 °C -0,0 °C 8,0 km/h (2 Bft)
01.05.2017 17:55 1,6 °C 1,6 °C 93 % 1014,3 hPa 0,2 mm 4,7 km/h (1 Bft) W-NW 300 ° 0 min 0,000 mm 0,0 UV-I 49 W/m² 0,6 °C 0,4 °C 6,4 km/h (2 Bft)
01.05.2017 17:56 1,6 °C 1,6 °C 93 % 1014,4 hPa 0,0 mm 3,6 km/h (1 Bft) W-SW 258 ° 0 min 0,000 mm 0,0 UV-I 47 W/m² 0,6 °C 1,6 °C 4,8 km/h (1 Bft)
01.05.2017 17:57 1,6 °C 1,6 °C 93 % 1014,3 hPa 0,0 mm 6,5 km/h (2 Bft) SW 227 ° 0 min 0,000 mm 0,0 UV-I 47 W/m² 0,6 °C -0,4 °C 11,3 km/h (2 Bft)
01.05.2017 17:58 1,6 °C 1,6 °C 93 % 1014,4 hPa 0,0 mm 4,7 km/h (1 Bft) W-SW 255 ° 0 min 0,000 mm 0,0 UV-I 44 W/m² 0,6 °C 0,4 °C 9,7 km/h (2 Bft)
01.05.2017 17:59 1,6 °C 1,6 °C 93 % 1014,4 hPa 0,0 mm 3,6 km/h (1 Bft) W-NW 284 ° 0 min 0,000 mm 0,0 UV-I 39 W/m² 0,6 °C 1,6 °C 6,4 km/h (2 Bft)
01.05.2017 18:00 1,7 °C 1,7 °C 93 % 1014,4 hPa 0,0 mm 4,2 km/h (1 Bft) W 259 ° 0 min 0,026 mm 0,0 UV-I 37 W/m² 0,7 °C 1,7 °C 6,4 km/h (2 Bft)
01.05.2017 18:01 1,7 °C 1,7 °C 93 % 1014,4 hPa 0,2 mm 3,1 km/h (1 Bft) W-SW 241 ° 0 min 0,000 mm 0,0 UV-I 35 W/m² 0,7 °C 1,7 °C 4,8 km/h (1 Bft)
01.05.2017 18:02 1,7 °C 1,7 °C 93 % 1014,5 hPa 0,0 mm 5,2 km/h (1 Bft) W-SW 253 ° 0 min 0,000 mm 0,0 UV-I 33 W/m² 0,7 °C 0,3 °C 9,7 km/h (2 Bft)
01.05.2017 18:03 1,7 °C 1,7 °C 93 % 1014,5 hPa 0,0 mm 7,4 km/h (2 Bft) W-SW 247 ° 0 min 0,000 mm 0,0 UV-I 33 W/m² 0,7 °C -0,6 °C 9,7 km/h (2 Bft)
01.05.2017 18:04 1,7 °C 1,7 °C 93 % 1014,5 hPa 0,0 mm 7,3 km/h (2 Bft) W 270 ° 0 min 0,000 mm 0,0 UV-I 33 W/m² 0,7 °C -0,5 °C 12,9 km/h (3 Bft)
01.05.2017 18:05 1,7 °C 1,7 °C 93 % 1014,5 hPa 0,0 mm 5,6 km/h (1 Bft) W-SW 242 ° 0 min 0,000 mm 0,0 UV-I 32 W/m² 0,7 °C 0,1 °C 11,3 km/h (2 Bft)
01.05.2017 18:06 1,7 °C 1,7 °C 93 % 1014,5 hPa 0,0 mm 7,8 km/h (2 Bft) W 277 ° 0 min 0,000 mm 0,0 UV-I 32 W/m² 0,7 °C -0,7 °C 14,5 km/h (3 Bft)
01.05.2017 18:07 1,7 °C 1,8 °C 93 % 1014,5 hPa 0,0 mm 5,8 km/h (2 Bft) W 267 ° 0 min 0,000 mm 0,0 UV-I 32 W/m² 0,7 °C 0,0 °C 8,0 km/h (2 Bft)
01.05.2017 18:08 1,7 °C 1,7 °C 93 % 1014,4 hPa 0,0 mm 9,1 km/h (2 Bft) W-SW 249 ° 0 min 0,000 mm 0,0 UV-I 32 W/m² 0,7 °C -1,1 °C 12,9 km/h (3 Bft)
01.05.2017 18:09 1,8 °C 1,8 °C 93 % 1014,5 hPa 0,2 mm 7,9 km/h (2 Bft) W 264 ° 0 min 0,000 mm 0,0 UV-I 32 W/m² 0,8 °C -0,6 °C 11,3 km/h (2 Bft)
01.05.2017 18:10 1,8 °C 1,8 °C 93 % 1014,4 hPa 0,0 mm 6,7 km/h (2 Bft) W 259 ° 0 min 0,000 mm 0,0 UV-I 32 W/m² 0,8 °C -0,2 °C 11,3 km/h (2 Bft)
01.05.2017 18:11 1,8 °C 1,8 °C 93 % 1014,5 hPa 0,0 mm 6,4 km/h (2 Bft) W-SW 246 ° 0 min 0,000 mm 0,0 UV-I 32 W/m² 0,8 °C -0,1 °C 11,3 km/h (2 Bft)
01.05.2017 18:12 1,8 °C 1,8 °C 93 % 1014,5 hPa 0,0 mm 4,5 km/h (1 Bft) W-SW 247 ° 0 min 0,000 mm 0,0 UV-I 32 W/m² 0,8 °C 1,8 °C 6,4 km/h (2 Bft)
01.05.2017 18:13 1,8 °C 1,8 °C 93 % 1014,5 hPa 0,0 mm 6,0 km/h (2 Bft) W 263 ° 0 min 0,000 mm 0,0 UV-I 30 W/m² 0,8 °C 0,0 °C 9,7 km/h (2 Bft)
01.05.2017 18:14 1,8 °C 1,8 °C 93 % 1014,5 hPa 0,0 mm 6,6 km/h (2 Bft) W 268 ° 0 min 0,000 mm 0,0 UV-I 30 W/m² 0,8 °C -0,2 °C 9,7 km/h (2 Bft)
01.05.2017 18:15 1,8 °C 1,8 °C 93 % 1014,5 hPa 0,0 mm 5,8 km/h (2 Bft) SW 230 ° 0 min 0,000 mm 0,0 UV-I 30 W/m² 0,8 °C 0,1 °C 9,7 km/h (2 Bft)
01.05.2017 18:16 1,8 °C 1,8 °C 93 % 1014,5 hPa 0,0 mm 4,3 km/h (1 Bft) W 259 ° 0 min 0,000 mm 0,0 UV-I 30 W/m² 0,8 °C 1,8 °C 4,8 km/h (1 Bft)
01.05.2017 18:17 1,8 °C 1,8 °C 93 % 1014,5 hPa 0,2 mm 3,3 km/h (1 Bft) W 271 ° 0 min 0,000 mm 0,0 UV-I 30 W/m² 0,8 °C 1,8 °C 6,4 km/h (2 Bft)
01.05.2017 18:18 1,8 °C 1,9 °C 93 % 1014,5 hPa 0,0 mm 5,8 km/h (2 Bft) W-SW 254 ° 0 min 0,000 mm 0,0 UV-I 30 W/m² 0,8 °C 0,1 °C 9,7 km/h (2 Bft)
01.05.2017 18:19 1,9 °C 1,9 °C 93 % 1014,5 hPa 0,0 mm 6,9 km/h (2 Bft) W 281 ° 0 min 0,000 mm 0,0 UV-I 30 W/m² 0,9 °C -0,2 °C 12,9 km/h (3 Bft)
01.05.2017 18:20 1,9 °C 1,9 °C 93 % 1014,5 hPa 0,0 mm 5,2 km/h (1 Bft) W-SW 257 ° 0 min 0,000 mm 0,0 UV-I 28 W/m² 0,9 °C 0,5 °C 9,7 km/h (2 Bft)
01.05.2017 18:21 1,9 °C 1,9 °C 93 % 1014,5 hPa 0,0 mm 8,0 km/h (2 Bft) W 266 ° 0 min 0,000 mm 0,0 UV-I 28 W/m² 0,9 °C -0,5 °C 11,3 km/h (2 Bft)
01.05.2017 18:22 1,9 °C 1,9 °C 93 % 1014,5 hPa 0,0 mm 6,2 km/h (2 Bft) W 269 ° 0 min 0,000 mm 0,0 UV-I 28 W/m² 0,9 °C 0,1 °C 9,7 km/h (2 Bft)
01.05.2017 18:23 1,9 °C 1,9 °C 93 % 1014,5 hPa 0,0 mm 5,8 km/h (2 Bft) W-NW 284 ° 0 min 0,000 mm 0,0 UV-I 26 W/m² 0,9 °C 0,2 °C 9,7 km/h (2 Bft)
01.05.2017 18:24 1,9 °C 1,9 °C 93 % 1014,5 hPa 0,0 mm 3,1 km/h (1 Bft) W-NW 288 ° 0 min 0,000 mm 0,0 UV-I 26 W/m² 0,9 °C 1,9 °C 4,8 km/h (1 Bft)
01.05.2017 18:25 1,9 °C 1,9 °C 93 % 1014,5 hPa 0,2 mm 3,7 km/h (1 Bft) W 261 ° 0 min 0,000 mm 0,0 UV-I 26 W/m² 0,9 °C 1,9 °C 4,8 km/h (1 Bft)
01.05.2017 18:26 1,9 °C 1,9 °C 93 % 1014,5 hPa 0,0 mm 8,0 km/h (2 Bft) W 266 ° 0 min 0,000 mm 0,0 UV-I 26 W/m² 0,9 °C -0,5 °C 11,3 km/h (2 Bft)
01.05.2017 18:27 1,9 °C 1,9 °C 93 % 1014,5 hPa 0,0 mm 9,1 km/h (2 Bft) W 261 ° 0 min 0,000 mm 0,0 UV-I 26 W/m² 0,9 °C -0,8 °C 12,9 km/h (3 Bft)
01.05.2017 18:28 1,9 °C 1,9 °C 93 % 1014,6 hPa 0,0 mm 5,7 km/h (1 Bft) W 263 ° 0 min 0,000 mm 0,0 UV-I 26 W/m² 0,9 °C 0,3 °C 9,7 km/h (2 Bft)
01.05.2017 18:29 1,9 °C 1,9 °C 93 % 1014,5 hPa 0,0 mm 4,8 km/h (1 Bft) W 259 ° 0 min 0,000 mm 0,0 UV-I 26 W/m² 0,9 °C 0,7 °C 4,8 km/h (1 Bft)
01.05.2017 18:30 1,9 °C 1,9 °C 93 % 1014,5 hPa 0,0 mm 5,8 km/h (2 Bft) W-SW 252 ° 0 min 0,000 mm 0,0 UV-I 26 W/m² 0,9 °C 0,2 °C 8,0 km/h (2 Bft)
01.05.2017 18:31 1,9 °C 1,9 °C 93 % 1014,5 hPa 0,0 mm 4,6 km/h (1 Bft) W-SW 240 ° 0 min 0,000 mm 0,0 UV-I 26 W/m² 0,9 °C 0,7 °C 6,4 km/h (2 Bft)
01.05.2017 18:32 1,9 °C 1,9 °C 93 % 1014,5 hPa 0,0 mm 7,0 km/h (2 Bft) W 261 ° 0 min 0,000 mm 0,0 UV-I 26 W/m² 0,9 °C -0,2 °C 11,3 km/h (2 Bft)
01.05.2017 18:33 1,9 °C 1,9 °C 93 % 1014,5 hPa 0,2 mm 8,2 km/h (2 Bft) W 273 ° 0 min 0,000 mm 0,0 UV-I 26 W/m² 0,9 °C -0,6 °C 11,3 km/h (2 Bft)
01.05.2017 18:34 1,9 °C 1,9 °C 93 % 1014,5 hPa 0,0 mm 7,6 km/h (2 Bft) W-NW 286 ° 0 min 0,000 mm 0,0 UV-I 26 W/m² 0,9 °C -0,4 °C 11,3 km/h (2 Bft)
01.05.2017 18:35 2,0 °C 2,0 °C 93 % 1014,5 hPa 0,0 mm 5,4 km/h (1 Bft) W-SW 250 ° 0 min 0,000 mm 0,0 UV-I 26 W/m² 1,0 °C 0,5 °C 11,3 km/h (2 Bft)
01.05.2017 18:36 2,0 °C 2,0 °C 93 % 1014,4 hPa 0,0 mm 7,8 km/h (2 Bft) W 259 ° 0 min 0,000 mm 0,0 UV-I 26 W/m² 1,0 °C -0,3 °C 11,3 km/h (2 Bft)
01.05.2017 18:37 2,0 °C 2,0 °C 93 % 1014,5 hPa 0,0 mm 8,2 km/h (2 Bft) W 265 ° 0 min 0,000 mm 0,0 UV-I 26 W/m² 1,0 °C -0,4 °C 11,3 km/h (2 Bft)
01.05.2017 18:38 2,0 °C 2,0 °C 93 % 1014,4 hPa 0,0 mm 7,6 km/h (2 Bft) W 273 ° 0 min 0,000 mm 0,0 UV-I 26 W/m² 1,0 °C -0,3 °C 12,9 km/h (3 Bft)
01.05.2017 18:39 2,0 °C 2,0 °C 93 % 1014,6 hPa 0,0 mm 5,6 km/h (1 Bft) W 265 ° 0 min 0,000 mm 0,0 UV-I 26 W/m² 1,0 °C 0,4 °C 8,0 km/h (2 Bft)
01.05.2017 18:40 2,0 °C 2,0 °C 93 % 1014,5 hPa 0,0 mm 7,8 km/h (2 Bft) W-SW 241 ° 0 min 0,000 mm 0,0 UV-I 26 W/m² 1,0 °C -0,3 °C 14,5 km/h (3 Bft)
01.05.2017 18:41 2,0 °C 2,1 °C 93 % 1014,5 hPa 0,0 mm 7,2 km/h (2 Bft) W 279 ° 0 min 0,000 mm 0,0 UV-I 28 W/m² 1,0 °C -0,1 °C 11,3 km/h (2 Bft)
01.05.2017 18:42 2,0 °C 2,1 °C 93 % 1014,5 hPa 0,0 mm 5,3 km/h (1 Bft) W 263 ° 0 min 0,000 mm 0,0 UV-I 28 W/m² 1,0 °C 0,6 °C 8,0 km/h (2 Bft)
01.05.2017 18:43 2,0 °C 2,1 °C 93 % 1014,5 hPa 0,0 mm 8,9 km/h (2 Bft) W 279 ° 0 min 0,000 mm 0,0 UV-I 28 W/m² 1,0 °C -0,6 °C 12,9 km/h (3 Bft)
01.05.2017 18:44 2,1 °C 2,1 °C 93 % 1014,5 hPa 0,2 mm 9,3 km/h (2 Bft) W 261 ° 0 min 0,000 mm 0,0 UV-I 28 W/m² 1,1 °C -0,6 °C 12,9 km/h (3 Bft)
01.05.2017 18:45 2,1 °C 2,1 °C 93 % 1014,5 hPa 0,0 mm 4,7 km/h (1 Bft) SW 229 ° 0 min 0,000 mm 0,0 UV-I 26 W/m² 1,1 °C 0,9 °C 9,7 km/h (2 Bft)
01.05.2017 18:46 2,1 °C 2,1 °C 93 % 1014,5 hPa 0,0 mm 8,5 km/h (2 Bft) W 272 ° 0 min 0,000 mm 0,0 UV-I 26 W/m² 1,1 °C -0,4 °C 12,9 km/h (3 Bft)
01.05.2017 18:47 2,1 °C 2,1 °C 93 % 1014,6 hPa 0,0 mm 8,7 km/h (2 Bft) W 279 ° 0 min 0,000 mm 0,0 UV-I 25 W/m² 1,1 °C -0,5 °C 12,9 km/h (3 Bft)
01.05.2017 18:48 2,1 °C 2,1 °C 93 % 1014,5 hPa 0,0 mm 7,6 km/h (2 Bft) SW 227 ° 0 min 0,000 mm 0,0 UV-I 23 W/m² 1,1 °C -0,2 °C 12,9 km/h (3 Bft)
01.05.2017 18:49 2,2 °C 2,2 °C 93 % 1014,6 hPa 0,0 mm 7,1 km/h (2 Bft) W-SW 246 ° 0 min 0,000 mm 0,0 UV-I 23 W/m² 1,2 °C 0,1 °C 12,9 km/h (3 Bft)
01.05.2017 18:50 2,2 °C 2,2 °C 93 % 1014,6 hPa 0,0 mm 7,6 km/h (2 Bft) W 268 ° 0 min 0,000 mm 0,0 UV-I 21 W/m² 1,2 °C -0,0 °C 11,3 km/h (2 Bft)
01.05.2017 18:51 2,2 °C 2,2 °C 93 % 1014,5 hPa 0,0 mm 4,1 km/h (1 Bft) W 271 ° 0 min 0,000 mm 0,0 UV-I 21 W/m² 1,2 °C 2,2 °C 9,7 km/h (2 Bft)
01.05.2017 18:52 2,2 °C 2,2 °C 93 % 1014,5 hPa 0,0 mm 8,0 km/h (2 Bft) W 267 ° 0 min 0,000 mm 0,0 UV-I 21 W/m² 1,2 °C -0,2 °C 12,9 km/h (3 Bft)
01.05.2017 18:53 2,2 °C 2,2 °C 93 % 1014,5 hPa 0,0 mm 6,2 km/h (2 Bft) W-SW 242 ° 0 min 0,000 mm 0,0 UV-I 19 W/m² 1,2 °C 0,4 °C 9,7 km/h (2 Bft)
01.05.2017 18:54 2,2 °C 2,2 °C 93 % 1014,6 hPa 0,0 mm 6,8 km/h (2 Bft) W 271 ° 0 min 0,000 mm 0,0 UV-I 19 W/m² 1,2 °C 0,2 °C 11,3 km/h (2 Bft)
01.05.2017 18:55 2,2 °C 2,2 °C 93 % 1014,6 hPa 0,2 mm 11,3 km/h (2 Bft) W 264 ° 0 min 0,000 mm 0,0 UV-I 19 W/m² 1,2 °C -1,0 °C 12,9 km/h (3 Bft)
01.05.2017 18:56 2,2 °C 2,2 °C 93 % 1014,6 hPa 0,0 mm 4,8 km/h (1 Bft) W-SW 255 ° 0 min 0,000 mm 0,0 UV-I 19 W/m² 1,2 °C 1,0 °C 8,0 km/h (2 Bft)
01.05.2017 18:57 2,2 °C 2,2 °C 93 % 1014,7 hPa 0,0 mm 7,3 km/h (2 Bft) W 265 ° 0 min 0,000 mm 0,0 UV-I 19 W/m² 1,2 °C 0,1 °C 11,3 km/h (2 Bft)
01.05.2017 18:58 2,2 °C 2,2 °C 93 % 1014,6 hPa 0,0 mm 7,0 km/h (2 Bft) W-SW 250 ° 0 min 0,000 mm 0,0 UV-I 18 W/m² 1,2 °C 0,2 °C 11,3 km/h (2 Bft)
01.05.2017 18:59 2,2 °C 2,2 °C 93 % 1014,6 hPa 0,0 mm 6,4 km/h (2 Bft) W 261 ° 0 min 0,000 mm 0,0 UV-I 18 W/m² 1,2 °C 0,4 °C 9,7 km/h (2 Bft)
01.05.2017 19:00 2,2 °C 2,2 °C 93 % 1014,6 hPa 0,0 mm 6,7 km/h (2 Bft) W-SW 256 ° 0 min 0,000 mm 0,0 UV-I 18 W/m² 1,2 °C 0,3 °C 11,3 km/h (2 Bft)
01.05.2017 19:01 2,2 °C 2,2 °C 93 % 1014,6 hPa 0,0 mm 5,4 km/h (1 Bft) W 265 ° 0 min 0,025 mm 0,0 UV-I 16 W/m² 1,2 °C 0,7 °C 9,7 km/h (2 Bft)
01.05.2017 19:02 2,2 °C 2,2 °C 93 % 1014,6 hPa 0,0 mm 4,1 km/h (1 Bft) W 274 ° 0 min 0,000 mm 0,0 UV-I 16 W/m² 1,2 °C 2,2 °C 4,8 km/h (1 Bft)
01.05.2017 19:03 2,2 °C 2,2 °C 93 % 1014,7 hPa 0,0 mm 8,0 km/h (2 Bft) W-NW 292 ° 0 min 0,000 mm 0,0 UV-I 16 W/m² 1,2 °C -0,2 °C 11,3 km/h (2 Bft)
01.05.2017 19:04 2,2 °C 2,2 °C 93 % 1014,7 hPa 0,2 mm 4,8 km/h (1 Bft) SW 222 ° 0 min 0,000 mm 0,0 UV-I 14 W/m² 1,2 °C 1,0 °C 6,4 km/h (2 Bft)
01.05.2017 19:05 2,2 °C 2,2 °C 93 % 1014,7 hPa 0,0 mm 6,5 km/h (2 Bft) W-SW 244 ° 0 min 0,000 mm 0,0 UV-I 14 W/m² 1,2 °C 0,3 °C 11,3 km/h (2 Bft)
01.05.2017 19:06 2,2 °C 2,2 °C 93 % 1014,8 hPa 0,0 mm 5,7 km/h (1 Bft) W 262 ° 0 min 0,000 mm 0,0 UV-I 14 W/m² 1,2 °C 0,6 °C 9,7 km/h (2 Bft)
01.05.2017 19:07 2,2 °C 2,2 °C 93 % 1014,8 hPa 0,0 mm 9,5 km/h (2 Bft) W 269 ° 0 min 0,000 mm 0,0 UV-I 14 W/m² 1,2 °C -0,6 °C 14,5 km/h (3 Bft)
01.05.2017 19:08 2,2 °C 2,2 °C 93 % 1014,8 hPa 0,0 mm 6,8 km/h (2 Bft) W 262 ° 0 min 0,000 mm 0,0 UV-I 14 W/m² 1,2 °C 0,2 °C 11,3 km/h (2 Bft)
01.05.2017 19:09 2,2 °C 2,2 °C 93 % 1014,9 hPa 0,0 mm 4,7 km/h (1 Bft) W 259 ° 0 min 0,000 mm 0,0 UV-I 14 W/m² 1,2 °C 1,0 °C 6,4 km/h (2 Bft)
01.05.2017 19:10 2,2 °C 2,2 °C 93 % 1014,9 hPa 0,0 mm 5,9 km/h (2 Bft) W-SW 254 ° 0 min 0,000 mm 0,0 UV-I 14 W/m² 1,2 °C 0,5 °C 9,7 km/h (2 Bft)
01.05.2017 19:11 2,2 °C 2,2 °C 93 % 1014,9 hPa 0,0 mm 6,5 km/h (2 Bft) W 269 ° 0 min 0,000 mm 0,0 UV-I 16 W/m² 1,2 °C 0,3 °C 11,3 km/h (2 Bft)
01.05.2017 19:12 2,2 °C 2,2 °C 93 % 1014,9 hPa 0,0 mm 7,0 km/h (2 Bft) W 277 ° 0 min 0,000 mm 0,0 UV-I 16 W/m² 1,2 °C 0,2 °C 11,3 km/h (2 Bft)
01.05.2017 19:13 2,2 °C 2,2 °C 93 % 1014,9 hPa 0,0 mm 4,3 km/h (1 Bft) W-SW 254 ° 0 min 0,000 mm 0,0 UV-I 16 W/m² 1,2 °C 2,2 °C 6,4 km/h (2 Bft)
01.05.2017 19:14 2,2 °C 2,2 °C 93 % 1014,9 hPa 0,2 mm 4,1 km/h (1 Bft) W 263 ° 0 min 0,000 mm 0,0 UV-I 18 W/m² 1,2 °C 2,2 °C 6,4 km/h (2 Bft)
01.05.2017 19:15 2,2 °C 2,2 °C 93 % 1014,9 hPa 0,0 mm 5,6 km/h (1 Bft) W-SW 247 ° 0 min 0,000 mm 0,0 UV-I 18 W/m² 1,2 °C 0,7 °C 9,7 km/h (2 Bft)
01.05.2017 19:16 2,2 °C 2,2 °C 93 % 1014,9 hPa 0,0 mm 4,8 km/h (1 Bft) W-SW 244 ° 0 min 0,000 mm 0,0 UV-I 18 W/m² 1,2 °C 1,0 °C 9,7 km/h (2 Bft)
01.05.2017 19:17 2,2 °C 2,2 °C 93 % 1014,9 hPa 0,0 mm 7,1 km/h (2 Bft) W-SW 237 ° 0 min 0,000 mm 0,0 UV-I 16 W/m² 1,2 °C 0,1 °C 11,3 km/h (2 Bft)
01.05.2017 19:18 2,2 °C 2,2 °C 93 % 1014,9 hPa 0,0 mm 5,6 km/h (1 Bft) W-NW 282 ° 0 min 0,000 mm 0,0 UV-I 16 W/m² 1,2 °C 0,7 °C 9,7 km/h (2 Bft)
01.05.2017 19:19 2,2 °C 2,2 °C 93 % 1014,9 hPa 0,0 mm 4,6 km/h (1 Bft) W-SW 257 ° 0 min 0,000 mm 0,0 UV-I 14 W/m² 1,2 °C 1,1 °C 6,4 km/h (2 Bft)
01.05.2017 19:20 2,2 °C 2,2 °C 93 % 1014,9 hPa 0,0 mm 6,1 km/h (2 Bft) SW 225 ° 0 min 0,000 mm 0,0 UV-I 14 W/m² 1,2 °C 0,5 °C 11,3 km/h (2 Bft)
01.05.2017 19:21 2,2 °C 2,2 °C 93 % 1014,9 hPa 0,0 mm 7,2 km/h (2 Bft) W 261 ° 0 min 0,000 mm 0,0 UV-I 12 W/m² 1,2 °C 0,1 °C 12,9 km/h (3 Bft)
01.05.2017 19:22 2,2 °C 2,2 °C 93 % 1014,8 hPa 0,0 mm 5,4 km/h (1 Bft) W 271 ° 0 min 0,000 mm 0,0 UV-I 12 W/m² 1,2 °C 0,7 °C 11,3 km/h (2 Bft)
01.05.2017 19:23 2,2 °C 2,2 °C 93 % 1014,9 hPa 0,0 mm 5,0 km/h (1 Bft) W-SW 252 ° 0 min 0,000 mm 0,0 UV-I 11 W/m² 1,2 °C 0,9 °C 6,4 km/h (2 Bft)
01.05.2017 19:24 2,2 °C 2,2 °C 93 % 1014,9 hPa 0,2 mm 6,6 km/h (2 Bft) W 259 ° 0 min 0,000 mm 0,0 UV-I 11 W/m² 1,2 °C 0,3 °C 14,5 km/h (3 Bft)
01.05.2017 19:25 2,2 °C 2,2 °C 93 % 1014,9 hPa 0,0 mm 8,0 km/h (2 Bft) W-SW 250 ° 0 min 0,000 mm 0,0 UV-I 9 W/m² 1,2 °C -0,2 °C 12,9 km/h (3 Bft)
01.05.2017 19:26 2,2 °C 2,2 °C 93 % 1014,9 hPa 0,0 mm 4,5 km/h (1 Bft) W-SW 252 ° 0 min 0,000 mm 0,0 UV-I 9 W/m² 1,2 °C 2,2 °C 6,4 km/h (2 Bft)
01.05.2017 19:27 2,2 °C 2,2 °C 93 % 1014,9 hPa 0,0 mm 4,6 km/h (1 Bft) W 267 ° 0 min 0,000 mm 0,0 UV-I 9 W/m² 1,2 °C 1,1 °C 6,4 km/h (2 Bft)
01.05.2017 19:28 2,2 °C 2,2 °C 93 % 1014,9 hPa 0,0 mm 6,0 km/h (2 Bft) W-SW 255 ° 0 min 0,000 mm 0,0 UV-I 9 W/m² 1,2 °C 0,5 °C 6,4 km/h (2 Bft)
01.05.2017 19:29 2,2 °C 2,2 °C 93 % 1014,9 hPa 0,0 mm 4,0 km/h (1 Bft) W 261 ° 0 min 0,000 mm 0,0 UV-I 9 W/m² 1,2 °C 2,2 °C 4,8 km/h (1 Bft)
01.05.2017 19:30 2,2 °C 2,2 °C 93 % 1014,9 hPa 0,0 mm 5,2 km/h (1 Bft) W-NW 283 ° 0 min 0,000 mm 0,0 UV-I 9 W/m² 1,2 °C 0,8 °C 11,3 km/h (2 Bft)
01.05.2017 19:31 2,2 °C 2,2 °C 93 % 1014,9 hPa 0,0 mm 9,2 km/h (2 Bft) W-SW 251 ° 0 min 0,000 mm 0,0 UV-I 9 W/m² 1,2 °C -0,5 °C 14,5 km/h (3 Bft)
01.05.2017 19:32 2,2 °C 2,2 °C 93 % 1015,0 hPa 0,0 mm 8,0 km/h (2 Bft) W 273 ° 0 min 0,000 mm 0,0 UV-I 9 W/m² 1,2 °C -0,2 °C 12,9 km/h (3 Bft)
01.05.2017 19:33 2,2 °C 2,2 °C 93 % 1015,0 hPa 0,0 mm 6,0 km/h (2 Bft) W 261 ° 0 min 0,000 mm 0,0 UV-I 7 W/m² 1,2 °C 0,5 °C 11,3 km/h (2 Bft)
01.05.2017 19:34 2,2 °C 2,2 °C 93 % 1014,9 hPa 0,0 mm 6,3 km/h (2 Bft) W-SW 257 ° 0 min 0,000 mm 0,0 UV-I 7 W/m² 1,2 °C 0,4 °C 9,7 km/h (2 Bft)
01.05.2017 19:35 2,2 °C 2,2 °C 93 % 1015,0 hPa 0,2 mm 5,5 km/h (1 Bft) W 261 ° 0 min 0,000 mm 0,0 UV-I 7 W/m² 1,2 °C 0,7 °C 9,7 km/h (2 Bft)
01.05.2017 19:36 2,2 °C 2,2 °C 93 % 1014,9 hPa 0,0 mm 6,1 km/h (2 Bft) W 259 ° 0 min 0,000 mm 0,0 UV-I 7 W/m² 1,2 °C 0,5 °C 11,3 km/h (2 Bft)
01.05.2017 19:37 2,1 °C 2,2 °C 93 % 1014,9 hPa 0,0 mm 9,3 km/h (2 Bft) W-SW 257 ° 0 min 0,000 mm 0,0 UV-I 7 W/m² 1,1 °C -0,6 °C 12,9 km/h (3 Bft)
01.05.2017 19:38 2,2 °C 2,2 °C 93 % 1014,9 hPa 0,0 mm 7,0 km/h (2 Bft) W-NW 289 ° 0 min 0,000 mm 0,0 UV-I 7 W/m² 1,2 °C 0,2 °C 11,3 km/h (2 Bft)
01.05.2017 19:39 2,1 °C 2,2 °C 93 % 1014,9 hPa 0,0 mm 5,0 km/h (1 Bft) W-SW 246 ° 0 min 0,000 mm 0,0 UV-I 7 W/m² 1,1 °C 0,8 °C 6,4 km/h (2 Bft)
01.05.2017 19:40 2,1 °C 2,2 °C 93 % 1014,9 hPa 0,0 mm 6,3 km/h (2 Bft) W 261 ° 0 min 0,000 mm 0,0 UV-I 7 W/m² 1,1 °C 0,3 °C 9,7 km/h (2 Bft)
01.05.2017 19:41 2,2 °C 2,2 °C 93 % 1014,9 hPa 0,0 mm 6,0 km/h (2 Bft) W-SW 251 ° 0 min 0,000 mm 0,0 UV-I 7 W/m² 1,2 °C 0,5 °C 9,7 km/h (2 Bft)
01.05.2017 19:42 2,2 °C 2,2 °C 93 % 1014,9 hPa 0,0 mm 6,0 km/h (2 Bft) W 267 ° 0 min 0,000 mm 0,0 UV-I 7 W/m² 1,2 °C 0,5 °C 9,7 km/h (2 Bft)
01.05.2017 19:43 2,1 °C 2,2 °C 93 % 1014,9 hPa 0,2 mm 9,8 km/h (2 Bft) W 276 ° 0 min 0,000 mm 0,0 UV-I 7 W/m² 1,1 °C -0,8 °C 16,1 km/h (3 Bft)
01.05.2017 19:44 2,2 °C 2,2 °C 93 % 1014,9 hPa 0,0 mm 9,2 km/h (2 Bft) S-SW 210 ° 0 min 0,000 mm 0,0 UV-I 7 W/m² 1,2 °C -0,5 °C 16,1 km/h (3 Bft)
01.05.2017 19:45 2,2 °C 2,2 °C 93 % 1014,9 hPa 0,0 mm 6,5 km/h (2 Bft) W-SW 246 ° 0 min 0,000 mm 0,0 UV-I 7 W/m² 1,2 °C 0,3 °C 9,7 km/h (2 Bft)
01.05.2017 19:46 2,1 °C 2,2 °C 93 % 1015,0 hPa 0,0 mm 6,8 km/h (2 Bft) W 266 ° 0 min 0,000 mm 0,0 UV-I 7 W/m² 1,1 °C 0,1 °C 11,3 km/h (2 Bft)
01.05.2017 19:47 2,1 °C 2,1 °C 93 % 1015,0 hPa 0,0 mm 8,3 km/h (2 Bft) W-SW 250 ° 0 min 0,000 mm 0,0 UV-I 7 W/m² 1,1 °C -0,4 °C 12,9 km/h (3 Bft)
01.05.2017 19:48 2,2 °C 2,2 °C 93 % 1015,0 hPa 0,0 mm 4,9 km/h (1 Bft) W 263 ° 0 min 0,000 mm 0,0 UV-I 7 W/m² 1,2 °C 1,0 °C 6,4 km/h (2 Bft)
01.05.2017 19:49 2,2 °C 2,2 °C 93 % 1015,0 hPa 0,0 mm 5,6 km/h (1 Bft) W-SW 252 ° 0 min 0,000 mm 0,0 UV-I 7 W/m² 1,2 °C 0,7 °C 9,7 km/h (2 Bft)
01.05.2017 19:50 2,2 °C 2,2 °C 93 % 1015,0 hPa 0,2 mm 6,8 km/h (2 Bft) W-SW 243 ° 0 min 0,000 mm 0,0 UV-I 5 W/m² 1,2 °C 0,2 °C 9,7 km/h (2 Bft)
01.05.2017 19:51 2,2 °C 2,2 °C 93 % 1015,1 hPa 0,0 mm 5,5 km/h (1 Bft) W-SW 247 ° 0 min 0,000 mm 0,0 UV-I 5 W/m² 1,2 °C 0,7 °C 6,4 km/h (2 Bft)
01.05.2017 19:52 2,2 °C 2,2 °C 93 % 1015,1 hPa 0,0 mm 4,1 km/h (1 Bft) W-SW 257 ° 0 min 0,000 mm 0,0 UV-I 5 W/m² 1,2 °C 2,2 °C 6,4 km/h (2 Bft)
01.05.2017 19:53 2,1 °C 2,2 °C 93 % 1015,0 hPa 0,0 mm 7,8 km/h (2 Bft) W-SW 256 ° 0 min 0,000 mm 0,0 UV-I 5 W/m² 1,1 °C -0,2 °C 11,3 km/h (2 Bft)
01.05.2017 19:54 2,2 °C 2,2 °C 93 % 1015,1 hPa 0,0 mm 6,4 km/h (2 Bft) W-SW 252 ° 0 min 0,000 mm 0,0 UV-I 5 W/m² 1,2 °C 0,4 °C 9,7 km/h (2 Bft)
01.05.2017 19:55 2,1 °C 2,2 °C 93 % 1015,1 hPa 0,0 mm 4,5 km/h (1 Bft) W-SW 257 ° 0 min 0,000 mm 0,0 UV-I 5 W/m² 1,1 °C 2,1 °C 6,4 km/h (2 Bft)
01.05.2017 19:56 2,1 °C 2,1 °C 93 % 1015,1 hPa 0,2 mm 4,8 km/h (1 Bft) W-SW 257 ° 0 min 0,000 mm 0,0 UV-I 5 W/m² 1,1 °C 0,9 °C 8,0 km/h (2 Bft)
01.05.2017 19:57 2,1 °C 2,1 °C 93 % 1015,1 hPa 0,0 mm 5,7 km/h (1 Bft) W 263 ° 0 min 0,000 mm 0,0 UV-I 5 W/m² 1,1 °C 0,5 °C 11,3 km/h (2 Bft)
01.05.2017 19:58 2,1 °C 2,1 °C 93 % 1015,1 hPa 0,0 mm 5,3 km/h (1 Bft) W-NW 299 ° 0 min 0,000 mm 0,0 UV-I 5 W/m² 1,1 °C 0,7 °C 11,3 km/h (2 Bft)
01.05.2017 19:59 2,1 °C 2,2 °C 93 % 1015,1 hPa 0,0 mm 8,0 km/h (2 Bft) W-SW 246 ° 0 min 0,000 mm 0,0 UV-I 5 W/m² 1,1 °C -0,3 °C 12,9 km/h (3 Bft)
01.05.2017 20:00 2,2 °C 2,2 °C 93 % 1015,2 hPa 0,2 mm 7,4 km/h (2 Bft) W 269 ° 0 min 0,000 mm 0,0 UV-I 5 W/m² 1,2 °C 0,0 °C 17,7 km/h (3 Bft)
01.05.2017 20:01 2,2 °C 2,2 °C 93 % 1015,2 hPa 0,0 mm 7,7 km/h (2 Bft) W-SW 254 ° 0 min 0,000 mm 0,0 UV-I 5 W/m² 1,2 °C -0,1 °C 11,3 km/h (2 Bft)
01.05.2017 20:02 2,2 °C 2,2 °C 93 % 1015,2 hPa 0,0 mm 10,8 km/h (2 Bft) W-SW 250 ° 0 min 0,000 mm 0,0 UV-I 5 W/m² 1,2 °C -0,9 °C 14,5 km/h (3 Bft)
01.05.2017 20:03 2,2 °C 2,2 °C 93 % 1015,2 hPa 0,0 mm 7,3 km/h (2 Bft) W-SW 256 ° 0 min 0,000 mm 0,0 UV-I 5 W/m² 1,2 °C 0,1 °C 12,9 km/h (3 Bft)
01.05.2017 20:04 2,2 °C 2,2 °C 92 % 1015,2 hPa 0,0 mm 4,7 km/h (1 Bft) SW 228 ° 0 min 0,000 mm 0,0 UV-I 5 W/m² 1,0 °C 1,0 °C 11,3 km/h (2 Bft)
01.05.2017 20:05 2,2 °C 2,2 °C 92 % 1015,2 hPa 0,2 mm 5,4 km/h (1 Bft) S-SW 195 ° 0 min 0,000 mm 0,0 UV-I 5 W/m² 1,0 °C 0,7 °C 8,0 km/h (2 Bft)
01.05.2017 20:06 2,2 °C 2,2 °C 92 % 1015,2 hPa 0,0 mm 6,6 km/h (2 Bft) W 260 ° 0 min 0,000 mm 0,0 UV-I 5 W/m² 1,0 °C 0,3 °C 12,9 km/h (3 Bft)
01.05.2017 20:07 2,2 °C 2,2 °C 92 % 1015,1 hPa 0,0 mm 6,4 km/h (2 Bft) SW 232 ° 0 min 0,000 mm 0,0 UV-I 5 W/m² 1,0 °C 0,4 °C 9,7 km/h (2 Bft)
01.05.2017 20:08 2,2 °C 2,2 °C 92 % 1015,2 hPa 0,0 mm 7,6 km/h (2 Bft) W-SW 246 ° 0 min 0,000 mm 0,0 UV-I 0 W/m² 1,0 °C -0,0 °C 14,5 km/h (3 Bft)
01.05.2017 20:09 2,2 °C 2,2 °C 92 % 1015,1 hPa 0,0 mm 6,2 km/h (2 Bft) W 262 ° 0 min 0,000 mm 0,0 UV-I 0 W/m² 1,0 °C 0,4 °C 9,7 km/h (2 Bft)
01.05.2017 20:10 2,2 °C 2,2 °C 92 % 1015,1 hPa 0,2 mm 5,0 km/h (1 Bft) W-SW 254 ° 0 min 0,000 mm 0,0 UV-I 0 W/m² 1,0 °C 0,9 °C 9,7 km/h (2 Bft)
01.05.2017 20:11 2,2 °C 2,2 °C 92 % 1015,1 hPa 0,0 mm 4,2 km/h (1 Bft) W 268 ° 0 min 0,000 mm 0,0 UV-I 0 W/m² 1,0 °C 2,2 °C 9,7 km/h (2 Bft)
01.05.2017 20:12 2,2 °C 2,2 °C 92 % 1015,1 hPa 0,0 mm 5,7 km/h (1 Bft) SW 232 ° 0 min 0,000 mm 0,0 UV-I 0 W/m² 1,0 °C 0,6 °C 9,7 km/h (2 Bft)
01.05.2017 20:13 2,2 °C 2,2 °C 92 % 1015,2 hPa 0,0 mm 10,8 km/h (2 Bft) W 279 ° 0 min 0,000 mm 0,0 UV-I 0 W/m² 1,0 °C -0,9 °C 14,5 km/h (3 Bft)
01.05.2017 20:14 2,2 °C 2,2 °C 92 % 1015,2 hPa 0,0 mm 5,8 km/h (2 Bft) W 275 ° 0 min 0,000 mm 0,0 UV-I 0 W/m² 1,0 °C 0,6 °C 9,7 km/h (2 Bft)
01.05.2017 20:15 2,2 °C 2,2 °C 93 % 1015,2 hPa 0,0 mm 5,7 km/h (1 Bft) W 259 ° 0 min 0,000 mm 0,0 UV-I 0 W/m² 1,2 °C 0,6 °C 11,3 km/h (2 Bft)
01.05.2017 20:16 2,2 °C 2,2 °C 93 % 1015,2 hPa 0,0 mm 3,5 km/h (1 Bft) W-SW 238 ° 0 min 0,000 mm 0,0 UV-I 0 W/m² 1,2 °C 2,2 °C 6,4 km/h (2 Bft)
01.05.2017 20:17 2,2 °C 2,2 °C 93 % 1015,2 hPa 0,2 mm 7,5 km/h (2 Bft) W-SW 254 ° 0 min 0,000 mm 0,0 UV-I 0 W/m² 1,2 °C -0,0 °C 12,9 km/h (3 Bft)
01.05.2017 20:18 2,2 °C 2,2 °C 93 % 1015,2 hPa 0,0 mm 5,9 km/h (2 Bft) W 266 ° 0 min 0,000 mm 0,0 UV-I 0 W/m² 1,2 °C 0,5 °C 11,3 km/h (2 Bft)
01.05.2017 20:19 2,2 °C 2,2 °C 93 % 1015,3 hPa 0,0 mm 8,3 km/h (2 Bft) W-SW 243 ° 0 min 0,000 mm 0,0 UV-I 0 W/m² 1,2 °C -0,2 °C 16,1 km/h (3 Bft)
01.05.2017 20:20 2,2 °C 2,2 °C 93 % 1015,2 hPa 0,0 mm 8,9 km/h (2 Bft) W-SW 238 ° 0 min 0,000 mm 0,0 UV-I 0 W/m² 1,2 °C -0,4 °C 12,9 km/h (3 Bft)
01.05.2017 20:21 2,2 °C 2,2 °C 93 % 1015,3 hPa 0,0 mm 5,8 km/h (2 Bft) W 265 ° 0 min 0,000 mm 0,0 UV-I 0 W/m² 1,2 °C 0,6 °C 11,3 km/h (2 Bft)
01.05.2017 20:22 2,2 °C 2,2 °C 93 % 1015,2 hPa 0,0 mm 3,8 km/h (1 Bft) W 262 ° 0 min 0,000 mm 0,0 UV-I 0 W/m² 1,2 °C 2,2 °C 6,4 km/h (2 Bft)
01.05.2017 20:23 2,2 °C 2,2 °C 93 % 1015,2 hPa 0,0 mm 4,7 km/h (1 Bft) W 259 ° 0 min 0,000 mm 0,0 UV-I 0 W/m² 1,2 °C 1,0 °C 6,4 km/h (2 Bft)
01.05.2017 20:24 2,2 °C 2,2 °C 93 % 1015,3 hPa 0,0 mm 4,7 km/h (1 Bft) W 260 ° 0 min 0,000 mm 0,0 UV-I 0 W/m² 1,2 °C 1,0 °C 11,3 km/h (2 Bft)
01.05.2017 20:25 2,2 °C 2,2 °C 93 % 1015,3 hPa 0,0 mm 2,9 km/h (1 Bft) W 271 ° 0 min 0,000 mm 0,0 UV-I 0 W/m² 1,2 °C 2,2 °C 4,8 km/h (1 Bft)
01.05.2017 20:26 2,2 °C 2,2 °C 93 % 1015,2 hPa 0,0 mm 10,4 km/h (2 Bft) W-SW 251 ° 0 min 0,000 mm 0,0 UV-I 0 W/m² 1,2 °C -0,8 °C 12,9 km/h (3 Bft)
01.05.2017 20:27 2,2 °C 2,2 °C 93 % 1015,3 hPa 0,2 mm 8,1 km/h (2 Bft) W 272 ° 0 min 0,000 mm 0,0 UV-I 0 W/m² 1,2 °C -0,2 °C 12,9 km/h (3 Bft)
01.05.2017 20:28 2,2 °C 2,2 °C 93 % 1015,2 hPa 0,0 mm 4,4 km/h (1 Bft) W 271 ° 0 min 0,000 mm 0,0 UV-I 0 W/m² 1,2 °C 2,2 °C 11,3 km/h (2 Bft)
01.05.2017 20:29 2,2 °C 2,2 °C 93 % 1015,3 hPa 0,0 mm 6,8 km/h (2 Bft) W-SW 242 ° 0 min 0,000 mm 0,0 UV-I 0 W/m² 1,2 °C 0,2 °C 9,7 km/h (2 Bft)
01.05.2017 20:30 2,2 °C 2,2 °C 93 % 1015,3 hPa 0,0 mm 6,4 km/h (2 Bft) W 261 ° 0 min 0,000 mm 0,0 UV-I 0 W/m² 1,2 °C 0,4 °C 9,7 km/h (2 Bft)
01.05.2017 20:31 2,1 °C 2,2 °C 93 % 1015,3 hPa 0,0 mm 5,6 km/h (1 Bft) W 262 ° 0 min 0,000 mm 0,0 UV-I 0 W/m² 1,1 °C 0,5 °C 11,3 km/h (2 Bft)
01.05.2017 20:32 2,1 °C 2,1 °C 93 % 1015,3 hPa 0,0 mm 4,1 km/h (1 Bft) W-SW 250 ° 0 min 0,000 mm 0,0 UV-I 0 W/m² 1,1 °C 2,1 °C 4,8 km/h (1 Bft)
01.05.2017 20:33 2,1 °C 2,2 °C 93 % 1015,4 hPa 0,0 mm 4,1 km/h (1 Bft) W-SW 251 ° 0 min 0,000 mm 0,0 UV-I 0 W/m² 1,1 °C 2,1 °C 6,4 km/h (2 Bft)
01.05.2017 20:34 2,1 °C 2,1 °C 93 % 1015,3 hPa 0,0 mm 7,0 km/h (2 Bft) W-SW 244 ° 0 min 0,000 mm 0,0 UV-I 0 W/m² 1,1 °C 0,0 °C 11,3 km/h (2 Bft)
01.05.2017 20:35 2,1 °C 2,1 °C 93 % 1015,4 hPa 0,0 mm 2,7 km/h (1 Bft) W-SW 244 ° 0 min 0,000 mm 0,0 UV-I 0 W/m² 1,1 °C 2,1 °C 3,2 km/h (1 Bft)
01.05.2017 20:36 2,1 °C 2,1 °C 93 % 1015,3 hPa 0,0 mm 6,4 km/h (2 Bft) SW 216 ° 0 min 0,000 mm 0,0 UV-I 0 W/m² 1,1 °C 0,2 °C 11,3 km/h (2 Bft)
01.05.2017 20:37 2,1 °C 2,1 °C 93 % 1015,4 hPa 0,2 mm 3,6 km/h (1 Bft) SW 223 ° 0 min 0,000 mm 0,0 UV-I 0 W/m² 1,1 °C 2,1 °C 6,4 km/h (2 Bft)
01.05.2017 20:38 2,1 °C 2,1 °C 93 % 1015,4 hPa 0,0 mm 2,3 km/h (1 Bft) W-SW 242 ° 0 min 0,000 mm 0,0 UV-I 0 W/m² 1,1 °C 2,1 °C 3,2 km/h (1 Bft)
01.05.2017 20:39 2,1 °C 2,1 °C 93 % 1015,4 hPa 0,0 mm 5,2 km/h (1 Bft) W-SW 250 ° 0 min 0,000 mm 0,0 UV-I 0 W/m² 1,1 °C 0,7 °C 8,0 km/h (2 Bft)
01.05.2017 20:40 2,1 °C 2,1 °C 93 % 1015,4 hPa 0,0 mm 3,5 km/h (1 Bft) SW 234 ° 0 min 0,000 mm 0,0 UV-I 0 W/m² 1,1 °C 2,1 °C 6,4 km/h (2 Bft)
01.05.2017 20:41 2,1 °C 2,1 °C 93 % 1015,4 hPa 0,0 mm 5,5 km/h (1 Bft) W-SW 257 ° 0 min 0,000 mm 0,0 UV-I 0 W/m² 1,1 °C 0,6 °C 9,7 km/h (2 Bft)
01.05.2017 20:42 2,1 °C 2,1 °C 93 % 1015,4 hPa 0,0 mm 3,9 km/h (1 Bft) W-SW 257 ° 0 min 0,000 mm 0,0 UV-I 0 W/m² 1,1 °C 2,1 °C 4,8 km/h (1 Bft)
01.05.2017 20:43 2,1 °C 2,1 °C 93 % 1015,3 hPa 0,0 mm 3,3 km/h (1 Bft) SW 214 ° 0 min 0,000 mm 0,0 UV-I 0 W/m² 1,1 °C 2,1 °C 4,8 km/h (1 Bft)
01.05.2017 20:44 2,1 °C 2,1 °C 93 % 1015,3 hPa 0,2 mm 2,5 km/h (1 Bft) S-SW 209 ° 0 min 0,000 mm 0,0 UV-I 0 W/m² 1,1 °C 2,1 °C 6,4 km/h (2 Bft)
01.05.2017 20:45 2,1 °C 2,1 °C 93 % 1015,4 hPa 0,0 mm 4,9 km/h (1 Bft) W 264 ° 0 min 0,000 mm 0,0 UV-I 0 W/m² 1,1 °C 0,8 °C 9,7 km/h (2 Bft)
01.05.2017 20:46 2,1 °C 2,1 °C 93 % 1015,4 hPa 0,0 mm 5,4 km/h (1 Bft) W-SW 255 ° 0 min 0,000 mm 0,0 UV-I 0 W/m² 1,1 °C 0,6 °C 8,0 km/h (2 Bft)
01.05.2017 20:47 2,1 °C 2,1 °C 93 % 1015,4 hPa 0,0 mm 2,4 km/h (1 Bft) SW 221 ° 0 min 0,000 mm 0,0 UV-I 0 W/m² 1,1 °C 2,1 °C 3,2 km/h (1 Bft)
01.05.2017 20:48 2,1 °C 2,1 °C 93 % 1015,3 hPa 0,0 mm 4,0 km/h (1 Bft) W 259 ° 0 min 0,000 mm 0,0 UV-I 0 W/m² 1,1 °C 2,1 °C 6,4 km/h (2 Bft)
01.05.2017 20:49 2,1 °C 2,1 °C 93 % 1015,4 hPa 0,0 mm 3,8 km/h (1 Bft) W-SW 237 ° 0 min 0,000 mm 0,0 UV-I 0 W/m² 1,1 °C 2,1 °C 4,8 km/h (1 Bft)
01.05.2017 20:50 2,1 °C 2,1 °C 93 % 1015,4 hPa 0,0 mm 1,3 km/h (1 Bft) W-SW 251 ° 0 min 0,000 mm 0,0 UV-I 0 W/m² 1,1 °C 2,1 °C 3,2 km/h (1 Bft)
01.05.2017 20:51 2,1 °C 2,1 °C 93 % 1015,4 hPa 0,0 mm 4,0 km/h (1 Bft) W-SW 250 ° 0 min 0,000 mm 0,0 UV-I 0 W/m² 1,1 °C 2,1 °C 6,4 km/h (2 Bft)
01.05.2017 20:52 2,1 °C 2,1 °C 93 % 1015,4 hPa 0,0 mm 4,5 km/h (1 Bft) W-SW 251 ° 0 min 0,000 mm 0,0 UV-I 0 W/m² 1,1 °C 2,1 °C 8,0 km/h (2 Bft)
01.05.2017 20:53 2,1 °C 2,1 °C 93 % 1015,4 hPa 0,0 mm 4,8 km/h (1 Bft) W-SW 258 ° 0 min 0,000 mm 0,0 UV-I 0 W/m² 1,1 °C 0,9 °C 6,4 km/h (2 Bft)
01.05.2017 20:54 2,1 °C 2,1 °C 93 % 1015,4 hPa 0,0 mm 3,8 km/h (1 Bft) W-SW 258 ° 0 min 0,000 mm 0,0 UV-I 0 W/m² 1,1 °C 2,1 °C 6,4 km/h (2 Bft)
01.05.2017 20:55 2,1 °C 2,1 °C 93 % 1015,4 hPa 0,0 mm 2,2 km/h (1 Bft) W-SW 258 ° 0 min 0,000 mm 0,0 UV-I 0 W/m² 1,1 °C 2,1 °C 4,8 km/h (1 Bft)
01.05.2017 20:56 2,1 °C 2,1 °C 93 % 1015,4 hPa 0,2 mm 1,3 km/h (1 Bft) W-SW 244 ° 0 min 0,000 mm 0,0 UV-I 0 W/m² 1,1 °C 2,1 °C 3,2 km/h (1 Bft)
01.05.2017 20:57 2,1 °C 2,1 °C 93 % 1015,4 hPa 0,0 mm 2,4 km/h (1 Bft) W-SW 249 ° 0 min 0,000 mm 0,0 UV-I 0 W/m² 1,1 °C 2,1 °C 3,2 km/h (1 Bft)
01.05.2017 20:58 2,1 °C 2,1 °C 93 % 1015,4 hPa 0,0 mm 3,0 km/h (1 Bft) W 261 ° 0 min 0,000 mm 0,0 UV-I 0 W/m² 1,1 °C 2,1 °C 4,8 km/h (1 Bft)
01.05.2017 20:59 2,1 °C 2,2 °C 93 % 1015,4 hPa 0,0 mm 3,9 km/h (1 Bft) W-SW 252 ° 0 min 0,000 mm 0,0 UV-I 0 W/m² 1,1 °C 2,1 °C 6,4 km/h (2 Bft)
01.05.2017 21:00 2,2 °C 2,2 °C 93 % 1015,4 hPa 0,0 mm 3,5 km/h (1 Bft) W-SW 253 ° 0 min 0,000 mm 0,0 UV-I 0 W/m² 1,2 °C 2,2 °C 4,8 km/h (1 Bft)
01.05.2017 21:01 2,2 °C 2,2 °C 93 % 1015,4 hPa 0,0 mm 2,3 km/h (1 Bft) S-SW 213 ° 0 min 0,000 mm 0,0 UV-I 0 W/m² 1,2 °C 2,2 °C 3,2 km/h (1 Bft)
01.05.2017 21:02 2,2 °C 2,2 °C 93 % 1015,4 hPa 0,0 mm 2,7 km/h (1 Bft) W-SW 248 ° 0 min 0,000 mm 0,0 UV-I 0 W/m² 1,2 °C 2,2 °C 4,8 km/h (1 Bft)
01.05.2017 21:03 2,2 °C 2,2 °C 93 % 1015,4 hPa 0,0 mm 1,3 km/h (1 Bft) W-SW 248 ° 0 min 0,000 mm 0,0 UV-I 0 W/m² 1,2 °C 2,2 °C 3,2 km/h (1 Bft)
01.05.2017 21:04 2,2 °C 2,2 °C 93 % 1015,4 hPa 0,0 mm 3,8 km/h (1 Bft) W-SW 250 ° 0 min 0,000 mm 0,0 UV-I 0 W/m² 1,2 °C 2,2 °C 6,4 km/h (2 Bft)
01.05.2017 21:05 2,2 °C 2,2 °C 93 % 1015,4 hPa 0,0 mm 3,1 km/h (1 Bft) S-SW 205 ° 0 min 0,000 mm 0,0 UV-I 0 W/m² 1,2 °C 2,2 °C 6,4 km/h (2 Bft)
01.05.2017 21:06 2,3 °C 2,3 °C 93 % 1015,4 hPa 0,0 mm 3,0 km/h (1 Bft) W 275 ° 0 min 0,000 mm 0,0 UV-I 0 W/m² 1,3 °C 2,3 °C 9,7 km/h (2 Bft)
01.05.2017 21:07 2,3 °C 2,3 °C 93 % 1015,4 hPa 0,0 mm 3,8 km/h (1 Bft) W 266 ° 0 min 0,000 mm 0,0 UV-I 0 W/m² 1,3 °C 2,3 °C 6,4 km/h (2 Bft)
01.05.2017 21:08 2,3 °C 2,3 °C 93 % 1015,4 hPa 0,0 mm 5,6 km/h (1 Bft) W-SW 238 ° 0 min 0,000 mm 0,0 UV-I 0 W/m² 1,3 °C 0,8 °C 8,0 km/h (2 Bft)
01.05.2017 21:09 2,3 °C 2,3 °C 93 % 1015,4 hPa 0,0 mm 4,1 km/h (1 Bft) W 262 ° 0 min 0,000 mm 0,0 UV-I 0 W/m² 1,3 °C 2,3 °C 6,4 km/h (2 Bft)
01.05.2017 21:10 2,3 °C 2,3 °C 93 % 1015,5 hPa 0,2 mm 5,0 km/h (1 Bft) W 261 ° 0 min 0,000 mm 0,0 UV-I 0 W/m² 1,3 °C 1,0 °C 6,4 km/h (2 Bft)
01.05.2017 21:11 2,3 °C 2,3 °C 93 % 1015,5 hPa 0,0 mm 2,7 km/h (1 Bft) W-SW 244 ° 0 min 0,000 mm 0,0 UV-I 0 W/m² 1,3 °C 2,3 °C 6,4 km/h (2 Bft)
01.05.2017 21:12 2,3 °C 2,3 °C 93 % 1015,5 hPa 0,0 mm 1,5 km/h (1 Bft) W-SW 250 ° 0 min 0,000 mm 0,0 UV-I 0 W/m² 1,3 °C 2,3 °C 3,2 km/h (1 Bft)
01.05.2017 21:13 2,3 °C 2,3 °C 93 % 1015,5 hPa 0,0 mm 3,1 km/h (1 Bft) W-SW 251 ° 0 min 0,000 mm 0,0 UV-I 0 W/m² 1,3 °C 2,3 °C 6,4 km/h (2 Bft)
01.05.2017 21:14 2,3 °C 2,3 °C 93 % 1015,6 hPa 0,0 mm 2,9 km/h (1 Bft) W-SW 251 ° 0 min 0,000 mm 0,0 UV-I 0 W/m² 1,3 °C 2,3 °C 6,4 km/h (2 Bft)
01.05.2017 21:15 2,3 °C 2,3 °C 93 % 1015,5 hPa 0,0 mm 5,0 km/h (1 Bft) SW 224 ° 0 min 0,000 mm 0,0 UV-I 0 W/m² 1,3 °C 1,0 °C 9,7 km/h (2 Bft)
01.05.2017 21:16 2,3 °C 2,3 °C 93 % 1015,6 hPa 0,0 mm 1,4 km/h (1 Bft) S-SW 212 ° 0 min 0,000 mm 0,0 UV-I 0 W/m² 1,3 °C 2,3 °C 4,8 km/h (1 Bft)
01.05.2017 21:17 2,3 °C 2,3 °C 93 % 1015,6 hPa 0,0 mm 2,3 km/h (1 Bft) W 261 ° 0 min 0,000 mm 0,0 UV-I 0 W/m² 1,3 °C 2,3 °C 6,4 km/h (2 Bft)
01.05.2017 21:18 2,4 °C 2,4 °C 93 % 1015,6 hPa 0,0 mm 6,0 km/h (2 Bft) W 266 ° 0 min 0,000 mm 0,0 UV-I 0 W/m² 1,4 °C 0,7 °C 9,7 km/h (2 Bft)
01.05.2017 21:19 2,4 °C 2,4 °C 93 % 1015,6 hPa 0,2 mm 4,5 km/h (1 Bft) W-SW 246 ° 0 min 0,000 mm 0,0 UV-I 0 W/m² 1,4 °C 2,4 °C 6,4 km/h (2 Bft)
01.05.2017 21:20 2,4 °C 2,4 °C 93 % 1015,6 hPa 0,0 mm 1,7 km/h (1 Bft) SW 228 ° 0 min 0,000 mm 0,0 UV-I 0 W/m² 1,4 °C 2,4 °C 6,4 km/h (2 Bft)
01.05.2017 21:21 2,4 °C 2,4 °C 93 % 1015,6 hPa 0,0 mm 3,1 km/h (1 Bft) W 271 ° 0 min 0,000 mm 0,0 UV-I 0 W/m² 1,4 °C 2,4 °C 6,4 km/h (2 Bft)
01.05.2017 21:22 2,4 °C 2,4 °C 93 % 1015,6 hPa 0,0 mm 5,0 km/h (1 Bft) W-SW 242 ° 0 min 0,000 mm 0,0 UV-I 0 W/m² 1,4 °C 1,1 °C 8,0 km/h (2 Bft)
01.05.2017 21:23 2,4 °C 2,4 °C 93 % 1015,6 hPa 0,0 mm 1,7 km/h (1 Bft) W-SW 242 ° 0 min 0,000 mm 0,0 UV-I 0 W/m² 1,4 °C 2,4 °C 3,2 km/h (1 Bft)
01.05.2017 21:24 2,4 °C 2,4 °C 93 % 1015,6 hPa 0,0 mm 2,2 km/h (1 Bft) SW 228 ° 0 min 0,000 mm 0,0 UV-I 0 W/m² 1,4 °C 2,4 °C 4,8 km/h (1 Bft)
01.05.2017 21:25 2,4 °C 2,4 °C 93 % 1015,6 hPa 0,0 mm 4,1 km/h (1 Bft) W-SW 243 ° 0 min 0,000 mm 0,0 UV-I 0 W/m² 1,4 °C 2,4 °C 9,7 km/h (2 Bft)
01.05.2017 21:26 2,4 °C 2,4 °C 93 % 1015,7 hPa 0,0 mm 3,4 km/h (1 Bft) SW 227 ° 0 min 0,000 mm 0,0 UV-I 0 W/m² 1,4 °C 2,4 °C 4,8 km/h (1 Bft)
01.05.2017 21:27 2,4 °C 2,4 °C 93 % 1015,7 hPa 0,0 mm 2,3 km/h (1 Bft) W 259 ° 0 min 0,000 mm 0,0 UV-I 0 W/m² 1,4 °C 2,4 °C 4,8 km/h (1 Bft)
01.05.2017 21:28 2,4 °C 2,4 °C 93 % 1015,7 hPa 0,0 mm 4,1 km/h (1 Bft) W-SW 238 ° 0 min 0,000 mm 0,0 UV-I 0 W/m² 1,4 °C 2,4 °C 6,4 km/h (2 Bft)
01.05.2017 21:29 2,4 °C 2,4 °C 93 % 1015,7 hPa 0,0 mm 5,0 km/h (1 Bft) W-NW 284 ° 0 min 0,000 mm 0,0 UV-I 0 W/m² 1,4 °C 1,1 °C 8,0 km/h (2 Bft)
01.05.2017 21:30 2,4 °C 2,4 °C 93 % 1015,7 hPa 0,2 mm 5,7 km/h (1 Bft) W-SW 250 ° 0 min 0,000 mm 0,0 UV-I 0 W/m² 1,4 °C 0,8 °C 9,7 km/h (2 Bft)
01.05.2017 21:31 2,4 °C 2,4 °C 93 % 1015,7 hPa 0,0 mm 3,6 km/h (1 Bft) W-SW 249 ° 0 min 0,000 mm 0,0 UV-I 0 W/m² 1,4 °C 2,4 °C 6,4 km/h (2 Bft)
01.05.2017 21:32 2,4 °C 2,4 °C 93 % 1015,7 hPa 0,0 mm 3,0 km/h (1 Bft) W-SW 251 ° 0 min 0,000 mm 0,0 UV-I 0 W/m² 1,4 °C 2,4 °C 4,8 km/h (1 Bft)
01.05.2017 21:33 2,4 °C 2,4 °C 93 % 1015,7 hPa 0,0 mm 5,1 km/h (1 Bft) S-SW 193 ° 0 min 0,000 mm 0,0 UV-I 0 W/m² 1,4 °C 1,1 °C 6,4 km/h (2 Bft)
01.05.2017 21:34 2,4 °C 2,4 °C 93 % 1015,7 hPa 0,0 mm 2,5 km/h (1 Bft) S 189 ° 0 min 0,000 mm 0,0 UV-I 0 W/m² 1,4 °C 2,4 °C 4,8 km/h (1 Bft)
01.05.2017 21:35 2,4 °C 2,4 °C 93 % 1015,7 hPa 0,0 mm 6,5 km/h (2 Bft) W 263 ° 0 min 0,000 mm 0,0 UV-I 0 W/m² 1,4 °C 0,6 °C 11,3 km/h (2 Bft)
01.05.2017 21:36 2,4 °C 2,4 °C 93 % 1015,7 hPa 0,0 mm 2,5 km/h (1 Bft) W 263 ° 0 min 0,000 mm 0,0 UV-I 0 W/m² 1,4 °C 2,4 °C 3,2 km/h (1 Bft)
01.05.2017 21:37 2,4 °C 2,4 °C 93 % 1015,7 hPa 0,2 mm 4,1 km/h (1 Bft) W 263 ° 0 min 0,000 mm 0,0 UV-I 0 W/m² 1,4 °C 2,4 °C 9,7 km/h (2 Bft)
01.05.2017 21:38 2,4 °C 2,4 °C 93 % 1015,7 hPa 0,0 mm 7,0 km/h (2 Bft) W-SW 245 ° 0 min 0,000 mm 0,0 UV-I 0 W/m² 1,4 °C 0,4 °C 16,1 km/h (3 Bft)
01.05.2017 21:39 2,4 °C 2,4 °C 93 % 1015,7 hPa 0,0 mm 7,3 km/h (2 Bft) S 186 ° 0 min 0,000 mm 0,0 UV-I 0 W/m² 1,4 °C 0,3 °C 12,9 km/h (3 Bft)
01.05.2017 21:40 2,4 °C 2,4 °C 92 % 1015,7 hPa 0,0 mm 2,6 km/h (1 Bft) SW 230 ° 0 min 0,000 mm 0,0 UV-I 0 W/m² 1,2 °C 2,4 °C 4,8 km/h (1 Bft)
01.05.2017 21:41 2,4 °C 2,5 °C 92 % 1015,7 hPa 0,0 mm 3,6 km/h (1 Bft) W-SW 240 ° 0 min 0,000 mm 0,0 UV-I 0 W/m² 1,2 °C 2,4 °C 6,4 km/h (2 Bft)
01.05.2017 21:42 2,4 °C 2,4 °C 92 % 1015,7 hPa 0,0 mm 2,7 km/h (1 Bft) S-SW 207 ° 0 min 0,000 mm 0,0 UV-I 0 W/m² 1,2 °C 2,4 °C 4,8 km/h (1 Bft)
01.05.2017 21:43 2,4 °C 2,4 °C 92 % 1015,7 hPa 0,0 mm 5,2 km/h (1 Bft) W 267 ° 0 min 0,000 mm 0,0 UV-I 0 W/m² 1,2 °C 1,0 °C 9,7 km/h (2 Bft)
01.05.2017 21:44 2,5 °C 2,5 °C 92 % 1015,7 hPa 0,0 mm 3,4 km/h (1 Bft) SW 230 ° 0 min 0,000 mm 0,0 UV-I 0 W/m² 1,3 °C 2,5 °C 4,8 km/h (1 Bft)
01.05.2017 21:45 2,4 °C 2,5 °C 92 % 1015,7 hPa 0,0 mm 1,7 km/h (1 Bft) W 269 ° 0 min 0,000 mm 0,0 UV-I 0 W/m² 1,2 °C 2,4 °C 4,8 km/h (1 Bft)
01.05.2017 21:46 2,5 °C 2,5 °C 92 % 1015,7 hPa 0,0 mm 4,5 km/h (1 Bft) S-SW 209 ° 0 min 0,000 mm 0,0 UV-I 0 W/m² 1,3 °C 2,5 °C 6,4 km/h (2 Bft)
01.05.2017 21:47 2,4 °C 2,5 °C 92 % 1015,7 hPa 0,0 mm 4,5 km/h (1 Bft) SW 223 ° 0 min 0,000 mm 0,0 UV-I 0 W/m² 1,2 °C 2,4 °C 6,4 km/h (2 Bft)
01.05.2017 21:48 2,5 °C 2,5 °C 92 % 1015,7 hPa 0,0 mm 6,2 km/h (2 Bft) W-SW 255 ° 0 min 0,000 mm 0,0 UV-I 0 W/m² 1,3 °C 0,8 °C 11,3 km/h (2 Bft)
01.05.2017 21:49 2,5 °C 2,5 °C 92 % 1015,7 hPa 0,0 mm 5,4 km/h (1 Bft) W-SW 257 ° 0 min 0,000 mm 0,0 UV-I 0 W/m² 1,3 °C 1,1 °C 8,0 km/h (2 Bft)
01.05.2017 21:50 2,5 °C 2,5 °C 92 % 1015,7 hPa 0,0 mm 4,1 km/h (1 Bft) W 266 ° 0 min 0,000 mm 0,0 UV-I 0 W/m² 1,3 °C 2,5 °C 11,3 km/h (2 Bft)
01.05.2017 21:51 2,5 °C 2,6 °C 92 % 1015,7 hPa 0,0 mm 4,8 km/h (1 Bft) W-SW 251 ° 0 min 0,000 mm 0,0 UV-I 0 W/m² 1,3 °C 1,3 °C 6,4 km/h (2 Bft)
01.05.2017 21:52 2,5 °C 2,6 °C 92 % 1015,8 hPa 0,0 mm 1,7 km/h (1 Bft) W-SW 249 ° 0 min 0,000 mm 0,0 UV-I 0 W/m² 1,3 °C 2,5 °C 4,8 km/h (1 Bft)
01.05.2017 21:53 2,5 °C 2,6 °C 92 % 1015,7 hPa 0,0 mm 5,8 km/h (2 Bft) W-SW 258 ° 0 min 0,000 mm 0,0 UV-I 0 W/m² 1,3 °C 0,9 °C 6,4 km/h (2 Bft)
01.05.2017 21:54 2,5 °C 2,6 °C 93 % 1015,8 hPa 0,0 mm 4,2 km/h (1 Bft) W-SW 258 ° 0 min 0,000 mm 0,0 UV-I 0 W/m² 1,5 °C 2,5 °C 4,8 km/h (1 Bft)
01.05.2017 21:55 2,6 °C 2,6 °C 93 % 1015,8 hPa 0,0 mm 1,6 km/h (1 Bft) SW 221 ° 0 min 0,000 mm 0,0 UV-I 0 W/m² 1,6 °C 2,6 °C 4,8 km/h (1 Bft)
01.05.2017 21:56 2,6 °C 2,6 °C 93 % 1015,7 hPa 0,2 mm 4,6 km/h (1 Bft) S-SW 208 ° 0 min 0,000 mm 0,0 UV-I 0 W/m² 1,6 °C 1,5 °C 6,4 km/h (2 Bft)
01.05.2017 21:57 2,6 °C 2,6 °C 93 % 1015,7 hPa 0,0 mm 4,5 km/h (1 Bft) W-SW 254 ° 0 min 0,000 mm 0,0 UV-I 0 W/m² 1,6 °C 2,6 °C 6,4 km/h (2 Bft)
01.05.2017 21:58 2,6 °C 2,6 °C 92 % 1015,7 hPa 0,0 mm 2,9 km/h (1 Bft) W 271 ° 0 min 0,000 mm 0,0 UV-I 0 W/m² 1,4 °C 2,6 °C 4,8 km/h (1 Bft)
01.05.2017 21:59 2,6 °C 2,6 °C 92 % 1015,7 hPa 0,0 mm 2,1 km/h (1 Bft) W 281 ° 0 min 0,000 mm 0,0 UV-I 0 W/m² 1,4 °C 2,6 °C 4,8 km/h (1 Bft)
01.05.2017 22:00 2,6 °C 2,6 °C 93 % 1015,6 hPa 0,0 mm 5,8 km/h (2 Bft) S-SW 208 ° 0 min 0,000 mm 0,0 UV-I 0 W/m² 1,6 °C 1,0 °C 11,3 km/h (2 Bft)
01.05.2017 22:01 2,6 °C 2,6 °C 93 % 1015,7 hPa 0,0 mm 3,4 km/h (1 Bft) SW 232 ° 0 min 0,000 mm 0,0 UV-I 0 W/m² 1,6 °C 2,6 °C 6,4 km/h (2 Bft)
01.05.2017 22:02 2,6 °C 2,6 °C 93 % 1015,7 hPa 0,0 mm 4,4 km/h (1 Bft) W-SW 242 ° 0 min 0,000 mm 0,0 UV-I 0 W/m² 1,6 °C 2,6 °C 6,4 km/h (2 Bft)
01.05.2017 22:03 2,6 °C 2,6 °C 92 % 1015,7 hPa 0,0 mm 2,9 km/h (1 Bft) SW 225 ° 0 min 0,000 mm 0,0 UV-I 0 W/m² 1,4 °C 2,6 °C 6,4 km/h (2 Bft)
01.05.2017 22:04 2,6 °C 2,7 °C 92 % 1015,7 hPa 0,0 mm 3,9 km/h (1 Bft) W-SW 250 ° 0 min 0,000 mm 0,0 UV-I 0 W/m² 1,4 °C 2,6 °C 6,4 km/h (2 Bft)
01.05.2017 22:05 2,7 °C 2,7 °C 92 % 1015,7 hPa 0,0 mm 3,6 km/h (1 Bft) W-SW 255 ° 0 min 0,000 mm 0,0 UV-I 0 W/m² 1,5 °C 2,7 °C 8,0 km/h (2 Bft)
01.05.2017 22:06 2,7 °C 2,7 °C 92 % 1015,7 hPa 0,0 mm 5,6 km/h (1 Bft) SW 227 ° 0 min 0,000 mm 0,0 UV-I 0 W/m² 1,5 °C 1,2 °C 9,7 km/h (2 Bft)
01.05.2017 22:07 2,7 °C 2,7 °C 92 % 1015,7 hPa 0,0 mm 2,3 km/h (1 Bft) W-SW 249 ° 0 min 0,000 mm 0,0 UV-I 0 W/m² 1,5 °C 2,7 °C 3,2 km/h (1 Bft)
01.05.2017 22:08 2,7 °C 2,7 °C 92 % 1015,7 hPa 0,0 mm 2,7 km/h (1 Bft) W-SW 237 ° 0 min 0,000 mm 0,0 UV-I 0 W/m² 1,5 °C 2,7 °C 4,8 km/h (1 Bft)
01.05.2017 22:09 2,7 °C 2,7 °C 92 % 1015,7 hPa 0,0 mm 4,8 km/h (1 Bft) W-NW 284 ° 0 min 0,000 mm 0,0 UV-I 0 W/m² 1,5 °C 1,6 °C 8,0 km/h (2 Bft)
01.05.2017 22:10 2,7 °C 2,7 °C 92 % 1015,8 hPa 0,0 mm 6,1 km/h (2 Bft) S 181 ° 0 min 0,000 mm 0,0 UV-I 0 W/m² 1,5 °C 1,0 °C 11,3 km/h (2 Bft)
01.05.2017 22:11 2,7 °C 2,7 °C 92 % 1015,7 hPa 0,0 mm 4,7 km/h (1 Bft) S-SW 202 ° 0 min 0,000 mm 0,0 UV-I 0 W/m² 1,5 °C 1,6 °C 8,0 km/h (2 Bft)
01.05.2017 22:12 2,7 °C 2,7 °C 92 % 1015,7 hPa 0,0 mm 5,0 km/h (1 Bft) W-SW 257 ° 0 min 0,000 mm 0,0 UV-I 0 W/m² 1,5 °C 1,5 °C 8,0 km/h (2 Bft)
01.05.2017 22:13 2,8 °C 2,8 °C 92 % 1015,7 hPa 0,0 mm 2,6 km/h (1 Bft) W-SW 254 ° 0 min 0,000 mm 0,0 UV-I 0 W/m² 1,6 °C 2,8 °C 3,2 km/h (1 Bft)
01.05.2017 22:14 2,7 °C 2,8 °C 92 % 1015,7 hPa 0,0 mm 5,8 km/h (2 Bft) W-SW 253 ° 0 min 0,000 mm 0,0 UV-I 0 W/m² 1,5 °C 1,2 °C 9,7 km/h (2 Bft)
01.05.2017 22:15 2,7 °C 2,8 °C 92 % 1015,7 hPa 0,0 mm 7,4 km/h (2 Bft) S-SW 200 ° 0 min 0,000 mm 0,0 UV-I 0 W/m² 1,5 °C 0,6 °C 11,3 km/h (2 Bft)
01.05.2017 22:16 2,7 °C 2,8 °C 92 % 1015,7 hPa 0,0 mm 4,7 km/h (1 Bft) W-SW 258 ° 0 min 0,000 mm 0,0 UV-I 0 W/m² 1,5 °C 1,6 °C 8,0 km/h (2 Bft)
01.05.2017 22:17 2,8 °C 2,8 °C 92 % 1015,6 hPa 0,2 mm 4,1 km/h (1 Bft) W 262 ° 0 min 0,000 mm 0,0 UV-I 0 W/m² 1,6 °C 2,8 °C 6,4 km/h (2 Bft)
01.05.2017 22:18 2,8 °C 2,8 °C 92 % 1015,6 hPa 0,0 mm 5,9 km/h (2 Bft) W 271 ° 0 min 0,000 mm 0,0 UV-I 0 W/m² 1,6 °C 1,2 °C 11,3 km/h (2 Bft)
01.05.2017 22:19 2,8 °C 2,8 °C 92 % 1015,6 hPa 0,0 mm 9,9 km/h (2 Bft) SW 222 ° 0 min 0,000 mm 0,0 UV-I 0 W/m² 1,6 °C 0,1 °C 14,5 km/h (3 Bft)
01.05.2017 22:20 2,8 °C 2,8 °C 92 % 1015,6 hPa 0,0 mm 3,8 km/h (1 Bft) SW 234 ° 0 min 0,000 mm 0,0 UV-I 0 W/m² 1,6 °C 2,8 °C 6,4 km/h (2 Bft)
01.05.2017 22:21 2,7 °C 2,8 °C 92 % 1015,6 hPa 0,0 mm 4,6 km/h (1 Bft) S-SW 192 ° 0 min 0,000 mm 0,0 UV-I 0 W/m² 1,5 °C 1,7 °C 11,3 km/h (2 Bft)
01.05.2017 22:22 2,7 °C 2,8 °C 92 % 1015,6 hPa 0,0 mm 6,6 km/h (2 Bft) W-SW 251 ° 0 min 0,000 mm 0,0 UV-I 0 W/m² 1,5 °C 0,9 °C 11,3 km/h (2 Bft)
01.05.2017 22:23 2,7 °C 2,8 °C 92 % 1015,6 hPa 0,0 mm 5,3 km/h (1 Bft) S 186 ° 0 min 0,000 mm 0,0 UV-I 0 W/m² 1,5 °C 1,3 °C 8,0 km/h (2 Bft)
01.05.2017 22:24 2,7 °C 2,7 °C 92 % 1015,7 hPa 0,0 mm 5,0 km/h (1 Bft) W 261 ° 0 min 0,000 mm 0,0 UV-I 0 W/m² 1,5 °C 1,5 °C 6,4 km/h (2 Bft)
01.05.2017 22:25 2,7 °C 2,8 °C 92 % 1015,7 hPa 0,0 mm 4,3 km/h (1 Bft) W-SW 254 ° 0 min 0,000 mm 0,0 UV-I 0 W/m² 1,5 °C 2,7 °C 8,0 km/h (2 Bft)
01.05.2017 22:26 2,7 °C 2,8 °C 92 % 1015,7 hPa 0,0 mm 6,9 km/h (2 Bft) W 269 ° 0 min 0,000 mm 0,0 UV-I 0 W/m² 1,5 °C 0,8 °C 9,7 km/h (2 Bft)
01.05.2017 22:27 2,8 °C 2,8 °C 92 % 1015,6 hPa 0,0 mm 3,8 km/h (1 Bft) W 268 ° 0 min 0,000 mm 0,0 UV-I 0 W/m² 1,6 °C 2,8 °C 6,4 km/h (2 Bft)
01.05.2017 22:28 2,7 °C 2,8 °C 92 % 1015,6 hPa 0,0 mm 2,3 km/h (1 Bft) W 268 ° 0 min 0,000 mm 0,0 UV-I 0 W/m² 1,5 °C 2,7 °C 3,2 km/h (1 Bft)
01.05.2017 22:29 2,7 °C 2,8 °C 92 % 1015,6 hPa 0,0 mm 3,6 km/h (1 Bft) W-SW 254 ° 0 min 0,000 mm 0,0 UV-I 0 W/m² 1,5 °C 2,7 °C 6,4 km/h (2 Bft)
01.05.2017 22:30 2,7 °C 2,7 °C 92 % 1015,7 hPa 0,2 mm 4,1 km/h (1 Bft) W-SW 256 ° 0 min 0,000 mm 0,0 UV-I 0 W/m² 1,5 °C 2,7 °C 6,4 km/h (2 Bft)
01.05.2017 22:31 2,7 °C 2,7 °C 92 % 1015,6 hPa 0,0 mm 3,2 km/h (1 Bft) W 271 ° 0 min 0,000 mm 0,0 UV-I 0 W/m² 1,5 °C 2,7 °C 4,8 km/h (1 Bft)
01.05.2017 22:32 2,7 °C 2,7 °C 92 % 1015,7 hPa 0,0 mm 3,0 km/h (1 Bft) S-SW 209 ° 0 min 0,000 mm 0,0 UV-I 0 W/m² 1,5 °C 2,7 °C 4,8 km/h (1 Bft)
01.05.2017 22:33 2,7 °C 2,7 °C 92 % 1015,7 hPa 0,0 mm 4,6 km/h (1 Bft) W-SW 254 ° 0 min 0,000 mm 0,0 UV-I 0 W/m² 1,5 °C 1,7 °C 11,3 km/h (2 Bft)
01.05.2017 22:34 2,7 °C 2,7 °C 92 % 1015,7 hPa 0,0 mm 7,9 km/h (2 Bft) W-SW 250 ° 0 min 0,000 mm 0,0 UV-I 0 W/m² 1,5 °C 0,5 °C 14,5 km/h (3 Bft)
01.05.2017 22:35 2,7 °C 2,7 °C 92 % 1015,7 hPa 0,0 mm 3,2 km/h (1 Bft) W-SW 256 ° 0 min 0,000 mm 0,0 UV-I 0 W/m² 1,5 °C 2,7 °C 4,8 km/h (1 Bft)
01.05.2017 22:36 2,7 °C 2,8 °C 92 % 1015,8 hPa 0,0 mm 7,3 km/h (2 Bft) W-SW 252 ° 0 min 0,000 mm 0,0 UV-I 0 W/m² 1,5 °C 0,6 °C 14,5 km/h (3 Bft)
01.05.2017 22:37 2,8 °C 2,8 °C 92 % 1015,8 hPa 0,0 mm 5,3 km/h (1 Bft) W 262 ° 0 min 0,000 mm 0,0 UV-I 0 W/m² 1,6 °C 1,5 °C 11,3 km/h (2 Bft)
01.05.2017 22:38 2,8 °C 2,8 °C 92 % 1015,8 hPa 0,0 mm 3,4 km/h (1 Bft) W-SW 246 ° 0 min 0,000 mm 0,0 UV-I 0 W/m² 1,6 °C 2,8 °C 6,4 km/h (2 Bft)
01.05.2017 22:39 2,8 °C 2,8 °C 92 % 1015,8 hPa 0,0 mm 0,8 km/h (0 Bft) W-SW 246 ° 0 min 0,000 mm 0,0 UV-I 0 W/m² 1,6 °C 2,8 °C 1,6 km/h (1 Bft)
01.05.2017 22:40 2,8 °C 2,8 °C 92 % 1015,8 hPa 0,0 mm 1,2 km/h (1 Bft) W-SW 246 ° 0 min 0,000 mm 0,0 UV-I 0 W/m² 1,6 °C 2,8 °C 3,2 km/h (1 Bft)
01.05.2017 22:41 2,8 °C 2,8 °C 92 % 1015,8 hPa 0,0 mm 1,7 km/h (1 Bft) W-SW 249 ° 0 min 0,000 mm 0,0 UV-I 0 W/m² 1,6 °C 2,8 °C 3,2 km/h (1 Bft)
01.05.2017 22:42 2,8 °C 2,8 °C 92 % 1015,8 hPa 0,0 mm 2,8 km/h (1 Bft) W-SW 255 ° 0 min 0,000 mm 0,0 UV-I 0 W/m² 1,6 °C 2,8 °C 4,8 km/h (1 Bft)
01.05.2017 22:43 2,8 °C 2,8 °C 92 % 1015,8 hPa 0,2 mm 2,9 km/h (1 Bft) W-SW 243 ° 0 min 0,000 mm 0,0 UV-I 0 W/m² 1,6 °C 2,8 °C 4,8 km/h (1 Bft)
01.05.2017 22:44 2,8 °C 2,8 °C 92 % 1015,8 hPa 0,0 mm 1,6 km/h (1 Bft) W-SW 256 ° 0 min 0,000 mm 0,0 UV-I 0 W/m² 1,6 °C 2,8 °C 4,8 km/h (1 Bft)
01.05.2017 22:45 2,8 °C 2,8 °C 92 % 1015,8 hPa 0,0 mm 2,9 km/h (1 Bft) SW 227 ° 0 min 0,000 mm 0,0 UV-I 0 W/m² 1,6 °C 2,8 °C 4,8 km/h (1 Bft)
01.05.2017 22:46 2,8 °C 2,8 °C 92 % 1015,8 hPa 0,0 mm 4,1 km/h (1 Bft) W-SW 256 ° 0 min 0,000 mm 0,0 UV-I 0 W/m² 1,6 °C 2,8 °C 6,4 km/h (2 Bft)
01.05.2017 22:47 2,8 °C 2,8 °C 92 % 1015,8 hPa 0,0 mm 3,1 km/h (1 Bft) W-SW 244 ° 0 min 0,000 mm 0,0 UV-I 0 W/m² 1,6 °C 2,8 °C 4,8 km/h (1 Bft)
01.05.2017 22:48 2,7 °C 2,8 °C 92 % 1015,8 hPa 0,0 mm 4,3 km/h (1 Bft) W 259 ° 0 min 0,000 mm 0,0 UV-I 0 W/m² 1,5 °C 2,7 °C 9,7 km/h (2 Bft)
01.05.2017 22:49 2,8 °C 2,8 °C 92 % 1015,8 hPa 0,0 mm 2,6 km/h (1 Bft) W-SW 242 ° 0 min 0,000 mm 0,0 UV-I 0 W/m² 1,6 °C 2,8 °C 3,2 km/h (1 Bft)
01.05.2017 22:50 2,8 °C 2,8 °C 92 % 1015,8 hPa 0,0 mm 4,1 km/h (1 Bft) W-SW 252 ° 0 min 0,000 mm 0,0 UV-I 0 W/m² 1,6 °C 2,8 °C 6,4 km/h (2 Bft)
01.05.2017 22:51 2,8 °C 2,8 °C 92 % 1015,8 hPa 0,0 mm 1,7 km/h (1 Bft) W-SW 252 ° 0 min 0,000 mm 0,0 UV-I 0 W/m² 1,6 °C 2,8 °C 3,2 km/h (1 Bft)
01.05.2017 22:52 2,8 °C 2,8 °C 92 % 1015,8 hPa 0,2 mm 1,4 km/h (1 Bft) W-SW 252 ° 0 min 0,000 mm 0,0 UV-I 0 W/m² 1,6 °C 2,8 °C 3,2 km/h (1 Bft)
01.05.2017 22:53 2,8 °C 2,8 °C 92 % 1015,9 hPa 0,0 mm 0,8 km/h (0 Bft) S-SW 204 ° 0 min 0,000 mm 0,0 UV-I 0 W/m² 1,6 °C 2,8 °C 4,8 km/h (1 Bft)
01.05.2017 22:54 2,8 °C 2,8 °C 92 % 1015,8 hPa 0,0 mm 1,2 km/h (1 Bft) S 187 ° 0 min 0,000 mm 0,0 UV-I 0 W/m² 1,6 °C 2,8 °C 6,4 km/h (2 Bft)
01.05.2017 22:55 2,8 °C 2,8 °C 92 % 1015,8 hPa 0,0 mm 1,6 km/h (1 Bft) W-SW 240 ° 0 min 0,000 mm 0,0 UV-I 0 W/m² 1,6 °C 2,8 °C 4,8 km/h (1 Bft)
01.05.2017 22:56 2,8 °C 2,8 °C 92 % 1015,9 hPa 0,0 mm 2,0 km/h (1 Bft) W-SW 241 ° 0 min 0,000 mm 0,0 UV-I 0 W/m² 1,6 °C 2,8 °C 3,2 km/h (1 Bft)
01.05.2017 22:57 2,8 °C 2,8 °C 92 % 1015,8 hPa 0,0 mm 3,4 km/h (1 Bft) W 265 ° 0 min 0,000 mm 0,0 UV-I 0 W/m² 1,6 °C 2,8 °C 6,4 km/h (2 Bft)
01.05.2017 22:58 2,8 °C 2,8 °C 92 % 1015,9 hPa 0,0 mm 3,6 km/h (1 Bft) W-SW 240 ° 0 min 0,000 mm 0,0 UV-I 0 W/m² 1,6 °C 2,8 °C 4,8 km/h (1 Bft)
01.05.2017 22:59 2,8 °C 2,8 °C 92 % 1015,8 hPa 0,0 mm 4,0 km/h (1 Bft) W-SW 242 ° 0 min 0,000 mm 0,0 UV-I 0 W/m² 1,6 °C 2,8 °C 6,4 km/h (2 Bft)
01.05.2017 23:00 2,8 °C 2,8 °C 92 % 1015,8 hPa 0,2 mm 2,7 km/h (1 Bft) W 270 ° 0 min 0,000 mm 0,0 UV-I 0 W/m² 1,6 °C 2,8 °C 4,8 km/h (1 Bft)
01.05.2017 23:01 2,7 °C 2,8 °C 92 % 1015,9 hPa 0,0 mm 1,6 km/h (1 Bft) W 260 ° 0 min 0,000 mm 0,0 UV-I 0 W/m² 1,5 °C 2,7 °C 4,8 km/h (1 Bft)
01.05.2017 23:02 2,7 °C 2,7 °C 92 % 1015,9 hPa 0,0 mm 3,4 km/h (1 Bft) W-SW 258 ° 0 min 0,000 mm 0,0 UV-I 0 W/m² 1,5 °C 2,7 °C 4,8 km/h (1 Bft)
01.05.2017 23:03 2,7 °C 2,7 °C 92 % 1015,8 hPa 0,0 mm 3,0 km/h (1 Bft) W-SW 255 ° 0 min 0,000 mm 0,0 UV-I 0 W/m² 1,5 °C 2,7 °C 6,4 km/h (2 Bft)
01.05.2017 23:04 2,7 °C 2,7 °C 92 % 1015,8 hPa 0,0 mm 4,8 km/h (1 Bft) W-SW 256 ° 0 min 0,000 mm 0,0 UV-I 0 W/m² 1,5 °C 1,6 °C 6,4 km/h (2 Bft)
01.05.2017 23:05 2,7 °C 2,7 °C 92 % 1015,8 hPa 0,0 mm 2,7 km/h (1 Bft) W-SW 256 ° 0 min 0,000 mm 0,0 UV-I 0 W/m² 1,5 °C 2,7 °C 4,8 km/h (1 Bft)
01.05.2017 23:06 2,7 °C 2,7 °C 92 % 1015,8 hPa 0,0 mm 4,1 km/h (1 Bft) W 274 ° 0 min 0,000 mm 0,0 UV-I 0 W/m² 1,5 °C 2,7 °C 9,7 km/h (2 Bft)
01.05.2017 23:07 2,7 °C 2,7 °C 92 % 1015,8 hPa 0,2 mm 5,0 km/h (1 Bft) W 259 ° 0 min 0,000 mm 0,0 UV-I 0 W/m² 1,5 °C 1,5 °C 6,4 km/h (2 Bft)
01.05.2017 23:08 2,7 °C 2,7 °C 92 % 1015,8 hPa 0,0 mm 1,7 km/h (1 Bft) W 259 ° 0 min 0,000 mm 0,0 UV-I 0 W/m² 1,5 °C 2,7 °C 3,2 km/h (1 Bft)
01.05.2017 23:09 2,7 °C 2,7 °C 92 % 1015,7 hPa 0,0 mm 1,2 km/h (1 Bft) W 259 ° 0 min 0,000 mm 0,0 UV-I 0 W/m² 1,5 °C 2,7 °C 4,8 km/h (1 Bft)
01.05.2017 23:10 2,7 °C 2,7 °C 92 % 1015,8 hPa 0,0 mm 4,5 km/h (1 Bft) SW 223 ° 0 min 0,000 mm 0,0 UV-I 0 W/m² 1,5 °C 2,7 °C 8,0 km/h (2 Bft)
01.05.2017 23:11 2,7 °C 2,7 °C 92 % 1015,8 hPa 0,0 mm 3,5 km/h (1 Bft) W-SW 252 ° 0 min 0,000 mm 0,0 UV-I 0 W/m² 1,5 °C 2,7 °C 4,8 km/h (1 Bft)
01.05.2017 23:12 2,7 °C 2,7 °C 93 % 1015,8 hPa 0,0 mm 3,3 km/h (1 Bft) W 270 ° 0 min 0,000 mm 0,0 UV-I 0 W/m² 1,7 °C 2,7 °C 6,4 km/h (2 Bft)
01.05.2017 23:13 2,7 °C 2,7 °C 93 % 1015,7 hPa 0,0 mm 6,0 km/h (2 Bft) W-SW 238 ° 0 min 0,000 mm 0,0 UV-I 0 W/m² 1,7 °C 1,1 °C 6,4 km/h (2 Bft)
01.05.2017 23:14 2,7 °C 2,7 °C 93 % 1015,7 hPa 0,0 mm 3,0 km/h (1 Bft) W-SW 237 ° 0 min 0,000 mm 0,0 UV-I 0 W/m² 1,7 °C 2,7 °C 4,8 km/h (1 Bft)
01.05.2017 23:15 2,7 °C 2,7 °C 93 % 1015,7 hPa 0,0 mm 3,1 km/h (1 Bft) W-SW 254 ° 0 min 0,000 mm 0,0 UV-I 0 W/m² 1,7 °C 2,7 °C 6,4 km/h (2 Bft)
01.05.2017 23:16 2,7 °C 2,7 °C 93 % 1015,8 hPa 0,2 mm 5,0 km/h (1 Bft) W-SW 251 ° 0 min 0,000 mm 0,0 UV-I 0 W/m² 1,7 °C 1,5 °C 9,7 km/h (2 Bft)
01.05.2017 23:17 2,7 °C 2,7 °C 93 % 1015,8 hPa 0,0 mm 5,0 km/h (1 Bft) W-SW 250 ° 0 min 0,000 mm 0,0 UV-I 0 W/m² 1,7 °C 1,5 °C 8,0 km/h (2 Bft)
01.05.2017 23:18 2,7 °C 2,7 °C 93 % 1015,8 hPa 0,0 mm 4,0 km/h (1 Bft) W-SW 253 ° 0 min 0,000 mm 0,0 UV-I 0 W/m² 1,7 °C 2,7 °C 4,8 km/h (1 Bft)
01.05.2017 23:19 2,7 °C 2,7 °C 92 % 1015,8 hPa 0,0 mm 1,9 km/h (1 Bft) W-SW 253 ° 0 min 0,000 mm 0,0 UV-I 0 W/m² 1,5 °C 2,7 °C 3,2 km/h (1 Bft)
01.05.2017 23:20 2,7 °C 2,7 °C 92 % 1015,8 hPa 0,0 mm 5,2 km/h (1 Bft) W-SW 247 ° 0 min 0,000 mm 0,0 UV-I 0 W/m² 1,5 °C 1,4 °C 6,4 km/h (2 Bft)
01.05.2017 23:21 2,7 °C 2,7 °C 93 % 1015,8 hPa 0,0 mm 1,9 km/h (1 Bft) W-SW 249 ° 0 min 0,000 mm 0,0 UV-I 0 W/m² 1,7 °C 2,7 °C 3,2 km/h (1 Bft)
01.05.2017 23:22 2,7 °C 2,7 °C 93 % 1015,8 hPa 0,0 mm 3,2 km/h (1 Bft) W 266 ° 0 min 0,000 mm 0,0 UV-I 0 W/m² 1,7 °C 2,7 °C 4,8 km/h (1 Bft)
01.05.2017 23:23 2,7 °C 2,7 °C 93 % 1015,9 hPa 0,0 mm 3,4 km/h (1 Bft) W-SW 258 ° 0 min 0,000 mm 0,0 UV-I 0 W/m² 1,7 °C 2,7 °C 6,4 km/h (2 Bft)
01.05.2017 23:24 2,7 °C 2,7 °C 93 % 1015,8 hPa 0,0 mm 4,1 km/h (1 Bft) W-SW 254 ° 0 min 0,000 mm 0,0 UV-I 0 W/m² 1,7 °C 2,7 °C 6,4 km/h (2 Bft)
01.05.2017 23:25 2,7 °C 2,7 °C 93 % 1015,8 hPa 0,0 mm 2,6 km/h (1 Bft) W-SW 254 ° 0 min 0,000 mm 0,0 UV-I 0 W/m² 1,7 °C 2,7 °C 3,2 km/h (1 Bft)
01.05.2017 23:26 2,7 °C 2,7 °C 93 % 1015,8 hPa 0,2 mm 3,7 km/h (1 Bft) W 260 ° 0 min 0,000 mm 0,0 UV-I 0 W/m² 1,7 °C 2,7 °C 6,4 km/h (2 Bft)
01.05.2017 23:27 2,7 °C 2,7 °C 93 % 1015,9 hPa 0,0 mm 5,3 km/h (1 Bft) SW 223 ° 0 min 0,000 mm 0,0 UV-I 0 W/m² 1,7 °C 1,3 °C 8,0 km/h (2 Bft)
01.05.2017 23:28 2,7 °C 2,7 °C 93 % 1015,8 hPa 0,0 mm 2,5 km/h (1 Bft) W-SW 254 ° 0 min 0,000 mm 0,0 UV-I 0 W/m² 1,7 °C 2,7 °C 4,8 km/h (1 Bft)
01.05.2017 23:29 2,7 °C 2,7 °C 93 % 1015,9 hPa 0,0 mm 2,6 km/h (1 Bft) W-SW 254 ° 0 min 0,000 mm 0,0 UV-I 0 W/m² 1,7 °C 2,7 °C 3,2 km/h (1 Bft)
01.05.2017 23:30 2,6 °C 2,7 °C 93 % 1015,8 hPa 0,0 mm 4,3 km/h (1 Bft) S 191 ° 0 min 0,000 mm 0,0 UV-I 0 W/m² 1,6 °C 2,6 °C 8,0 km/h (2 Bft)
01.05.2017 23:31 2,6 °C 2,7 °C 93 % 1015,8 hPa 0,0 mm 3,8 km/h (1 Bft) W-SW 254 ° 0 min 0,000 mm 0,0 UV-I 0 W/m² 1,6 °C 2,6 °C 6,4 km/h (2 Bft)
01.05.2017 23:32 2,6 °C 2,6 °C 93 % 1015,8 hPa 0,0 mm 2,1 km/h (1 Bft) W-SW 254 ° 0 min 0,000 mm 0,0 UV-I 0 W/m² 1,6 °C 2,6 °C 3,2 km/h (1 Bft)
01.05.2017 23:33 2,6 °C 2,6 °C 93 % 1015,8 hPa 0,0 mm 3,8 km/h (1 Bft) W-SW 254 ° 0 min 0,000 mm 0,0 UV-I 0 W/m² 1,6 °C 2,6 °C 4,8 km/h (1 Bft)
01.05.2017 23:34 2,6 °C 2,6 °C 93 % 1015,8 hPa 0,0 mm 4,3 km/h (1 Bft) W-SW 252 ° 0 min 0,000 mm 0,0 UV-I 0 W/m² 1,6 °C 2,6 °C 11,3 km/h (2 Bft)
01.05.2017 23:35 2,6 °C 2,6 °C 93 % 1015,8 hPa 0,0 mm 7,6 km/h (2 Bft) W 265 ° 0 min 0,000 mm 0,0 UV-I 0 W/m² 1,6 °C 0,4 °C 11,3 km/h (2 Bft)
01.05.2017 23:36 2,6 °C 2,6 °C 93 % 1015,8 hPa 0,0 mm 3,3 km/h (1 Bft) SW 236 ° 0 min 0,000 mm 0,0 UV-I 0 W/m² 1,6 °C 2,6 °C 6,4 km/h (2 Bft)
01.05.2017 23:37 2,6 °C 2,6 °C 93 % 1015,8 hPa 0,2 mm 0,9 km/h (0 Bft) SW 236 ° 0 min 0,000 mm 0,0 UV-I 0 W/m² 1,6 °C 2,6 °C 3,2 km/h (1 Bft)
01.05.2017 23:38 2,6 °C 2,6 °C 93 % 1015,9 hPa 0,0 mm 0,9 km/h (0 Bft) SW 236 ° 0 min 0,000 mm 0,0 UV-I 0 W/m² 1,6 °C 2,6 °C 1,6 km/h (1 Bft)
01.05.2017 23:39 2,6 °C 2,6 °C 93 % 1015,9 hPa 0,0 mm 2,4 km/h (1 Bft) W-SW 239 ° 0 min 0,000 mm 0,0 UV-I 0 W/m² 1,6 °C 2,6 °C 3,2 km/h (1 Bft)
01.05.2017 23:40 2,6 °C 2,6 °C 93 % 1015,9 hPa 0,0 mm 0,5 km/h (0 Bft) W-SW 239 ° 0 min 0,000 mm 0,0 UV-I 0 W/m² 1,6 °C 2,6 °C 1,6 km/h (1 Bft)
01.05.2017 23:41 2,6 °C 2,6 °C 93 % 1015,9 hPa 0,0 mm 0,8 km/h (0 Bft) W-SW 239 ° 0 min 0,000 mm 0,0 UV-I 0 W/m² 1,6 °C 2,6 °C 3,2 km/h (1 Bft)
01.05.2017 23:42 2,6 °C 2,6 °C 93 % 1015,9 hPa 0,0 mm 2,0 km/h (1 Bft) W-SW 239 ° 0 min 0,000 mm 0,0 UV-I 0 W/m² 1,6 °C 2,6 °C 3,2 km/h (1 Bft)
01.05.2017 23:43 2,6 °C 2,6 °C 93 % 1015,9 hPa 0,0 mm 1,4 km/h (1 Bft) W-SW 239 ° 0 min 0,000 mm 0,0 UV-I 0 W/m² 1,6 °C 2,6 °C 3,2 km/h (1 Bft)
01.05.2017 23:44 2,6 °C 2,6 °C 93 % 1015,9 hPa 0,0 mm 0,5 km/h (0 Bft) W-SW 239 ° 0 min 0,000 mm 0,0 UV-I 0 W/m² 1,6 °C 2,6 °C 1,6 km/h (1 Bft)
01.05.2017 23:45 2,6 °C 2,6 °C 93 % 1015,9 hPa 0,0 mm 0,0 km/h (0 Bft) W-SW 239 ° 0 min 0,000 mm 0,0 UV-I 0 W/m² 1,6 °C 2,6 °C 0,0 km/h (0 Bft)
01.05.2017 23:46 2,6 °C 2,6 °C 93 % 1015,9 hPa 0,0 mm 0,0 km/h (0 Bft) W-SW 239 ° 0 min 0,000 mm 0,0 UV-I 0 W/m² 1,6 °C 2,6 °C 0,0 km/h (0 Bft)
01.05.2017 23:47 2,6 °C 2,6 °C 93 % 1015,8 hPa 0,0 mm 0,2 km/h (0 Bft) W-SW 239 ° 0 min 0,000 mm 0,0 UV-I 0 W/m² 1,6 °C 2,6 °C 1,6 km/h (1 Bft)
01.05.2017 23:48 2,6 °C 2,6 °C 93 % 1015,8 hPa 0,2 mm 0,0 km/h (0 Bft) W-SW 239 ° 0 min 0,000 mm 0,0 UV-I 0 W/m² 1,6 °C 2,6 °C 0,0 km/h (0 Bft)
01.05.2017 23:49 2,6 °C 2,6 °C 93 % 1015,8 hPa 0,0 mm 0,0 km/h (0 Bft) W-SW 239 ° 0 min 0,000 mm 0,0 UV-I 0 W/m² 1,6 °C 2,6 °C 0,0 km/h (0 Bft)
01.05.2017 23:50 2,6 °C 2,6 °C 93 % 1015,9 hPa 0,0 mm 0,0 km/h (0 Bft) W-SW 239 ° 0 min 0,000 mm 0,0 UV-I 0 W/m² 1,6 °C 2,6 °C 0,0 km/h (0 Bft)
01.05.2017 23:51 2,6 °C 2,6 °C 93 % 1015,8 hPa 0,0 mm 3,6 km/h (1 Bft) W 263 ° 0 min 0,000 mm 0,0 UV-I 0 W/m² 1,6 °C 2,6 °C 6,4 km/h (2 Bft)
01.05.2017 23:52 2,6 °C 2,6 °C 93 % 1015,9 hPa 0,0 mm 0,8 km/h (0 Bft) W 263 ° 0 min 0,000 mm 0,0 UV-I 0 W/m² 1,6 °C 2,6 °C 1,6 km/h (1 Bft)
01.05.2017 23:53 2,6 °C 2,6 °C 93 % 1015,8 hPa 0,0 mm 0,0 km/h (0 Bft) W 263 ° 0 min 0,000 mm 0,0 UV-I 0 W/m² 1,6 °C 2,6 °C 0,0 km/h (0 Bft)
01.05.2017 23:54 2,6 °C 2,6 °C 93 % 1015,9 hPa 0,0 mm 0,0 km/h (0 Bft) W 263 ° 0 min 0,000 mm 0,0 UV-I 0 W/m² 1,6 °C 2,6 °C 0,0 km/h (0 Bft)
01.05.2017 23:55 2,6 °C 2,6 °C 93 % 1015,9 hPa 0,0 mm 0,2 km/h (0 Bft) W 263 ° 0 min 0,000 mm 0,0 UV-I 0 W/m² 1,6 °C 2,6 °C 1,6 km/h (1 Bft)
01.05.2017 23:56 2,6 °C 2,6 °C 93 % 1015,9 hPa 0,0 mm 1,1 km/h (1 Bft) W 263 ° 0 min 0,000 mm 0,0 UV-I 0 W/m² 1,6 °C 2,6 °C 1,6 km/h (1 Bft)
01.05.2017 23:57 2,6 °C 2,6 °C 93 % 1015,9 hPa 0,2 mm 0,6 km/h (0 Bft) W 263 ° 0 min 0,000 mm 0,0 UV-I 0 W/m² 1,6 °C 2,6 °C 3,2 km/h (1 Bft)
01.05.2017 23:58 2,6 °C 2,6 °C 93 % 1015,9 hPa 0,0 mm 2,7 km/h (1 Bft) W 263 ° 0 min 0,000 mm 0,0 UV-I 0 W/m² 1,6 °C 2,6 °C 3,2 km/h (1 Bft)
01.05.2017 23:59 2,6 °C 2,6 °C 93 % 1015,9 hPa 0,0 mm 3,0 km/h (1 Bft) W 263 ° 0 min 0,000 mm 0,0 UV-I 0 W/m² 1,6 °C 2,6 °C 3,2 km/h (1 Bft)
_ Min-Zeit 04:26 04:26 08:08 06:07 - 23:54 - - - - - - 04:24 15:38 23:54
Minimum _ 0,5 °C 0,6 °C 55 % 1005,2 hPa - 0,0 km/h (0 Bft) - - - - - - -1,7 °C -2,9 °C 0,0 km/h (0 Bft)
_ Max-Zeit 10:15 10:16 23:59 23:59 23:57 14:39 - - 11:22 10:01 10:39 10:17 10:14 10:15 14:03
Maximum _ 10,6 °C 10,6 °C 93 % 1015,9 hPa 0,2 mm 24,9 km/h
W (4 Bft)
- - 1 min 0,254 mm 4,4 UV-I 763 W/m² 6,0 °C 10,6 °C 33,8 km/h
W-SW (5 Bft)
Durchschnitt _ 4,2 °C 4,2 °C 84 % 1010,3 hPa #16,0 mm 6,5 km/h (2 Bft) W - #2:13 h #1,092 mm 1,6 UV-I 83 W/m² 1,6 °C 3,1 °C 10,2 km/h (2 Bft)